<?xml version='1.0' encoding='UTF-8'?><gpx version="1.1" creator="JPX - https://github.com/jenetics/jpx" xmlns="http://www.topografix.com/GPX/1/1"><trk><trkseg><trkpt lat="45.1187299" lon="1.2977993"><ele>218.0</ele><time>2026-04-02T07:09:39.933Z</time></trkpt><trkpt lat="45.1186905" lon="1.297711"><ele>218.0</ele><time>2026-04-02T07:10:23.932Z</time></trkpt><trkpt lat="45.1187517" lon="1.2976768"><ele>218.0</ele><time>2026-04-02T07:10:31.847Z</time></trkpt><trkpt lat="45.1187734" lon="1.2975928"><ele>218.0</ele><time>2026-04-02T07:10:35.933Z</time></trkpt><trkpt lat="45.1187629" lon="1.2974993"><ele>218.0</ele><time>2026-04-02T07:10:40.932Z</time></trkpt><trkpt lat="45.118704" lon="1.2975569"><ele>218.0</ele><time>2026-04-02T07:10:46.933Z</time></trkpt><trkpt lat="45.1186831" lon="1.2976523"><ele>218.0</ele><time>2026-04-02T07:11:40.934Z</time></trkpt><trkpt lat="45.1186832" lon="1.2977525"><ele>218.00000000000003</ele><time>2026-04-02T07:11:45.934Z</time></trkpt><trkpt lat="45.1186221" lon="1.2977923"><ele>218.0</ele><time>2026-04-02T07:14:36.933Z</time></trkpt><trkpt lat="45.1185909" lon="1.2979254"><ele>218.0</ele><time>2026-04-02T07:14:39.934Z</time></trkpt><trkpt lat="45.1185903" lon="1.2980392"><ele>218.0</ele><time>2026-04-02T07:14:41.882Z</time></trkpt><trkpt lat="45.1185409" lon="1.2981098"><ele>218.00000000000003</ele><time>2026-04-02T07:14:44.934Z</time></trkpt><trkpt lat="45.1184978" lon="1.2982221"><ele>218.0</ele><time>2026-04-02T07:14:48.907Z</time></trkpt><trkpt lat="45.1184152" lon="1.2981905"><ele>218.00000000000003</ele><time>2026-04-02T07:14:49.932Z</time></trkpt><trkpt lat="45.1183116" lon="1.2981338"><ele>218.0</ele><time>2026-04-02T07:14:51.933Z</time></trkpt><trkpt lat="45.1182503" lon="1.2981057"><ele>218.0</ele><time>2026-04-02T07:14:52.933Z</time></trkpt><trkpt lat="45.1181783" lon="1.2980802"><ele>218.0</ele><time>2026-04-02T07:14:53.934Z</time></trkpt><trkpt lat="45.1181049" lon="1.2980578"><ele>218.00000000000003</ele><time>2026-04-02T07:14:54.934Z</time></trkpt><trkpt lat="45.1180342" lon="1.2980384"><ele>218.0</ele><time>2026-04-02T07:14:55.934Z</time></trkpt><trkpt lat="45.1179652" lon="1.2980182"><ele>219.42857142857144</ele><time>2026-04-02T07:14:56.932Z</time></trkpt><trkpt lat="45.1179" lon="1.2979966"><ele>220.85714285714286</ele><time>2026-04-02T07:14:57.933Z</time></trkpt><trkpt lat="45.1178347" lon="1.2979773"><ele>222.28571428571428</ele><time>2026-04-02T07:14:58.934Z</time></trkpt><trkpt lat="45.1177687" lon="1.2979436"><ele>223.71428571428572</ele><time>2026-04-02T07:14:59.933Z</time></trkpt><trkpt lat="45.1177135" lon="1.2978867"><ele>225.1428571428571</ele><time>2026-04-02T07:15:00.933Z</time></trkpt><trkpt lat="45.1176589" lon="1.2978215"><ele>226.57142857142856</ele><time>2026-04-02T07:15:01.932Z</time></trkpt><trkpt lat="45.1175978" lon="1.2977467"><ele>228.0</ele><time>2026-04-02T07:15:02.933Z</time></trkpt><trkpt lat="45.1175382" lon="1.2976803"><ele>228.0</ele><time>2026-04-02T07:15:03.933Z</time></trkpt><trkpt lat="45.1174739" lon="1.297623"><ele>228.0</ele><time>2026-04-02T07:15:04.934Z</time></trkpt><trkpt lat="45.1174131" lon="1.2975703"><ele>228.0</ele><time>2026-04-02T07:15:05.933Z</time></trkpt><trkpt lat="45.1173656" lon="1.2975078"><ele>228.0</ele><time>2026-04-02T07:15:06.933Z</time></trkpt><trkpt lat="45.1173445" lon="1.2973427"><ele>228.0</ele><time>2026-04-02T07:15:08.934Z</time></trkpt><trkpt lat="45.1173468" lon="1.2972263"><ele>228.0</ele><time>2026-04-02T07:15:09.934Z</time></trkpt><trkpt lat="45.1173453" lon="1.2971142"><ele>230.83333333333334</ele><time>2026-04-02T07:15:10.934Z</time></trkpt><trkpt lat="45.1173363" lon="1.2970037"><ele>233.66666666666669</ele><time>2026-04-02T07:15:11.934Z</time></trkpt><trkpt lat="45.1173124" lon="1.2969132"><ele>236.5</ele><time>2026-04-02T07:15:12.933Z</time></trkpt><trkpt lat="45.1172798" lon="1.2968109"><ele>239.33333333333334</ele><time>2026-04-02T07:15:13.933Z</time></trkpt><trkpt lat="45.1172468" lon="1.2967158"><ele>242.16666666666669</ele><time>2026-04-02T07:15:14.932Z</time></trkpt><trkpt lat="45.1172032" lon="1.296649"><ele>245.0</ele><time>2026-04-02T07:15:15.933Z</time></trkpt><trkpt lat="45.1170968" lon="1.2965965"><ele>245.00000000000003</ele><time>2026-04-02T07:15:17.932Z</time></trkpt><trkpt lat="45.1169976" lon="1.2965162"><ele>245.0</ele><time>2026-04-02T07:15:19.933Z</time></trkpt><trkpt lat="45.1169534" lon="1.296451"><ele>245.0</ele><time>2026-04-02T07:15:20.934Z</time></trkpt><trkpt lat="45.1169046" lon="1.296391"><ele>245.0</ele><time>2026-04-02T07:15:21.933Z</time></trkpt><trkpt lat="45.1168604" lon="1.2963133"><ele>245.00000000000003</ele><time>2026-04-02T07:15:22.933Z</time></trkpt><trkpt lat="45.1168166" lon="1.2962422"><ele>245.0</ele><time>2026-04-02T07:15:23.933Z</time></trkpt><trkpt lat="45.1167596" lon="1.2961844"><ele>245.71428571428572</ele><time>2026-04-02T07:15:24.933Z</time></trkpt><trkpt lat="45.1166925" lon="1.2961357"><ele>246.42857142857144</ele><time>2026-04-02T07:15:25.934Z</time></trkpt><trkpt lat="45.1166285" lon="1.2960938"><ele>247.14285714285714</ele><time>2026-04-02T07:15:26.934Z</time></trkpt><trkpt lat="45.1165622" lon="1.2960486"><ele>247.85714285714286</ele><time>2026-04-02T07:15:27.934Z</time></trkpt><trkpt lat="45.116491" lon="1.2960057"><ele>248.57142857142858</ele><time>2026-04-02T07:15:28.935Z</time></trkpt><trkpt lat="45.1164247" lon="1.2959634"><ele>249.28571428571428</ele><time>2026-04-02T07:15:29.935Z</time></trkpt><trkpt lat="45.1163564" lon="1.2959186"><ele>250.0</ele><time>2026-04-02T07:15:30.934Z</time></trkpt><trkpt lat="45.1162975" lon="1.2958804"><ele>250.0</ele><time>2026-04-02T07:15:31.934Z</time></trkpt><trkpt lat="45.1162249" lon="1.2958365"><ele>250.0</ele><time>2026-04-02T07:15:33.935Z</time></trkpt><trkpt lat="45.1161597" lon="1.2958092"><ele>250.0</ele><time>2026-04-02T07:15:35.933Z</time></trkpt><trkpt lat="45.1160724" lon="1.2958683"><ele>250.0</ele><time>2026-04-02T07:15:38.934Z</time></trkpt><trkpt lat="45.1160182" lon="1.2960594"><ele>250.0</ele><time>2026-04-02T07:15:40.935Z</time></trkpt><trkpt lat="45.1159803" lon="1.2961837"><ele>250.0</ele><time>2026-04-02T07:15:41.934Z</time></trkpt><trkpt lat="45.1159367" lon="1.2963254"><ele>250.0</ele><time>2026-04-02T07:15:42.934Z</time></trkpt><trkpt lat="45.1158876" lon="1.2964736"><ele>250.0</ele><time>2026-04-02T07:15:43.935Z</time></trkpt><trkpt lat="45.1158442" lon="1.2966281"><ele>250.0</ele><time>2026-04-02T07:15:44.934Z</time></trkpt><trkpt lat="45.115801" lon="1.2967842"><ele>250.25</ele><time>2026-04-02T07:15:45.934Z</time></trkpt><trkpt lat="45.1157631" lon="1.296947"><ele>250.5</ele><time>2026-04-02T07:15:46.933Z</time></trkpt><trkpt lat="45.1157347" lon="1.2971145"><ele>250.75</ele><time>2026-04-02T07:15:47.935Z</time></trkpt><trkpt lat="45.1157179" lon="1.2972886"><ele>251.0</ele><time>2026-04-02T07:15:48.934Z</time></trkpt><trkpt lat="45.1157014" lon="1.2974635"><ele>250.5</ele><time>2026-04-02T07:15:49.934Z</time></trkpt><trkpt lat="45.1156773" lon="1.2976342"><ele>250.0</ele><time>2026-04-02T07:15:50.934Z</time></trkpt><trkpt lat="45.1156467" lon="1.2978043"><ele>249.5</ele><time>2026-04-02T07:15:51.935Z</time></trkpt><trkpt lat="45.1156041" lon="1.297973"><ele>249.0</ele><time>2026-04-02T07:15:52.935Z</time></trkpt><trkpt lat="45.1155515" lon="1.2981402"><ele>249.0</ele><time>2026-04-02T07:15:53.934Z</time></trkpt><trkpt lat="45.115495" lon="1.298304"><ele>249.0</ele><time>2026-04-02T07:15:54.935Z</time></trkpt><trkpt lat="45.1154373" lon="1.2984674"><ele>249.0</ele><time>2026-04-02T07:15:55.935Z</time></trkpt><trkpt lat="45.1153782" lon="1.2986293"><ele>249.0</ele><time>2026-04-02T07:15:56.934Z</time></trkpt><trkpt lat="45.115319" lon="1.2987974"><ele>248.5</ele><time>2026-04-02T07:15:57.934Z</time></trkpt><trkpt lat="45.1152596" lon="1.2989664"><ele>248.0</ele><time>2026-04-02T07:15:58.934Z</time></trkpt><trkpt lat="45.1151993" lon="1.2991384"><ele>247.5</ele><time>2026-04-02T07:15:59.935Z</time></trkpt><trkpt lat="45.1151359" lon="1.2993143"><ele>247.0</ele><time>2026-04-02T07:16:00.935Z</time></trkpt><trkpt lat="45.1150681" lon="1.2994914"><ele>247.0</ele><time>2026-04-02T07:16:01.935Z</time></trkpt><trkpt lat="45.1149951" lon="1.2996595"><ele>247.0</ele><time>2026-04-02T07:16:02.934Z</time></trkpt><trkpt lat="45.1149103" lon="1.2998288"><ele>247.0</ele><time>2026-04-02T07:16:03.935Z</time></trkpt><trkpt lat="45.1148267" lon="1.2999857"><ele>247.0</ele><time>2026-04-02T07:16:04.934Z</time></trkpt><trkpt lat="45.1147492" lon="1.3001489"><ele>248.75</ele><time>2026-04-02T07:16:05.935Z</time></trkpt><trkpt lat="45.1146799" lon="1.3003219"><ele>250.5</ele><time>2026-04-02T07:16:06.934Z</time></trkpt><trkpt lat="45.1146177" lon="1.3004951"><ele>252.25</ele><time>2026-04-02T07:16:07.935Z</time></trkpt><trkpt lat="45.1145574" lon="1.3006492"><ele>254.0</ele><time>2026-04-02T07:16:08.935Z</time></trkpt><trkpt lat="45.1144945" lon="1.3007839"><ele>254.39999999999998</ele><time>2026-04-02T07:16:09.934Z</time></trkpt><trkpt lat="45.1144299" lon="1.3008979"><ele>254.79999999999998</ele><time>2026-04-02T07:16:10.934Z</time></trkpt><trkpt lat="45.1143706" lon="1.3009972"><ele>255.20000000000002</ele><time>2026-04-02T07:16:11.934Z</time></trkpt><trkpt lat="45.1143215" lon="1.301089"><ele>255.60000000000002</ele><time>2026-04-02T07:16:12.935Z</time></trkpt><trkpt lat="45.1142394" lon="1.301157"><ele>256.0</ele><time>2026-04-02T07:16:14.934Z</time></trkpt><trkpt lat="45.1141582" lon="1.3010794"><ele>256.0</ele><time>2026-04-02T07:16:16.934Z</time></trkpt><trkpt lat="45.1141047" lon="1.3009659"><ele>256.0</ele><time>2026-04-02T07:16:17.935Z</time></trkpt><trkpt lat="45.1140412" lon="1.3008701"><ele>256.0</ele><time>2026-04-02T07:16:18.935Z</time></trkpt><trkpt lat="45.1139617" lon="1.3007881"><ele>256.0</ele><time>2026-04-02T07:16:19.934Z</time></trkpt><trkpt lat="45.1138741" lon="1.3007149"><ele>256.0</ele><time>2026-04-02T07:16:20.935Z</time></trkpt><trkpt lat="45.1137939" lon="1.3006493"><ele>255.49999999999997</ele><time>2026-04-02T07:16:21.934Z</time></trkpt><trkpt lat="45.113723" lon="1.300581"><ele>255.0</ele><time>2026-04-02T07:16:22.933Z</time></trkpt><trkpt lat="45.1136621" lon="1.300499"><ele>254.5</ele><time>2026-04-02T07:16:23.934Z</time></trkpt><trkpt lat="45.1136139" lon="1.3004107"><ele>254.0</ele><time>2026-04-02T07:16:24.933Z</time></trkpt><trkpt lat="45.1135811" lon="1.3003223"><ele>253.49999999999997</ele><time>2026-04-02T07:16:25.935Z</time></trkpt><trkpt lat="45.1135097" lon="1.3001991"><ele>253.0</ele><time>2026-04-02T07:16:27.934Z</time></trkpt><trkpt lat="45.1134451" lon="1.3001088"><ele>253.0</ele><time>2026-04-02T07:16:29.935Z</time></trkpt><trkpt lat="45.1133943" lon="1.2999961"><ele>253.0</ele><time>2026-04-02T07:16:31.934Z</time></trkpt><trkpt lat="45.1133417" lon="1.2998726"><ele>253.0</ele><time>2026-04-02T07:16:33.935Z</time></trkpt><trkpt lat="45.1132949" lon="1.2997087"><ele>253.0</ele><time>2026-04-02T07:16:35.933Z</time></trkpt><trkpt lat="45.1132639" lon="1.2996271"><ele>253.0</ele><time>2026-04-02T07:16:36.934Z</time></trkpt><trkpt lat="45.1131813" lon="1.2994955"><ele>252.66666666666666</ele><time>2026-04-02T07:16:38.935Z</time></trkpt><trkpt lat="45.1131323" lon="1.2994254"><ele>252.33333333333331</ele><time>2026-04-02T07:16:39.934Z</time></trkpt><trkpt lat="45.113079" lon="1.2993563"><ele>252.0</ele><time>2026-04-02T07:16:40.934Z</time></trkpt><trkpt lat="45.1130118" lon="1.2993"><ele>251.66666666666669</ele><time>2026-04-02T07:16:41.934Z</time></trkpt><trkpt lat="45.1129416" lon="1.2992472"><ele>251.33333333333334</ele><time>2026-04-02T07:16:42.934Z</time></trkpt><trkpt lat="45.1128708" lon="1.2992033"><ele>251.0</ele><time>2026-04-02T07:16:43.935Z</time></trkpt><trkpt lat="45.1127983" lon="1.2991691"><ele>250.99999999999997</ele><time>2026-04-02T07:16:44.935Z</time></trkpt><trkpt lat="45.1127238" lon="1.2991388"><ele>251.0</ele><time>2026-04-02T07:16:45.934Z</time></trkpt><trkpt lat="45.1126531" lon="1.2990966"><ele>250.99999999999997</ele><time>2026-04-02T07:16:46.933Z</time></trkpt><trkpt lat="45.1125815" lon="1.299056"><ele>250.99999999999997</ele><time>2026-04-02T07:16:47.935Z</time></trkpt><trkpt lat="45.112515" lon="1.2990082"><ele>251.0</ele><time>2026-04-02T07:16:48.934Z</time></trkpt><trkpt lat="45.1124505" lon="1.2989629"><ele>250.99999999999997</ele><time>2026-04-02T07:16:49.934Z</time></trkpt><trkpt lat="45.1123908" lon="1.2989165"><ele>250.99999999999997</ele><time>2026-04-02T07:16:50.935Z</time></trkpt><trkpt lat="45.1122877" lon="1.2988085"><ele>249.85714285714283</ele><time>2026-04-02T07:16:52.934Z</time></trkpt><trkpt lat="45.1122235" lon="1.2987629"><ele>248.71428571428572</ele><time>2026-04-02T07:16:53.935Z</time></trkpt><trkpt lat="45.1121565" lon="1.2987241"><ele>247.57142857142856</ele><time>2026-04-02T07:16:54.934Z</time></trkpt><trkpt lat="45.1120955" lon="1.2986923"><ele>246.42857142857142</ele><time>2026-04-02T07:16:55.934Z</time></trkpt><trkpt lat="45.1120313" lon="1.2986591"><ele>245.28571428571428</ele><time>2026-04-02T07:16:56.934Z</time></trkpt><trkpt lat="45.1119666" lon="1.2986164"><ele>244.14285714285714</ele><time>2026-04-02T07:16:57.935Z</time></trkpt><trkpt lat="45.1118953" lon="1.298583"><ele>243.0</ele><time>2026-04-02T07:16:58.935Z</time></trkpt><trkpt lat="45.1118264" lon="1.2985627"><ele>243.0</ele><time>2026-04-02T07:16:59.935Z</time></trkpt><trkpt lat="45.1117613" lon="1.2985457"><ele>243.0</ele><time>2026-04-02T07:17:00.934Z</time></trkpt><trkpt lat="45.1116326" lon="1.298523"><ele>243.0</ele><time>2026-04-02T07:17:02.934Z</time></trkpt><trkpt lat="45.1115611" lon="1.2985303"><ele>243.0</ele><time>2026-04-02T07:17:03.934Z</time></trkpt><trkpt lat="45.1114868" lon="1.2985333"><ele>243.0</ele><time>2026-04-02T07:17:04.934Z</time></trkpt><trkpt lat="45.1114144" lon="1.2985442"><ele>243.0</ele><time>2026-04-02T07:17:05.935Z</time></trkpt><trkpt lat="45.111341" lon="1.2985524"><ele>241.33333333333334</ele><time>2026-04-02T07:17:06.934Z</time></trkpt><trkpt lat="45.1112667" lon="1.298563"><ele>239.66666666666669</ele><time>2026-04-02T07:17:07.935Z</time></trkpt><trkpt lat="45.1111926" lon="1.2985726"><ele>238.0</ele><time>2026-04-02T07:17:08.935Z</time></trkpt><trkpt lat="45.1111223" lon="1.2985735"><ele>236.33333333333334</ele><time>2026-04-02T07:17:09.934Z</time></trkpt><trkpt lat="45.1110288" lon="1.2985783"><ele>234.66666666666669</ele><time>2026-04-02T07:17:10.934Z</time></trkpt><trkpt lat="45.1109406" lon="1.2986035"><ele>233.0</ele><time>2026-04-02T07:17:11.935Z</time></trkpt><trkpt lat="45.1108501" lon="1.2986238"><ele>233.00000000000003</ele><time>2026-04-02T07:17:12.934Z</time></trkpt><trkpt lat="45.1107583" lon="1.2986453"><ele>233.0</ele><time>2026-04-02T07:17:13.935Z</time></trkpt><trkpt lat="45.1106689" lon="1.2986758"><ele>233.0</ele><time>2026-04-02T07:17:14.934Z</time></trkpt><trkpt lat="45.1105864" lon="1.2987216"><ele>233.0</ele><time>2026-04-02T07:17:15.935Z</time></trkpt><trkpt lat="45.1105159" lon="1.2987897"><ele>233.00000000000003</ele><time>2026-04-02T07:17:16.934Z</time></trkpt><trkpt lat="45.1104567" lon="1.2988708"><ele>233.0</ele><time>2026-04-02T07:17:17.934Z</time></trkpt><trkpt lat="45.1104036" lon="1.2989501"><ele>232.00000000000003</ele><time>2026-04-02T07:17:18.935Z</time></trkpt><trkpt lat="45.1103513" lon="1.2990125"><ele>231.0</ele><time>2026-04-02T07:17:19.934Z</time></trkpt><trkpt lat="45.1102501" lon="1.2990451"><ele>230.0</ele><time>2026-04-02T07:17:21.935Z</time></trkpt><trkpt lat="45.1101872" lon="1.299016"><ele>229.0</ele><time>2026-04-02T07:17:22.934Z</time></trkpt><trkpt lat="45.1101189" lon="1.2989745"><ele>228.00000000000003</ele><time>2026-04-02T07:17:23.934Z</time></trkpt><trkpt lat="45.1100457" lon="1.2989295"><ele>227.0</ele><time>2026-04-02T07:17:24.933Z</time></trkpt><trkpt lat="45.1099674" lon="1.2988867"><ele>225.83333333333334</ele><time>2026-04-02T07:17:25.934Z</time></trkpt><trkpt lat="45.1098844" lon="1.2988501"><ele>224.66666666666669</ele><time>2026-04-02T07:17:26.935Z</time></trkpt><trkpt lat="45.1097979" lon="1.2988168"><ele>223.5</ele><time>2026-04-02T07:17:27.934Z</time></trkpt><trkpt lat="45.109713" lon="1.298785"><ele>222.33333333333331</ele><time>2026-04-02T07:17:28.935Z</time></trkpt><trkpt lat="45.1096254" lon="1.2987591"><ele>221.16666666666666</ele><time>2026-04-02T07:17:29.933Z</time></trkpt><trkpt lat="45.1095399" lon="1.2987424"><ele>220.0</ele><time>2026-04-02T07:17:30.933Z</time></trkpt><trkpt lat="45.1094545" lon="1.2987271"><ele>219.99999999999997</ele><time>2026-04-02T07:17:31.934Z</time></trkpt><trkpt lat="45.1093729" lon="1.2987171"><ele>220.0</ele><time>2026-04-02T07:17:32.933Z</time></trkpt><trkpt lat="45.1092947" lon="1.2987131"><ele>220.0</ele><time>2026-04-02T07:17:33.934Z</time></trkpt><trkpt lat="45.1092116" lon="1.2987075"><ele>220.0</ele><time>2026-04-02T07:17:34.933Z</time></trkpt><trkpt lat="45.1091287" lon="1.2987018"><ele>219.99999999999997</ele><time>2026-04-02T07:17:35.934Z</time></trkpt><trkpt lat="45.1090423" lon="1.2987082"><ele>220.0</ele><time>2026-04-02T07:17:36.933Z</time></trkpt><trkpt lat="45.1089588" lon="1.2987389"><ele>217.66666666666666</ele><time>2026-04-02T07:17:37.935Z</time></trkpt><trkpt lat="45.1088922" lon="1.2987777"><ele>215.33333333333331</ele><time>2026-04-02T07:17:38.935Z</time></trkpt><trkpt lat="45.1087878" lon="1.2987655"><ele>213.0</ele><time>2026-04-02T07:17:40.934Z</time></trkpt><trkpt lat="45.1087296" lon="1.298707"><ele>210.66666666666669</ele><time>2026-04-02T07:17:41.934Z</time></trkpt><trkpt lat="45.1086746" lon="1.2986462"><ele>208.33333333333334</ele><time>2026-04-02T07:17:42.933Z</time></trkpt><trkpt lat="45.1086252" lon="1.2985756"><ele>206.0</ele><time>2026-04-02T07:17:43.934Z</time></trkpt><trkpt lat="45.1085856" lon="1.2984877"><ele>206.00000000000003</ele><time>2026-04-02T07:17:44.934Z</time></trkpt><trkpt lat="45.1085503" lon="1.2983874"><ele>206.0</ele><time>2026-04-02T07:17:45.935Z</time></trkpt><trkpt lat="45.1085095" lon="1.2982826"><ele>206.0</ele><time>2026-04-02T07:17:46.935Z</time></trkpt><trkpt lat="45.1084623" lon="1.2981813"><ele>206.0</ele><time>2026-04-02T07:17:47.934Z</time></trkpt><trkpt lat="45.1084115" lon="1.2980834"><ele>206.00000000000003</ele><time>2026-04-02T07:17:48.935Z</time></trkpt><trkpt lat="45.1083608" lon="1.2979846"><ele>206.0</ele><time>2026-04-02T07:17:49.935Z</time></trkpt><trkpt lat="45.1083277" lon="1.2978851"><ele>205.66666666666669</ele><time>2026-04-02T07:17:50.934Z</time></trkpt><trkpt lat="45.1083254" lon="1.297783"><ele>205.33333333333334</ele><time>2026-04-02T07:17:51.934Z</time></trkpt><trkpt lat="45.1083526" lon="1.2976789"><ele>205.0</ele><time>2026-04-02T07:17:52.935Z</time></trkpt><trkpt lat="45.1083995" lon="1.2975765"><ele>204.66666666666669</ele><time>2026-04-02T07:17:53.934Z</time></trkpt><trkpt lat="45.1084506" lon="1.2974707"><ele>204.33333333333334</ele><time>2026-04-02T07:17:54.934Z</time></trkpt><trkpt lat="45.1084966" lon="1.2973547"><ele>204.0</ele><time>2026-04-02T07:17:55.934Z</time></trkpt><trkpt lat="45.1085407" lon="1.2972388"><ele>204.0</ele><time>2026-04-02T07:17:56.934Z</time></trkpt><trkpt lat="45.108585" lon="1.2971248"><ele>204.0</ele><time>2026-04-02T07:17:57.935Z</time></trkpt><trkpt lat="45.1086241" lon="1.2970107"><ele>204.0</ele><time>2026-04-02T07:17:58.935Z</time></trkpt><trkpt lat="45.1086392" lon="1.2968896"><ele>204.0</ele><time>2026-04-02T07:17:59.935Z</time></trkpt><trkpt lat="45.1086437" lon="1.296764"><ele>204.0</ele><time>2026-04-02T07:18:00.935Z</time></trkpt><trkpt lat="45.1086634" lon="1.2966332"><ele>204.0</ele><time>2026-04-02T07:18:01.935Z</time></trkpt><trkpt lat="45.1087038" lon="1.2965066"><ele>204.0</ele><time>2026-04-02T07:18:02.935Z</time></trkpt><trkpt lat="45.108746" lon="1.2963807"><ele>204.0</ele><time>2026-04-02T07:18:03.935Z</time></trkpt><trkpt lat="45.1087858" lon="1.2962543"><ele>204.0</ele><time>2026-04-02T07:18:04.934Z</time></trkpt><trkpt lat="45.1088184" lon="1.2961226"><ele>204.0</ele><time>2026-04-02T07:18:05.934Z</time></trkpt><trkpt lat="45.1088458" lon="1.2959865"><ele>203.6</ele><time>2026-04-02T07:18:06.934Z</time></trkpt><trkpt lat="45.1088723" lon="1.2958512"><ele>203.2</ele><time>2026-04-02T07:18:07.933Z</time></trkpt><trkpt lat="45.1088897" lon="1.2957094"><ele>202.79999999999998</ele><time>2026-04-02T07:18:08.934Z</time></trkpt><trkpt lat="45.1088955" lon="1.2955623"><ele>202.39999999999998</ele><time>2026-04-02T07:18:09.934Z</time></trkpt><trkpt lat="45.1088898" lon="1.295413"><ele>202.0</ele><time>2026-04-02T07:18:10.934Z</time></trkpt><trkpt lat="45.1088697" lon="1.2952639"><ele>200.8</ele><time>2026-04-02T07:18:11.935Z</time></trkpt><trkpt lat="45.1088543" lon="1.2951121"><ele>199.6</ele><time>2026-04-02T07:18:12.935Z</time></trkpt><trkpt lat="45.1088396" lon="1.2949569"><ele>198.4</ele><time>2026-04-02T07:18:13.934Z</time></trkpt><trkpt lat="45.1088236" lon="1.2948024"><ele>197.20000000000002</ele><time>2026-04-02T07:18:14.934Z</time></trkpt><trkpt lat="45.1088088" lon="1.2946508"><ele>196.0</ele><time>2026-04-02T07:18:15.935Z</time></trkpt><trkpt lat="45.1087925" lon="1.2945052"><ele>194.0</ele><time>2026-04-02T07:18:16.933Z</time></trkpt><trkpt lat="45.1087699" lon="1.2943602"><ele>192.0</ele><time>2026-04-02T07:18:17.935Z</time></trkpt><trkpt lat="45.1087399" lon="1.2942221"><ele>190.0</ele><time>2026-04-02T07:18:18.933Z</time></trkpt><trkpt lat="45.1087058" lon="1.2940911"><ele>188.0</ele><time>2026-04-02T07:18:19.934Z</time></trkpt><trkpt lat="45.1086634" lon="1.2939556"><ele>186.0</ele><time>2026-04-02T07:18:20.934Z</time></trkpt><trkpt lat="45.1086053" lon="1.293819"><ele>183.4</ele><time>2026-04-02T07:18:21.934Z</time></trkpt><trkpt lat="45.1085407" lon="1.2936968"><ele>180.8</ele><time>2026-04-02T07:18:22.934Z</time></trkpt><trkpt lat="45.1084744" lon="1.2935706"><ele>178.20000000000002</ele><time>2026-04-02T07:18:23.934Z</time></trkpt><trkpt lat="45.108412" lon="1.2934444"><ele>175.60000000000002</ele><time>2026-04-02T07:18:24.934Z</time></trkpt><trkpt lat="45.10835" lon="1.2933222"><ele>173.0</ele><time>2026-04-02T07:18:25.934Z</time></trkpt><trkpt lat="45.1082894" lon="1.2932024"><ele>173.2</ele><time>2026-04-02T07:18:26.935Z</time></trkpt><trkpt lat="45.1082258" lon="1.2930969"><ele>173.4</ele><time>2026-04-02T07:18:27.934Z</time></trkpt><trkpt lat="45.1081469" lon="1.2930057"><ele>173.6</ele><time>2026-04-02T07:18:28.934Z</time></trkpt><trkpt lat="45.1080542" lon="1.2929318"><ele>173.79999999999998</ele><time>2026-04-02T07:18:29.934Z</time></trkpt><trkpt lat="45.1079559" lon="1.2928568"><ele>174.0</ele><time>2026-04-02T07:18:30.935Z</time></trkpt><trkpt lat="45.1078525" lon="1.29278"><ele>171.5</ele><time>2026-04-02T07:18:31.934Z</time></trkpt><trkpt lat="45.1077461" lon="1.2927093"><ele>169.0</ele><time>2026-04-02T07:18:32.935Z</time></trkpt><trkpt lat="45.1076381" lon="1.2926459"><ele>166.5</ele><time>2026-04-02T07:18:33.933Z</time></trkpt><trkpt lat="45.1075247" lon="1.2925841"><ele>164.0</ele><time>2026-04-02T07:18:34.934Z</time></trkpt><trkpt lat="45.1073977" lon="1.2925407"><ele>162.0</ele><time>2026-04-02T07:18:35.934Z</time></trkpt><trkpt lat="45.1072597" lon="1.2925088"><ele>160.0</ele><time>2026-04-02T07:18:36.934Z</time></trkpt><trkpt lat="45.1071113" lon="1.29248"><ele>158.0</ele><time>2026-04-02T07:18:37.934Z</time></trkpt><trkpt lat="45.1069601" lon="1.2924522"><ele>156.0</ele><time>2026-04-02T07:18:38.935Z</time></trkpt><trkpt lat="45.1068044" lon="1.2924289"><ele>156.0</ele><time>2026-04-02T07:18:39.935Z</time></trkpt><trkpt lat="45.1066406" lon="1.2924148"><ele>156.0</ele><time>2026-04-02T07:18:40.933Z</time></trkpt><trkpt lat="45.1064769" lon="1.2924096"><ele>156.0</ele><time>2026-04-02T07:18:41.935Z</time></trkpt><trkpt lat="45.1063122" lon="1.2924096"><ele>154.0</ele><time>2026-04-02T07:18:42.934Z</time></trkpt><trkpt lat="45.1061502" lon="1.2924161"><ele>152.0</ele><time>2026-04-02T07:18:43.935Z</time></trkpt><trkpt lat="45.105992" lon="1.2924166"><ele>150.0</ele><time>2026-04-02T07:18:44.935Z</time></trkpt><trkpt lat="45.1058356" lon="1.2924001"><ele>148.75</ele><time>2026-04-02T07:18:45.934Z</time></trkpt><trkpt lat="45.1056829" lon="1.2923612"><ele>147.5</ele><time>2026-04-02T07:18:46.934Z</time></trkpt><trkpt lat="45.1055372" lon="1.2923249"><ele>146.25</ele><time>2026-04-02T07:18:47.934Z</time></trkpt><trkpt lat="45.1054051" lon="1.2923052"><ele>145.0</ele><time>2026-04-02T07:18:48.934Z</time></trkpt><trkpt lat="45.1052748" lon="1.292264"><ele>144.25</ele><time>2026-04-02T07:18:49.935Z</time></trkpt><trkpt lat="45.1051521" lon="1.292199"><ele>143.5</ele><time>2026-04-02T07:18:50.934Z</time></trkpt><trkpt lat="45.1050393" lon="1.292126"><ele>142.75</ele><time>2026-04-02T07:18:51.934Z</time></trkpt><trkpt lat="45.1049499" lon="1.2920366"><ele>142.0</ele><time>2026-04-02T07:18:52.934Z</time></trkpt><trkpt lat="45.1048597" lon="1.2919119"><ele>143.0</ele><time>2026-04-02T07:18:53.934Z</time></trkpt><trkpt lat="45.1047833" lon="1.2917818"><ele>144.0</ele><time>2026-04-02T07:18:54.934Z</time></trkpt><trkpt lat="45.104732" lon="1.2916395"><ele>145.0</ele><time>2026-04-02T07:18:55.934Z</time></trkpt><trkpt lat="45.1046793" lon="1.2914719"><ele>146.0</ele><time>2026-04-02T07:18:56.935Z</time></trkpt><trkpt lat="45.1046091" lon="1.2912887"><ele>146.0</ele><time>2026-04-02T07:18:57.934Z</time></trkpt><trkpt lat="45.1045314" lon="1.2911151"><ele>146.0</ele><time>2026-04-02T07:18:58.933Z</time></trkpt><trkpt lat="45.1044311" lon="1.2909322"><ele>146.0</ele><time>2026-04-02T07:18:59.934Z</time></trkpt><trkpt lat="45.1043241" lon="1.2907587"><ele>146.0</ele><time>2026-04-02T07:19:00.934Z</time></trkpt><trkpt lat="45.1042299" lon="1.2905997"><ele>146.0</ele><time>2026-04-02T07:19:01.934Z</time></trkpt><trkpt lat="45.1041441" lon="1.2904523"><ele>146.0</ele><time>2026-04-02T07:19:02.935Z</time></trkpt><trkpt lat="45.1040657" lon="1.2903026"><ele>146.0</ele><time>2026-04-02T07:19:03.934Z</time></trkpt><trkpt lat="45.1039904" lon="1.2901465"><ele>147.5</ele><time>2026-04-02T07:19:04.933Z</time></trkpt><trkpt lat="45.103916" lon="1.2900018"><ele>149.0</ele><time>2026-04-02T07:19:05.935Z</time></trkpt><trkpt lat="45.1038413" lon="1.2898516"><ele>150.5</ele><time>2026-04-02T07:19:06.935Z</time></trkpt><trkpt lat="45.1037877" lon="1.2897042"><ele>152.0</ele><time>2026-04-02T07:19:07.934Z</time></trkpt><trkpt lat="45.1037377" lon="1.2895325"><ele>152.0</ele><time>2026-04-02T07:19:08.933Z</time></trkpt><trkpt lat="45.1037039" lon="1.2893718"><ele>152.0</ele><time>2026-04-02T07:19:09.935Z</time></trkpt><trkpt lat="45.103687" lon="1.2892193"><ele>152.0</ele><time>2026-04-02T07:19:10.935Z</time></trkpt><trkpt lat="45.1036722" lon="1.28907"><ele>152.0</ele><time>2026-04-02T07:19:11.934Z</time></trkpt><trkpt lat="45.1036531" lon="1.2889293"><ele>152.0</ele><time>2026-04-02T07:19:12.934Z</time></trkpt><trkpt lat="45.1036237" lon="1.288801"><ele>149.6</ele><time>2026-04-02T07:19:13.934Z</time></trkpt><trkpt lat="45.1035776" lon="1.2886682"><ele>147.2</ele><time>2026-04-02T07:19:14.933Z</time></trkpt><trkpt lat="45.103529" lon="1.2885464"><ele>144.8</ele><time>2026-04-02T07:19:15.934Z</time></trkpt><trkpt lat="45.1034789" lon="1.2884377"><ele>142.4</ele><time>2026-04-02T07:19:16.934Z</time></trkpt><trkpt lat="45.103425" lon="1.2883454"><ele>140.0</ele><time>2026-04-02T07:19:17.934Z</time></trkpt><trkpt lat="45.1033573" lon="1.288275"><ele>140.0</ele><time>2026-04-02T07:19:18.934Z</time></trkpt><trkpt lat="45.1032681" lon="1.288211"><ele>140.0</ele><time>2026-04-02T07:19:19.934Z</time></trkpt><trkpt lat="45.1031684" lon="1.2881429"><ele>140.0</ele><time>2026-04-02T07:19:20.935Z</time></trkpt><trkpt lat="45.1030697" lon="1.2880634"><ele>140.0</ele><time>2026-04-02T07:19:21.934Z</time></trkpt><trkpt lat="45.1029636" lon="1.2879864"><ele>140.0</ele><time>2026-04-02T07:19:22.935Z</time></trkpt><trkpt lat="45.1028541" lon="1.2879082"><ele>138.75</ele><time>2026-04-02T07:19:23.933Z</time></trkpt><trkpt lat="45.1027511" lon="1.2878196"><ele>137.5</ele><time>2026-04-02T07:19:24.935Z</time></trkpt><trkpt lat="45.1026442" lon="1.2877174"><ele>136.25</ele><time>2026-04-02T07:19:25.934Z</time></trkpt><trkpt lat="45.1025414" lon="1.2876183"><ele>135.0</ele><time>2026-04-02T07:19:26.934Z</time></trkpt><trkpt lat="45.1024487" lon="1.2875274"><ele>135.6</ele><time>2026-04-02T07:19:27.934Z</time></trkpt><trkpt lat="45.1023563" lon="1.2874459"><ele>136.2</ele><time>2026-04-02T07:19:28.933Z</time></trkpt><trkpt lat="45.1022549" lon="1.2873847"><ele>136.8</ele><time>2026-04-02T07:19:29.934Z</time></trkpt><trkpt lat="45.1021509" lon="1.2873493"><ele>137.4</ele><time>2026-04-02T07:19:30.934Z</time></trkpt><trkpt lat="45.1020397" lon="1.287323"><ele>138.0</ele><time>2026-04-02T07:19:31.934Z</time></trkpt><trkpt lat="45.1019148" lon="1.2872757"><ele>136.25</ele><time>2026-04-02T07:19:32.934Z</time></trkpt><trkpt lat="45.1017824" lon="1.2872176"><ele>134.5</ele><time>2026-04-02T07:19:33.933Z</time></trkpt><trkpt lat="45.1016448" lon="1.2871578"><ele>132.75</ele><time>2026-04-02T07:19:34.934Z</time></trkpt><trkpt lat="45.1015006" lon="1.2870997"><ele>131.0</ele><time>2026-04-02T07:19:35.935Z</time></trkpt><trkpt lat="45.1013396" lon="1.287042"><ele>131.0</ele><time>2026-04-02T07:19:36.935Z</time></trkpt><trkpt lat="45.1011761" lon="1.2869813"><ele>131.0</ele><time>2026-04-02T07:19:37.936Z</time></trkpt><trkpt lat="45.1010079" lon="1.2869143"><ele>131.0</ele><time>2026-04-02T07:19:38.935Z</time></trkpt><trkpt lat="45.1008458" lon="1.2868445"><ele>132.33333333333331</ele><time>2026-04-02T07:19:39.936Z</time></trkpt><trkpt lat="45.1006823" lon="1.2867779"><ele>133.66666666666666</ele><time>2026-04-02T07:19:40.936Z</time></trkpt><trkpt lat="45.1005401" lon="1.2867235"><ele>135.0</ele><time>2026-04-02T07:19:41.936Z</time></trkpt><trkpt lat="45.1004073" lon="1.2866674"><ele>135.0</ele><time>2026-04-02T07:19:42.936Z</time></trkpt><trkpt lat="45.1002907" lon="1.2866011"><ele>135.0</ele><time>2026-04-02T07:19:43.936Z</time></trkpt><trkpt lat="45.1001928" lon="1.2865025"><ele>135.0</ele><time>2026-04-02T07:19:44.935Z</time></trkpt><trkpt lat="45.1001009" lon="1.2864037"><ele>135.0</ele><time>2026-04-02T07:19:45.935Z</time></trkpt><trkpt lat="45.1000203" lon="1.2863235"><ele>135.6</ele><time>2026-04-02T07:19:46.935Z</time></trkpt><trkpt lat="45.0999588" lon="1.2862388"><ele>136.2</ele><time>2026-04-02T07:19:47.936Z</time></trkpt><trkpt lat="45.0999228" lon="1.2861219"><ele>136.8</ele><time>2026-04-02T07:19:48.935Z</time></trkpt><trkpt lat="45.0998918" lon="1.2859763"><ele>137.4</ele><time>2026-04-02T07:19:49.935Z</time></trkpt><trkpt lat="45.0998526" lon="1.2858404"><ele>138.0</ele><time>2026-04-02T07:19:50.935Z</time></trkpt><trkpt lat="45.0998096" lon="1.2856996"><ele>136.4</ele><time>2026-04-02T07:19:51.936Z</time></trkpt><trkpt lat="45.0997654" lon="1.285551"><ele>134.8</ele><time>2026-04-02T07:19:52.935Z</time></trkpt><trkpt lat="45.0997197" lon="1.285415"><ele>133.2</ele><time>2026-04-02T07:19:53.935Z</time></trkpt><trkpt lat="45.0996701" lon="1.285295"><ele>131.6</ele><time>2026-04-02T07:19:54.935Z</time></trkpt><trkpt lat="45.0996068" lon="1.2851866"><ele>130.0</ele><time>2026-04-02T07:19:55.935Z</time></trkpt><trkpt lat="45.0995548" lon="1.2850848"><ele>130.0</ele><time>2026-04-02T07:19:56.935Z</time></trkpt><trkpt lat="45.0995204" lon="1.2849674"><ele>130.0</ele><time>2026-04-02T07:19:57.935Z</time></trkpt><trkpt lat="45.0995062" lon="1.2848313"><ele>130.0</ele><time>2026-04-02T07:19:58.935Z</time></trkpt><trkpt lat="45.0995165" lon="1.2846842"><ele>130.0</ele><time>2026-04-02T07:19:59.936Z</time></trkpt><trkpt lat="45.099538" lon="1.2845344"><ele>130.0</ele><time>2026-04-02T07:20:00.936Z</time></trkpt><trkpt lat="45.0995585" lon="1.2843767"><ele>130.75</ele><time>2026-04-02T07:20:01.936Z</time></trkpt><trkpt lat="45.0995833" lon="1.2841982"><ele>131.5</ele><time>2026-04-02T07:20:02.935Z</time></trkpt><trkpt lat="45.0996134" lon="1.2840152"><ele>132.25</ele><time>2026-04-02T07:20:03.936Z</time></trkpt><trkpt lat="45.0996484" lon="1.2838214"><ele>133.0</ele><time>2026-04-02T07:20:04.936Z</time></trkpt><trkpt lat="45.0996922" lon="1.2836288"><ele>134.25</ele><time>2026-04-02T07:20:05.935Z</time></trkpt><trkpt lat="45.0997341" lon="1.2834414"><ele>135.5</ele><time>2026-04-02T07:20:06.934Z</time></trkpt><trkpt lat="45.0997605" lon="1.2832503"><ele>136.75</ele><time>2026-04-02T07:20:07.936Z</time></trkpt><trkpt lat="45.0997704" lon="1.2830542"><ele>138.0</ele><time>2026-04-02T07:20:08.935Z</time></trkpt><trkpt lat="45.0997779" lon="1.2828588"><ele>138.0</ele><time>2026-04-02T07:20:09.935Z</time></trkpt><trkpt lat="45.0997854" lon="1.2826514"><ele>138.0</ele><time>2026-04-02T07:20:10.935Z</time></trkpt><trkpt lat="45.0997842" lon="1.2824426"><ele>138.0</ele><time>2026-04-02T07:20:11.936Z</time></trkpt><trkpt lat="45.099772" lon="1.282234"><ele>138.0</ele><time>2026-04-02T07:20:12.936Z</time></trkpt><trkpt lat="45.0997581" lon="1.2820361"><ele>138.0</ele><time>2026-04-02T07:20:13.935Z</time></trkpt><trkpt lat="45.0997457" lon="1.2818416"><ele>138.0</ele><time>2026-04-02T07:20:14.936Z</time></trkpt><trkpt lat="45.0997289" lon="1.2816495"><ele>138.0</ele><time>2026-04-02T07:20:15.934Z</time></trkpt><trkpt lat="45.0997185" lon="1.281459"><ele>138.0</ele><time>2026-04-02T07:20:16.935Z</time></trkpt><trkpt lat="45.0997084" lon="1.2812674"><ele>136.5</ele><time>2026-04-02T07:20:17.936Z</time></trkpt><trkpt lat="45.0996966" lon="1.2810757"><ele>135.0</ele><time>2026-04-02T07:20:18.934Z</time></trkpt><trkpt lat="45.099685" lon="1.2808844"><ele>133.5</ele><time>2026-04-02T07:20:19.935Z</time></trkpt><trkpt lat="45.0996843" lon="1.2807015"><ele>132.0</ele><time>2026-04-02T07:20:20.935Z</time></trkpt><trkpt lat="45.0996681" lon="1.2805333"><ele>131.6</ele><time>2026-04-02T07:20:21.936Z</time></trkpt><trkpt lat="45.0996759" lon="1.2803776"><ele>131.2</ele><time>2026-04-02T07:20:22.936Z</time></trkpt><trkpt lat="45.0996851" lon="1.2802203"><ele>130.8</ele><time>2026-04-02T07:20:23.936Z</time></trkpt><trkpt lat="45.0997266" lon="1.2800671"><ele>130.4</ele><time>2026-04-02T07:20:24.936Z</time></trkpt><trkpt lat="45.0997537" lon="1.2799249"><ele>130.0</ele><time>2026-04-02T07:20:25.935Z</time></trkpt><trkpt lat="45.0997869" lon="1.2797994"><ele>130.2</ele><time>2026-04-02T07:20:26.935Z</time></trkpt><trkpt lat="45.0998209" lon="1.2796886"><ele>130.4</ele><time>2026-04-02T07:20:27.935Z</time></trkpt><trkpt lat="45.0998436" lon="1.2795791"><ele>130.6</ele><time>2026-04-02T07:20:28.934Z</time></trkpt><trkpt lat="45.0998438" lon="1.2794839"><ele>130.8</ele><time>2026-04-02T07:20:29.935Z</time></trkpt><trkpt lat="45.0997547" lon="1.279353"><ele>131.0</ele><time>2026-04-02T07:20:31.936Z</time></trkpt><trkpt lat="45.0996668" lon="1.2792996"><ele>131.0</ele><time>2026-04-02T07:20:32.936Z</time></trkpt><trkpt lat="45.099614" lon="1.2792031"><ele>131.0</ele><time>2026-04-02T07:20:33.935Z</time></trkpt><trkpt lat="45.099581" lon="1.2790738"><ele>131.0</ele><time>2026-04-02T07:20:34.934Z</time></trkpt><trkpt lat="45.0995594" lon="1.2789086"><ele>131.0</ele><time>2026-04-02T07:20:35.935Z</time></trkpt><trkpt lat="45.0995322" lon="1.2787249"><ele>131.0</ele><time>2026-04-02T07:20:36.934Z</time></trkpt><trkpt lat="45.0995092" lon="1.278518"><ele>132.75</ele><time>2026-04-02T07:20:37.936Z</time></trkpt><trkpt lat="45.099493" lon="1.2783247"><ele>134.5</ele><time>2026-04-02T07:20:38.936Z</time></trkpt><trkpt lat="45.0994922" lon="1.2781158"><ele>136.25</ele><time>2026-04-02T07:20:39.936Z</time></trkpt><trkpt lat="45.0994991" lon="1.2779116"><ele>138.0</ele><time>2026-04-02T07:20:40.934Z</time></trkpt><trkpt lat="45.0995161" lon="1.2777065"><ele>139.5</ele><time>2026-04-02T07:20:41.934Z</time></trkpt><trkpt lat="45.0995416" lon="1.2774995"><ele>141.0</ele><time>2026-04-02T07:20:42.935Z</time></trkpt><trkpt lat="45.099605" lon="1.2773049"><ele>142.5</ele><time>2026-04-02T07:20:43.936Z</time></trkpt><trkpt lat="45.0996588" lon="1.2771132"><ele>144.0</ele><time>2026-04-02T07:20:44.936Z</time></trkpt><trkpt lat="45.0997568" lon="1.2769114"><ele>145.66666666666666</ele><time>2026-04-02T07:20:45.936Z</time></trkpt><trkpt lat="45.0998807" lon="1.2767444"><ele>147.33333333333331</ele><time>2026-04-02T07:20:46.935Z</time></trkpt><trkpt lat="45.0999994" lon="1.2765982"><ele>149.0</ele><time>2026-04-02T07:20:47.935Z</time></trkpt><trkpt lat="45.100129" lon="1.276471"><ele>147.66666666666666</ele><time>2026-04-02T07:20:48.935Z</time></trkpt><trkpt lat="45.1002789" lon="1.2763613"><ele>146.33333333333334</ele><time>2026-04-02T07:20:49.935Z</time></trkpt><trkpt lat="45.1004233" lon="1.2762806"><ele>145.0</ele><time>2026-04-02T07:20:50.935Z</time></trkpt><trkpt lat="45.1005683" lon="1.2762268"><ele>145.0</ele><time>2026-04-02T07:20:51.935Z</time></trkpt><trkpt lat="45.1007177" lon="1.2762011"><ele>145.0</ele><time>2026-04-02T07:20:52.936Z</time></trkpt><trkpt lat="45.100868" lon="1.2761934"><ele>145.0</ele><time>2026-04-02T07:20:53.936Z</time></trkpt><trkpt lat="45.1010119" lon="1.2761767"><ele>145.0</ele><time>2026-04-02T07:20:54.935Z</time></trkpt><trkpt lat="45.1011498" lon="1.2761495"><ele>142.0</ele><time>2026-04-02T07:20:55.935Z</time></trkpt><trkpt lat="45.1012781" lon="1.276121"><ele>139.0</ele><time>2026-04-02T07:20:56.935Z</time></trkpt><trkpt lat="45.1014303" lon="1.2761079"><ele>136.0</ele><time>2026-04-02T07:20:57.935Z</time></trkpt><trkpt lat="45.1015666" lon="1.2760772"><ele>133.0</ele><time>2026-04-02T07:20:58.936Z</time></trkpt><trkpt lat="45.1016856" lon="1.2760239"><ele>131.4</ele><time>2026-04-02T07:20:59.936Z</time></trkpt><trkpt lat="45.1017978" lon="1.275963"><ele>129.8</ele><time>2026-04-02T07:21:00.936Z</time></trkpt><trkpt lat="45.1018971" lon="1.2758982"><ele>128.2</ele><time>2026-04-02T07:21:01.935Z</time></trkpt><trkpt lat="45.1019969" lon="1.2758407"><ele>126.6</ele><time>2026-04-02T07:21:02.935Z</time></trkpt><trkpt lat="45.1020784" lon="1.2757872"><ele>125.0</ele><time>2026-04-02T07:21:03.935Z</time></trkpt><trkpt lat="45.1021389" lon="1.2757348"><ele>124.99999999999999</ele><time>2026-04-02T07:21:04.935Z</time></trkpt><trkpt lat="45.1021898" lon="1.2756678"><ele>125.0</ele><time>2026-04-02T07:21:05.935Z</time></trkpt><trkpt lat="45.1022415" lon="1.2755799"><ele>125.0</ele><time>2026-04-02T07:21:06.935Z</time></trkpt><trkpt lat="45.1022961" lon="1.2754858"><ele>125.0</ele><time>2026-04-02T07:21:07.936Z</time></trkpt><trkpt lat="45.1023587" lon="1.2753826"><ele>124.99999999999999</ele><time>2026-04-02T07:21:08.936Z</time></trkpt><trkpt lat="45.1024146" lon="1.2752776"><ele>125.0</ele><time>2026-04-02T07:21:09.936Z</time></trkpt><trkpt lat="45.1024657" lon="1.2751636"><ele>125.4</ele><time>2026-04-02T07:21:10.936Z</time></trkpt><trkpt lat="45.1025085" lon="1.275043"><ele>125.8</ele><time>2026-04-02T07:21:11.936Z</time></trkpt><trkpt lat="45.1025523" lon="1.2749237"><ele>126.19999999999999</ele><time>2026-04-02T07:21:12.936Z</time></trkpt><trkpt lat="45.1025988" lon="1.2747984"><ele>126.6</ele><time>2026-04-02T07:21:13.936Z</time></trkpt><trkpt lat="45.1026413" lon="1.2746604"><ele>127.0</ele><time>2026-04-02T07:21:14.936Z</time></trkpt><trkpt lat="45.1026774" lon="1.274514"><ele>127.0</ele><time>2026-04-02T07:21:15.936Z</time></trkpt><trkpt lat="45.1027154" lon="1.274363"><ele>126.99999999999999</ele><time>2026-04-02T07:21:16.936Z</time></trkpt><trkpt lat="45.1027522" lon="1.2742148"><ele>126.99999999999999</ele><time>2026-04-02T07:21:17.936Z</time></trkpt><trkpt lat="45.1027925" lon="1.2740903"><ele>127.0</ele><time>2026-04-02T07:21:18.936Z</time></trkpt><trkpt lat="45.1028214" lon="1.2739704"><ele>127.0</ele><time>2026-04-02T07:21:19.936Z</time></trkpt><trkpt lat="45.1028408" lon="1.2738556"><ele>126.66666666666667</ele><time>2026-04-02T07:21:20.936Z</time></trkpt><trkpt lat="45.1028515" lon="1.2737461"><ele>126.33333333333334</ele><time>2026-04-02T07:21:21.936Z</time></trkpt><trkpt lat="45.102854" lon="1.273643"><ele>126.0</ele><time>2026-04-02T07:21:22.936Z</time></trkpt><trkpt lat="45.102859" lon="1.2734903"><ele>125.66666666666666</ele><time>2026-04-02T07:21:24.935Z</time></trkpt><trkpt lat="45.1028852" lon="1.2734086"><ele>125.33333333333333</ele><time>2026-04-02T07:21:26.935Z</time></trkpt><trkpt lat="45.1029767" lon="1.2734157"><ele>125.0</ele><time>2026-04-02T07:21:28.936Z</time></trkpt><trkpt lat="45.1030439" lon="1.273433"><ele>125.0</ele><time>2026-04-02T07:21:29.934Z</time></trkpt><trkpt lat="45.1031255" lon="1.2734516"><ele>125.0</ele><time>2026-04-02T07:21:30.935Z</time></trkpt><trkpt lat="45.1032121" lon="1.2734728"><ele>125.0</ele><time>2026-04-02T07:21:31.935Z</time></trkpt><trkpt lat="45.1033029" lon="1.2735199"><ele>125.0</ele><time>2026-04-02T07:21:32.935Z</time></trkpt><trkpt lat="45.1034073" lon="1.273603"><ele>125.0</ele><time>2026-04-02T07:21:33.935Z</time></trkpt><trkpt lat="45.1035083" lon="1.2737032"><ele>123.25</ele><time>2026-04-02T07:21:34.935Z</time></trkpt><trkpt lat="45.1036057" lon="1.2738112"><ele>121.5</ele><time>2026-04-02T07:21:35.935Z</time></trkpt><trkpt lat="45.1037153" lon="1.2739357"><ele>119.75</ele><time>2026-04-02T07:21:36.936Z</time></trkpt><trkpt lat="45.1038318" lon="1.2740635"><ele>118.0</ele><time>2026-04-02T07:21:37.936Z</time></trkpt><trkpt lat="45.1039581" lon="1.2741828"><ele>119.75</ele><time>2026-04-02T07:21:38.935Z</time></trkpt><trkpt lat="45.1040976" lon="1.2743009"><ele>121.5</ele><time>2026-04-02T07:21:39.936Z</time></trkpt><trkpt lat="45.1042172" lon="1.2744"><ele>123.25</ele><time>2026-04-02T07:21:40.935Z</time></trkpt><trkpt lat="45.1043319" lon="1.2744956"><ele>125.0</ele><time>2026-04-02T07:21:41.934Z</time></trkpt><trkpt lat="45.1044345" lon="1.2745775"><ele>125.0</ele><time>2026-04-02T07:21:42.934Z</time></trkpt><trkpt lat="45.104542" lon="1.2746511"><ele>125.0</ele><time>2026-04-02T07:21:43.936Z</time></trkpt><trkpt lat="45.1046467" lon="1.2747216"><ele>125.0</ele><time>2026-04-02T07:21:44.934Z</time></trkpt><trkpt lat="45.1047542" lon="1.2747962"><ele>125.0</ele><time>2026-04-02T07:21:45.935Z</time></trkpt><trkpt lat="45.104836" lon="1.2749048"><ele>126.0</ele><time>2026-04-02T07:21:46.934Z</time></trkpt><trkpt lat="45.1049238" lon="1.2750284"><ele>127.0</ele><time>2026-04-02T07:21:47.935Z</time></trkpt><trkpt lat="45.1050296" lon="1.2751525"><ele>128.0</ele><time>2026-04-02T07:21:48.936Z</time></trkpt><trkpt lat="45.1051281" lon="1.2752693"><ele>129.0</ele><time>2026-04-02T07:21:49.936Z</time></trkpt><trkpt lat="45.1052096" lon="1.2753746"><ele>129.0</ele><time>2026-04-02T07:21:50.936Z</time></trkpt><trkpt lat="45.1052938" lon="1.2754599"><ele>129.0</ele><time>2026-04-02T07:21:51.935Z</time></trkpt><trkpt lat="45.1053736" lon="1.2755415"><ele>129.0</ele><time>2026-04-02T07:21:52.936Z</time></trkpt><trkpt lat="45.1054437" lon="1.2756554"><ele>129.0</ele><time>2026-04-02T07:21:53.935Z</time></trkpt><trkpt lat="45.1055143" lon="1.2757695"><ele>129.0</ele><time>2026-04-02T07:21:54.936Z</time></trkpt><trkpt lat="45.1055847" lon="1.2758686"><ele>130.0</ele><time>2026-04-02T07:21:55.936Z</time></trkpt><trkpt lat="45.1056651" lon="1.275956"><ele>131.0</ele><time>2026-04-02T07:21:56.935Z</time></trkpt><trkpt lat="45.1057566" lon="1.2760356"><ele>132.0</ele><time>2026-04-02T07:21:57.936Z</time></trkpt><trkpt lat="45.1058635" lon="1.2761086"><ele>133.0</ele><time>2026-04-02T07:21:58.935Z</time></trkpt><trkpt lat="45.1059785" lon="1.2761921"><ele>133.25</ele><time>2026-04-02T07:21:59.935Z</time></trkpt><trkpt lat="45.1060922" lon="1.2762735"><ele>133.5</ele><time>2026-04-02T07:22:00.935Z</time></trkpt><trkpt lat="45.1062136" lon="1.2763528"><ele>133.75</ele><time>2026-04-02T07:22:01.936Z</time></trkpt><trkpt lat="45.1063255" lon="1.2764237"><ele>134.0</ele><time>2026-04-02T07:22:02.936Z</time></trkpt><trkpt lat="45.1064404" lon="1.2764911"><ele>134.0</ele><time>2026-04-02T07:22:03.936Z</time></trkpt><trkpt lat="45.1065413" lon="1.2765399"><ele>134.0</ele><time>2026-04-02T07:22:04.936Z</time></trkpt><trkpt lat="45.1066446" lon="1.2765707"><ele>134.0</ele><time>2026-04-02T07:22:05.936Z</time></trkpt><trkpt lat="45.106736" lon="1.2765868"><ele>134.0</ele><time>2026-04-02T07:22:06.936Z</time></trkpt><trkpt lat="45.1068251" lon="1.2765988"><ele>134.0</ele><time>2026-04-02T07:22:07.936Z</time></trkpt><trkpt lat="45.1069033" lon="1.2765807"><ele>134.6</ele><time>2026-04-02T07:22:08.936Z</time></trkpt><trkpt lat="45.1069856" lon="1.2765383"><ele>135.2</ele><time>2026-04-02T07:22:09.936Z</time></trkpt><trkpt lat="45.1070761" lon="1.2764693"><ele>135.79999999999998</ele><time>2026-04-02T07:22:10.935Z</time></trkpt><trkpt lat="45.1071655" lon="1.2764101"><ele>136.4</ele><time>2026-04-02T07:22:11.935Z</time></trkpt><trkpt lat="45.1072591" lon="1.2763654"><ele>137.0</ele><time>2026-04-02T07:22:12.936Z</time></trkpt><trkpt lat="45.1073464" lon="1.2763172"><ele>139.79999999999998</ele><time>2026-04-02T07:22:13.935Z</time></trkpt><trkpt lat="45.107439" lon="1.276262"><ele>142.6</ele><time>2026-04-02T07:22:14.936Z</time></trkpt><trkpt lat="45.1075211" lon="1.2762103"><ele>145.39999999999998</ele><time>2026-04-02T07:22:15.935Z</time></trkpt><trkpt lat="45.1075932" lon="1.2761426"><ele>148.2</ele><time>2026-04-02T07:22:16.934Z</time></trkpt><trkpt lat="45.1076598" lon="1.2760542"><ele>151.0</ele><time>2026-04-02T07:22:17.935Z</time></trkpt><trkpt lat="45.1077206" lon="1.2759615"><ele>151.0</ele><time>2026-04-02T07:22:18.935Z</time></trkpt><trkpt lat="45.1077939" lon="1.275883"><ele>151.0</ele><time>2026-04-02T07:22:19.936Z</time></trkpt><trkpt lat="45.1078772" lon="1.2758357"><ele>151.0</ele><time>2026-04-02T07:22:20.936Z</time></trkpt><trkpt lat="45.1079734" lon="1.2757849"><ele>151.0</ele><time>2026-04-02T07:22:21.936Z</time></trkpt><trkpt lat="45.1080771" lon="1.2757487"><ele>151.0</ele><time>2026-04-02T07:22:22.936Z</time></trkpt><trkpt lat="45.1081823" lon="1.2757131"><ele>151.75</ele><time>2026-04-02T07:22:23.936Z</time></trkpt><trkpt lat="45.1082913" lon="1.2756825"><ele>152.5</ele><time>2026-04-02T07:22:24.936Z</time></trkpt><trkpt lat="45.1084011" lon="1.275666"><ele>153.25</ele><time>2026-04-02T07:22:25.936Z</time></trkpt><trkpt lat="45.1085299" lon="1.2756534"><ele>154.0</ele><time>2026-04-02T07:22:26.936Z</time></trkpt><trkpt lat="45.1086521" lon="1.2756522"><ele>154.0</ele><time>2026-04-02T07:22:27.936Z</time></trkpt><trkpt lat="45.1087741" lon="1.2756635"><ele>154.0</ele><time>2026-04-02T07:22:28.936Z</time></trkpt><trkpt lat="45.1088995" lon="1.2756914"><ele>154.0</ele><time>2026-04-02T07:22:29.935Z</time></trkpt><trkpt lat="45.1090273" lon="1.2757386"><ele>154.0</ele><time>2026-04-02T07:22:30.935Z</time></trkpt><trkpt lat="45.1091563" lon="1.2758046"><ele>155.75</ele><time>2026-04-02T07:22:31.935Z</time></trkpt><trkpt lat="45.1092787" lon="1.275855"><ele>157.5</ele><time>2026-04-02T07:22:32.936Z</time></trkpt><trkpt lat="45.1093941" lon="1.2758946"><ele>159.25</ele><time>2026-04-02T07:22:33.935Z</time></trkpt><trkpt lat="45.109502" lon="1.275908"><ele>161.0</ele><time>2026-04-02T07:22:34.935Z</time></trkpt><trkpt lat="45.109605" lon="1.2758912"><ele>161.0</ele><time>2026-04-02T07:22:35.935Z</time></trkpt><trkpt lat="45.1096953" lon="1.2758469"><ele>161.0</ele><time>2026-04-02T07:22:36.935Z</time></trkpt><trkpt lat="45.109773" lon="1.2757705"><ele>161.0</ele><time>2026-04-02T07:22:37.935Z</time></trkpt><trkpt lat="45.1098534" lon="1.2756711"><ele>161.0</ele><time>2026-04-02T07:22:38.935Z</time></trkpt><trkpt lat="45.109948" lon="1.2755818"><ele>161.0</ele><time>2026-04-02T07:22:39.935Z</time></trkpt><trkpt lat="45.1100427" lon="1.2754995"><ele>162.66666666666666</ele><time>2026-04-02T07:22:40.936Z</time></trkpt><trkpt lat="45.1101282" lon="1.2754204"><ele>164.33333333333331</ele><time>2026-04-02T07:22:41.936Z</time></trkpt><trkpt lat="45.1102105" lon="1.2753438"><ele>166.0</ele><time>2026-04-02T07:22:42.935Z</time></trkpt><trkpt lat="45.1102847" lon="1.2752704"><ele>167.66666666666666</ele><time>2026-04-02T07:22:43.936Z</time></trkpt><trkpt lat="45.1103433" lon="1.2751954"><ele>169.33333333333334</ele><time>2026-04-02T07:22:44.935Z</time></trkpt><trkpt lat="45.1103846" lon="1.2751277"><ele>171.0</ele><time>2026-04-02T07:22:45.935Z</time></trkpt><trkpt lat="45.1104503" lon="1.2750192"><ele>171.0</ele><time>2026-04-02T07:22:47.936Z</time></trkpt><trkpt lat="45.1105285" lon="1.274926"><ele>171.0</ele><time>2026-04-02T07:22:49.936Z</time></trkpt><trkpt lat="45.1106499" lon="1.2748595"><ele>171.0</ele><time>2026-04-02T07:22:51.936Z</time></trkpt><trkpt lat="45.1107298" lon="1.2748394"><ele>171.0</ele><time>2026-04-02T07:22:52.935Z</time></trkpt><trkpt lat="45.1108294" lon="1.2748246"><ele>171.0</ele><time>2026-04-02T07:22:53.935Z</time></trkpt><trkpt lat="45.1109471" lon="1.2748045"><ele>171.5</ele><time>2026-04-02T07:22:54.935Z</time></trkpt><trkpt lat="45.1110587" lon="1.2747737"><ele>172.0</ele><time>2026-04-02T07:22:55.935Z</time></trkpt><trkpt lat="45.1111654" lon="1.2747349"><ele>172.5</ele><time>2026-04-02T07:22:56.934Z</time></trkpt><trkpt lat="45.1112752" lon="1.2746689"><ele>173.0</ele><time>2026-04-02T07:22:57.935Z</time></trkpt><trkpt lat="45.1113784" lon="1.2745933"><ele>174.25</ele><time>2026-04-02T07:22:58.936Z</time></trkpt><trkpt lat="45.1114724" lon="1.2745046"><ele>175.5</ele><time>2026-04-02T07:22:59.935Z</time></trkpt><trkpt lat="45.1115702" lon="1.2743992"><ele>176.75</ele><time>2026-04-02T07:23:00.936Z</time></trkpt><trkpt lat="45.1116755" lon="1.2742972"><ele>178.0</ele><time>2026-04-02T07:23:01.936Z</time></trkpt><trkpt lat="45.111782" lon="1.274198"><ele>178.0</ele><time>2026-04-02T07:23:02.935Z</time></trkpt><trkpt lat="45.111886" lon="1.2741081"><ele>178.0</ele><time>2026-04-02T07:23:03.935Z</time></trkpt><trkpt lat="45.1119979" lon="1.2740207"><ele>178.0</ele><time>2026-04-02T07:23:04.936Z</time></trkpt><trkpt lat="45.1121046" lon="1.2739371"><ele>178.0</ele><time>2026-04-02T07:23:05.936Z</time></trkpt><trkpt lat="45.1122079" lon="1.2738561"><ele>179.25</ele><time>2026-04-02T07:23:06.936Z</time></trkpt><trkpt lat="45.1123079" lon="1.2737799"><ele>180.5</ele><time>2026-04-02T07:23:07.936Z</time></trkpt><trkpt lat="45.1124076" lon="1.2737038"><ele>181.75</ele><time>2026-04-02T07:23:08.935Z</time></trkpt><trkpt lat="45.1125102" lon="1.2736246"><ele>183.0</ele><time>2026-04-02T07:23:09.936Z</time></trkpt><trkpt lat="45.1126187" lon="1.2735449"><ele>183.0</ele><time>2026-04-02T07:23:10.936Z</time></trkpt><trkpt lat="45.112725" lon="1.2734679"><ele>183.0</ele><time>2026-04-02T07:23:11.936Z</time></trkpt><trkpt lat="45.1128213" lon="1.2733998"><ele>183.0</ele><time>2026-04-02T07:23:12.935Z</time></trkpt><trkpt lat="45.1129062" lon="1.2733431"><ele>183.0</ele><time>2026-04-02T07:23:13.934Z</time></trkpt><trkpt lat="45.1129761" lon="1.2732977"><ele>183.0</ele><time>2026-04-02T07:23:14.936Z</time></trkpt><trkpt lat="45.1130625" lon="1.2732627"><ele>183.0</ele><time>2026-04-02T07:23:16.936Z</time></trkpt><trkpt lat="45.1129981" lon="1.2732482"><ele>183.0</ele><time>2026-04-02T07:23:21.935Z</time></trkpt><trkpt lat="45.1129282" lon="1.2732958"><ele>183.0</ele><time>2026-04-02T07:23:25.936Z</time></trkpt><trkpt lat="45.1128569" lon="1.2733484"><ele>183.0</ele><time>2026-04-02T07:23:28.936Z</time></trkpt><trkpt lat="45.1127775" lon="1.273404"><ele>183.0</ele><time>2026-04-02T07:23:31.936Z</time></trkpt><trkpt lat="45.1127208" lon="1.2734471"><ele>183.0</ele><time>2026-04-02T07:23:33.935Z</time></trkpt><trkpt lat="45.1125974" lon="1.2735351"><ele>183.0</ele><time>2026-04-02T07:23:35.936Z</time></trkpt><trkpt lat="45.1125085" lon="1.2736028"><ele>183.0</ele><time>2026-04-02T07:23:36.937Z</time></trkpt><trkpt lat="45.1124034" lon="1.2736821"><ele>183.0</ele><time>2026-04-02T07:23:37.937Z</time></trkpt><trkpt lat="45.1122821" lon="1.2737698"><ele>183.0</ele><time>2026-04-02T07:23:38.937Z</time></trkpt><trkpt lat="45.112159" lon="1.2738675"><ele>181.75</ele><time>2026-04-02T07:23:39.936Z</time></trkpt><trkpt lat="45.1120357" lon="1.2739671"><ele>180.5</ele><time>2026-04-02T07:23:40.937Z</time></trkpt><trkpt lat="45.1119144" lon="1.2740727"><ele>179.25</ele><time>2026-04-02T07:23:41.936Z</time></trkpt><trkpt lat="45.1117953" lon="1.274178"><ele>178.0</ele><time>2026-04-02T07:23:42.935Z</time></trkpt><trkpt lat="45.11168" lon="1.2742838"><ele>174.75</ele><time>2026-04-02T07:23:43.936Z</time></trkpt><trkpt lat="45.111565" lon="1.2743852"><ele>171.5</ele><time>2026-04-02T07:23:44.936Z</time></trkpt><trkpt lat="45.1114538" lon="1.274474"><ele>168.25</ele><time>2026-04-02T07:23:45.937Z</time></trkpt><trkpt lat="45.1113412" lon="1.274558"><ele>165.0</ele><time>2026-04-02T07:23:46.935Z</time></trkpt><trkpt lat="45.1112307" lon="1.2746348"><ele>165.0</ele><time>2026-04-02T07:23:47.936Z</time></trkpt><trkpt lat="45.1111186" lon="1.274699"><ele>165.0</ele><time>2026-04-02T07:23:48.937Z</time></trkpt><trkpt lat="45.1110064" lon="1.2747455"><ele>165.0</ele><time>2026-04-02T07:23:49.936Z</time></trkpt><trkpt lat="45.1108894" lon="1.2747763"><ele>165.0</ele><time>2026-04-02T07:23:50.936Z</time></trkpt><trkpt lat="45.1107699" lon="1.2747952"><ele>164.25</ele><time>2026-04-02T07:23:51.937Z</time></trkpt><trkpt lat="45.1106498" lon="1.2748008"><ele>163.5</ele><time>2026-04-02T07:23:52.937Z</time></trkpt><trkpt lat="45.1105304" lon="1.2747862"><ele>162.75</ele><time>2026-04-02T07:23:53.936Z</time></trkpt><trkpt lat="45.1104142" lon="1.274756"><ele>162.0</ele><time>2026-04-02T07:23:54.935Z</time></trkpt><trkpt lat="45.1103082" lon="1.2747122"><ele>162.0</ele><time>2026-04-02T07:23:55.936Z</time></trkpt><trkpt lat="45.1102116" lon="1.2746537"><ele>162.0</ele><time>2026-04-02T07:23:56.936Z</time></trkpt><trkpt lat="45.110146" lon="1.2746018"><ele>162.0</ele><time>2026-04-02T07:23:57.936Z</time></trkpt><trkpt lat="45.1100828" lon="1.2745398"><ele>162.0</ele><time>2026-04-02T07:23:58.937Z</time></trkpt><trkpt lat="45.1100224" lon="1.2744825"><ele>162.0</ele><time>2026-04-02T07:23:59.936Z</time></trkpt><trkpt lat="45.1099668" lon="1.2744335"><ele>162.0</ele><time>2026-04-02T07:24:00.937Z</time></trkpt><trkpt lat="45.1099263" lon="1.2743611"><ele>162.28571428571428</ele><time>2026-04-02T07:24:01.937Z</time></trkpt><trkpt lat="45.1098854" lon="1.2742709"><ele>162.57142857142856</ele><time>2026-04-02T07:24:02.937Z</time></trkpt><trkpt lat="45.1098474" lon="1.2741938"><ele>162.85714285714283</ele><time>2026-04-02T07:24:03.937Z</time></trkpt><trkpt lat="45.1098029" lon="1.2741186"><ele>163.14285714285714</ele><time>2026-04-02T07:24:04.937Z</time></trkpt><trkpt lat="45.1097565" lon="1.2740298"><ele>163.42857142857142</ele><time>2026-04-02T07:24:05.937Z</time></trkpt><trkpt lat="45.1097128" lon="1.2739357"><ele>163.7142857142857</ele><time>2026-04-02T07:24:06.936Z</time></trkpt><trkpt lat="45.109679" lon="1.2738495"><ele>164.0</ele><time>2026-04-02T07:24:07.937Z</time></trkpt><trkpt lat="45.109615" lon="1.2737071"><ele>160.5</ele><time>2026-04-02T07:24:09.936Z</time></trkpt><trkpt lat="45.1095552" lon="1.2735714"><ele>157.0</ele><time>2026-04-02T07:24:11.936Z</time></trkpt><trkpt lat="45.1094946" lon="1.2734357"><ele>153.5</ele><time>2026-04-02T07:24:13.936Z</time></trkpt><trkpt lat="45.1094325" lon="1.2732894"><ele>150.0</ele><time>2026-04-02T07:24:15.936Z</time></trkpt><trkpt lat="45.1093549" lon="1.273181"><ele>150.0</ele><time>2026-04-02T07:24:17.936Z</time></trkpt><trkpt lat="45.1093002" lon="1.2730741"><ele>150.0</ele><time>2026-04-02T07:24:19.937Z</time></trkpt><trkpt lat="45.1092575" lon="1.2729549"><ele>150.0</ele><time>2026-04-02T07:24:21.937Z</time></trkpt><trkpt lat="45.1092085" lon="1.2728769"><ele>150.0</ele><time>2026-04-02T07:24:23.937Z</time></trkpt><trkpt lat="45.1091706" lon="1.2727459"><ele>150.0</ele><time>2026-04-02T07:24:27.937Z</time></trkpt><trkpt lat="45.1091462" lon="1.2726537"><ele>150.0</ele><time>2026-04-02T07:24:29.937Z</time></trkpt><trkpt lat="45.109093" lon="1.2725903"><ele>150.6</ele><time>2026-04-02T07:24:31.936Z</time></trkpt><trkpt lat="45.1090402" lon="1.2725014"><ele>151.2</ele><time>2026-04-02T07:24:33.935Z</time></trkpt><trkpt lat="45.1089869" lon="1.2723881"><ele>151.8</ele><time>2026-04-02T07:24:35.936Z</time></trkpt><trkpt lat="45.1089227" lon="1.272277"><ele>152.4</ele><time>2026-04-02T07:24:37.936Z</time></trkpt><trkpt lat="45.1088609" lon="1.2721364"><ele>153.0</ele><time>2026-04-02T07:24:39.936Z</time></trkpt><trkpt lat="45.1087896" lon="1.2719883"><ele>153.0</ele><time>2026-04-02T07:24:41.936Z</time></trkpt><trkpt lat="45.108749" lon="1.2719083"><ele>153.0</ele><time>2026-04-02T07:24:42.936Z</time></trkpt><trkpt lat="45.1087083" lon="1.2718316"><ele>153.0</ele><time>2026-04-02T07:24:43.937Z</time></trkpt><trkpt lat="45.1086705" lon="1.2717568"><ele>153.0</ele><time>2026-04-02T07:24:44.937Z</time></trkpt><trkpt lat="45.1086362" lon="1.2716786"><ele>153.0</ele><time>2026-04-02T07:24:45.935Z</time></trkpt><trkpt lat="45.1086" lon="1.2715997"><ele>153.0</ele><time>2026-04-02T07:24:46.936Z</time></trkpt><trkpt lat="45.1085678" lon="1.2715111"><ele>153.0</ele><time>2026-04-02T07:24:47.936Z</time></trkpt><trkpt lat="45.1085341" lon="1.2714185"><ele>156.0</ele><time>2026-04-02T07:24:48.936Z</time></trkpt><trkpt lat="45.1085011" lon="1.2713266"><ele>159.0</ele><time>2026-04-02T07:24:49.937Z</time></trkpt><trkpt lat="45.1084683" lon="1.2712389"><ele>162.0</ele><time>2026-04-02T07:24:50.936Z</time></trkpt><trkpt lat="45.1084373" lon="1.2711375"><ele>165.0</ele><time>2026-04-02T07:24:51.936Z</time></trkpt><trkpt lat="45.1084061" lon="1.2710401"><ele>168.0</ele><time>2026-04-02T07:24:52.936Z</time></trkpt><trkpt lat="45.1083712" lon="1.2709491"><ele>171.0</ele><time>2026-04-02T07:24:53.935Z</time></trkpt><trkpt lat="45.1083308" lon="1.2708584"><ele>174.0</ele><time>2026-04-02T07:24:54.936Z</time></trkpt><trkpt lat="45.1082937" lon="1.2707676"><ele>174.0</ele><time>2026-04-02T07:24:55.936Z</time></trkpt><trkpt lat="45.108261" lon="1.2706834"><ele>174.0</ele><time>2026-04-02T07:24:56.937Z</time></trkpt><trkpt lat="45.108223" lon="1.2706017"><ele>174.0</ele><time>2026-04-02T07:24:57.936Z</time></trkpt><trkpt lat="45.1081882" lon="1.2705192"><ele>174.0</ele><time>2026-04-02T07:24:58.936Z</time></trkpt><trkpt lat="45.1081551" lon="1.270438"><ele>174.0</ele><time>2026-04-02T07:24:59.937Z</time></trkpt><trkpt lat="45.1081158" lon="1.2703658"><ele>174.0</ele><time>2026-04-02T07:25:00.936Z</time></trkpt><trkpt lat="45.1080374" lon="1.2702237"><ele>174.6</ele><time>2026-04-02T07:25:02.936Z</time></trkpt><trkpt lat="45.1079996" lon="1.2701487"><ele>175.2</ele><time>2026-04-02T07:25:03.935Z</time></trkpt><trkpt lat="45.1079356" lon="1.2699981"><ele>175.79999999999998</ele><time>2026-04-02T07:25:05.937Z</time></trkpt><trkpt lat="45.1078677" lon="1.269861"><ele>176.39999999999998</ele><time>2026-04-02T07:25:07.936Z</time></trkpt><trkpt lat="45.1078104" lon="1.2697266"><ele>177.0</ele><time>2026-04-02T07:25:09.936Z</time></trkpt><trkpt lat="45.1077494" lon="1.2696049"><ele>177.0</ele><time>2026-04-02T07:25:11.936Z</time></trkpt><trkpt lat="45.1076894" lon="1.2694946"><ele>177.0</ele><time>2026-04-02T07:25:13.937Z</time></trkpt><trkpt lat="45.1076373" lon="1.26938"><ele>177.0</ele><time>2026-04-02T07:25:15.937Z</time></trkpt><trkpt lat="45.1075818" lon="1.2692638"><ele>177.0</ele><time>2026-04-02T07:25:17.937Z</time></trkpt><trkpt lat="45.1075205" lon="1.2691424"><ele>177.0</ele><time>2026-04-02T07:25:19.937Z</time></trkpt><trkpt lat="45.1074656" lon="1.2690294"><ele>177.83333333333334</ele><time>2026-04-02T07:25:21.935Z</time></trkpt><trkpt lat="45.1074182" lon="1.2689116"><ele>178.66666666666666</ele><time>2026-04-02T07:25:23.937Z</time></trkpt><trkpt lat="45.1073747" lon="1.268807"><ele>179.5</ele><time>2026-04-02T07:25:25.936Z</time></trkpt><trkpt lat="45.1073189" lon="1.2687282"><ele>180.33333333333331</ele><time>2026-04-02T07:25:27.937Z</time></trkpt><trkpt lat="45.1072857" lon="1.2686446"><ele>181.16666666666666</ele><time>2026-04-02T07:25:29.935Z</time></trkpt><trkpt lat="45.1072541" lon="1.2685151"><ele>182.0</ele><time>2026-04-02T07:25:31.936Z</time></trkpt><trkpt lat="45.1072666" lon="1.2683756"><ele>182.0</ele><time>2026-04-02T07:25:33.937Z</time></trkpt><trkpt lat="45.1073469" lon="1.2683996"><ele>182.0</ele><time>2026-04-02T07:25:37.937Z</time></trkpt><trkpt lat="45.1073794" lon="1.2685031"><ele>182.0</ele><time>2026-04-02T07:25:38.937Z</time></trkpt><trkpt lat="45.1074268" lon="1.2686088"><ele>182.0</ele><time>2026-04-02T07:25:39.937Z</time></trkpt><trkpt lat="45.10748" lon="1.2687379"><ele>182.0</ele><time>2026-04-02T07:25:40.936Z</time></trkpt><trkpt lat="45.1075377" lon="1.2688727"><ele>180.75</ele><time>2026-04-02T07:25:41.937Z</time></trkpt><trkpt lat="45.1076044" lon="1.2690183"><ele>179.5</ele><time>2026-04-02T07:25:42.936Z</time></trkpt><trkpt lat="45.1076743" lon="1.2691513"><ele>178.25</ele><time>2026-04-02T07:25:43.936Z</time></trkpt><trkpt lat="45.1077561" lon="1.269283"><ele>177.0</ele><time>2026-04-02T07:25:44.937Z</time></trkpt><trkpt lat="45.1078438" lon="1.2693945"><ele>177.0</ele><time>2026-04-02T07:25:45.936Z</time></trkpt><trkpt lat="45.1079539" lon="1.2694949"><ele>177.0</ele><time>2026-04-02T07:25:46.936Z</time></trkpt><trkpt lat="45.1080746" lon="1.2695803"><ele>177.0</ele><time>2026-04-02T07:25:47.936Z</time></trkpt><trkpt lat="45.108187" lon="1.2696533"><ele>177.0</ele><time>2026-04-02T07:25:48.936Z</time></trkpt><trkpt lat="45.1082982" lon="1.2697241"><ele>180.39999999999998</ele><time>2026-04-02T07:25:49.936Z</time></trkpt><trkpt lat="45.1084059" lon="1.2697963"><ele>183.79999999999998</ele><time>2026-04-02T07:25:50.936Z</time></trkpt><trkpt lat="45.1085022" lon="1.2698669"><ele>187.2</ele><time>2026-04-02T07:25:51.936Z</time></trkpt><trkpt lat="45.1086052" lon="1.2699207"><ele>190.6</ele><time>2026-04-02T07:25:52.936Z</time></trkpt><trkpt lat="45.1087147" lon="1.2699459"><ele>194.0</ele><time>2026-04-02T07:25:53.937Z</time></trkpt><trkpt lat="45.1088293" lon="1.2699405"><ele>194.0</ele><time>2026-04-02T07:25:54.937Z</time></trkpt><trkpt lat="45.1089428" lon="1.269932"><ele>194.0</ele><time>2026-04-02T07:25:55.937Z</time></trkpt><trkpt lat="45.1090416" lon="1.2699147"><ele>194.0</ele><time>2026-04-02T07:25:56.937Z</time></trkpt><trkpt lat="45.1091254" lon="1.2698773"><ele>194.0</ele><time>2026-04-02T07:25:57.937Z</time></trkpt><trkpt lat="45.1092195" lon="1.2698119"><ele>194.0</ele><time>2026-04-02T07:25:58.937Z</time></trkpt><trkpt lat="45.1093108" lon="1.2697107"><ele>198.6</ele><time>2026-04-02T07:25:59.936Z</time></trkpt><trkpt lat="45.1093764" lon="1.2696078"><ele>203.2</ele><time>2026-04-02T07:26:00.937Z</time></trkpt><trkpt lat="45.109429" lon="1.2694993"><ele>207.79999999999998</ele><time>2026-04-02T07:26:01.936Z</time></trkpt><trkpt lat="45.1094752" lon="1.269382"><ele>212.39999999999998</ele><time>2026-04-02T07:26:02.936Z</time></trkpt><trkpt lat="45.1095161" lon="1.2692525"><ele>217.0</ele><time>2026-04-02T07:26:03.937Z</time></trkpt><trkpt lat="45.1095546" lon="1.2691277"><ele>217.0</ele><time>2026-04-02T07:26:04.937Z</time></trkpt><trkpt lat="45.1096134" lon="1.2689993"><ele>217.0</ele><time>2026-04-02T07:26:05.937Z</time></trkpt><trkpt lat="45.109684" lon="1.268877"><ele>217.0</ele><time>2026-04-02T07:26:06.937Z</time></trkpt><trkpt lat="45.1097618" lon="1.2687532"><ele>217.0</ele><time>2026-04-02T07:26:07.936Z</time></trkpt><trkpt lat="45.1098394" lon="1.2686366"><ele>218.8</ele><time>2026-04-02T07:26:08.936Z</time></trkpt><trkpt lat="45.1099165" lon="1.268542"><ele>220.6</ele><time>2026-04-02T07:26:09.936Z</time></trkpt><trkpt lat="45.1099844" lon="1.2684503"><ele>222.40000000000003</ele><time>2026-04-02T07:26:10.936Z</time></trkpt><trkpt lat="45.110058" lon="1.2683876"><ele>224.20000000000002</ele><time>2026-04-02T07:26:11.936Z</time></trkpt><trkpt lat="45.1101397" lon="1.2683623"><ele>226.0</ele><time>2026-04-02T07:26:12.935Z</time></trkpt><trkpt lat="45.1102393" lon="1.2683615"><ele>226.0</ele><time>2026-04-02T07:26:13.937Z</time></trkpt><trkpt lat="45.1103375" lon="1.2683742"><ele>226.00000000000003</ele><time>2026-04-02T07:26:14.937Z</time></trkpt><trkpt lat="45.1104331" lon="1.2683717"><ele>226.00000000000003</ele><time>2026-04-02T07:26:15.937Z</time></trkpt><trkpt lat="45.1105355" lon="1.268373"><ele>226.0</ele><time>2026-04-02T07:26:16.937Z</time></trkpt><trkpt lat="45.1106347" lon="1.2683814"><ele>226.0</ele><time>2026-04-02T07:26:17.937Z</time></trkpt><trkpt lat="45.1107451" lon="1.2683786"><ele>226.60000000000002</ele><time>2026-04-02T07:26:18.937Z</time></trkpt><trkpt lat="45.1108501" lon="1.2683585"><ele>227.20000000000002</ele><time>2026-04-02T07:26:19.936Z</time></trkpt><trkpt lat="45.1109589" lon="1.2683411"><ele>227.79999999999998</ele><time>2026-04-02T07:26:20.936Z</time></trkpt><trkpt lat="45.1110653" lon="1.2683365"><ele>228.39999999999998</ele><time>2026-04-02T07:26:21.937Z</time></trkpt><trkpt lat="45.1111666" lon="1.2683542"><ele>229.0</ele><time>2026-04-02T07:26:22.937Z</time></trkpt><trkpt lat="45.1112803" lon="1.2683923"><ele>229.0</ele><time>2026-04-02T07:26:23.936Z</time></trkpt><trkpt lat="45.1113945" lon="1.268419"><ele>228.99999999999997</ele><time>2026-04-02T07:26:24.936Z</time></trkpt><trkpt lat="45.1115027" lon="1.2684282"><ele>228.99999999999997</ele><time>2026-04-02T07:26:25.936Z</time></trkpt><trkpt lat="45.1116143" lon="1.2684351"><ele>229.0</ele><time>2026-04-02T07:26:26.936Z</time></trkpt><trkpt lat="45.1117211" lon="1.2684441"><ele>229.0</ele><time>2026-04-02T07:26:27.936Z</time></trkpt><trkpt lat="45.1118292" lon="1.2684495"><ele>229.6</ele><time>2026-04-02T07:26:28.937Z</time></trkpt><trkpt lat="45.1119417" lon="1.2684564"><ele>230.2</ele><time>2026-04-02T07:26:29.937Z</time></trkpt><trkpt lat="45.1120463" lon="1.2684492"><ele>230.79999999999998</ele><time>2026-04-02T07:26:30.937Z</time></trkpt><trkpt lat="45.1121553" lon="1.2684379"><ele>231.39999999999998</ele><time>2026-04-02T07:26:31.935Z</time></trkpt><trkpt lat="45.1122696" lon="1.2684337"><ele>232.0</ele><time>2026-04-02T07:26:32.936Z</time></trkpt><trkpt lat="45.1123854" lon="1.2684446"><ele>233.6</ele><time>2026-04-02T07:26:33.936Z</time></trkpt><trkpt lat="45.112498" lon="1.2684528"><ele>235.2</ele><time>2026-04-02T07:26:34.936Z</time></trkpt><trkpt lat="45.1126076" lon="1.2684526"><ele>236.8</ele><time>2026-04-02T07:26:35.937Z</time></trkpt><trkpt lat="45.1127165" lon="1.268444"><ele>238.4</ele><time>2026-04-02T07:26:36.935Z</time></trkpt><trkpt lat="45.1128104" lon="1.2684391"><ele>240.0</ele><time>2026-04-02T07:26:37.935Z</time></trkpt><trkpt lat="45.1129" lon="1.2684537"><ele>240.0</ele><time>2026-04-02T07:26:38.936Z</time></trkpt><trkpt lat="45.1129978" lon="1.268473"><ele>240.0</ele><time>2026-04-02T07:26:39.937Z</time></trkpt><trkpt lat="45.1130831" lon="1.2684842"><ele>240.0</ele><time>2026-04-02T07:26:40.936Z</time></trkpt><trkpt lat="45.1131708" lon="1.2684897"><ele>240.0</ele><time>2026-04-02T07:26:41.937Z</time></trkpt><trkpt lat="45.1132534" lon="1.2684926"><ele>240.0</ele><time>2026-04-02T07:26:42.937Z</time></trkpt><trkpt lat="45.1133304" lon="1.2684879"><ele>240.0</ele><time>2026-04-02T07:26:43.936Z</time></trkpt><trkpt lat="45.113407" lon="1.2684775"><ele>240.0</ele><time>2026-04-02T07:26:44.936Z</time></trkpt><trkpt lat="45.113482" lon="1.2684626"><ele>240.0</ele><time>2026-04-02T07:26:45.937Z</time></trkpt><trkpt lat="45.1135718" lon="1.2684513"><ele>240.0</ele><time>2026-04-02T07:26:46.937Z</time></trkpt><trkpt lat="45.1136579" lon="1.2684541"><ele>240.0</ele><time>2026-04-02T07:26:47.936Z</time></trkpt><trkpt lat="45.1137446" lon="1.2684447"><ele>240.0</ele><time>2026-04-02T07:26:48.935Z</time></trkpt><trkpt lat="45.1138314" lon="1.2684292"><ele>240.0</ele><time>2026-04-02T07:26:49.935Z</time></trkpt><trkpt lat="45.1139184" lon="1.2684188"><ele>240.0</ele><time>2026-04-02T07:26:50.936Z</time></trkpt><trkpt lat="45.1139977" lon="1.2684076"><ele>240.0</ele><time>2026-04-02T07:26:51.937Z</time></trkpt><trkpt lat="45.1140758" lon="1.2683827"><ele>240.0</ele><time>2026-04-02T07:26:52.936Z</time></trkpt><trkpt lat="45.1141568" lon="1.2683429"><ele>240.0</ele><time>2026-04-02T07:26:53.936Z</time></trkpt><trkpt lat="45.1142349" lon="1.2683015"><ele>240.0</ele><time>2026-04-02T07:26:54.936Z</time></trkpt><trkpt lat="45.1143148" lon="1.2682539"><ele>240.0</ele><time>2026-04-02T07:26:55.936Z</time></trkpt><trkpt lat="45.1143933" lon="1.268212"><ele>239.57142857142858</ele><time>2026-04-02T07:26:56.937Z</time></trkpt><trkpt lat="45.1144606" lon="1.2681629"><ele>239.1428571428571</ele><time>2026-04-02T07:26:57.936Z</time></trkpt><trkpt lat="45.1145096" lon="1.2681017"><ele>238.7142857142857</ele><time>2026-04-02T07:26:58.936Z</time></trkpt><trkpt lat="45.1145851" lon="1.2680344"><ele>238.28571428571428</ele><time>2026-04-02T07:26:59.936Z</time></trkpt><trkpt lat="45.1146575" lon="1.2679829"><ele>237.85714285714283</ele><time>2026-04-02T07:27:00.937Z</time></trkpt><trkpt lat="45.1147211" lon="1.2679386"><ele>237.4285714285714</ele><time>2026-04-02T07:27:01.936Z</time></trkpt><trkpt lat="45.1147725" lon="1.2678824"><ele>236.99999999999997</ele><time>2026-04-02T07:27:02.935Z</time></trkpt><trkpt lat="45.1148363" lon="1.2678258"><ele>234.5</ele><time>2026-04-02T07:27:03.937Z</time></trkpt><trkpt lat="45.1149193" lon="1.2677673"><ele>232.0</ele><time>2026-04-02T07:27:04.936Z</time></trkpt><trkpt lat="45.1150003" lon="1.2677384"><ele>229.5</ele><time>2026-04-02T07:27:05.935Z</time></trkpt><trkpt lat="45.1150795" lon="1.2676874"><ele>227.0</ele><time>2026-04-02T07:27:06.936Z</time></trkpt><trkpt lat="45.1151508" lon="1.2676381"><ele>224.5</ele><time>2026-04-02T07:27:07.937Z</time></trkpt><trkpt lat="45.1152139" lon="1.2675921"><ele>222.0</ele><time>2026-04-02T07:27:08.937Z</time></trkpt><trkpt lat="45.1152823" lon="1.2675549"><ele>222.0</ele><time>2026-04-02T07:27:09.937Z</time></trkpt><trkpt lat="45.1153525" lon="1.2675255"><ele>222.0</ele><time>2026-04-02T07:27:10.937Z</time></trkpt><trkpt lat="45.1154211" lon="1.2674959"><ele>222.0</ele><time>2026-04-02T07:27:11.936Z</time></trkpt><trkpt lat="45.1154919" lon="1.2674731"><ele>222.0</ele><time>2026-04-02T07:27:12.936Z</time></trkpt><trkpt lat="45.1155571" lon="1.2674663"><ele>222.0</ele><time>2026-04-02T07:27:13.936Z</time></trkpt><trkpt lat="45.1156277" lon="1.267488"><ele>222.0</ele><time>2026-04-02T07:27:15.937Z</time></trkpt><trkpt lat="45.1157045" lon="1.2674581"><ele>222.0</ele><time>2026-04-02T07:27:17.936Z</time></trkpt><trkpt lat="45.1157836" lon="1.2674261"><ele>221.16666666666666</ele><time>2026-04-02T07:27:19.937Z</time></trkpt><trkpt lat="45.1158611" lon="1.2673563"><ele>220.33333333333331</ele><time>2026-04-02T07:27:21.937Z</time></trkpt><trkpt lat="45.1159251" lon="1.267302"><ele>219.5</ele><time>2026-04-02T07:27:23.936Z</time></trkpt><trkpt lat="45.1160385" lon="1.2672483"><ele>218.66666666666666</ele><time>2026-04-02T07:27:25.937Z</time></trkpt><trkpt lat="45.1161035" lon="1.2672273"><ele>217.83333333333331</ele><time>2026-04-02T07:27:26.936Z</time></trkpt><trkpt lat="45.1161775" lon="1.2671963"><ele>217.0</ele><time>2026-04-02T07:27:27.936Z</time></trkpt><trkpt lat="45.1162543" lon="1.267164"><ele>217.0</ele><time>2026-04-02T07:27:28.936Z</time></trkpt><trkpt lat="45.1163391" lon="1.2671311"><ele>217.0</ele><time>2026-04-02T07:27:29.937Z</time></trkpt><trkpt lat="45.116432" lon="1.2670843"><ele>217.0</ele><time>2026-04-02T07:27:30.937Z</time></trkpt><trkpt lat="45.116523" lon="1.2670455"><ele>217.0</ele><time>2026-04-02T07:27:31.935Z</time></trkpt><trkpt lat="45.1166262" lon="1.2670013"><ele>217.0</ele><time>2026-04-02T07:27:32.936Z</time></trkpt><trkpt lat="45.1167046" lon="1.2669585"><ele>217.99999999999997</ele><time>2026-04-02T07:27:33.937Z</time></trkpt><trkpt lat="45.1167933" lon="1.2669155"><ele>219.0</ele><time>2026-04-02T07:27:34.938Z</time></trkpt><trkpt lat="45.1168704" lon="1.2668811"><ele>220.0</ele><time>2026-04-02T07:27:35.938Z</time></trkpt><trkpt lat="45.1169413" lon="1.2668492"><ele>221.0</ele><time>2026-04-02T07:27:36.937Z</time></trkpt><trkpt lat="45.1170436" lon="1.2668039"><ele>221.99999999999997</ele><time>2026-04-02T07:27:38.937Z</time></trkpt><trkpt lat="45.1170665" lon="1.2666758"><ele>223.0</ele><time>2026-04-02T07:27:41.937Z</time></trkpt><trkpt lat="45.1170217" lon="1.2666108"><ele>223.0</ele><time>2026-04-02T07:27:42.937Z</time></trkpt><trkpt lat="45.1169627" lon="1.2665416"><ele>223.0</ele><time>2026-04-02T07:27:43.937Z</time></trkpt><trkpt lat="45.1169128" lon="1.2664429"><ele>223.0</ele><time>2026-04-02T07:27:44.937Z</time></trkpt><trkpt lat="45.1168626" lon="1.2663392"><ele>223.0</ele><time>2026-04-02T07:27:45.938Z</time></trkpt><trkpt lat="45.1168007" lon="1.266233"><ele>223.0</ele><time>2026-04-02T07:27:46.938Z</time></trkpt><trkpt lat="45.1167247" lon="1.2661344"><ele>222.75</ele><time>2026-04-02T07:27:47.937Z</time></trkpt><trkpt lat="45.1166396" lon="1.2660442"><ele>222.5</ele><time>2026-04-02T07:27:48.938Z</time></trkpt><trkpt lat="45.1165381" lon="1.2659689"><ele>222.25</ele><time>2026-04-02T07:27:49.937Z</time></trkpt><trkpt lat="45.1164299" lon="1.265894"><ele>222.0</ele><time>2026-04-02T07:27:50.938Z</time></trkpt><trkpt lat="45.1163238" lon="1.265796"><ele>222.5</ele><time>2026-04-02T07:27:51.937Z</time></trkpt><trkpt lat="45.1162221" lon="1.2656735"><ele>223.0</ele><time>2026-04-02T07:27:52.937Z</time></trkpt><trkpt lat="45.1161141" lon="1.2655385"><ele>223.5</ele><time>2026-04-02T07:27:53.937Z</time></trkpt><trkpt lat="45.1160064" lon="1.2653994"><ele>224.0</ele><time>2026-04-02T07:27:54.937Z</time></trkpt><trkpt lat="45.1159039" lon="1.265256"><ele>224.5</ele><time>2026-04-02T07:27:55.936Z</time></trkpt><trkpt lat="45.1158057" lon="1.2651114"><ele>225.0</ele><time>2026-04-02T07:27:56.936Z</time></trkpt><trkpt lat="45.1157073" lon="1.2649713"><ele>225.5</ele><time>2026-04-02T07:27:57.937Z</time></trkpt><trkpt lat="45.1155923" lon="1.2648381"><ele>226.0</ele><time>2026-04-02T07:27:58.937Z</time></trkpt><trkpt lat="45.115482" lon="1.264716"><ele>226.0</ele><time>2026-04-02T07:27:59.938Z</time></trkpt><trkpt lat="45.1153768" lon="1.2645951"><ele>226.0</ele><time>2026-04-02T07:28:00.938Z</time></trkpt><trkpt lat="45.1152769" lon="1.2644791"><ele>226.0</ele><time>2026-04-02T07:28:01.938Z</time></trkpt><trkpt lat="45.1151801" lon="1.2643631"><ele>226.0</ele><time>2026-04-02T07:28:02.937Z</time></trkpt><trkpt lat="45.1150914" lon="1.2642487"><ele>226.0</ele><time>2026-04-02T07:28:03.938Z</time></trkpt><trkpt lat="45.1150173" lon="1.2641155"><ele>226.0</ele><time>2026-04-02T07:28:04.938Z</time></trkpt><trkpt lat="45.1149556" lon="1.2639612"><ele>226.0</ele><time>2026-04-02T07:28:05.938Z</time></trkpt><trkpt lat="45.1149115" lon="1.2638009"><ele>226.0</ele><time>2026-04-02T07:28:06.938Z</time></trkpt><trkpt lat="45.1148661" lon="1.2636412"><ele>226.5</ele><time>2026-04-02T07:28:07.938Z</time></trkpt><trkpt lat="45.1148143" lon="1.2634875"><ele>227.0</ele><time>2026-04-02T07:28:08.938Z</time></trkpt><trkpt lat="45.1147313" lon="1.263326"><ele>227.5</ele><time>2026-04-02T07:28:09.938Z</time></trkpt><trkpt lat="45.1146481" lon="1.2631662"><ele>228.0</ele><time>2026-04-02T07:28:10.937Z</time></trkpt><trkpt lat="45.1145582" lon="1.2630122"><ele>228.0</ele><time>2026-04-02T07:28:11.937Z</time></trkpt><trkpt lat="45.1144715" lon="1.2628565"><ele>228.0</ele><time>2026-04-02T07:28:12.938Z</time></trkpt><trkpt lat="45.114393" lon="1.262683"><ele>228.0</ele><time>2026-04-02T07:28:13.937Z</time></trkpt><trkpt lat="45.1143296" lon="1.2625016"><ele>228.0</ele><time>2026-04-02T07:28:14.937Z</time></trkpt><trkpt lat="45.1142706" lon="1.2623226"><ele>228.75</ele><time>2026-04-02T07:28:15.938Z</time></trkpt><trkpt lat="45.1141975" lon="1.2621527"><ele>229.5</ele><time>2026-04-02T07:28:16.936Z</time></trkpt><trkpt lat="45.1141268" lon="1.2619894"><ele>230.25</ele><time>2026-04-02T07:28:17.937Z</time></trkpt><trkpt lat="45.1140691" lon="1.2618223"><ele>231.0</ele><time>2026-04-02T07:28:18.937Z</time></trkpt><trkpt lat="45.1140292" lon="1.2616417"><ele>228.5</ele><time>2026-04-02T07:28:19.937Z</time></trkpt><trkpt lat="45.1139821" lon="1.2614586"><ele>226.0</ele><time>2026-04-02T07:28:20.937Z</time></trkpt><trkpt lat="45.1139198" lon="1.2612778"><ele>223.5</ele><time>2026-04-02T07:28:21.937Z</time></trkpt><trkpt lat="45.1138707" lon="1.261088"><ele>221.0</ele><time>2026-04-02T07:28:22.936Z</time></trkpt><trkpt lat="45.1138403" lon="1.2608798"><ele>220.66666666666669</ele><time>2026-04-02T07:28:23.938Z</time></trkpt><trkpt lat="45.1138211" lon="1.2606561"><ele>220.33333333333331</ele><time>2026-04-02T07:28:24.937Z</time></trkpt><trkpt lat="45.1138083" lon="1.2604134"><ele>220.0</ele><time>2026-04-02T07:28:25.937Z</time></trkpt><trkpt lat="45.1137827" lon="1.2601634"><ele>222.66666666666666</ele><time>2026-04-02T07:28:26.938Z</time></trkpt><trkpt lat="45.1137353" lon="1.2599068"><ele>225.33333333333331</ele><time>2026-04-02T07:28:27.938Z</time></trkpt><trkpt lat="45.1136691" lon="1.2596492"><ele>228.0</ele><time>2026-04-02T07:28:28.937Z</time></trkpt><trkpt lat="45.1136118" lon="1.2593919"><ele>230.0</ele><time>2026-04-02T07:28:29.937Z</time></trkpt><trkpt lat="45.1135744" lon="1.2591281"><ele>232.0</ele><time>2026-04-02T07:28:30.936Z</time></trkpt><trkpt lat="45.1135429" lon="1.258849"><ele>234.0</ele><time>2026-04-02T07:28:31.937Z</time></trkpt><trkpt lat="45.113526" lon="1.2585743"><ele>234.33333333333331</ele><time>2026-04-02T07:28:32.936Z</time></trkpt><trkpt lat="45.1135288" lon="1.2582835"><ele>234.66666666666666</ele><time>2026-04-02T07:28:33.938Z</time></trkpt><trkpt lat="45.1135537" lon="1.2579758"><ele>235.0</ele><time>2026-04-02T07:28:34.937Z</time></trkpt><trkpt lat="45.1135977" lon="1.2576503"><ele>235.0</ele><time>2026-04-02T07:28:35.938Z</time></trkpt><trkpt lat="45.1136527" lon="1.2573053"><ele>235.0</ele><time>2026-04-02T07:28:36.936Z</time></trkpt><trkpt lat="45.1136983" lon="1.2569887"><ele>235.0</ele><time>2026-04-02T07:28:37.937Z</time></trkpt><trkpt lat="45.1137462" lon="1.2566988"><ele>235.0</ele><time>2026-04-02T07:28:38.938Z</time></trkpt><trkpt lat="45.1138046" lon="1.2564323"><ele>235.0</ele><time>2026-04-02T07:28:39.938Z</time></trkpt><trkpt lat="45.1138565" lon="1.2561663"><ele>234.0</ele><time>2026-04-02T07:28:40.938Z</time></trkpt><trkpt lat="45.1138935" lon="1.2559151"><ele>233.0</ele><time>2026-04-02T07:28:41.937Z</time></trkpt><trkpt lat="45.1139367" lon="1.2556808"><ele>232.0</ele><time>2026-04-02T07:28:42.937Z</time></trkpt><trkpt lat="45.1139778" lon="1.2554612"><ele>232.0</ele><time>2026-04-02T07:28:43.938Z</time></trkpt><trkpt lat="45.1140194" lon="1.2552683"><ele>232.0</ele><time>2026-04-02T07:28:44.937Z</time></trkpt><trkpt lat="45.1140483" lon="1.2551019"><ele>232.0</ele><time>2026-04-02T07:28:45.937Z</time></trkpt><trkpt lat="45.1140456" lon="1.2549574"><ele>232.0</ele><time>2026-04-02T07:28:46.938Z</time></trkpt><trkpt lat="45.1140213" lon="1.2547918"><ele>233.33333333333331</ele><time>2026-04-02T07:28:47.937Z</time></trkpt><trkpt lat="45.1139687" lon="1.2546019"><ele>234.66666666666669</ele><time>2026-04-02T07:28:48.937Z</time></trkpt><trkpt lat="45.113916" lon="1.2543734"><ele>236.0</ele><time>2026-04-02T07:28:49.938Z</time></trkpt><trkpt lat="45.1138787" lon="1.254185"><ele>236.0</ele><time>2026-04-02T07:28:50.938Z</time></trkpt><trkpt lat="45.113838" lon="1.2539986"><ele>236.0</ele><time>2026-04-02T07:28:51.937Z</time></trkpt><trkpt lat="45.113788" lon="1.2537971"><ele>236.0</ele><time>2026-04-02T07:28:52.937Z</time></trkpt><trkpt lat="45.1137409" lon="1.2535994"><ele>236.0</ele><time>2026-04-02T07:28:53.938Z</time></trkpt><trkpt lat="45.1136984" lon="1.2534305"><ele>237.25</ele><time>2026-04-02T07:28:54.938Z</time></trkpt><trkpt lat="45.1136556" lon="1.2532635"><ele>238.5</ele><time>2026-04-02T07:28:55.937Z</time></trkpt><trkpt lat="45.1136291" lon="1.2530743"><ele>239.75</ele><time>2026-04-02T07:28:56.936Z</time></trkpt><trkpt lat="45.1136238" lon="1.2528574"><ele>241.0</ele><time>2026-04-02T07:28:57.938Z</time></trkpt><trkpt lat="45.1136195" lon="1.2526363"><ele>242.0</ele><time>2026-04-02T07:28:58.936Z</time></trkpt><trkpt lat="45.1136204" lon="1.2524148"><ele>243.0</ele><time>2026-04-02T07:28:59.938Z</time></trkpt><trkpt lat="45.1136346" lon="1.2521872"><ele>244.0</ele><time>2026-04-02T07:29:00.938Z</time></trkpt><trkpt lat="45.1136536" lon="1.2519365"><ele>244.0</ele><time>2026-04-02T07:29:01.938Z</time></trkpt><trkpt lat="45.1136766" lon="1.2516818"><ele>244.0</ele><time>2026-04-02T07:29:02.938Z</time></trkpt><trkpt lat="45.1136917" lon="1.2514504"><ele>244.0</ele><time>2026-04-02T07:29:03.937Z</time></trkpt><trkpt lat="45.1136998" lon="1.2512317"><ele>244.5</ele><time>2026-04-02T07:29:04.937Z</time></trkpt><trkpt lat="45.1136945" lon="1.2510409"><ele>245.0</ele><time>2026-04-02T07:29:05.938Z</time></trkpt><trkpt lat="45.1136824" lon="1.2508685"><ele>245.5</ele><time>2026-04-02T07:29:06.938Z</time></trkpt><trkpt lat="45.1136952" lon="1.2507038"><ele>246.0</ele><time>2026-04-02T07:29:07.938Z</time></trkpt><trkpt lat="45.1137411" lon="1.2505349"><ele>246.5</ele><time>2026-04-02T07:29:08.938Z</time></trkpt><trkpt lat="45.1138015" lon="1.2503496"><ele>247.0</ele><time>2026-04-02T07:29:09.937Z</time></trkpt><trkpt lat="45.113823" lon="1.2501746"><ele>247.5</ele><time>2026-04-02T07:29:10.937Z</time></trkpt><trkpt lat="45.1138482" lon="1.2500131"><ele>248.0</ele><time>2026-04-02T07:29:11.938Z</time></trkpt><trkpt lat="45.1138888" lon="1.2498655"><ele>248.25</ele><time>2026-04-02T07:29:12.938Z</time></trkpt><trkpt lat="45.1139483" lon="1.2497188"><ele>248.5</ele><time>2026-04-02T07:29:13.937Z</time></trkpt><trkpt lat="45.1140157" lon="1.2495727"><ele>248.75</ele><time>2026-04-02T07:29:14.936Z</time></trkpt><trkpt lat="45.1140849" lon="1.2494222"><ele>249.0</ele><time>2026-04-02T07:29:15.938Z</time></trkpt><trkpt lat="45.114152" lon="1.2492548"><ele>249.0</ele><time>2026-04-02T07:29:16.938Z</time></trkpt><trkpt lat="45.1142175" lon="1.2490815"><ele>249.0</ele><time>2026-04-02T07:29:17.937Z</time></trkpt><trkpt lat="45.114281" lon="1.2489305"><ele>249.0</ele><time>2026-04-02T07:29:18.937Z</time></trkpt><trkpt lat="45.1143432" lon="1.2487902"><ele>249.0</ele><time>2026-04-02T07:29:19.938Z</time></trkpt><trkpt lat="45.1144023" lon="1.2486597"><ele>247.79999999999998</ele><time>2026-04-02T07:29:20.938Z</time></trkpt><trkpt lat="45.1144582" lon="1.2485398"><ele>246.59999999999997</ele><time>2026-04-02T07:29:21.938Z</time></trkpt><trkpt lat="45.1145116" lon="1.2484281"><ele>245.4</ele><time>2026-04-02T07:29:22.937Z</time></trkpt><trkpt lat="45.1145588" lon="1.2483172"><ele>244.2</ele><time>2026-04-02T07:29:23.937Z</time></trkpt><trkpt lat="45.1145951" lon="1.2482091"><ele>243.0</ele><time>2026-04-02T07:29:24.937Z</time></trkpt><trkpt lat="45.1146262" lon="1.2481041"><ele>241.2</ele><time>2026-04-02T07:29:25.938Z</time></trkpt><trkpt lat="45.1146514" lon="1.2480001"><ele>239.4</ele><time>2026-04-02T07:29:26.937Z</time></trkpt><trkpt lat="45.1146711" lon="1.2479007"><ele>237.59999999999997</ele><time>2026-04-02T07:29:27.938Z</time></trkpt><trkpt lat="45.1146841" lon="1.2477421"><ele>235.79999999999998</ele><time>2026-04-02T07:29:29.937Z</time></trkpt><trkpt lat="45.114699" lon="1.2475761"><ele>234.0</ele><time>2026-04-02T07:29:31.937Z</time></trkpt><trkpt lat="45.1146995" lon="1.247427"><ele>230.16666666666666</ele><time>2026-04-02T07:29:33.937Z</time></trkpt><trkpt lat="45.1147248" lon="1.2472647"><ele>226.33333333333331</ele><time>2026-04-02T07:29:35.938Z</time></trkpt><trkpt lat="45.1147419" lon="1.2471785"><ele>222.5</ele><time>2026-04-02T07:29:36.937Z</time></trkpt><trkpt lat="45.1147633" lon="1.2470898"><ele>218.66666666666666</ele><time>2026-04-02T07:29:37.938Z</time></trkpt><trkpt lat="45.114788" lon="1.2470057"><ele>214.83333333333331</ele><time>2026-04-02T07:29:38.937Z</time></trkpt><trkpt lat="45.114817" lon="1.2469224"><ele>211.0</ele><time>2026-04-02T07:29:39.938Z</time></trkpt><trkpt lat="45.1148461" lon="1.2467479"><ele>211.0</ele><time>2026-04-02T07:29:41.936Z</time></trkpt><trkpt lat="45.1148462" lon="1.2466539"><ele>211.0</ele><time>2026-04-02T07:29:42.938Z</time></trkpt><trkpt lat="45.1148446" lon="1.2465575"><ele>211.0</ele><time>2026-04-02T07:29:43.937Z</time></trkpt><trkpt lat="45.1148494" lon="1.2464569"><ele>211.0</ele><time>2026-04-02T07:29:44.937Z</time></trkpt><trkpt lat="45.1148458" lon="1.2463506"><ele>211.0</ele><time>2026-04-02T07:29:45.938Z</time></trkpt><trkpt lat="45.1148402" lon="1.2462367"><ele>211.0</ele><time>2026-04-02T07:29:46.937Z</time></trkpt><trkpt lat="45.1148328" lon="1.2461356"><ele>211.0</ele><time>2026-04-02T07:29:47.938Z</time></trkpt><trkpt lat="45.1148292" lon="1.2459692"><ele>209.8</ele><time>2026-04-02T07:29:49.938Z</time></trkpt><trkpt lat="45.1148458" lon="1.2458426"><ele>208.60000000000002</ele><time>2026-04-02T07:29:51.937Z</time></trkpt><trkpt lat="45.1148741" lon="1.2457458"><ele>207.4</ele><time>2026-04-02T07:29:53.937Z</time></trkpt><trkpt lat="45.1149006" lon="1.2456147"><ele>206.2</ele><time>2026-04-02T07:29:55.937Z</time></trkpt><trkpt lat="45.1149453" lon="1.2454819"><ele>205.0</ele><time>2026-04-02T07:29:57.938Z</time></trkpt><trkpt lat="45.1149874" lon="1.2453414"><ele>205.0</ele><time>2026-04-02T07:29:59.936Z</time></trkpt><trkpt lat="45.115039" lon="1.2451981"><ele>205.0</ele><time>2026-04-02T07:30:01.937Z</time></trkpt><trkpt lat="45.1150996" lon="1.2450534"><ele>205.0</ele><time>2026-04-02T07:30:03.938Z</time></trkpt><trkpt lat="45.1151753" lon="1.2449071"><ele>205.0</ele><time>2026-04-02T07:30:05.937Z</time></trkpt><trkpt lat="45.115213" lon="1.2448319"><ele>205.0</ele><time>2026-04-02T07:30:06.938Z</time></trkpt><trkpt lat="45.1152462" lon="1.2447493"><ele>203.33333333333331</ele><time>2026-04-02T07:30:07.937Z</time></trkpt><trkpt lat="45.115274" lon="1.244662"><ele>201.66666666666666</ele><time>2026-04-02T07:30:08.937Z</time></trkpt><trkpt lat="45.1153016" lon="1.2445676"><ele>200.0</ele><time>2026-04-02T07:30:09.938Z</time></trkpt><trkpt lat="45.1153322" lon="1.2444698"><ele>198.33333333333331</ele><time>2026-04-02T07:30:10.936Z</time></trkpt><trkpt lat="45.1153617" lon="1.2443826"><ele>196.66666666666666</ele><time>2026-04-02T07:30:11.937Z</time></trkpt><trkpt lat="45.1154256" lon="1.2442377"><ele>195.0</ele><time>2026-04-02T07:30:13.938Z</time></trkpt><trkpt lat="45.1155097" lon="1.2441145"><ele>195.0</ele><time>2026-04-02T07:30:15.937Z</time></trkpt><trkpt lat="45.1155614" lon="1.24406"><ele>195.0</ele><time>2026-04-02T07:30:16.938Z</time></trkpt><trkpt lat="45.1156156" lon="1.2440108"><ele>195.0</ele><time>2026-04-02T07:30:17.938Z</time></trkpt><trkpt lat="45.1156777" lon="1.2439723"><ele>195.0</ele><time>2026-04-02T07:30:18.937Z</time></trkpt><trkpt lat="45.1157429" lon="1.2439504"><ele>195.0</ele><time>2026-04-02T07:30:19.938Z</time></trkpt><trkpt lat="45.1158086" lon="1.2439399"><ele>195.0</ele><time>2026-04-02T07:30:20.936Z</time></trkpt><trkpt lat="45.1158817" lon="1.2439261"><ele>195.0</ele><time>2026-04-02T07:30:21.936Z</time></trkpt><trkpt lat="45.1159472" lon="1.2439196"><ele>192.0</ele><time>2026-04-02T07:30:22.938Z</time></trkpt><trkpt lat="45.1160632" lon="1.243887"><ele>189.0</ele><time>2026-04-02T07:30:24.938Z</time></trkpt><trkpt lat="45.1161201" lon="1.2438474"><ele>186.0</ele><time>2026-04-02T07:30:25.938Z</time></trkpt><trkpt lat="45.1161805" lon="1.2438073"><ele>183.0</ele><time>2026-04-02T07:30:26.937Z</time></trkpt><trkpt lat="45.1162865" lon="1.2437308"><ele>180.0</ele><time>2026-04-02T07:30:28.937Z</time></trkpt><trkpt lat="45.1163664" lon="1.2435877"><ele>180.0</ele><time>2026-04-02T07:30:30.938Z</time></trkpt><trkpt lat="45.1164035" lon="1.2435053"><ele>180.0</ele><time>2026-04-02T07:30:31.937Z</time></trkpt><trkpt lat="45.1164889" lon="1.243395"><ele>180.0</ele><time>2026-04-02T07:30:33.937Z</time></trkpt><trkpt lat="45.1165357" lon="1.243334"><ele>180.0</ele><time>2026-04-02T07:30:34.937Z</time></trkpt><trkpt lat="45.116586" lon="1.2432801"><ele>180.0</ele><time>2026-04-02T07:30:35.938Z</time></trkpt><trkpt lat="45.1166391" lon="1.2432263"><ele>180.0</ele><time>2026-04-02T07:30:36.938Z</time></trkpt><trkpt lat="45.116691" lon="1.2431709"><ele>180.0</ele><time>2026-04-02T07:30:37.936Z</time></trkpt><trkpt lat="45.1167413" lon="1.2431148"><ele>176.83333333333334</ele><time>2026-04-02T07:30:38.938Z</time></trkpt><trkpt lat="45.1168148" lon="1.242995"><ele>173.66666666666666</ele><time>2026-04-02T07:30:40.936Z</time></trkpt><trkpt lat="45.1168558" lon="1.2429238"><ele>170.5</ele><time>2026-04-02T07:30:41.938Z</time></trkpt><trkpt lat="45.1169039" lon="1.2428382"><ele>167.33333333333331</ele><time>2026-04-02T07:30:42.938Z</time></trkpt><trkpt lat="45.1169509" lon="1.2427427"><ele>164.16666666666666</ele><time>2026-04-02T07:30:43.938Z</time></trkpt><trkpt lat="45.1169956" lon="1.2426434"><ele>161.0</ele><time>2026-04-02T07:30:44.938Z</time></trkpt><trkpt lat="45.1170331" lon="1.2425357"><ele>161.0</ele><time>2026-04-02T07:30:45.937Z</time></trkpt><trkpt lat="45.1170665" lon="1.2424253"><ele>161.0</ele><time>2026-04-02T07:30:46.937Z</time></trkpt><trkpt lat="45.1171001" lon="1.242317"><ele>161.0</ele><time>2026-04-02T07:30:47.937Z</time></trkpt><trkpt lat="45.1171273" lon="1.2422066"><ele>161.0</ele><time>2026-04-02T07:30:48.937Z</time></trkpt><trkpt lat="45.1171359" lon="1.2420913"><ele>161.0</ele><time>2026-04-02T07:30:49.937Z</time></trkpt><trkpt lat="45.1171272" lon="1.2419751"><ele>161.0</ele><time>2026-04-02T07:30:50.937Z</time></trkpt><trkpt lat="45.1170973" lon="1.241845"><ele>158.20000000000002</ele><time>2026-04-02T07:30:51.938Z</time></trkpt><trkpt lat="45.1170543" lon="1.2417102"><ele>155.4</ele><time>2026-04-02T07:30:52.937Z</time></trkpt><trkpt lat="45.1170086" lon="1.2415676"><ele>152.6</ele><time>2026-04-02T07:30:53.936Z</time></trkpt><trkpt lat="45.1169656" lon="1.2414265"><ele>149.8</ele><time>2026-04-02T07:30:54.937Z</time></trkpt><trkpt lat="45.1169235" lon="1.2412867"><ele>147.0</ele><time>2026-04-02T07:30:55.938Z</time></trkpt><trkpt lat="45.1168843" lon="1.2411461"><ele>146.2</ele><time>2026-04-02T07:30:56.938Z</time></trkpt><trkpt lat="45.1168473" lon="1.2410037"><ele>145.39999999999998</ele><time>2026-04-02T07:30:57.938Z</time></trkpt><trkpt lat="45.1168076" lon="1.2408665"><ele>144.60000000000002</ele><time>2026-04-02T07:30:58.937Z</time></trkpt><trkpt lat="45.1167655" lon="1.240739"><ele>143.8</ele><time>2026-04-02T07:30:59.937Z</time></trkpt><trkpt lat="45.1167225" lon="1.240614"><ele>143.0</ele><time>2026-04-02T07:31:00.937Z</time></trkpt><trkpt lat="45.116679" lon="1.2404921"><ele>143.0</ele><time>2026-04-02T07:31:01.936Z</time></trkpt><trkpt lat="45.1166395" lon="1.2403685"><ele>143.0</ele><time>2026-04-02T07:31:02.937Z</time></trkpt><trkpt lat="45.1166021" lon="1.2402425"><ele>143.0</ele><time>2026-04-02T07:31:03.937Z</time></trkpt><trkpt lat="45.1165731" lon="1.2401114"><ele>143.0</ele><time>2026-04-02T07:31:04.937Z</time></trkpt><trkpt lat="45.1165531" lon="1.2399847"><ele>143.0</ele><time>2026-04-02T07:31:05.938Z</time></trkpt><trkpt lat="45.1165463" lon="1.2398562"><ele>142.20000000000002</ele><time>2026-04-02T07:31:06.937Z</time></trkpt><trkpt lat="45.1165505" lon="1.2397256"><ele>141.4</ele><time>2026-04-02T07:31:07.936Z</time></trkpt><trkpt lat="45.1165601" lon="1.2395884"><ele>140.60000000000002</ele><time>2026-04-02T07:31:08.937Z</time></trkpt><trkpt lat="45.1165753" lon="1.2394492"><ele>139.8</ele><time>2026-04-02T07:31:09.938Z</time></trkpt><trkpt lat="45.1165933" lon="1.2393112"><ele>139.0</ele><time>2026-04-02T07:31:10.937Z</time></trkpt><trkpt lat="45.1166143" lon="1.2391737"><ele>139.0</ele><time>2026-04-02T07:31:11.937Z</time></trkpt><trkpt lat="45.1166407" lon="1.2390398"><ele>139.0</ele><time>2026-04-02T07:31:12.937Z</time></trkpt><trkpt lat="45.1166691" lon="1.2389083"><ele>139.0</ele><time>2026-04-02T07:31:13.937Z</time></trkpt><trkpt lat="45.1167047" lon="1.2387857"><ele>139.0</ele><time>2026-04-02T07:31:14.937Z</time></trkpt><trkpt lat="45.1167405" lon="1.2386639"><ele>139.0</ele><time>2026-04-02T07:31:15.937Z</time></trkpt><trkpt lat="45.116772" lon="1.2385346"><ele>136.8</ele><time>2026-04-02T07:31:16.937Z</time></trkpt><trkpt lat="45.1168111" lon="1.2384049"><ele>134.60000000000002</ele><time>2026-04-02T07:31:17.938Z</time></trkpt><trkpt lat="45.1168604" lon="1.2382789"><ele>132.4</ele><time>2026-04-02T07:31:18.936Z</time></trkpt><trkpt lat="45.1169262" lon="1.2381695"><ele>130.20000000000002</ele><time>2026-04-02T07:31:19.937Z</time></trkpt><trkpt lat="45.1169998" lon="1.2380627"><ele>128.0</ele><time>2026-04-02T07:31:20.936Z</time></trkpt><trkpt lat="45.1170721" lon="1.237931"><ele>125.4</ele><time>2026-04-02T07:31:21.937Z</time></trkpt><trkpt lat="45.1171213" lon="1.2377961"><ele>122.80000000000001</ele><time>2026-04-02T07:31:22.937Z</time></trkpt><trkpt lat="45.1171551" lon="1.2376559"><ele>120.2</ele><time>2026-04-02T07:31:23.937Z</time></trkpt><trkpt lat="45.1171855" lon="1.2375143"><ele>117.6</ele><time>2026-04-02T07:31:24.936Z</time></trkpt><trkpt lat="45.1172173" lon="1.2373693"><ele>115.0</ele><time>2026-04-02T07:31:25.938Z</time></trkpt><trkpt lat="45.1172476" lon="1.2372258"><ele>116.6</ele><time>2026-04-02T07:31:26.938Z</time></trkpt><trkpt lat="45.1172799" lon="1.2370738"><ele>118.2</ele><time>2026-04-02T07:31:27.937Z</time></trkpt><trkpt lat="45.1173169" lon="1.2369262"><ele>119.80000000000001</ele><time>2026-04-02T07:31:28.938Z</time></trkpt><trkpt lat="45.1173553" lon="1.2367883"><ele>121.4</ele><time>2026-04-02T07:31:29.938Z</time></trkpt><trkpt lat="45.1173978" lon="1.2366611"><ele>123.0</ele><time>2026-04-02T07:31:30.939Z</time></trkpt><trkpt lat="45.1174388" lon="1.2365429"><ele>119.60000000000001</ele><time>2026-04-02T07:31:31.938Z</time></trkpt><trkpt lat="45.1174791" lon="1.2364254"><ele>116.20000000000002</ele><time>2026-04-02T07:31:32.939Z</time></trkpt><trkpt lat="45.1175175" lon="1.2363071"><ele>112.8</ele><time>2026-04-02T07:31:33.937Z</time></trkpt><trkpt lat="45.1175534" lon="1.2361911"><ele>109.4</ele><time>2026-04-02T07:31:34.938Z</time></trkpt><trkpt lat="45.1175876" lon="1.236069"><ele>106.0</ele><time>2026-04-02T07:31:35.939Z</time></trkpt><trkpt lat="45.1176136" lon="1.2359402"><ele>106.0</ele><time>2026-04-02T07:31:36.939Z</time></trkpt><trkpt lat="45.1176312" lon="1.2358163"><ele>106.0</ele><time>2026-04-02T07:31:37.939Z</time></trkpt><trkpt lat="45.1176622" lon="1.2356999"><ele>106.0</ele><time>2026-04-02T07:31:38.939Z</time></trkpt><trkpt lat="45.1177036" lon="1.2355855"><ele>106.0</ele><time>2026-04-02T07:31:39.938Z</time></trkpt><trkpt lat="45.1177506" lon="1.2354687"><ele>106.0</ele><time>2026-04-02T07:31:40.938Z</time></trkpt><trkpt lat="45.1177999" lon="1.2353501"><ele>103.8</ele><time>2026-04-02T07:31:41.938Z</time></trkpt><trkpt lat="45.1178511" lon="1.2352331"><ele>101.6</ele><time>2026-04-02T07:31:42.939Z</time></trkpt><trkpt lat="45.1179005" lon="1.2351125"><ele>99.4</ele><time>2026-04-02T07:31:43.939Z</time></trkpt><trkpt lat="45.1179487" lon="1.2349981"><ele>97.2</ele><time>2026-04-02T07:31:44.938Z</time></trkpt><trkpt lat="45.1179877" lon="1.2349008"><ele>95.0</ele><time>2026-04-02T07:31:45.938Z</time></trkpt><trkpt lat="45.1180304" lon="1.2347978"><ele>94.5</ele><time>2026-04-02T07:31:46.938Z</time></trkpt><trkpt lat="45.1180712" lon="1.2346958"><ele>94.0</ele><time>2026-04-02T07:31:47.938Z</time></trkpt><trkpt lat="45.1181068" lon="1.2345972"><ele>93.5</ele><time>2026-04-02T07:31:48.938Z</time></trkpt><trkpt lat="45.1181399" lon="1.234507"><ele>93.0</ele><time>2026-04-02T07:31:49.939Z</time></trkpt><trkpt lat="45.1181676" lon="1.2344202"><ele>92.5</ele><time>2026-04-02T07:31:50.937Z</time></trkpt><trkpt lat="45.1182164" lon="1.2342708"><ele>92.0</ele><time>2026-04-02T07:31:52.939Z</time></trkpt><trkpt lat="45.1182495" lon="1.2341783"><ele>92.0</ele><time>2026-04-02T07:31:54.937Z</time></trkpt><trkpt lat="45.1182744" lon="1.234087"><ele>92.0</ele><time>2026-04-02T07:31:57.939Z</time></trkpt><trkpt lat="45.1182317" lon="1.2339769"><ele>92.0</ele><time>2026-04-02T07:31:59.938Z</time></trkpt><trkpt lat="45.1181688" lon="1.2339217"><ele>92.0</ele><time>2026-04-02T07:32:00.939Z</time></trkpt><trkpt lat="45.1180949" lon="1.2338622"><ele>92.0</ele><time>2026-04-02T07:32:01.939Z</time></trkpt><trkpt lat="45.1180234" lon="1.2337877"><ele>92.0</ele><time>2026-04-02T07:32:02.938Z</time></trkpt><trkpt lat="45.1179582" lon="1.2337011"><ele>91.16666666666667</ele><time>2026-04-02T07:32:03.939Z</time></trkpt><trkpt lat="45.1179014" lon="1.2336143"><ele>90.33333333333334</ele><time>2026-04-02T07:32:04.939Z</time></trkpt><trkpt lat="45.1178528" lon="1.2335249"><ele>89.5</ele><time>2026-04-02T07:32:05.939Z</time></trkpt><trkpt lat="45.1178018" lon="1.2333935"><ele>88.66666666666667</ele><time>2026-04-02T07:32:07.938Z</time></trkpt><trkpt lat="45.1177769" lon="1.2332889"><ele>87.83333333333333</ele><time>2026-04-02T07:32:09.939Z</time></trkpt><trkpt lat="45.1177357" lon="1.233198"><ele>87.0</ele><time>2026-04-02T07:32:17.938Z</time></trkpt><trkpt lat="45.1176576" lon="1.233165"><ele>87.0</ele><time>2026-04-02T07:32:26.939Z</time></trkpt><trkpt lat="45.1175707" lon="1.2332089"><ele>87.0</ele><time>2026-04-02T07:32:28.939Z</time></trkpt><trkpt lat="45.1174753" lon="1.233165"><ele>87.0</ele><time>2026-04-02T07:32:30.938Z</time></trkpt><trkpt lat="45.1174166" lon="1.233092"><ele>87.0</ele><time>2026-04-02T07:32:31.939Z</time></trkpt><trkpt lat="45.1173465" lon="1.2330059"><ele>87.0</ele><time>2026-04-02T07:32:32.938Z</time></trkpt><trkpt lat="45.1172703" lon="1.2329138"><ele>87.39999999999999</ele><time>2026-04-02T07:32:33.938Z</time></trkpt><trkpt lat="45.1171934" lon="1.2328197"><ele>87.8</ele><time>2026-04-02T07:32:34.939Z</time></trkpt><trkpt lat="45.1171137" lon="1.2327195"><ele>88.2</ele><time>2026-04-02T07:32:35.939Z</time></trkpt><trkpt lat="45.1170304" lon="1.2326181"><ele>88.6</ele><time>2026-04-02T07:32:36.937Z</time></trkpt><trkpt lat="45.1169435" lon="1.2325193"><ele>89.0</ele><time>2026-04-02T07:32:37.938Z</time></trkpt><trkpt lat="45.1168598" lon="1.232431"><ele>88.99999999999999</ele><time>2026-04-02T07:32:38.938Z</time></trkpt><trkpt lat="45.116795" lon="1.2323671"><ele>89.0</ele><time>2026-04-02T07:32:39.939Z</time></trkpt><trkpt lat="45.1167305" lon="1.2323305"><ele>89.0</ele><time>2026-04-02T07:32:40.938Z</time></trkpt><trkpt lat="45.1166674" lon="1.2323419"><ele>89.0</ele><time>2026-04-02T07:32:41.938Z</time></trkpt><trkpt lat="45.1166089" lon="1.232389"><ele>89.0</ele><time>2026-04-02T07:32:42.939Z</time></trkpt><trkpt lat="45.1165563" lon="1.2324663"><ele>88.99999999999999</ele><time>2026-04-02T07:32:43.937Z</time></trkpt><trkpt lat="45.1165131" lon="1.2325819"><ele>89.0</ele><time>2026-04-02T07:32:44.939Z</time></trkpt><trkpt lat="45.1164714" lon="1.2327153"><ele>89.25</ele><time>2026-04-02T07:32:45.938Z</time></trkpt><trkpt lat="45.11643" lon="1.2328499"><ele>89.5</ele><time>2026-04-02T07:32:46.938Z</time></trkpt><trkpt lat="45.1163846" lon="1.2329951"><ele>89.75</ele><time>2026-04-02T07:32:47.939Z</time></trkpt><trkpt lat="45.1163353" lon="1.2331429"><ele>90.0</ele><time>2026-04-02T07:32:48.937Z</time></trkpt><trkpt lat="45.1162875" lon="1.2332972"><ele>90.0</ele><time>2026-04-02T07:32:49.939Z</time></trkpt><trkpt lat="45.1162371" lon="1.2334564"><ele>90.0</ele><time>2026-04-02T07:32:50.939Z</time></trkpt><trkpt lat="45.116185" lon="1.2336192"><ele>90.0</ele><time>2026-04-02T07:32:51.938Z</time></trkpt><trkpt lat="45.116134" lon="1.2337796"><ele>90.0</ele><time>2026-04-02T07:32:52.939Z</time></trkpt><trkpt lat="45.1160863" lon="1.2339416"><ele>89.6</ele><time>2026-04-02T07:32:53.938Z</time></trkpt><trkpt lat="45.1160441" lon="1.2340932"><ele>89.2</ele><time>2026-04-02T07:32:54.939Z</time></trkpt><trkpt lat="45.1160033" lon="1.2342146"><ele>88.80000000000001</ele><time>2026-04-02T07:32:55.938Z</time></trkpt><trkpt lat="45.1159605" lon="1.2342951"><ele>88.4</ele><time>2026-04-02T07:32:56.938Z</time></trkpt><trkpt lat="45.1158307" lon="1.2343224"><ele>88.0</ele><time>2026-04-02T07:32:58.937Z</time></trkpt><trkpt lat="45.1157472" lon="1.2343151"><ele>88.0</ele><time>2026-04-02T07:32:59.939Z</time></trkpt><trkpt lat="45.1156616" lon="1.2343232"><ele>88.0</ele><time>2026-04-02T07:33:00.938Z</time></trkpt><trkpt lat="45.1155749" lon="1.2343323"><ele>88.0</ele><time>2026-04-02T07:33:01.938Z</time></trkpt><trkpt lat="45.1154927" lon="1.2343341"><ele>88.0</ele><time>2026-04-02T07:33:02.939Z</time></trkpt><trkpt lat="45.1154158" lon="1.2343416"><ele>88.0</ele><time>2026-04-02T07:33:03.938Z</time></trkpt><trkpt lat="45.1153478" lon="1.234376"><ele>88.0</ele><time>2026-04-02T07:33:04.939Z</time></trkpt><trkpt lat="45.1152854" lon="1.2344368"><ele>88.0</ele><time>2026-04-02T07:33:05.939Z</time></trkpt><trkpt lat="45.1152208" lon="1.2344743"><ele>88.0</ele><time>2026-04-02T07:33:06.937Z</time></trkpt><trkpt lat="45.1151439" lon="1.2344582"><ele>88.0</ele><time>2026-04-02T07:33:07.938Z</time></trkpt><trkpt lat="45.1150602" lon="1.2344139"><ele>88.0</ele><time>2026-04-02T07:33:08.938Z</time></trkpt><trkpt lat="45.1149619" lon="1.234348"><ele>88.0</ele><time>2026-04-02T07:33:09.938Z</time></trkpt><trkpt lat="45.114857" lon="1.2342804"><ele>91.0</ele><time>2026-04-02T07:33:10.938Z</time></trkpt><trkpt lat="45.1147532" lon="1.2342095"><ele>94.0</ele><time>2026-04-02T07:33:11.938Z</time></trkpt><trkpt lat="45.1146534" lon="1.2341399"><ele>97.0</ele><time>2026-04-02T07:33:12.939Z</time></trkpt><trkpt lat="45.1145625" lon="1.234072"><ele>100.0</ele><time>2026-04-02T07:33:13.937Z</time></trkpt><trkpt lat="45.1144786" lon="1.234016"><ele>103.0</ele><time>2026-04-02T07:33:14.939Z</time></trkpt><trkpt lat="45.1144103" lon="1.2339801"><ele>103.00000000000001</ele><time>2026-04-02T07:33:15.938Z</time></trkpt><trkpt lat="45.1143466" lon="1.2339816"><ele>103.0</ele><time>2026-04-02T07:33:16.939Z</time></trkpt><trkpt lat="45.114291" lon="1.2340271"><ele>103.0</ele><time>2026-04-02T07:33:17.939Z</time></trkpt><trkpt lat="45.1142399" lon="1.234122"><ele>103.0</ele><time>2026-04-02T07:33:18.939Z</time></trkpt><trkpt lat="45.1141912" lon="1.2342509"><ele>103.00000000000001</ele><time>2026-04-02T07:33:19.938Z</time></trkpt><trkpt lat="45.1141486" lon="1.2343641"><ele>103.0</ele><time>2026-04-02T07:33:20.938Z</time></trkpt><trkpt lat="45.1141065" lon="1.234457"><ele>104.00000000000001</ele><time>2026-04-02T07:33:21.938Z</time></trkpt><trkpt lat="45.1140507" lon="1.2345418"><ele>105.0</ele><time>2026-04-02T07:33:22.939Z</time></trkpt><trkpt lat="45.1139953" lon="1.2346138"><ele>106.0</ele><time>2026-04-02T07:33:23.938Z</time></trkpt><trkpt lat="45.1139426" lon="1.234683"><ele>107.0</ele><time>2026-04-02T07:33:24.939Z</time></trkpt><trkpt lat="45.1138868" lon="1.2347468"><ele>108.00000000000001</ele><time>2026-04-02T07:33:25.938Z</time></trkpt><trkpt lat="45.1138335" lon="1.2348"><ele>109.0</ele><time>2026-04-02T07:33:26.938Z</time></trkpt><trkpt lat="45.1137261" lon="1.2348722"><ele>109.00000000000001</ele><time>2026-04-02T07:33:28.938Z</time></trkpt><trkpt lat="45.1136599" lon="1.2348773"><ele>109.0</ele><time>2026-04-02T07:33:29.938Z</time></trkpt><trkpt lat="45.113594" lon="1.2348878"><ele>109.0</ele><time>2026-04-02T07:33:30.938Z</time></trkpt><trkpt lat="45.1134749" lon="1.2348997"><ele>109.0</ele><time>2026-04-02T07:33:32.939Z</time></trkpt><trkpt lat="45.1133899" lon="1.2349215"><ele>109.00000000000001</ele><time>2026-04-02T07:33:34.939Z</time></trkpt><trkpt lat="45.1132887" lon="1.2349485"><ele>109.0</ele><time>2026-04-02T07:33:36.938Z</time></trkpt><trkpt lat="45.1132042" lon="1.2350128"><ele>112.33333333333334</ele><time>2026-04-02T07:33:38.938Z</time></trkpt><trkpt lat="45.1130855" lon="1.2350806"><ele>115.66666666666667</ele><time>2026-04-02T07:33:40.939Z</time></trkpt><trkpt lat="45.1130219" lon="1.2351125"><ele>119.0</ele><time>2026-04-02T07:33:41.938Z</time></trkpt><trkpt lat="45.1129563" lon="1.2351398"><ele>122.33333333333334</ele><time>2026-04-02T07:33:42.939Z</time></trkpt><trkpt lat="45.1128889" lon="1.2351634"><ele>125.66666666666667</ele><time>2026-04-02T07:33:43.938Z</time></trkpt><trkpt lat="45.1128227" lon="1.2351856"><ele>129.0</ele><time>2026-04-02T07:33:44.938Z</time></trkpt><trkpt lat="45.1127352" lon="1.2352558"><ele>129.0</ele><time>2026-04-02T07:33:46.937Z</time></trkpt><trkpt lat="45.112642" lon="1.2353167"><ele>129.0</ele><time>2026-04-02T07:33:48.939Z</time></trkpt><trkpt lat="45.1125763" lon="1.2354037"><ele>129.0</ele><time>2026-04-02T07:33:50.938Z</time></trkpt><trkpt lat="45.1124931" lon="1.2355027"><ele>129.0</ele><time>2026-04-02T07:33:52.938Z</time></trkpt><trkpt lat="45.1124028" lon="1.2355989"><ele>129.0</ele><time>2026-04-02T07:33:54.939Z</time></trkpt><trkpt lat="45.1123272" lon="1.235667"><ele>130.0</ele><time>2026-04-02T07:33:56.938Z</time></trkpt><trkpt lat="45.1122578" lon="1.2357628"><ele>131.0</ele><time>2026-04-02T07:33:58.939Z</time></trkpt><trkpt lat="45.1121943" lon="1.2358246"><ele>132.0</ele><time>2026-04-02T07:34:00.939Z</time></trkpt><trkpt lat="45.1121241" lon="1.2359169"><ele>133.0</ele><time>2026-04-02T07:34:02.938Z</time></trkpt><trkpt lat="45.1120258" lon="1.2359541"><ele>134.0</ele><time>2026-04-02T07:34:04.937Z</time></trkpt><trkpt lat="45.111912" lon="1.2359526"><ele>134.0</ele><time>2026-04-02T07:34:06.938Z</time></trkpt><trkpt lat="45.1118093" lon="1.2360355"><ele>134.0</ele><time>2026-04-02T07:34:08.938Z</time></trkpt><trkpt lat="45.1117578" lon="1.2360903"><ele>134.0</ele><time>2026-04-02T07:34:09.938Z</time></trkpt><trkpt lat="45.1116916" lon="1.2361345"><ele>134.0</ele><time>2026-04-02T07:34:10.937Z</time></trkpt><trkpt lat="45.1116371" lon="1.2361832"><ele>134.0</ele><time>2026-04-02T07:34:11.938Z</time></trkpt><trkpt lat="45.1115523" lon="1.2362792"><ele>134.0</ele><time>2026-04-02T07:34:13.939Z</time></trkpt><trkpt lat="45.111466" lon="1.2363552"><ele>135.83333333333331</ele><time>2026-04-02T07:34:15.939Z</time></trkpt><trkpt lat="45.1113744" lon="1.2364097"><ele>137.66666666666666</ele><time>2026-04-02T07:34:17.939Z</time></trkpt><trkpt lat="45.1113136" lon="1.2364733"><ele>139.5</ele><time>2026-04-02T07:34:19.939Z</time></trkpt><trkpt lat="45.1112721" lon="1.2365533"><ele>141.33333333333334</ele><time>2026-04-02T07:34:22.938Z</time></trkpt><trkpt lat="45.1112141" lon="1.2366032"><ele>143.16666666666669</ele><time>2026-04-02T07:34:24.939Z</time></trkpt><trkpt lat="45.1111281" lon="1.2366683"><ele>145.0</ele><time>2026-04-02T07:34:26.938Z</time></trkpt><trkpt lat="45.1110223" lon="1.2367228"><ele>145.0</ele><time>2026-04-02T07:34:28.939Z</time></trkpt><trkpt lat="45.1109267" lon="1.2368067"><ele>145.0</ele><time>2026-04-02T07:34:30.938Z</time></trkpt><trkpt lat="45.1108129" lon="1.2368744"><ele>145.0</ele><time>2026-04-02T07:34:32.938Z</time></trkpt><trkpt lat="45.1107122" lon="1.2369125"><ele>145.0</ele><time>2026-04-02T07:34:34.939Z</time></trkpt><trkpt lat="45.1106305" lon="1.2369535"><ele>145.0</ele><time>2026-04-02T07:34:36.939Z</time></trkpt><trkpt lat="45.110554" lon="1.236993"><ele>146.0</ele><time>2026-04-02T07:34:38.939Z</time></trkpt><trkpt lat="45.1104791" lon="1.2370058"><ele>147.0</ele><time>2026-04-02T07:34:45.939Z</time></trkpt><trkpt lat="45.110418" lon="1.2369552"><ele>148.0</ele><time>2026-04-02T07:34:49.937Z</time></trkpt><trkpt lat="45.1103581" lon="1.2370091"><ele>149.0</ele><time>2026-04-02T07:34:53.938Z</time></trkpt><trkpt lat="45.1103103" lon="1.2369337"><ele>150.0</ele><time>2026-04-02T07:35:02.939Z</time></trkpt><trkpt lat="45.1102902" lon="1.2368419"><ele>151.0</ele><time>2026-04-02T07:35:11.939Z</time></trkpt><trkpt lat="45.1102243" lon="1.23684"><ele>152.0</ele><time>2026-04-02T07:35:17.939Z</time></trkpt><trkpt lat="45.1101727" lon="1.2369206"><ele>152.0</ele><time>2026-04-02T07:35:19.939Z</time></trkpt><trkpt lat="45.1100765" lon="1.2370331"><ele>152.0</ele><time>2026-04-02T07:35:21.938Z</time></trkpt><trkpt lat="45.1099877" lon="1.2371253"><ele>152.0</ele><time>2026-04-02T07:35:23.939Z</time></trkpt><trkpt lat="45.1099412" lon="1.237187"><ele>152.0</ele><time>2026-04-02T07:35:24.939Z</time></trkpt><trkpt lat="45.1098618" lon="1.237294"><ele>152.0</ele><time>2026-04-02T07:35:26.939Z</time></trkpt><trkpt lat="45.1097847" lon="1.2374049"><ele>152.0</ele><time>2026-04-02T07:35:28.94Z</time></trkpt><trkpt lat="45.1097208" lon="1.2374742"><ele>152.0</ele><time>2026-04-02T07:35:30.938Z</time></trkpt><trkpt lat="45.1096644" lon="1.237555"><ele>152.0</ele><time>2026-04-02T07:35:32.938Z</time></trkpt><trkpt lat="45.1096159" lon="1.2376165"><ele>152.0</ele><time>2026-04-02T07:35:34.939Z</time></trkpt><trkpt lat="45.1095843" lon="1.2377433"><ele>152.0</ele><time>2026-04-02T07:35:38.939Z</time></trkpt><trkpt lat="45.1095266" lon="1.2377945"><ele>152.0</ele><time>2026-04-02T07:35:39.939Z</time></trkpt><trkpt lat="45.109469" lon="1.2378705"><ele>152.0</ele><time>2026-04-02T07:35:40.939Z</time></trkpt><trkpt lat="45.1093766" lon="1.2379465"><ele>152.0</ele><time>2026-04-02T07:35:42.939Z</time></trkpt><trkpt lat="45.1092629" lon="1.2379992"><ele>152.0</ele><time>2026-04-02T07:35:44.94Z</time></trkpt><trkpt lat="45.109168" lon="1.2380444"><ele>152.0</ele><time>2026-04-02T07:35:46.939Z</time></trkpt><trkpt lat="45.1091089" lon="1.2379896"><ele>152.0</ele><time>2026-04-02T07:35:49.939Z</time></trkpt><trkpt lat="45.1091035" lon="1.2378629"><ele>152.0</ele><time>2026-04-02T07:35:51.939Z</time></trkpt><trkpt lat="45.1091222" lon="1.237685"><ele>152.0</ele><time>2026-04-02T07:35:53.94Z</time></trkpt><trkpt lat="45.1091445" lon="1.2375751"><ele>152.0</ele><time>2026-04-02T07:35:54.938Z</time></trkpt><trkpt lat="45.1091719" lon="1.2374555"><ele>152.0</ele><time>2026-04-02T07:35:55.939Z</time></trkpt><trkpt lat="45.1091977" lon="1.2373303"><ele>152.0</ele><time>2026-04-02T07:35:56.939Z</time></trkpt><trkpt lat="45.1092186" lon="1.2372043"><ele>151.0</ele><time>2026-04-02T07:35:57.939Z</time></trkpt><trkpt lat="45.1092323" lon="1.2370751"><ele>150.0</ele><time>2026-04-02T07:35:58.938Z</time></trkpt><trkpt lat="45.1092549" lon="1.2369517"><ele>149.0</ele><time>2026-04-02T07:35:59.939Z</time></trkpt><trkpt lat="45.1092806" lon="1.2368184"><ele>148.0</ele><time>2026-04-02T07:36:00.94Z</time></trkpt><trkpt lat="45.1093042" lon="1.2366793"><ele>147.0</ele><time>2026-04-02T07:36:01.939Z</time></trkpt><trkpt lat="45.1093287" lon="1.2365409"><ele>146.2</ele><time>2026-04-02T07:36:02.939Z</time></trkpt><trkpt lat="45.1093515" lon="1.2363975"><ele>145.39999999999998</ele><time>2026-04-02T07:36:03.94Z</time></trkpt><trkpt lat="45.1093615" lon="1.2362504"><ele>144.60000000000002</ele><time>2026-04-02T07:36:04.94Z</time></trkpt><trkpt lat="45.1093836" lon="1.2361051"><ele>143.8</ele><time>2026-04-02T07:36:05.94Z</time></trkpt><trkpt lat="45.1094161" lon="1.2359668"><ele>143.0</ele><time>2026-04-02T07:36:06.939Z</time></trkpt><trkpt lat="45.1094558" lon="1.2358402"><ele>143.0</ele><time>2026-04-02T07:36:07.939Z</time></trkpt><trkpt lat="45.1095109" lon="1.2357374"><ele>143.0</ele><time>2026-04-02T07:36:08.939Z</time></trkpt><trkpt lat="45.1095741" lon="1.2356535"><ele>143.0</ele><time>2026-04-02T07:36:09.939Z</time></trkpt><trkpt lat="45.1096399" lon="1.23558"><ele>143.0</ele><time>2026-04-02T07:36:10.939Z</time></trkpt><trkpt lat="45.1097139" lon="1.2354973"><ele>143.0</ele><time>2026-04-02T07:36:11.94Z</time></trkpt><trkpt lat="45.1097947" lon="1.23542"><ele>143.20000000000002</ele><time>2026-04-02T07:36:12.94Z</time></trkpt><trkpt lat="45.1098823" lon="1.2353451"><ele>143.4</ele><time>2026-04-02T07:36:13.939Z</time></trkpt><trkpt lat="45.1099712" lon="1.2352649"><ele>143.60000000000002</ele><time>2026-04-02T07:36:14.938Z</time></trkpt><trkpt lat="45.1100607" lon="1.2351768"><ele>143.8</ele><time>2026-04-02T07:36:15.939Z</time></trkpt><trkpt lat="45.1101438" lon="1.2350806"><ele>144.0</ele><time>2026-04-02T07:36:16.939Z</time></trkpt><trkpt lat="45.1102224" lon="1.234973"><ele>142.8</ele><time>2026-04-02T07:36:17.938Z</time></trkpt><trkpt lat="45.1102984" lon="1.2348572"><ele>141.60000000000002</ele><time>2026-04-02T07:36:18.94Z</time></trkpt><trkpt lat="45.1103688" lon="1.2347477"><ele>140.4</ele><time>2026-04-02T07:36:19.94Z</time></trkpt><trkpt lat="45.1104331" lon="1.2346397"><ele>139.20000000000002</ele><time>2026-04-02T07:36:20.94Z</time></trkpt><trkpt lat="45.1104733" lon="1.234522"><ele>138.0</ele><time>2026-04-02T07:36:21.939Z</time></trkpt><trkpt lat="45.1104874" lon="1.234403"><ele>137.20000000000002</ele><time>2026-04-02T07:36:22.94Z</time></trkpt><trkpt lat="45.1104776" lon="1.2342864"><ele>136.4</ele><time>2026-04-02T07:36:23.94Z</time></trkpt><trkpt lat="45.1104498" lon="1.2341646"><ele>135.60000000000002</ele><time>2026-04-02T07:36:24.939Z</time></trkpt><trkpt lat="45.1104052" lon="1.234031"><ele>134.8</ele><time>2026-04-02T07:36:25.94Z</time></trkpt><trkpt lat="45.1103559" lon="1.2338862"><ele>134.0</ele><time>2026-04-02T07:36:26.94Z</time></trkpt><trkpt lat="45.1103127" lon="1.2337485"><ele>133.0</ele><time>2026-04-02T07:36:27.939Z</time></trkpt><trkpt lat="45.1102781" lon="1.2336061"><ele>132.0</ele><time>2026-04-02T07:36:28.939Z</time></trkpt><trkpt lat="45.1102498" lon="1.2334656"><ele>131.0</ele><time>2026-04-02T07:36:29.94Z</time></trkpt><trkpt lat="45.1102254" lon="1.2333284"><ele>130.0</ele><time>2026-04-02T07:36:30.94Z</time></trkpt><trkpt lat="45.110206" lon="1.2331903"><ele>129.0</ele><time>2026-04-02T07:36:31.939Z</time></trkpt><trkpt lat="45.1101932" lon="1.2330506"><ele>127.4</ele><time>2026-04-02T07:36:32.94Z</time></trkpt><trkpt lat="45.1101831" lon="1.2329084"><ele>125.80000000000001</ele><time>2026-04-02T07:36:33.939Z</time></trkpt><trkpt lat="45.1101734" lon="1.2327708"><ele>124.19999999999999</ele><time>2026-04-02T07:36:34.94Z</time></trkpt><trkpt lat="45.1101644" lon="1.2326403"><ele>122.6</ele><time>2026-04-02T07:36:35.939Z</time></trkpt><trkpt lat="45.1101564" lon="1.2325106"><ele>121.0</ele><time>2026-04-02T07:36:36.94Z</time></trkpt><trkpt lat="45.1101507" lon="1.2323827"><ele>119.8</ele><time>2026-04-02T07:36:37.94Z</time></trkpt><trkpt lat="45.1101386" lon="1.2322565"><ele>118.6</ele><time>2026-04-02T07:36:38.939Z</time></trkpt><trkpt lat="45.1101126" lon="1.2321316"><ele>117.4</ele><time>2026-04-02T07:36:39.94Z</time></trkpt><trkpt lat="45.1100778" lon="1.2320134"><ele>116.2</ele><time>2026-04-02T07:36:40.94Z</time></trkpt><trkpt lat="45.1100254" lon="1.2319083"><ele>115.0</ele><time>2026-04-02T07:36:41.94Z</time></trkpt><trkpt lat="45.109952" lon="1.2318206"><ele>114.8</ele><time>2026-04-02T07:36:42.939Z</time></trkpt><trkpt lat="45.1098628" lon="1.2317429"><ele>114.6</ele><time>2026-04-02T07:36:43.94Z</time></trkpt><trkpt lat="45.1097641" lon="1.2316752"><ele>114.4</ele><time>2026-04-02T07:36:44.939Z</time></trkpt><trkpt lat="45.1096602" lon="1.2316036"><ele>114.2</ele><time>2026-04-02T07:36:45.94Z</time></trkpt><trkpt lat="45.1095597" lon="1.2315309"><ele>114.0</ele><time>2026-04-02T07:36:46.939Z</time></trkpt><trkpt lat="45.1094642" lon="1.2314569"><ele>112.2</ele><time>2026-04-02T07:36:47.94Z</time></trkpt><trkpt lat="45.1093888" lon="1.2313659"><ele>110.4</ele><time>2026-04-02T07:36:48.939Z</time></trkpt><trkpt lat="45.1093356" lon="1.2312508"><ele>108.6</ele><time>2026-04-02T07:36:49.939Z</time></trkpt><trkpt lat="45.1092945" lon="1.2311208"><ele>106.8</ele><time>2026-04-02T07:36:50.939Z</time></trkpt><trkpt lat="45.1092527" lon="1.2309838"><ele>105.0</ele><time>2026-04-02T07:36:51.939Z</time></trkpt><trkpt lat="45.1092072" lon="1.2308378"><ele>105.0</ele><time>2026-04-02T07:36:52.939Z</time></trkpt><trkpt lat="45.1091608" lon="1.2306784"><ele>105.0</ele><time>2026-04-02T07:36:53.939Z</time></trkpt><trkpt lat="45.1091208" lon="1.2305108"><ele>105.0</ele><time>2026-04-02T07:36:54.939Z</time></trkpt><trkpt lat="45.1090878" lon="1.2303387"><ele>105.0</ele><time>2026-04-02T07:36:55.94Z</time></trkpt><trkpt lat="45.1090623" lon="1.2301698"><ele>105.8</ele><time>2026-04-02T07:36:56.939Z</time></trkpt><trkpt lat="45.1090404" lon="1.2300084"><ele>106.6</ele><time>2026-04-02T07:36:57.939Z</time></trkpt><trkpt lat="45.1090174" lon="1.2298538"><ele>107.4</ele><time>2026-04-02T07:36:58.94Z</time></trkpt><trkpt lat="45.1089924" lon="1.2297035"><ele>108.2</ele><time>2026-04-02T07:36:59.94Z</time></trkpt><trkpt lat="45.1089731" lon="1.2295616"><ele>109.0</ele><time>2026-04-02T07:37:00.939Z</time></trkpt><trkpt lat="45.1089611" lon="1.2294253"><ele>107.2</ele><time>2026-04-02T07:37:01.94Z</time></trkpt><trkpt lat="45.1089506" lon="1.2293223"><ele>105.4</ele><time>2026-04-02T07:37:02.94Z</time></trkpt><trkpt lat="45.108904" lon="1.2291998"><ele>103.6</ele><time>2026-04-02T07:37:04.94Z</time></trkpt><trkpt lat="45.1087986" lon="1.2291852"><ele>101.8</ele><time>2026-04-02T07:37:06.939Z</time></trkpt><trkpt lat="45.1087176" lon="1.2292044"><ele>100.0</ele><time>2026-04-02T07:37:07.94Z</time></trkpt><trkpt lat="45.1086115" lon="1.2292274"><ele>100.0</ele><time>2026-04-02T07:37:08.939Z</time></trkpt><trkpt lat="45.1084945" lon="1.2292628"><ele>100.0</ele><time>2026-04-02T07:37:09.939Z</time></trkpt><trkpt lat="45.1083761" lon="1.2293143"><ele>100.0</ele><time>2026-04-02T07:37:10.94Z</time></trkpt><trkpt lat="45.1082442" lon="1.2293785"><ele>100.0</ele><time>2026-04-02T07:37:11.94Z</time></trkpt><trkpt lat="45.1081046" lon="1.2294491"><ele>102.0</ele><time>2026-04-02T07:37:12.939Z</time></trkpt><trkpt lat="45.1079637" lon="1.2295256"><ele>104.0</ele><time>2026-04-02T07:37:13.939Z</time></trkpt><trkpt lat="45.1078182" lon="1.2296081"><ele>106.0</ele><time>2026-04-02T07:37:14.939Z</time></trkpt><trkpt lat="45.107671" lon="1.2296879"><ele>106.0</ele><time>2026-04-02T07:37:15.94Z</time></trkpt><trkpt lat="45.1075206" lon="1.2297727"><ele>106.0</ele><time>2026-04-02T07:37:16.94Z</time></trkpt><trkpt lat="45.1073729" lon="1.2298602"><ele>106.0</ele><time>2026-04-02T07:37:17.94Z</time></trkpt><trkpt lat="45.107224" lon="1.229954"><ele>105.75</ele><time>2026-04-02T07:37:18.939Z</time></trkpt><trkpt lat="45.1070772" lon="1.2300409"><ele>105.5</ele><time>2026-04-02T07:37:19.94Z</time></trkpt><trkpt lat="45.1069353" lon="1.2301124"><ele>105.25</ele><time>2026-04-02T07:37:20.94Z</time></trkpt><trkpt lat="45.1068034" lon="1.2301638"><ele>105.0</ele><time>2026-04-02T07:37:21.939Z</time></trkpt><trkpt lat="45.1066684" lon="1.2301977"><ele>105.25</ele><time>2026-04-02T07:37:22.939Z</time></trkpt><trkpt lat="45.1065312" lon="1.2302259"><ele>105.5</ele><time>2026-04-02T07:37:23.939Z</time></trkpt><trkpt lat="45.106395" lon="1.2302465"><ele>105.75</ele><time>2026-04-02T07:37:24.939Z</time></trkpt><trkpt lat="45.1062547" lon="1.2302541"><ele>106.0</ele><time>2026-04-02T07:37:25.938Z</time></trkpt><trkpt lat="45.1061122" lon="1.2302454"><ele>106.0</ele><time>2026-04-02T07:37:26.939Z</time></trkpt><trkpt lat="45.1059713" lon="1.2302162"><ele>106.0</ele><time>2026-04-02T07:37:27.94Z</time></trkpt><trkpt lat="45.1058337" lon="1.2301761"><ele>106.0</ele><time>2026-04-02T07:37:28.94Z</time></trkpt><trkpt lat="45.105698" lon="1.2301584"><ele>106.0</ele><time>2026-04-02T07:37:29.94Z</time></trkpt><trkpt lat="45.1055687" lon="1.230156"><ele>107.75</ele><time>2026-04-02T07:37:30.939Z</time></trkpt><trkpt lat="45.1054426" lon="1.2301622"><ele>109.5</ele><time>2026-04-02T07:37:31.939Z</time></trkpt><trkpt lat="45.1053216" lon="1.2301761"><ele>111.25</ele><time>2026-04-02T07:37:32.939Z</time></trkpt><trkpt lat="45.1052018" lon="1.2302031"><ele>113.0</ele><time>2026-04-02T07:37:33.939Z</time></trkpt><trkpt lat="45.1050839" lon="1.2302419"><ele>113.0</ele><time>2026-04-02T07:37:34.939Z</time></trkpt><trkpt lat="45.1049656" lon="1.2302911"><ele>113.0</ele><time>2026-04-02T07:37:35.94Z</time></trkpt><trkpt lat="45.1048496" lon="1.2303509"><ele>113.0</ele><time>2026-04-02T07:37:36.94Z</time></trkpt><trkpt lat="45.1047397" lon="1.2304328"><ele>113.0</ele><time>2026-04-02T07:37:37.94Z</time></trkpt><trkpt lat="45.1046281" lon="1.2305384"><ele>113.25</ele><time>2026-04-02T07:37:38.939Z</time></trkpt><trkpt lat="45.1045252" lon="1.2306524"><ele>113.5</ele><time>2026-04-02T07:37:39.939Z</time></trkpt><trkpt lat="45.1044278" lon="1.2307701"><ele>113.75</ele><time>2026-04-02T07:37:40.94Z</time></trkpt><trkpt lat="45.1043308" lon="1.2308882"><ele>114.0</ele><time>2026-04-02T07:37:41.938Z</time></trkpt><trkpt lat="45.104233" lon="1.2310165"><ele>114.0</ele><time>2026-04-02T07:37:42.94Z</time></trkpt><trkpt lat="45.1041471" lon="1.2311462"><ele>114.0</ele><time>2026-04-02T07:37:43.939Z</time></trkpt><trkpt lat="45.1040616" lon="1.2312802"><ele>114.0</ele><time>2026-04-02T07:37:44.939Z</time></trkpt><trkpt lat="45.1039787" lon="1.2314156"><ele>114.0</ele><time>2026-04-02T07:37:45.939Z</time></trkpt><trkpt lat="45.1038909" lon="1.2315504"><ele>114.25</ele><time>2026-04-02T07:37:46.94Z</time></trkpt><trkpt lat="45.1037905" lon="1.2316842"><ele>114.5</ele><time>2026-04-02T07:37:47.94Z</time></trkpt><trkpt lat="45.103695" lon="1.2318315"><ele>114.75</ele><time>2026-04-02T07:37:48.939Z</time></trkpt><trkpt lat="45.1036171" lon="1.2319842"><ele>115.0</ele><time>2026-04-02T07:37:49.939Z</time></trkpt><trkpt lat="45.1035475" lon="1.2321275"><ele>115.0</ele><time>2026-04-02T07:37:50.94Z</time></trkpt><trkpt lat="45.103477" lon="1.2322639"><ele>115.0</ele><time>2026-04-02T07:37:51.938Z</time></trkpt><trkpt lat="45.1033993" lon="1.232403"><ele>115.0</ele><time>2026-04-02T07:37:52.939Z</time></trkpt><trkpt lat="45.1033175" lon="1.2325438"><ele>115.0</ele><time>2026-04-02T07:37:53.94Z</time></trkpt><trkpt lat="45.1032381" lon="1.2326865"><ele>116.75</ele><time>2026-04-02T07:37:54.939Z</time></trkpt><trkpt lat="45.1031591" lon="1.2328358"><ele>118.5</ele><time>2026-04-02T07:37:55.939Z</time></trkpt><trkpt lat="45.1030778" lon="1.2329842"><ele>120.25</ele><time>2026-04-02T07:37:56.94Z</time></trkpt><trkpt lat="45.1029871" lon="1.2331357"><ele>122.0</ele><time>2026-04-02T07:37:57.939Z</time></trkpt><trkpt lat="45.1028942" lon="1.2332885"><ele>122.0</ele><time>2026-04-02T07:37:58.94Z</time></trkpt><trkpt lat="45.1028048" lon="1.2334448"><ele>122.0</ele><time>2026-04-02T07:37:59.94Z</time></trkpt><trkpt lat="45.1027197" lon="1.2336045"><ele>122.0</ele><time>2026-04-02T07:38:00.94Z</time></trkpt><trkpt lat="45.1026344" lon="1.2337621"><ele>122.0</ele><time>2026-04-02T07:38:01.939Z</time></trkpt><trkpt lat="45.1025373" lon="1.2339097"><ele>122.0</ele><time>2026-04-02T07:38:02.939Z</time></trkpt><trkpt lat="45.1024497" lon="1.2340462"><ele>121.99999999999999</ele><time>2026-04-02T07:38:03.939Z</time></trkpt><trkpt lat="45.1023726" lon="1.2341799"><ele>121.99999999999999</ele><time>2026-04-02T07:38:04.94Z</time></trkpt><trkpt lat="45.1023069" lon="1.2342967"><ele>122.0</ele><time>2026-04-02T07:38:05.94Z</time></trkpt><trkpt lat="45.1022574" lon="1.2344004"><ele>122.0</ele><time>2026-04-02T07:38:06.94Z</time></trkpt><trkpt lat="45.1022059" lon="1.2344952"><ele>122.6</ele><time>2026-04-02T07:38:07.94Z</time></trkpt><trkpt lat="45.1021426" lon="1.2345741"><ele>123.19999999999999</ele><time>2026-04-02T07:38:08.94Z</time></trkpt><trkpt lat="45.102065" lon="1.2346457"><ele>123.8</ele><time>2026-04-02T07:38:09.94Z</time></trkpt><trkpt lat="45.1019806" lon="1.2347118"><ele>124.4</ele><time>2026-04-02T07:38:10.939Z</time></trkpt><trkpt lat="45.101902" lon="1.2347808"><ele>125.0</ele><time>2026-04-02T07:38:11.939Z</time></trkpt><trkpt lat="45.1018355" lon="1.2348655"><ele>124.99999999999999</ele><time>2026-04-02T07:38:12.939Z</time></trkpt><trkpt lat="45.1017809" lon="1.2349588"><ele>125.0</ele><time>2026-04-02T07:38:13.939Z</time></trkpt><trkpt lat="45.1017413" lon="1.2350469"><ele>125.0</ele><time>2026-04-02T07:38:14.94Z</time></trkpt><trkpt lat="45.1016894" lon="1.2351333"><ele>125.0</ele><time>2026-04-02T07:38:15.939Z</time></trkpt><trkpt lat="45.1016247" lon="1.235199"><ele>124.99999999999999</ele><time>2026-04-02T07:38:16.939Z</time></trkpt><trkpt lat="45.1015511" lon="1.2352409"><ele>125.0</ele><time>2026-04-02T07:38:17.94Z</time></trkpt><trkpt lat="45.1014688" lon="1.2352678"><ele>127.6</ele><time>2026-04-02T07:38:18.939Z</time></trkpt><trkpt lat="45.1013783" lon="1.2352837"><ele>130.2</ele><time>2026-04-02T07:38:19.94Z</time></trkpt><trkpt lat="45.1012841" lon="1.2352934"><ele>132.8</ele><time>2026-04-02T07:38:20.94Z</time></trkpt><trkpt lat="45.1011882" lon="1.2353105"><ele>135.4</ele><time>2026-04-02T07:38:21.94Z</time></trkpt><trkpt lat="45.1010995" lon="1.2353328"><ele>138.0</ele><time>2026-04-02T07:38:22.94Z</time></trkpt><trkpt lat="45.1010262" lon="1.2353739"><ele>138.0</ele><time>2026-04-02T07:38:23.94Z</time></trkpt><trkpt lat="45.1009631" lon="1.2354348"><ele>138.0</ele><time>2026-04-02T07:38:24.939Z</time></trkpt><trkpt lat="45.1009198" lon="1.2355041"><ele>138.0</ele><time>2026-04-02T07:38:25.938Z</time></trkpt><trkpt lat="45.1009126" lon="1.2356591"><ele>138.0</ele><time>2026-04-02T07:38:27.94Z</time></trkpt><trkpt lat="45.1008315" lon="1.2357071"><ele>138.0</ele><time>2026-04-02T07:38:29.939Z</time></trkpt><trkpt lat="45.1007683" lon="1.2357098"><ele>138.0</ele><time>2026-04-02T07:38:30.938Z</time></trkpt><trkpt lat="45.1006363" lon="1.2356998"><ele>137.66666666666666</ele><time>2026-04-02T07:38:32.939Z</time></trkpt><trkpt lat="45.1005608" lon="1.235699"><ele>137.33333333333334</ele><time>2026-04-02T07:38:33.94Z</time></trkpt><trkpt lat="45.1004806" lon="1.2357049"><ele>137.0</ele><time>2026-04-02T07:38:34.939Z</time></trkpt><trkpt lat="45.1003984" lon="1.2357119"><ele>136.66666666666669</ele><time>2026-04-02T07:38:35.939Z</time></trkpt><trkpt lat="45.1003136" lon="1.235718"><ele>136.33333333333334</ele><time>2026-04-02T07:38:36.938Z</time></trkpt><trkpt lat="45.1002237" lon="1.235734"><ele>136.0</ele><time>2026-04-02T07:38:37.939Z</time></trkpt><trkpt lat="45.1001365" lon="1.2357672"><ele>136.0</ele><time>2026-04-02T07:38:38.94Z</time></trkpt><trkpt lat="45.1000403" lon="1.2358088"><ele>136.0</ele><time>2026-04-02T07:38:39.94Z</time></trkpt><trkpt lat="45.0999474" lon="1.2358545"><ele>136.0</ele><time>2026-04-02T07:38:40.94Z</time></trkpt><trkpt lat="45.0998482" lon="1.2359082"><ele>136.0</ele><time>2026-04-02T07:38:41.939Z</time></trkpt><trkpt lat="45.0997426" lon="1.2359553"><ele>136.0</ele><time>2026-04-02T07:38:42.939Z</time></trkpt><trkpt lat="45.0996271" lon="1.2360064"><ele>136.2</ele><time>2026-04-02T07:38:43.94Z</time></trkpt><trkpt lat="45.0995215" lon="1.236057"><ele>136.39999999999998</ele><time>2026-04-02T07:38:44.94Z</time></trkpt><trkpt lat="45.0994204" lon="1.2360947"><ele>136.6</ele><time>2026-04-02T07:38:45.939Z</time></trkpt><trkpt lat="45.0993149" lon="1.2361347"><ele>136.79999999999998</ele><time>2026-04-02T07:38:46.939Z</time></trkpt><trkpt lat="45.0992146" lon="1.236165"><ele>137.0</ele><time>2026-04-02T07:38:47.94Z</time></trkpt><trkpt lat="45.0991085" lon="1.2361684"><ele>138.5</ele><time>2026-04-02T07:38:48.938Z</time></trkpt><trkpt lat="45.0989998" lon="1.2361615"><ele>140.0</ele><time>2026-04-02T07:38:49.939Z</time></trkpt><trkpt lat="45.0988915" lon="1.236151"><ele>141.5</ele><time>2026-04-02T07:38:50.94Z</time></trkpt><trkpt lat="45.0987781" lon="1.2361269"><ele>143.0</ele><time>2026-04-02T07:38:51.938Z</time></trkpt><trkpt lat="45.0986597" lon="1.2361092"><ele>143.0</ele><time>2026-04-02T07:38:52.939Z</time></trkpt><trkpt lat="45.0985588" lon="1.2360917"><ele>143.0</ele><time>2026-04-02T07:38:53.94Z</time></trkpt><trkpt lat="45.0984524" lon="1.2360783"><ele>143.0</ele><time>2026-04-02T07:38:54.94Z</time></trkpt><trkpt lat="45.0983487" lon="1.2360814"><ele>143.0</ele><time>2026-04-02T07:38:55.94Z</time></trkpt><trkpt lat="45.0982485" lon="1.2360833"><ele>143.0</ele><time>2026-04-02T07:38:56.939Z</time></trkpt><trkpt lat="45.0981435" lon="1.2360782"><ele>144.6</ele><time>2026-04-02T07:38:57.94Z</time></trkpt><trkpt lat="45.0980387" lon="1.2360699"><ele>146.20000000000002</ele><time>2026-04-02T07:38:58.939Z</time></trkpt><trkpt lat="45.0979443" lon="1.2360651"><ele>147.8</ele><time>2026-04-02T07:38:59.939Z</time></trkpt><trkpt lat="45.0978574" lon="1.2360746"><ele>149.4</ele><time>2026-04-02T07:39:00.939Z</time></trkpt><trkpt lat="45.097767" lon="1.2360857"><ele>151.0</ele><time>2026-04-02T07:39:01.939Z</time></trkpt><trkpt lat="45.0976784" lon="1.2360907"><ele>151.0</ele><time>2026-04-02T07:39:02.939Z</time></trkpt><trkpt lat="45.097587" lon="1.2361042"><ele>151.0</ele><time>2026-04-02T07:39:03.939Z</time></trkpt><trkpt lat="45.0974947" lon="1.2361257"><ele>151.0</ele><time>2026-04-02T07:39:04.939Z</time></trkpt><trkpt lat="45.0974031" lon="1.236155"><ele>151.0</ele><time>2026-04-02T07:39:05.939Z</time></trkpt><trkpt lat="45.0973142" lon="1.2361992"><ele>151.0</ele><time>2026-04-02T07:39:06.94Z</time></trkpt><trkpt lat="45.0972302" lon="1.2362466"><ele>151.2</ele><time>2026-04-02T07:39:07.939Z</time></trkpt><trkpt lat="45.0971409" lon="1.2363058"><ele>151.39999999999998</ele><time>2026-04-02T07:39:08.939Z</time></trkpt><trkpt lat="45.0970637" lon="1.2363786"><ele>151.6</ele><time>2026-04-02T07:39:09.939Z</time></trkpt><trkpt lat="45.0969913" lon="1.2364634"><ele>151.79999999999998</ele><time>2026-04-02T07:39:10.94Z</time></trkpt><trkpt lat="45.0969264" lon="1.2365683"><ele>152.0</ele><time>2026-04-02T07:39:11.941Z</time></trkpt><trkpt lat="45.0968706" lon="1.2366786"><ele>152.0</ele><time>2026-04-02T07:39:12.941Z</time></trkpt><trkpt lat="45.0968052" lon="1.2367965"><ele>152.0</ele><time>2026-04-02T07:39:13.94Z</time></trkpt><trkpt lat="45.0967389" lon="1.2369014"><ele>152.0</ele><time>2026-04-02T07:39:14.94Z</time></trkpt><trkpt lat="45.0966862" lon="1.2370068"><ele>152.0</ele><time>2026-04-02T07:39:15.941Z</time></trkpt><trkpt lat="45.0966435" lon="1.2371103"><ele>152.0</ele><time>2026-04-02T07:39:16.94Z</time></trkpt><trkpt lat="45.0966417" lon="1.237232"><ele>152.83333333333331</ele><time>2026-04-02T07:39:17.94Z</time></trkpt><trkpt lat="45.0966223" lon="1.237342"><ele>153.66666666666666</ele><time>2026-04-02T07:39:18.94Z</time></trkpt><trkpt lat="45.0966" lon="1.2374582"><ele>154.5</ele><time>2026-04-02T07:39:19.939Z</time></trkpt><trkpt lat="45.0965542" lon="1.2375386"><ele>155.33333333333334</ele><time>2026-04-02T07:39:20.94Z</time></trkpt><trkpt lat="45.0964977" lon="1.2376441"><ele>156.16666666666669</ele><time>2026-04-02T07:39:21.941Z</time></trkpt><trkpt lat="45.096448" lon="1.2377382"><ele>157.0</ele><time>2026-04-02T07:39:22.941Z</time></trkpt><trkpt lat="45.0964002" lon="1.2378399"><ele>158.16666666666669</ele><time>2026-04-02T07:39:23.941Z</time></trkpt><trkpt lat="45.0963462" lon="1.2379387"><ele>159.33333333333334</ele><time>2026-04-02T07:39:24.94Z</time></trkpt><trkpt lat="45.0962804" lon="1.2380088"><ele>160.5</ele><time>2026-04-02T07:39:25.941Z</time></trkpt><trkpt lat="45.096214" lon="1.238094"><ele>161.66666666666666</ele><time>2026-04-02T07:39:26.941Z</time></trkpt><trkpt lat="45.0961644" lon="1.2382043"><ele>162.83333333333331</ele><time>2026-04-02T07:39:27.94Z</time></trkpt><trkpt lat="45.0961063" lon="1.2383098"><ele>164.0</ele><time>2026-04-02T07:39:28.94Z</time></trkpt><trkpt lat="45.0960435" lon="1.2384307"><ele>164.6</ele><time>2026-04-02T07:39:29.94Z</time></trkpt><trkpt lat="45.0960017" lon="1.2385567"><ele>165.2</ele><time>2026-04-02T07:39:30.94Z</time></trkpt><trkpt lat="45.0959533" lon="1.238693"><ele>165.79999999999998</ele><time>2026-04-02T07:39:31.939Z</time></trkpt><trkpt lat="45.0959114" lon="1.2388393"><ele>166.39999999999998</ele><time>2026-04-02T07:39:32.94Z</time></trkpt><trkpt lat="45.0958916" lon="1.2390069"><ele>167.0</ele><time>2026-04-02T07:39:33.94Z</time></trkpt><trkpt lat="45.0958455" lon="1.23915"><ele>167.6</ele><time>2026-04-02T07:39:34.941Z</time></trkpt><trkpt lat="45.0958259" lon="1.2392918"><ele>168.2</ele><time>2026-04-02T07:39:35.941Z</time></trkpt><trkpt lat="45.0957724" lon="1.23943"><ele>168.8</ele><time>2026-04-02T07:39:36.94Z</time></trkpt><trkpt lat="45.0957388" lon="1.2395645"><ele>169.4</ele><time>2026-04-02T07:39:37.941Z</time></trkpt><trkpt lat="45.095708" lon="1.2396885"><ele>170.0</ele><time>2026-04-02T07:39:38.94Z</time></trkpt><trkpt lat="45.0956836" lon="1.2397968"><ele>172.6</ele><time>2026-04-02T07:39:39.941Z</time></trkpt><trkpt lat="45.0956541" lon="1.2398827"><ele>175.2</ele><time>2026-04-02T07:39:40.941Z</time></trkpt><trkpt lat="45.0955513" lon="1.2399575"><ele>177.8</ele><time>2026-04-02T07:39:42.94Z</time></trkpt><trkpt lat="45.0954885" lon="1.2400721"><ele>180.4</ele><time>2026-04-02T07:39:44.941Z</time></trkpt><trkpt lat="45.0954518" lon="1.2401482"><ele>183.0</ele><time>2026-04-02T07:39:45.94Z</time></trkpt><trkpt lat="45.0954203" lon="1.2403162"><ele>183.0</ele><time>2026-04-02T07:39:47.941Z</time></trkpt><trkpt lat="45.0953903" lon="1.2403991"><ele>183.0</ele><time>2026-04-02T07:39:48.94Z</time></trkpt><trkpt lat="45.0953859" lon="1.2405159"><ele>183.0</ele><time>2026-04-02T07:39:49.939Z</time></trkpt><trkpt lat="45.0954096" lon="1.2406341"><ele>183.0</ele><time>2026-04-02T07:39:50.939Z</time></trkpt><trkpt lat="45.0954121" lon="1.2407637"><ele>183.0</ele><time>2026-04-02T07:39:51.94Z</time></trkpt><trkpt lat="45.0954113" lon="1.2408981"><ele>183.0</ele><time>2026-04-02T07:39:52.941Z</time></trkpt><trkpt lat="45.0954196" lon="1.2410298"><ele>183.16666666666666</ele><time>2026-04-02T07:39:53.94Z</time></trkpt><trkpt lat="45.0954307" lon="1.2411713"><ele>183.33333333333334</ele><time>2026-04-02T07:39:54.939Z</time></trkpt><trkpt lat="45.0954314" lon="1.2412949"><ele>183.5</ele><time>2026-04-02T07:39:55.939Z</time></trkpt><trkpt lat="45.0954382" lon="1.2413963"><ele>183.66666666666669</ele><time>2026-04-02T07:39:56.94Z</time></trkpt><trkpt lat="45.0954454" lon="1.2415047"><ele>183.83333333333334</ele><time>2026-04-02T07:39:57.94Z</time></trkpt><trkpt lat="45.0954787" lon="1.2416017"><ele>184.0</ele><time>2026-04-02T07:39:58.94Z</time></trkpt><trkpt lat="45.0954957" lon="1.2417021"><ele>186.6</ele><time>2026-04-02T07:39:59.94Z</time></trkpt><trkpt lat="45.0955221" lon="1.2418215"><ele>189.2</ele><time>2026-04-02T07:40:00.941Z</time></trkpt><trkpt lat="45.0955412" lon="1.2419368"><ele>191.79999999999998</ele><time>2026-04-02T07:40:01.941Z</time></trkpt><trkpt lat="45.0955608" lon="1.2420235"><ele>194.39999999999998</ele><time>2026-04-02T07:40:02.941Z</time></trkpt><trkpt lat="45.09562" lon="1.2421761"><ele>197.0</ele><time>2026-04-02T07:40:04.94Z</time></trkpt><trkpt lat="45.095683" lon="1.2423469"><ele>199.00000000000003</ele><time>2026-04-02T07:40:06.94Z</time></trkpt><trkpt lat="45.0957065" lon="1.2424518"><ele>201.0</ele><time>2026-04-02T07:40:07.94Z</time></trkpt><trkpt lat="45.0957252" lon="1.2425661"><ele>203.0</ele><time>2026-04-02T07:40:08.94Z</time></trkpt><trkpt lat="45.0957266" lon="1.2426899"><ele>205.0</ele><time>2026-04-02T07:40:09.94Z</time></trkpt><trkpt lat="45.0957243" lon="1.2428108"><ele>207.00000000000003</ele><time>2026-04-02T07:40:10.941Z</time></trkpt><trkpt lat="45.0957206" lon="1.2429219"><ele>209.0</ele><time>2026-04-02T07:40:11.94Z</time></trkpt><trkpt lat="45.095701" lon="1.2430276"><ele>210.2</ele><time>2026-04-02T07:40:12.941Z</time></trkpt><trkpt lat="45.0956522" lon="1.2431366"><ele>211.39999999999998</ele><time>2026-04-02T07:40:13.941Z</time></trkpt><trkpt lat="45.0955749" lon="1.2432237"><ele>212.6</ele><time>2026-04-02T07:40:14.941Z</time></trkpt><trkpt lat="45.095528" lon="1.2433194"><ele>213.8</ele><time>2026-04-02T07:40:15.941Z</time></trkpt><trkpt lat="45.0954884" lon="1.2433976"><ele>215.0</ele><time>2026-04-02T07:40:16.941Z</time></trkpt><trkpt lat="45.0953936" lon="1.2435271"><ele>215.00000000000003</ele><time>2026-04-02T07:40:18.94Z</time></trkpt><trkpt lat="45.095337" lon="1.2435865"><ele>215.0</ele><time>2026-04-02T07:40:19.94Z</time></trkpt><trkpt lat="45.0952887" lon="1.2436531"><ele>215.0</ele><time>2026-04-02T07:40:20.94Z</time></trkpt><trkpt lat="45.0951967" lon="1.2437861"><ele>215.0</ele><time>2026-04-02T07:40:22.941Z</time></trkpt><trkpt lat="45.0951679" lon="1.2438727"><ele>215.00000000000003</ele><time>2026-04-02T07:40:23.94Z</time></trkpt><trkpt lat="45.0951191" lon="1.2439461"><ele>215.0</ele><time>2026-04-02T07:40:24.94Z</time></trkpt><trkpt lat="45.0950612" lon="1.2440638"><ele>215.2</ele><time>2026-04-02T07:40:26.941Z</time></trkpt><trkpt lat="45.0950308" lon="1.2441682"><ele>215.4</ele><time>2026-04-02T07:40:39.94Z</time></trkpt><trkpt lat="45.0951061" lon="1.2443086"><ele>215.60000000000002</ele><time>2026-04-02T07:40:41.94Z</time></trkpt><trkpt lat="45.095165" lon="1.2444142"><ele>215.8</ele><time>2026-04-02T07:40:42.94Z</time></trkpt><trkpt lat="45.0952289" lon="1.2445311"><ele>216.0</ele><time>2026-04-02T07:40:43.939Z</time></trkpt><trkpt lat="45.0952996" lon="1.2446293"><ele>216.0</ele><time>2026-04-02T07:40:44.941Z</time></trkpt><trkpt lat="45.0953695" lon="1.2447242"><ele>216.00000000000003</ele><time>2026-04-02T07:40:45.941Z</time></trkpt><trkpt lat="45.095435" lon="1.2448304"><ele>216.00000000000003</ele><time>2026-04-02T07:40:46.94Z</time></trkpt><trkpt lat="45.0954961" lon="1.2449452"><ele>216.0</ele><time>2026-04-02T07:40:47.939Z</time></trkpt><trkpt lat="45.0955654" lon="1.2450487"><ele>216.0</ele><time>2026-04-02T07:40:48.94Z</time></trkpt><trkpt lat="45.095648" lon="1.2451527"><ele>216.60000000000002</ele><time>2026-04-02T07:40:49.94Z</time></trkpt><trkpt lat="45.0957224" lon="1.2452637"><ele>217.20000000000002</ele><time>2026-04-02T07:40:50.941Z</time></trkpt><trkpt lat="45.0957882" lon="1.2453833"><ele>217.79999999999998</ele><time>2026-04-02T07:40:51.94Z</time></trkpt><trkpt lat="45.0958522" lon="1.2455054"><ele>218.39999999999998</ele><time>2026-04-02T07:40:52.941Z</time></trkpt><trkpt lat="45.0959086" lon="1.2456191"><ele>219.0</ele><time>2026-04-02T07:40:53.941Z</time></trkpt><trkpt lat="45.0959578" lon="1.2457183"><ele>220.79999999999998</ele><time>2026-04-02T07:40:55.94Z</time></trkpt><trkpt lat="45.0959969" lon="1.2458186"><ele>222.59999999999997</ele><time>2026-04-02T07:40:59.941Z</time></trkpt><trkpt lat="45.0960749" lon="1.2459404"><ele>224.4</ele><time>2026-04-02T07:41:01.939Z</time></trkpt><trkpt lat="45.0961308" lon="1.2460226"><ele>226.2</ele><time>2026-04-02T07:41:02.94Z</time></trkpt><trkpt lat="45.0961974" lon="1.2461143"><ele>228.0</ele><time>2026-04-02T07:41:03.94Z</time></trkpt><trkpt lat="45.0962646" lon="1.2462161"><ele>228.0</ele><time>2026-04-02T07:41:04.941Z</time></trkpt><trkpt lat="45.0963233" lon="1.2463363"><ele>228.0</ele><time>2026-04-02T07:41:05.941Z</time></trkpt><trkpt lat="45.0963851" lon="1.2464623"><ele>228.0</ele><time>2026-04-02T07:41:06.941Z</time></trkpt><trkpt lat="45.0964457" lon="1.2465929"><ele>228.0</ele><time>2026-04-02T07:41:07.94Z</time></trkpt><trkpt lat="45.0964966" lon="1.246732"><ele>228.0</ele><time>2026-04-02T07:41:08.939Z</time></trkpt><trkpt lat="45.0965455" lon="1.2468697"><ele>227.4</ele><time>2026-04-02T07:41:09.941Z</time></trkpt><trkpt lat="45.0966062" lon="1.2469956"><ele>226.8</ele><time>2026-04-02T07:41:10.941Z</time></trkpt><trkpt lat="45.0966842" lon="1.2471075"><ele>226.2</ele><time>2026-04-02T07:41:11.94Z</time></trkpt><trkpt lat="45.0967437" lon="1.2472292"><ele>225.6</ele><time>2026-04-02T07:41:12.941Z</time></trkpt><trkpt lat="45.0968021" lon="1.2473528"><ele>225.0</ele><time>2026-04-02T07:41:13.941Z</time></trkpt><trkpt lat="45.0968746" lon="1.2474704"><ele>225.0</ele><time>2026-04-02T07:41:14.941Z</time></trkpt><trkpt lat="45.096944" lon="1.247587"><ele>225.0</ele><time>2026-04-02T07:41:15.941Z</time></trkpt><trkpt lat="45.0970246" lon="1.2476899"><ele>225.0</ele><time>2026-04-02T07:41:16.941Z</time></trkpt><trkpt lat="45.0971035" lon="1.2477921"><ele>225.0</ele><time>2026-04-02T07:41:17.94Z</time></trkpt><trkpt lat="45.0971754" lon="1.2479119"><ele>225.0</ele><time>2026-04-02T07:41:18.939Z</time></trkpt><trkpt lat="45.0972412" lon="1.2480319"><ele>224.0</ele><time>2026-04-02T07:41:19.941Z</time></trkpt><trkpt lat="45.0973063" lon="1.2481568"><ele>223.0</ele><time>2026-04-02T07:41:20.94Z</time></trkpt><trkpt lat="45.0973742" lon="1.2482717"><ele>222.0</ele><time>2026-04-02T07:41:21.94Z</time></trkpt><trkpt lat="45.0974432" lon="1.2483843"><ele>221.0</ele><time>2026-04-02T07:41:22.94Z</time></trkpt><trkpt lat="45.0975078" lon="1.2485067"><ele>220.0</ele><time>2026-04-02T07:41:23.94Z</time></trkpt><trkpt lat="45.0975672" lon="1.2486134"><ele>218.49999999999997</ele><time>2026-04-02T07:41:24.941Z</time></trkpt><trkpt lat="45.0976248" lon="1.2487056"><ele>217.0</ele><time>2026-04-02T07:41:25.941Z</time></trkpt><trkpt lat="45.0976823" lon="1.2487926"><ele>215.5</ele><time>2026-04-02T07:41:26.941Z</time></trkpt><trkpt lat="45.0977317" lon="1.2488752"><ele>214.0</ele><time>2026-04-02T07:41:27.939Z</time></trkpt><trkpt lat="45.09778" lon="1.2489641"><ele>212.49999999999997</ele><time>2026-04-02T07:41:28.94Z</time></trkpt><trkpt lat="45.0978271" lon="1.249048"><ele>211.0</ele><time>2026-04-02T07:41:29.941Z</time></trkpt><trkpt lat="45.0978748" lon="1.2491249"><ele>210.66666666666666</ele><time>2026-04-02T07:41:30.94Z</time></trkpt><trkpt lat="45.0979284" lon="1.249192"><ele>210.33333333333331</ele><time>2026-04-02T07:41:31.941Z</time></trkpt><trkpt lat="45.0979799" lon="1.2492517"><ele>210.0</ele><time>2026-04-02T07:41:32.939Z</time></trkpt><trkpt lat="45.0980264" lon="1.2493192"><ele>209.66666666666669</ele><time>2026-04-02T07:41:33.941Z</time></trkpt><trkpt lat="45.0980689" lon="1.2494178"><ele>209.33333333333334</ele><time>2026-04-02T07:41:34.941Z</time></trkpt><trkpt lat="45.0981318" lon="1.2495649"><ele>209.0</ele><time>2026-04-02T07:41:35.94Z</time></trkpt><trkpt lat="45.0982168" lon="1.2497199"><ele>207.75</ele><time>2026-04-02T07:41:36.941Z</time></trkpt><trkpt lat="45.0983004" lon="1.2498782"><ele>206.5</ele><time>2026-04-02T07:41:37.94Z</time></trkpt><trkpt lat="45.0983649" lon="1.250003"><ele>205.25</ele><time>2026-04-02T07:41:38.939Z</time></trkpt><trkpt lat="45.098435" lon="1.2501716"><ele>204.0</ele><time>2026-04-02T07:41:39.94Z</time></trkpt><trkpt lat="45.0984954" lon="1.250348"><ele>204.0</ele><time>2026-04-02T07:41:40.939Z</time></trkpt><trkpt lat="45.0985824" lon="1.2505234"><ele>204.0</ele><time>2026-04-02T07:41:41.939Z</time></trkpt><trkpt lat="45.098682" lon="1.2507113"><ele>204.0</ele><time>2026-04-02T07:41:42.941Z</time></trkpt><trkpt lat="45.0987711" lon="1.2509195"><ele>206.0</ele><time>2026-04-02T07:41:43.941Z</time></trkpt><trkpt lat="45.0988617" lon="1.2511127"><ele>208.0</ele><time>2026-04-02T07:41:44.94Z</time></trkpt><trkpt lat="45.0989307" lon="1.2512518"><ele>210.0</ele><time>2026-04-02T07:41:45.94Z</time></trkpt><trkpt lat="45.0989916" lon="1.2513708"><ele>212.0</ele><time>2026-04-02T07:41:46.941Z</time></trkpt><trkpt lat="45.0990657" lon="1.2515087"><ele>214.0</ele><time>2026-04-02T07:41:47.941Z</time></trkpt><trkpt lat="45.0991447" lon="1.2516761"><ele>216.0</ele><time>2026-04-02T07:41:48.94Z</time></trkpt><trkpt lat="45.0992151" lon="1.2518415"><ele>218.0</ele><time>2026-04-02T07:41:49.94Z</time></trkpt><trkpt lat="45.0992937" lon="1.2519919"><ele>220.0</ele><time>2026-04-02T07:41:50.94Z</time></trkpt><trkpt lat="45.0993915" lon="1.2521552"><ele>220.0</ele><time>2026-04-02T07:41:51.941Z</time></trkpt><trkpt lat="45.0994664" lon="1.2522694"><ele>220.0</ele><time>2026-04-02T07:41:52.941Z</time></trkpt><trkpt lat="45.0995347" lon="1.2523877"><ele>220.0</ele><time>2026-04-02T07:41:53.939Z</time></trkpt><trkpt lat="45.0995946" lon="1.2525422"><ele>220.0</ele><time>2026-04-02T07:41:54.941Z</time></trkpt><trkpt lat="45.099669" lon="1.2527078"><ele>221.25</ele><time>2026-04-02T07:41:55.94Z</time></trkpt><trkpt lat="45.0997549" lon="1.2528866"><ele>222.5</ele><time>2026-04-02T07:41:56.94Z</time></trkpt><trkpt lat="45.0998483" lon="1.2530813"><ele>223.75</ele><time>2026-04-02T07:41:57.941Z</time></trkpt><trkpt lat="45.0999175" lon="1.2532158"><ele>225.0</ele><time>2026-04-02T07:41:58.941Z</time></trkpt><trkpt lat="45.099989" lon="1.2533541"><ele>226.0</ele><time>2026-04-02T07:41:59.94Z</time></trkpt><trkpt lat="45.1000708" lon="1.2535157"><ele>227.0</ele><time>2026-04-02T07:42:00.941Z</time></trkpt><trkpt lat="45.1001481" lon="1.2536966"><ele>228.0</ele><time>2026-04-02T07:42:01.941Z</time></trkpt><trkpt lat="45.1002201" lon="1.2538767"><ele>229.0</ele><time>2026-04-02T07:42:02.94Z</time></trkpt><trkpt lat="45.1002821" lon="1.2540157"><ele>229.33333333333331</ele><time>2026-04-02T07:42:03.94Z</time></trkpt><trkpt lat="45.100342" lon="1.2541179"><ele>229.66666666666666</ele><time>2026-04-02T07:42:04.941Z</time></trkpt><trkpt lat="45.1004012" lon="1.254213"><ele>230.0</ele><time>2026-04-02T07:42:05.941Z</time></trkpt><trkpt lat="45.1004411" lon="1.2543089"><ele>230.33333333333331</ele><time>2026-04-02T07:42:06.941Z</time></trkpt><trkpt lat="45.1004889" lon="1.2544123"><ele>230.66666666666666</ele><time>2026-04-02T07:42:07.94Z</time></trkpt><trkpt lat="45.1005306" lon="1.2544853"><ele>231.0</ele><time>2026-04-02T07:42:08.94Z</time></trkpt><trkpt lat="45.1004964" lon="1.2545712"><ele>231.0</ele><time>2026-04-02T07:42:12.94Z</time></trkpt><trkpt lat="45.1004537" lon="1.2545056"><ele>231.0</ele><time>2026-04-02T07:42:15.939Z</time></trkpt><trkpt lat="45.1004911" lon="1.254429"><ele>231.0</ele><time>2026-04-02T07:42:18.94Z</time></trkpt><trkpt lat="45.1005407" lon="1.254519"><ele>231.0</ele><time>2026-04-02T07:42:20.941Z</time></trkpt><trkpt lat="45.1005883" lon="1.2546486"><ele>231.0</ele><time>2026-04-02T07:42:22.941Z</time></trkpt><trkpt lat="45.1006636" lon="1.2547871"><ele>231.0</ele><time>2026-04-02T07:42:24.94Z</time></trkpt><trkpt lat="45.1007043" lon="1.2548591"><ele>231.14285714285714</ele><time>2026-04-02T07:42:25.94Z</time></trkpt><trkpt lat="45.10074" lon="1.2549508"><ele>231.28571428571428</ele><time>2026-04-02T07:42:26.941Z</time></trkpt><trkpt lat="45.1007771" lon="1.2550298"><ele>231.42857142857144</ele><time>2026-04-02T07:42:27.941Z</time></trkpt><trkpt lat="45.1008213" lon="1.2551154"><ele>231.57142857142858</ele><time>2026-04-02T07:42:28.941Z</time></trkpt><trkpt lat="45.1008626" lon="1.2552045"><ele>231.71428571428572</ele><time>2026-04-02T07:42:29.94Z</time></trkpt><trkpt lat="45.1009022" lon="1.2552872"><ele>231.8571428571429</ele><time>2026-04-02T07:42:30.941Z</time></trkpt><trkpt lat="45.1009465" lon="1.2553741"><ele>232.00000000000003</ele><time>2026-04-02T07:42:31.94Z</time></trkpt><trkpt lat="45.100995" lon="1.2554746"><ele>231.99999999999997</ele><time>2026-04-02T07:42:32.941Z</time></trkpt><trkpt lat="45.1010312" lon="1.2555502"><ele>232.0</ele><time>2026-04-02T07:42:33.941Z</time></trkpt><trkpt lat="45.1010915" lon="1.2557089"><ele>232.0</ele><time>2026-04-02T07:42:35.94Z</time></trkpt><trkpt lat="45.101136" lon="1.2557856"><ele>232.0</ele><time>2026-04-02T07:42:36.94Z</time></trkpt><trkpt lat="45.1011759" lon="1.2558571"><ele>231.99999999999997</ele><time>2026-04-02T07:42:37.941Z</time></trkpt><trkpt lat="45.101249" lon="1.2559672"><ele>232.0</ele><time>2026-04-02T07:42:39.939Z</time></trkpt><trkpt lat="45.1012736" lon="1.2560918"><ele>231.99999999999997</ele><time>2026-04-02T07:42:41.94Z</time></trkpt><trkpt lat="45.1012895" lon="1.2562034"><ele>232.0</ele><time>2026-04-02T07:42:43.939Z</time></trkpt><trkpt lat="45.1013071" lon="1.2563234"><ele>232.0</ele><time>2026-04-02T07:44:07.942Z</time></trkpt><trkpt lat="45.101281" lon="1.2564681"><ele>232.0</ele><time>2026-04-02T07:44:09.942Z</time></trkpt><trkpt lat="45.1012297" lon="1.2565405"><ele>231.99999999999997</ele><time>2026-04-02T07:44:11.94Z</time></trkpt><trkpt lat="45.1011579" lon="1.2566368"><ele>232.0</ele><time>2026-04-02T07:44:13.941Z</time></trkpt><trkpt lat="45.1011339" lon="1.2567731"><ele>232.33333333333331</ele><time>2026-04-02T07:44:15.941Z</time></trkpt><trkpt lat="45.1011202" lon="1.256882"><ele>232.66666666666666</ele><time>2026-04-02T07:44:17.941Z</time></trkpt><trkpt lat="45.1011093" lon="1.2569791"><ele>233.0</ele><time>2026-04-02T07:44:26.942Z</time></trkpt><trkpt lat="45.1011221" lon="1.2570989"><ele>233.33333333333331</ele><time>2026-04-02T07:44:30.942Z</time></trkpt><trkpt lat="45.1010786" lon="1.2569896"><ele>233.66666666666666</ele><time>2026-04-02T07:44:55.942Z</time></trkpt><trkpt lat="45.1010909" lon="1.2568907"><ele>234.0</ele><time>2026-04-02T07:44:59.941Z</time></trkpt><trkpt lat="45.1011351" lon="1.2568003"><ele>234.0</ele><time>2026-04-02T07:45:02.941Z</time></trkpt><trkpt lat="45.1011455" lon="1.2566696"><ele>234.0</ele><time>2026-04-02T07:45:05.942Z</time></trkpt><trkpt lat="45.10117" lon="1.2565721"><ele>234.0</ele><time>2026-04-02T07:45:08.942Z</time></trkpt><trkpt lat="45.1012414" lon="1.2565275"><ele>234.0</ele><time>2026-04-02T07:45:12.942Z</time></trkpt><trkpt lat="45.1012996" lon="1.256437"><ele>234.0</ele><time>2026-04-02T07:45:16.941Z</time></trkpt><trkpt lat="45.1013068" lon="1.2563399"><ele>234.0</ele><time>2026-04-02T07:45:18.942Z</time></trkpt><trkpt lat="45.1012901" lon="1.2562528"><ele>233.66666666666666</ele><time>2026-04-02T07:45:20.942Z</time></trkpt><trkpt lat="45.1012628" lon="1.2561614"><ele>233.33333333333331</ele><time>2026-04-02T07:45:22.941Z</time></trkpt><trkpt lat="45.101217" lon="1.2560668"><ele>233.0</ele><time>2026-04-02T07:45:24.942Z</time></trkpt><trkpt lat="45.1011701" lon="1.2559664"><ele>232.66666666666666</ele><time>2026-04-02T07:45:26.942Z</time></trkpt><trkpt lat="45.1011258" lon="1.2558113"><ele>232.33333333333331</ele><time>2026-04-02T07:45:28.941Z</time></trkpt><trkpt lat="45.1010916" lon="1.2557195"><ele>232.0</ele><time>2026-04-02T07:45:29.941Z</time></trkpt><trkpt lat="45.1010554" lon="1.2556281"><ele>231.99999999999997</ele><time>2026-04-02T07:45:30.941Z</time></trkpt><trkpt lat="45.101018" lon="1.2555324"><ele>232.0</ele><time>2026-04-02T07:45:31.941Z</time></trkpt><trkpt lat="45.1009787" lon="1.2554441"><ele>232.0</ele><time>2026-04-02T07:45:32.941Z</time></trkpt><trkpt lat="45.1009327" lon="1.2553505"><ele>232.0</ele><time>2026-04-02T07:45:33.942Z</time></trkpt><trkpt lat="45.1008808" lon="1.2552394"><ele>231.99999999999997</ele><time>2026-04-02T07:45:34.941Z</time></trkpt><trkpt lat="45.1008265" lon="1.2551325"><ele>232.0</ele><time>2026-04-02T07:45:35.942Z</time></trkpt><trkpt lat="45.1007764" lon="1.2550425"><ele>232.16666666666666</ele><time>2026-04-02T07:45:36.941Z</time></trkpt><trkpt lat="45.100736" lon="1.2549563"><ele>232.33333333333331</ele><time>2026-04-02T07:45:37.94Z</time></trkpt><trkpt lat="45.1007062" lon="1.2548688"><ele>232.5</ele><time>2026-04-02T07:45:38.942Z</time></trkpt><trkpt lat="45.1006295" lon="1.254739"><ele>232.66666666666669</ele><time>2026-04-02T07:45:40.941Z</time></trkpt><trkpt lat="45.1005838" lon="1.2546705"><ele>232.83333333333334</ele><time>2026-04-02T07:45:41.942Z</time></trkpt><trkpt lat="45.1005416" lon="1.2546025"><ele>233.0</ele><time>2026-04-02T07:45:42.94Z</time></trkpt><trkpt lat="45.100486" lon="1.2544629"><ele>232.66666666666669</ele><time>2026-04-02T07:45:44.941Z</time></trkpt><trkpt lat="45.100453" lon="1.254385"><ele>232.33333333333334</ele><time>2026-04-02T07:45:45.941Z</time></trkpt><trkpt lat="45.1004032" lon="1.254228"><ele>232.0</ele><time>2026-04-02T07:45:47.942Z</time></trkpt><trkpt lat="45.1003671" lon="1.2541368"><ele>231.66666666666669</ele><time>2026-04-02T07:45:48.941Z</time></trkpt><trkpt lat="45.1003221" lon="1.2540616"><ele>231.33333333333334</ele><time>2026-04-02T07:45:49.942Z</time></trkpt><trkpt lat="45.1002727" lon="1.2539825"><ele>231.0</ele><time>2026-04-02T07:45:50.941Z</time></trkpt><trkpt lat="45.1002261" lon="1.2538807"><ele>230.60000000000002</ele><time>2026-04-02T07:45:51.941Z</time></trkpt><trkpt lat="45.1001813" lon="1.2537604"><ele>230.20000000000002</ele><time>2026-04-02T07:45:52.941Z</time></trkpt><trkpt lat="45.1001339" lon="1.2536299"><ele>229.79999999999998</ele><time>2026-04-02T07:45:53.942Z</time></trkpt><trkpt lat="45.1000805" lon="1.2535114"><ele>229.39999999999998</ele><time>2026-04-02T07:45:54.941Z</time></trkpt><trkpt lat="45.1000253" lon="1.2534052"><ele>229.0</ele><time>2026-04-02T07:45:55.94Z</time></trkpt><trkpt lat="45.0999731" lon="1.2533056"><ele>228.99999999999997</ele><time>2026-04-02T07:45:56.941Z</time></trkpt><trkpt lat="45.0999177" lon="1.2532074"><ele>229.0</ele><time>2026-04-02T07:45:57.942Z</time></trkpt><trkpt lat="45.0998651" lon="1.2530989"><ele>229.0</ele><time>2026-04-02T07:45:58.941Z</time></trkpt><trkpt lat="45.0998137" lon="1.25299"><ele>229.0</ele><time>2026-04-02T07:45:59.942Z</time></trkpt><trkpt lat="45.099766" lon="1.2528847"><ele>228.99999999999997</ele><time>2026-04-02T07:46:00.94Z</time></trkpt><trkpt lat="45.0997216" lon="1.2527864"><ele>229.0</ele><time>2026-04-02T07:46:01.941Z</time></trkpt><trkpt lat="45.0996556" lon="1.2526535"><ele>228.33333333333331</ele><time>2026-04-02T07:46:03.94Z</time></trkpt><trkpt lat="45.0995667" lon="1.2525843"><ele>227.66666666666666</ele><time>2026-04-02T07:46:05.942Z</time></trkpt><trkpt lat="45.0994578" lon="1.2525964"><ele>227.0</ele><time>2026-04-02T07:46:07.94Z</time></trkpt><trkpt lat="45.0993882" lon="1.2526096"><ele>226.33333333333331</ele><time>2026-04-02T07:46:08.94Z</time></trkpt><trkpt lat="45.0993078" lon="1.2526059"><ele>225.66666666666666</ele><time>2026-04-02T07:46:09.941Z</time></trkpt><trkpt lat="45.09922" lon="1.2526028"><ele>225.0</ele><time>2026-04-02T07:46:10.94Z</time></trkpt><trkpt lat="45.0991246" lon="1.2526127"><ele>224.6</ele><time>2026-04-02T07:46:11.941Z</time></trkpt><trkpt lat="45.0990268" lon="1.2526459"><ele>224.2</ele><time>2026-04-02T07:46:12.941Z</time></trkpt><trkpt lat="45.0989256" lon="1.2526458"><ele>223.8</ele><time>2026-04-02T07:46:13.941Z</time></trkpt><trkpt lat="45.098818" lon="1.2526127"><ele>223.4</ele><time>2026-04-02T07:46:14.941Z</time></trkpt><trkpt lat="45.098709" lon="1.2525674"><ele>223.0</ele><time>2026-04-02T07:46:15.942Z</time></trkpt><trkpt lat="45.0985849" lon="1.2525149"><ele>223.0</ele><time>2026-04-02T07:46:16.94Z</time></trkpt><trkpt lat="45.098466" lon="1.2524835"><ele>223.0</ele><time>2026-04-02T07:46:17.942Z</time></trkpt><trkpt lat="45.098371" lon="1.2524745"><ele>223.0</ele><time>2026-04-02T07:46:18.941Z</time></trkpt><trkpt lat="45.0982851" lon="1.2525006"><ele>223.0</ele><time>2026-04-02T07:46:19.942Z</time></trkpt><trkpt lat="45.098198" lon="1.2525556"><ele>223.0</ele><time>2026-04-02T07:46:20.941Z</time></trkpt><trkpt lat="45.0981356" lon="1.2526324"><ele>222.2</ele><time>2026-04-02T07:46:21.94Z</time></trkpt><trkpt lat="45.0981002" lon="1.252729"><ele>221.4</ele><time>2026-04-02T07:46:22.941Z</time></trkpt><trkpt lat="45.0980834" lon="1.2528532"><ele>220.59999999999997</ele><time>2026-04-02T07:46:23.942Z</time></trkpt><trkpt lat="45.0980785" lon="1.2529885"><ele>219.79999999999998</ele><time>2026-04-02T07:46:24.941Z</time></trkpt><trkpt lat="45.0980654" lon="1.253134"><ele>219.0</ele><time>2026-04-02T07:46:25.94Z</time></trkpt><trkpt lat="45.0980412" lon="1.2532855"><ele>219.0</ele><time>2026-04-02T07:46:26.941Z</time></trkpt><trkpt lat="45.0980096" lon="1.2534402"><ele>219.0</ele><time>2026-04-02T07:46:27.941Z</time></trkpt><trkpt lat="45.0979954" lon="1.2536009"><ele>219.0</ele><time>2026-04-02T07:46:28.941Z</time></trkpt><trkpt lat="45.0979975" lon="1.2537799"><ele>219.0</ele><time>2026-04-02T07:46:29.941Z</time></trkpt><trkpt lat="45.098004" lon="1.2539617"><ele>218.79999999999998</ele><time>2026-04-02T07:46:30.942Z</time></trkpt><trkpt lat="45.0980042" lon="1.2541333"><ele>218.59999999999997</ele><time>2026-04-02T07:46:31.942Z</time></trkpt><trkpt lat="45.0979818" lon="1.2542702"><ele>218.4</ele><time>2026-04-02T07:46:32.941Z</time></trkpt><trkpt lat="45.0979288" lon="1.2543825"><ele>218.2</ele><time>2026-04-02T07:46:33.941Z</time></trkpt><trkpt lat="45.097864" lon="1.2545075"><ele>218.0</ele><time>2026-04-02T07:46:34.941Z</time></trkpt><trkpt lat="45.0978093" lon="1.2546253"><ele>218.0</ele><time>2026-04-02T07:46:35.941Z</time></trkpt><trkpt lat="45.0977576" lon="1.254753"><ele>218.0</ele><time>2026-04-02T07:46:36.941Z</time></trkpt><trkpt lat="45.0977134" lon="1.2548983"><ele>218.0</ele><time>2026-04-02T07:46:37.942Z</time></trkpt><trkpt lat="45.0976681" lon="1.2550485"><ele>218.0</ele><time>2026-04-02T07:46:38.941Z</time></trkpt><trkpt lat="45.0976165" lon="1.2551917"><ele>218.0</ele><time>2026-04-02T07:46:39.941Z</time></trkpt><trkpt lat="45.0975604" lon="1.2553099"><ele>217.83333333333334</ele><time>2026-04-02T07:46:40.941Z</time></trkpt><trkpt lat="45.0974985" lon="1.2553939"><ele>217.66666666666669</ele><time>2026-04-02T07:46:41.941Z</time></trkpt><trkpt lat="45.0974283" lon="1.2554622"><ele>217.5</ele><time>2026-04-02T07:46:42.941Z</time></trkpt><trkpt lat="45.0973695" lon="1.2555358"><ele>217.33333333333331</ele><time>2026-04-02T07:46:43.941Z</time></trkpt><trkpt lat="45.0973233" lon="1.2556393"><ele>217.16666666666666</ele><time>2026-04-02T07:46:44.941Z</time></trkpt><trkpt lat="45.0972708" lon="1.2557557"><ele>217.0</ele><time>2026-04-02T07:46:45.941Z</time></trkpt><trkpt lat="45.0972004" lon="1.2558453"><ele>214.2</ele><time>2026-04-02T07:46:46.941Z</time></trkpt><trkpt lat="45.0971238" lon="1.2559286"><ele>211.39999999999998</ele><time>2026-04-02T07:46:47.941Z</time></trkpt><trkpt lat="45.0970624" lon="1.2560312"><ele>208.60000000000002</ele><time>2026-04-02T07:46:48.941Z</time></trkpt><trkpt lat="45.09702" lon="1.2561441"><ele>205.8</ele><time>2026-04-02T07:46:49.941Z</time></trkpt><trkpt lat="45.0969798" lon="1.2562595"><ele>203.0</ele><time>2026-04-02T07:46:50.941Z</time></trkpt><trkpt lat="45.0969364" lon="1.2563678"><ele>202.60000000000002</ele><time>2026-04-02T07:46:51.942Z</time></trkpt><trkpt lat="45.0968861" lon="1.2564723"><ele>202.20000000000002</ele><time>2026-04-02T07:46:52.941Z</time></trkpt><trkpt lat="45.0968227" lon="1.2565608"><ele>201.8</ele><time>2026-04-02T07:46:53.941Z</time></trkpt><trkpt lat="45.096749" lon="1.2566463"><ele>201.4</ele><time>2026-04-02T07:46:54.942Z</time></trkpt><trkpt lat="45.0966823" lon="1.2567412"><ele>201.0</ele><time>2026-04-02T07:46:55.942Z</time></trkpt><trkpt lat="45.0966201" lon="1.2568331"><ele>197.8</ele><time>2026-04-02T07:46:56.943Z</time></trkpt><trkpt lat="45.0965508" lon="1.2568953"><ele>194.60000000000002</ele><time>2026-04-02T07:46:57.943Z</time></trkpt><trkpt lat="45.0964825" lon="1.256916"><ele>191.4</ele><time>2026-04-02T07:46:58.943Z</time></trkpt><trkpt lat="45.0963835" lon="1.256874"><ele>188.2</ele><time>2026-04-02T07:47:00.942Z</time></trkpt><trkpt lat="45.0962695" lon="1.2567681"><ele>185.0</ele><time>2026-04-02T07:47:02.943Z</time></trkpt><trkpt lat="45.0962" lon="1.2567021"><ele>185.0</ele><time>2026-04-02T07:47:03.942Z</time></trkpt><trkpt lat="45.0961279" lon="1.256616"><ele>185.0</ele><time>2026-04-02T07:47:04.943Z</time></trkpt><trkpt lat="45.0960629" lon="1.256526"><ele>185.0</ele><time>2026-04-02T07:47:05.942Z</time></trkpt><trkpt lat="45.0960041" lon="1.2564265"><ele>185.0</ele><time>2026-04-02T07:47:06.941Z</time></trkpt><trkpt lat="45.0959564" lon="1.2563188"><ele>185.0</ele><time>2026-04-02T07:47:07.942Z</time></trkpt><trkpt lat="45.0959263" lon="1.2561885"><ele>184.83333333333331</ele><time>2026-04-02T07:47:08.943Z</time></trkpt><trkpt lat="45.0959093" lon="1.2560662"><ele>184.66666666666666</ele><time>2026-04-02T07:47:09.942Z</time></trkpt><trkpt lat="45.0958884" lon="1.255947"><ele>184.5</ele><time>2026-04-02T07:47:10.942Z</time></trkpt><trkpt lat="45.0958598" lon="1.2558293"><ele>184.33333333333334</ele><time>2026-04-02T07:47:11.942Z</time></trkpt><trkpt lat="45.0958373" lon="1.2557052"><ele>184.16666666666669</ele><time>2026-04-02T07:47:12.943Z</time></trkpt><trkpt lat="45.095825" lon="1.2555796"><ele>184.0</ele><time>2026-04-02T07:47:13.943Z</time></trkpt><trkpt lat="45.0958121" lon="1.2554649"><ele>183.0</ele><time>2026-04-02T07:47:14.943Z</time></trkpt><trkpt lat="45.0958051" lon="1.2553608"><ele>182.0</ele><time>2026-04-02T07:47:15.943Z</time></trkpt><trkpt lat="45.0958061" lon="1.2552539"><ele>181.0</ele><time>2026-04-02T07:47:16.943Z</time></trkpt><trkpt lat="45.095812" lon="1.2551442"><ele>180.0</ele><time>2026-04-02T07:47:17.943Z</time></trkpt><trkpt lat="45.0958168" lon="1.2550298"><ele>179.0</ele><time>2026-04-02T07:47:18.943Z</time></trkpt><trkpt lat="45.0958231" lon="1.2549085"><ele>178.0</ele><time>2026-04-02T07:47:19.942Z</time></trkpt><trkpt lat="45.0958312" lon="1.2547915"><ele>178.5</ele><time>2026-04-02T07:47:20.942Z</time></trkpt><trkpt lat="45.0958454" lon="1.2546813"><ele>179.0</ele><time>2026-04-02T07:47:21.943Z</time></trkpt><trkpt lat="45.0958485" lon="1.2545831"><ele>179.5</ele><time>2026-04-02T07:47:22.942Z</time></trkpt><trkpt lat="45.0957611" lon="1.2544791"><ele>180.0</ele><time>2026-04-02T07:47:24.942Z</time></trkpt><trkpt lat="45.0956909" lon="1.2544744"><ele>180.5</ele><time>2026-04-02T07:47:25.942Z</time></trkpt><trkpt lat="45.0956064" lon="1.2545007"><ele>181.0</ele><time>2026-04-02T07:47:26.942Z</time></trkpt><trkpt lat="45.095516" lon="1.2545613"><ele>181.0</ele><time>2026-04-02T07:47:27.942Z</time></trkpt><trkpt lat="45.0954112" lon="1.2546395"><ele>181.0</ele><time>2026-04-02T07:47:28.942Z</time></trkpt><trkpt lat="45.095292" lon="1.2547339"><ele>181.0</ele><time>2026-04-02T07:47:29.941Z</time></trkpt><trkpt lat="45.0951809" lon="1.2548273"><ele>181.0</ele><time>2026-04-02T07:47:30.942Z</time></trkpt><trkpt lat="45.0950656" lon="1.2549296"><ele>176.0</ele><time>2026-04-02T07:47:31.942Z</time></trkpt><trkpt lat="45.0949509" lon="1.255029"><ele>171.0</ele><time>2026-04-02T07:47:32.943Z</time></trkpt><trkpt lat="45.0948408" lon="1.2551462"><ele>166.0</ele><time>2026-04-02T07:47:33.943Z</time></trkpt><trkpt lat="45.094745" lon="1.2552864"><ele>161.0</ele><time>2026-04-02T07:47:34.942Z</time></trkpt><trkpt lat="45.0946463" lon="1.2554278"><ele>159.25</ele><time>2026-04-02T07:47:35.942Z</time></trkpt><trkpt lat="45.0945553" lon="1.2555785"><ele>157.5</ele><time>2026-04-02T07:47:36.942Z</time></trkpt><trkpt lat="45.0944759" lon="1.2557409"><ele>155.75</ele><time>2026-04-02T07:47:37.941Z</time></trkpt><trkpt lat="45.0943965" lon="1.2559019"><ele>154.0</ele><time>2026-04-02T07:47:38.942Z</time></trkpt><trkpt lat="45.0943382" lon="1.2560576"><ele>151.0</ele><time>2026-04-02T07:47:39.942Z</time></trkpt><trkpt lat="45.0942951" lon="1.2561922"><ele>148.0</ele><time>2026-04-02T07:47:40.943Z</time></trkpt><trkpt lat="45.0942446" lon="1.2563251"><ele>145.0</ele><time>2026-04-02T07:47:41.942Z</time></trkpt><trkpt lat="45.0941936" lon="1.2564563"><ele>142.0</ele><time>2026-04-02T07:47:42.943Z</time></trkpt><trkpt lat="45.0941555" lon="1.2565942"><ele>139.0</ele><time>2026-04-02T07:47:43.942Z</time></trkpt><trkpt lat="45.0941435" lon="1.2567388"><ele>137.6</ele><time>2026-04-02T07:47:44.942Z</time></trkpt><trkpt lat="45.0941521" lon="1.2568818"><ele>136.2</ele><time>2026-04-02T07:47:45.943Z</time></trkpt><trkpt lat="45.0941554" lon="1.2570209"><ele>134.79999999999998</ele><time>2026-04-02T07:47:46.943Z</time></trkpt><trkpt lat="45.0941416" lon="1.2571674"><ele>133.4</ele><time>2026-04-02T07:47:47.943Z</time></trkpt><trkpt lat="45.0941212" lon="1.2573134"><ele>132.0</ele><time>2026-04-02T07:47:48.942Z</time></trkpt><trkpt lat="45.0940998" lon="1.2574532"><ele>129.83333333333334</ele><time>2026-04-02T07:47:49.943Z</time></trkpt><trkpt lat="45.0940791" lon="1.2575962"><ele>127.66666666666666</ele><time>2026-04-02T07:47:50.942Z</time></trkpt><trkpt lat="45.094066" lon="1.2577232"><ele>125.5</ele><time>2026-04-02T07:47:51.943Z</time></trkpt><trkpt lat="45.0940536" lon="1.2578422"><ele>123.33333333333333</ele><time>2026-04-02T07:47:52.943Z</time></trkpt><trkpt lat="45.094045" lon="1.2579575"><ele>121.16666666666666</ele><time>2026-04-02T07:47:53.942Z</time></trkpt><trkpt lat="45.0940391" lon="1.2580648"><ele>119.0</ele><time>2026-04-02T07:47:54.942Z</time></trkpt><trkpt lat="45.0940326" lon="1.258161"><ele>118.33333333333333</ele><time>2026-04-02T07:47:55.943Z</time></trkpt><trkpt lat="45.0939836" lon="1.2582879"><ele>117.66666666666666</ele><time>2026-04-02T07:47:57.943Z</time></trkpt><trkpt lat="45.0938723" lon="1.2583251"><ele>117.0</ele><time>2026-04-02T07:47:59.942Z</time></trkpt><trkpt lat="45.0938028" lon="1.2583372"><ele>116.33333333333334</ele><time>2026-04-02T07:48:00.943Z</time></trkpt><trkpt lat="45.0937331" lon="1.2583618"><ele>115.66666666666667</ele><time>2026-04-02T07:48:01.943Z</time></trkpt><trkpt lat="45.093667" lon="1.2584006"><ele>115.0</ele><time>2026-04-02T07:48:02.943Z</time></trkpt><trkpt lat="45.0936057" lon="1.2584482"><ele>115.00000000000001</ele><time>2026-04-02T07:48:03.942Z</time></trkpt><trkpt lat="45.0935435" lon="1.2585007"><ele>115.0</ele><time>2026-04-02T07:48:04.942Z</time></trkpt><trkpt lat="45.0934772" lon="1.2585461"><ele>115.0</ele><time>2026-04-02T07:48:05.942Z</time></trkpt><trkpt lat="45.0933987" lon="1.2585803"><ele>115.0</ele><time>2026-04-02T07:48:06.942Z</time></trkpt><trkpt lat="45.0933121" lon="1.2586043"><ele>115.00000000000001</ele><time>2026-04-02T07:48:07.942Z</time></trkpt><trkpt lat="45.0932195" lon="1.258618"><ele>115.0</ele><time>2026-04-02T07:48:08.942Z</time></trkpt><trkpt lat="45.0931239" lon="1.2586232"><ele>115.6</ele><time>2026-04-02T07:48:09.942Z</time></trkpt><trkpt lat="45.0930235" lon="1.2586211"><ele>116.2</ele><time>2026-04-02T07:48:10.942Z</time></trkpt><trkpt lat="45.0929197" lon="1.2586166"><ele>116.80000000000001</ele><time>2026-04-02T07:48:11.941Z</time></trkpt><trkpt lat="45.0928138" lon="1.2586113"><ele>117.4</ele><time>2026-04-02T07:48:12.942Z</time></trkpt><trkpt lat="45.0927155" lon="1.258601"><ele>118.0</ele><time>2026-04-02T07:48:13.943Z</time></trkpt><trkpt lat="45.0926263" lon="1.2585923"><ele>118.00000000000001</ele><time>2026-04-02T07:48:14.942Z</time></trkpt><trkpt lat="45.0925518" lon="1.2585792"><ele>118.0</ele><time>2026-04-02T07:48:15.942Z</time></trkpt><trkpt lat="45.0924771" lon="1.2585702"><ele>118.0</ele><time>2026-04-02T07:48:16.942Z</time></trkpt><trkpt lat="45.0924028" lon="1.2585726"><ele>118.0</ele><time>2026-04-02T07:48:17.943Z</time></trkpt><trkpt lat="45.0923223" lon="1.2585911"><ele>118.00000000000001</ele><time>2026-04-02T07:48:18.943Z</time></trkpt><trkpt lat="45.0922466" lon="1.2586294"><ele>118.0</ele><time>2026-04-02T07:48:19.943Z</time></trkpt><trkpt lat="45.092181" lon="1.2586784"><ele>118.60000000000001</ele><time>2026-04-02T07:48:20.941Z</time></trkpt><trkpt lat="45.0920901" lon="1.2587354"><ele>119.20000000000002</ele><time>2026-04-02T07:48:22.942Z</time></trkpt><trkpt lat="45.0920258" lon="1.2587046"><ele>119.8</ele><time>2026-04-02T07:48:24.941Z</time></trkpt><trkpt lat="45.0919519" lon="1.258538"><ele>120.4</ele><time>2026-04-02T07:48:26.942Z</time></trkpt><trkpt lat="45.0919046" lon="1.258438"><ele>121.0</ele><time>2026-04-02T07:48:27.942Z</time></trkpt><trkpt lat="45.0918467" lon="1.2583219"><ele>121.0</ele><time>2026-04-02T07:48:28.942Z</time></trkpt><trkpt lat="45.0917868" lon="1.2581955"><ele>121.0</ele><time>2026-04-02T07:48:29.941Z</time></trkpt><trkpt lat="45.0917273" lon="1.2580645"><ele>121.0</ele><time>2026-04-02T07:48:30.942Z</time></trkpt><trkpt lat="45.0916675" lon="1.2579321"><ele>121.0</ele><time>2026-04-02T07:48:31.942Z</time></trkpt><trkpt lat="45.0916061" lon="1.2578063"><ele>121.0</ele><time>2026-04-02T07:48:32.942Z</time></trkpt><trkpt lat="45.0915486" lon="1.2576906"><ele>123.8</ele><time>2026-04-02T07:48:33.943Z</time></trkpt><trkpt lat="45.0914934" lon="1.2576192"><ele>126.6</ele><time>2026-04-02T07:48:34.943Z</time></trkpt><trkpt lat="45.0913959" lon="1.2576233"><ele>129.4</ele><time>2026-04-02T07:48:36.942Z</time></trkpt><trkpt lat="45.0913246" lon="1.2577736"><ele>132.2</ele><time>2026-04-02T07:48:38.942Z</time></trkpt><trkpt lat="45.0912833" lon="1.2578811"><ele>135.0</ele><time>2026-04-02T07:48:39.942Z</time></trkpt><trkpt lat="45.0912263" lon="1.2579781"><ele>135.0</ele><time>2026-04-02T07:48:40.942Z</time></trkpt><trkpt lat="45.0911718" lon="1.2580638"><ele>135.0</ele><time>2026-04-02T07:48:41.943Z</time></trkpt><trkpt lat="45.0911135" lon="1.2581498"><ele>135.0</ele><time>2026-04-02T07:48:42.942Z</time></trkpt><trkpt lat="45.0910558" lon="1.2582233"><ele>135.0</ele><time>2026-04-02T07:48:43.942Z</time></trkpt><trkpt lat="45.0910042" lon="1.2582782"><ele>135.0</ele><time>2026-04-02T07:48:44.942Z</time></trkpt><trkpt lat="45.0909238" lon="1.2583046"><ele>135.0</ele><time>2026-04-02T07:48:46.943Z</time></trkpt><trkpt lat="45.090835" lon="1.2582278"><ele>135.8</ele><time>2026-04-02T07:48:48.941Z</time></trkpt><trkpt lat="45.090741" lon="1.2581313"><ele>136.6</ele><time>2026-04-02T07:48:50.942Z</time></trkpt><trkpt lat="45.0906437" lon="1.2580238"><ele>137.4</ele><time>2026-04-02T07:48:52.943Z</time></trkpt><trkpt lat="45.0905853" lon="1.2579767"><ele>138.2</ele><time>2026-04-02T07:48:53.942Z</time></trkpt><trkpt lat="45.0905215" lon="1.2579307"><ele>139.0</ele><time>2026-04-02T07:48:54.943Z</time></trkpt><trkpt lat="45.0904613" lon="1.2578726"><ele>139.0</ele><time>2026-04-02T07:48:55.943Z</time></trkpt><trkpt lat="45.0904114" lon="1.257801"><ele>139.0</ele><time>2026-04-02T07:48:56.942Z</time></trkpt><trkpt lat="45.090374" lon="1.2577156"><ele>139.0</ele><time>2026-04-02T07:48:57.943Z</time></trkpt><trkpt lat="45.090332" lon="1.2576238"><ele>139.0</ele><time>2026-04-02T07:48:58.942Z</time></trkpt><trkpt lat="45.090268" lon="1.2575359"><ele>139.0</ele><time>2026-04-02T07:48:59.942Z</time></trkpt><trkpt lat="45.0901884" lon="1.2574484"><ele>139.0</ele><time>2026-04-02T07:49:00.942Z</time></trkpt><trkpt lat="45.0901026" lon="1.2573577"><ele>140.4</ele><time>2026-04-02T07:49:01.942Z</time></trkpt><trkpt lat="45.090018" lon="1.2572842"><ele>141.8</ele><time>2026-04-02T07:49:02.941Z</time></trkpt><trkpt lat="45.0899227" lon="1.257228"><ele>143.2</ele><time>2026-04-02T07:49:03.942Z</time></trkpt><trkpt lat="45.089819" lon="1.2571765"><ele>144.6</ele><time>2026-04-02T07:49:04.943Z</time></trkpt><trkpt lat="45.0897149" lon="1.2571251"><ele>146.0</ele><time>2026-04-02T07:49:05.943Z</time></trkpt><trkpt lat="45.0896188" lon="1.2570735"><ele>146.0</ele><time>2026-04-02T07:49:06.942Z</time></trkpt><trkpt lat="45.0895325" lon="1.2570185"><ele>146.0</ele><time>2026-04-02T07:49:07.942Z</time></trkpt><trkpt lat="45.0894518" lon="1.2569716"><ele>146.0</ele><time>2026-04-02T07:49:08.942Z</time></trkpt><trkpt lat="45.0893754" lon="1.2569219"><ele>146.0</ele><time>2026-04-02T07:49:09.943Z</time></trkpt><trkpt lat="45.0893033" lon="1.2568477"><ele>146.0</ele><time>2026-04-02T07:49:10.943Z</time></trkpt><trkpt lat="45.0892426" lon="1.2567503"><ele>146.0</ele><time>2026-04-02T07:49:11.943Z</time></trkpt><trkpt lat="45.0891784" lon="1.2566455"><ele>146.0</ele><time>2026-04-02T07:49:12.942Z</time></trkpt><trkpt lat="45.0891264" lon="1.2565501"><ele>146.0</ele><time>2026-04-02T07:49:13.941Z</time></trkpt><trkpt lat="45.0890887" lon="1.2564486"><ele>146.0</ele><time>2026-04-02T07:49:14.942Z</time></trkpt><trkpt lat="45.0890611" lon="1.2563353"><ele>146.0</ele><time>2026-04-02T07:49:15.941Z</time></trkpt><trkpt lat="45.0890416" lon="1.2562223"><ele>146.0</ele><time>2026-04-02T07:49:16.943Z</time></trkpt><trkpt lat="45.0890036" lon="1.2561247"><ele>146.0</ele><time>2026-04-02T07:49:17.942Z</time></trkpt><trkpt lat="45.0889485" lon="1.2560447"><ele>147.0</ele><time>2026-04-02T07:49:18.941Z</time></trkpt><trkpt lat="45.0888907" lon="1.2559908"><ele>148.0</ele><time>2026-04-02T07:49:19.943Z</time></trkpt><trkpt lat="45.0888301" lon="1.2559507"><ele>149.0</ele><time>2026-04-02T07:49:20.943Z</time></trkpt><trkpt lat="45.0887554" lon="1.2559302"><ele>150.0</ele><time>2026-04-02T07:49:21.942Z</time></trkpt><trkpt lat="45.0886662" lon="1.2559264"><ele>151.0</ele><time>2026-04-02T07:49:22.942Z</time></trkpt><trkpt lat="45.0885722" lon="1.2559152"><ele>152.0</ele><time>2026-04-02T07:49:23.942Z</time></trkpt><trkpt lat="45.0884875" lon="1.2558986"><ele>152.0</ele><time>2026-04-02T07:49:24.942Z</time></trkpt><trkpt lat="45.0884169" lon="1.255882"><ele>152.0</ele><time>2026-04-02T07:49:25.942Z</time></trkpt><trkpt lat="45.0883568" lon="1.2558545"><ele>152.0</ele><time>2026-04-02T07:49:26.943Z</time></trkpt><trkpt lat="45.088314" lon="1.2557667"><ele>152.0</ele><time>2026-04-02T07:49:28.942Z</time></trkpt><trkpt lat="45.088366" lon="1.255709"><ele>152.0</ele><time>2026-04-02T07:49:30.942Z</time></trkpt><trkpt lat="45.088424" lon="1.2558036"><ele>152.0</ele><time>2026-04-02T07:49:33.942Z</time></trkpt><trkpt lat="45.0883996" lon="1.2558989"><ele>152.0</ele><time>2026-04-02T07:49:34.941Z</time></trkpt><trkpt lat="45.0883255" lon="1.2560157"><ele>154.25</ele><time>2026-04-02T07:49:35.942Z</time></trkpt><trkpt lat="45.0882319" lon="1.2561334"><ele>156.5</ele><time>2026-04-02T07:49:36.942Z</time></trkpt><trkpt lat="45.0881075" lon="1.2562667"><ele>158.75</ele><time>2026-04-02T07:49:37.942Z</time></trkpt><trkpt lat="45.0880098" lon="1.256383"><ele>161.0</ele><time>2026-04-02T07:49:38.941Z</time></trkpt><trkpt lat="45.087931" lon="1.2564822"><ele>161.0</ele><time>2026-04-02T07:49:39.943Z</time></trkpt><trkpt lat="45.0878689" lon="1.2565233"><ele>161.0</ele><time>2026-04-02T07:49:40.943Z</time></trkpt><trkpt lat="45.0877917" lon="1.2565095"><ele>161.0</ele><time>2026-04-02T07:49:42.942Z</time></trkpt><trkpt lat="45.0878492" lon="1.2564245"><ele>161.0</ele><time>2026-04-02T07:49:43.943Z</time></trkpt><trkpt lat="45.0879088" lon="1.2563691"><ele>161.0</ele><time>2026-04-02T07:49:44.943Z</time></trkpt><trkpt lat="45.0880095" lon="1.2562892"><ele>161.0</ele><time>2026-04-02T07:49:45.942Z</time></trkpt><trkpt lat="45.0881217" lon="1.2561917"><ele>161.0</ele><time>2026-04-02T07:49:46.943Z</time></trkpt><trkpt lat="45.088223" lon="1.2561157"><ele>161.0</ele><time>2026-04-02T07:49:47.942Z</time></trkpt><trkpt lat="45.0883261" lon="1.2560467"><ele>161.0</ele><time>2026-04-02T07:49:48.942Z</time></trkpt><trkpt lat="45.0884254" lon="1.2559899"><ele>161.0</ele><time>2026-04-02T07:49:49.942Z</time></trkpt><trkpt lat="45.0885228" lon="1.2559564"><ele>161.0</ele><time>2026-04-02T07:49:50.942Z</time></trkpt><trkpt lat="45.0886152" lon="1.2559392"><ele>159.5</ele><time>2026-04-02T07:49:51.943Z</time></trkpt><trkpt lat="45.0887003" lon="1.2559321"><ele>158.0</ele><time>2026-04-02T07:49:52.942Z</time></trkpt><trkpt lat="45.0887751" lon="1.255944"><ele>156.5</ele><time>2026-04-02T07:49:53.942Z</time></trkpt><trkpt lat="45.0888615" lon="1.2559853"><ele>155.0</ele><time>2026-04-02T07:49:55.943Z</time></trkpt><trkpt lat="45.0889496" lon="1.2560763"><ele>153.5</ele><time>2026-04-02T07:49:57.942Z</time></trkpt><trkpt lat="45.088997" lon="1.2561628"><ele>152.0</ele><time>2026-04-02T07:49:58.943Z</time></trkpt><trkpt lat="45.0890268" lon="1.2562665"><ele>152.0</ele><time>2026-04-02T07:49:59.942Z</time></trkpt><trkpt lat="45.08905" lon="1.2563756"><ele>152.0</ele><time>2026-04-02T07:50:00.942Z</time></trkpt><trkpt lat="45.0890837" lon="1.2564776"><ele>152.0</ele><time>2026-04-02T07:50:01.943Z</time></trkpt><trkpt lat="45.0891269" lon="1.256579"><ele>152.0</ele><time>2026-04-02T07:50:02.942Z</time></trkpt><trkpt lat="45.0891794" lon="1.2566787"><ele>152.0</ele><time>2026-04-02T07:50:03.942Z</time></trkpt><trkpt lat="45.0892353" lon="1.2567651"><ele>152.0</ele><time>2026-04-02T07:50:04.942Z</time></trkpt><trkpt lat="45.089294" lon="1.2568496"><ele>150.79999999999998</ele><time>2026-04-02T07:50:05.941Z</time></trkpt><trkpt lat="45.0893564" lon="1.2569241"><ele>149.6</ele><time>2026-04-02T07:50:06.943Z</time></trkpt><trkpt lat="45.0894281" lon="1.2569789"><ele>148.39999999999998</ele><time>2026-04-02T07:50:07.943Z</time></trkpt><trkpt lat="45.0895182" lon="1.2570322"><ele>147.2</ele><time>2026-04-02T07:50:08.943Z</time></trkpt><trkpt lat="45.0896028" lon="1.2570845"><ele>146.0</ele><time>2026-04-02T07:50:09.943Z</time></trkpt><trkpt lat="45.089695" lon="1.2571363"><ele>146.0</ele><time>2026-04-02T07:50:10.943Z</time></trkpt><trkpt lat="45.0897941" lon="1.2571821"><ele>146.0</ele><time>2026-04-02T07:50:11.942Z</time></trkpt><trkpt lat="45.0898931" lon="1.2572275"><ele>146.0</ele><time>2026-04-02T07:50:12.942Z</time></trkpt><trkpt lat="45.0899857" lon="1.25728"><ele>146.0</ele><time>2026-04-02T07:50:13.942Z</time></trkpt><trkpt lat="45.0900707" lon="1.2573463"><ele>146.0</ele><time>2026-04-02T07:50:14.941Z</time></trkpt><trkpt lat="45.0901511" lon="1.2574235"><ele>144.83333333333331</ele><time>2026-04-02T07:50:15.943Z</time></trkpt><trkpt lat="45.0902259" lon="1.2575044"><ele>143.66666666666666</ele><time>2026-04-02T07:50:16.942Z</time></trkpt><trkpt lat="45.090292" lon="1.2575851"><ele>142.5</ele><time>2026-04-02T07:50:17.943Z</time></trkpt><trkpt lat="45.0903438" lon="1.2576697"><ele>141.33333333333334</ele><time>2026-04-02T07:50:18.943Z</time></trkpt><trkpt lat="45.0903887" lon="1.2577633"><ele>140.16666666666669</ele><time>2026-04-02T07:50:19.941Z</time></trkpt><trkpt lat="45.0904317" lon="1.2578466"><ele>139.0</ele><time>2026-04-02T07:50:20.942Z</time></trkpt><trkpt lat="45.0905339" lon="1.2579572"><ele>139.0</ele><time>2026-04-02T07:50:22.942Z</time></trkpt><trkpt lat="45.0905988" lon="1.2580059"><ele>139.0</ele><time>2026-04-02T07:50:23.941Z</time></trkpt><trkpt lat="45.0906604" lon="1.258059"><ele>139.0</ele><time>2026-04-02T07:50:24.942Z</time></trkpt><trkpt lat="45.0907208" lon="1.2581258"><ele>139.0</ele><time>2026-04-02T07:50:25.942Z</time></trkpt><trkpt lat="45.0907815" lon="1.2581885"><ele>139.0</ele><time>2026-04-02T07:50:26.942Z</time></trkpt><trkpt lat="45.0908418" lon="1.2582461"><ele>139.0</ele><time>2026-04-02T07:50:27.943Z</time></trkpt><trkpt lat="45.0909328" lon="1.2583219"><ele>138.33333333333334</ele><time>2026-04-02T07:50:29.942Z</time></trkpt><trkpt lat="45.0910179" lon="1.2582909"><ele>137.66666666666669</ele><time>2026-04-02T07:50:31.941Z</time></trkpt><trkpt lat="45.0911021" lon="1.2581826"><ele>137.0</ele><time>2026-04-02T07:50:33.942Z</time></trkpt><trkpt lat="45.0911495" lon="1.2581081"><ele>136.33333333333334</ele><time>2026-04-02T07:50:34.942Z</time></trkpt><trkpt lat="45.0912101" lon="1.2580234"><ele>135.66666666666666</ele><time>2026-04-02T07:50:35.942Z</time></trkpt><trkpt lat="45.091268" lon="1.257932"><ele>135.0</ele><time>2026-04-02T07:50:36.941Z</time></trkpt><trkpt lat="45.0913071" lon="1.2578372"><ele>135.0</ele><time>2026-04-02T07:50:37.941Z</time></trkpt><trkpt lat="45.0913434" lon="1.2577501"><ele>135.0</ele><time>2026-04-02T07:50:38.941Z</time></trkpt><trkpt lat="45.0913755" lon="1.2576683"><ele>135.0</ele><time>2026-04-02T07:50:39.942Z</time></trkpt><trkpt lat="45.0914068" lon="1.2574971"><ele>135.0</ele><time>2026-04-02T07:50:41.942Z</time></trkpt><trkpt lat="45.0914071" lon="1.2573216"><ele>135.0</ele><time>2026-04-02T07:50:43.942Z</time></trkpt><trkpt lat="45.0915025" lon="1.2571941"><ele>135.66666666666666</ele><time>2026-04-02T07:50:45.942Z</time></trkpt><trkpt lat="45.0915737" lon="1.2571435"><ele>136.33333333333334</ele><time>2026-04-02T07:50:46.943Z</time></trkpt><trkpt lat="45.0916515" lon="1.2570921"><ele>137.0</ele><time>2026-04-02T07:50:47.943Z</time></trkpt><trkpt lat="45.0917239" lon="1.257037"><ele>137.66666666666669</ele><time>2026-04-02T07:50:48.943Z</time></trkpt><trkpt lat="45.0917792" lon="1.256981"><ele>138.33333333333334</ele><time>2026-04-02T07:50:49.943Z</time></trkpt><trkpt lat="45.0918388" lon="1.2568466"><ele>139.0</ele><time>2026-04-02T07:50:51.942Z</time></trkpt><trkpt lat="45.0918158" lon="1.2566605"><ele>139.2</ele><time>2026-04-02T07:50:53.943Z</time></trkpt><trkpt lat="45.0917916" lon="1.2565488"><ele>139.4</ele><time>2026-04-02T07:50:54.944Z</time></trkpt><trkpt lat="45.0917576" lon="1.2564234"><ele>139.6</ele><time>2026-04-02T07:50:55.944Z</time></trkpt><trkpt lat="45.0917173" lon="1.2562929"><ele>139.8</ele><time>2026-04-02T07:50:56.944Z</time></trkpt><trkpt lat="45.0916808" lon="1.2561523"><ele>140.0</ele><time>2026-04-02T07:50:57.943Z</time></trkpt><trkpt lat="45.0916456" lon="1.2559886"><ele>141.25</ele><time>2026-04-02T07:50:58.944Z</time></trkpt><trkpt lat="45.0916069" lon="1.2558221"><ele>142.5</ele><time>2026-04-02T07:50:59.944Z</time></trkpt><trkpt lat="45.0915614" lon="1.2556576"><ele>143.75</ele><time>2026-04-02T07:51:00.943Z</time></trkpt><trkpt lat="45.0915201" lon="1.2554983"><ele>145.0</ele><time>2026-04-02T07:51:01.943Z</time></trkpt><trkpt lat="45.091485" lon="1.2553364"><ele>146.5</ele><time>2026-04-02T07:51:02.943Z</time></trkpt><trkpt lat="45.0914551" lon="1.2551761"><ele>148.0</ele><time>2026-04-02T07:51:03.944Z</time></trkpt><trkpt lat="45.091421" lon="1.255012"><ele>149.5</ele><time>2026-04-02T07:51:04.942Z</time></trkpt><trkpt lat="45.0913847" lon="1.2548467"><ele>151.0</ele><time>2026-04-02T07:51:05.942Z</time></trkpt><trkpt lat="45.0913485" lon="1.2546902"><ele>153.4</ele><time>2026-04-02T07:51:06.943Z</time></trkpt><trkpt lat="45.0913107" lon="1.2545395"><ele>155.8</ele><time>2026-04-02T07:51:07.943Z</time></trkpt><trkpt lat="45.0912843" lon="1.2544089"><ele>158.20000000000002</ele><time>2026-04-02T07:51:08.944Z</time></trkpt><trkpt lat="45.0912771" lon="1.2542764"><ele>160.6</ele><time>2026-04-02T07:51:09.944Z</time></trkpt><trkpt lat="45.0912789" lon="1.2541266"><ele>163.0</ele><time>2026-04-02T07:51:10.944Z</time></trkpt><trkpt lat="45.091288" lon="1.2539786"><ele>166.25</ele><time>2026-04-02T07:51:11.943Z</time></trkpt><trkpt lat="45.0913237" lon="1.2538319"><ele>169.5</ele><time>2026-04-02T07:51:12.944Z</time></trkpt><trkpt lat="45.0913773" lon="1.2536801"><ele>172.75</ele><time>2026-04-02T07:51:13.943Z</time></trkpt><trkpt lat="45.0914447" lon="1.2535283"><ele>176.0</ele><time>2026-04-02T07:51:14.943Z</time></trkpt><trkpt lat="45.0915233" lon="1.2533821"><ele>176.0</ele><time>2026-04-02T07:51:15.943Z</time></trkpt><trkpt lat="45.0915889" lon="1.253251"><ele>176.0</ele><time>2026-04-02T07:51:16.943Z</time></trkpt><trkpt lat="45.0916438" lon="1.2531191"><ele>176.0</ele><time>2026-04-02T07:51:17.943Z</time></trkpt><trkpt lat="45.0916922" lon="1.2529943"><ele>176.0</ele><time>2026-04-02T07:51:18.942Z</time></trkpt><trkpt lat="45.0917268" lon="1.2528642"><ele>176.0</ele><time>2026-04-02T07:51:19.942Z</time></trkpt><trkpt lat="45.0917639" lon="1.2527385"><ele>177.16666666666666</ele><time>2026-04-02T07:51:20.943Z</time></trkpt><trkpt lat="45.0918075" lon="1.2526321"><ele>178.33333333333331</ele><time>2026-04-02T07:51:21.943Z</time></trkpt><trkpt lat="45.0918299" lon="1.2525225"><ele>179.5</ele><time>2026-04-02T07:51:22.943Z</time></trkpt><trkpt lat="45.0918416" lon="1.2524011"><ele>180.66666666666666</ele><time>2026-04-02T07:51:23.943Z</time></trkpt><trkpt lat="45.0918494" lon="1.2522689"><ele>181.83333333333334</ele><time>2026-04-02T07:51:24.942Z</time></trkpt><trkpt lat="45.0918619" lon="1.2521325"><ele>183.0</ele><time>2026-04-02T07:51:25.942Z</time></trkpt><trkpt lat="45.0918788" lon="1.2519957"><ele>185.60000000000002</ele><time>2026-04-02T07:51:26.942Z</time></trkpt><trkpt lat="45.0919097" lon="1.2518516"><ele>188.20000000000002</ele><time>2026-04-02T07:51:27.944Z</time></trkpt><trkpt lat="45.0919384" lon="1.2517073"><ele>190.8</ele><time>2026-04-02T07:51:28.944Z</time></trkpt><trkpt lat="45.0919653" lon="1.2515655"><ele>193.4</ele><time>2026-04-02T07:51:29.943Z</time></trkpt><trkpt lat="45.09199" lon="1.2514252"><ele>196.0</ele><time>2026-04-02T07:51:30.943Z</time></trkpt><trkpt lat="45.0920195" lon="1.2512729"><ele>198.75</ele><time>2026-04-02T07:51:31.943Z</time></trkpt><trkpt lat="45.0920518" lon="1.251138"><ele>201.5</ele><time>2026-04-02T07:51:32.943Z</time></trkpt><trkpt lat="45.0920727" lon="1.2509898"><ele>204.25</ele><time>2026-04-02T07:51:33.943Z</time></trkpt><trkpt lat="45.0920826" lon="1.2508179"><ele>207.0</ele><time>2026-04-02T07:51:34.943Z</time></trkpt><trkpt lat="45.0920864" lon="1.2506366"><ele>209.0</ele><time>2026-04-02T07:51:35.943Z</time></trkpt><trkpt lat="45.0920929" lon="1.2504884"><ele>211.0</ele><time>2026-04-02T07:51:36.944Z</time></trkpt><trkpt lat="45.0920933" lon="1.2503219"><ele>213.0</ele><time>2026-04-02T07:51:37.944Z</time></trkpt><trkpt lat="45.0921146" lon="1.2501645"><ele>215.0</ele><time>2026-04-02T07:51:38.944Z</time></trkpt><trkpt lat="45.0921496" lon="1.2500029"><ele>215.0</ele><time>2026-04-02T07:51:39.944Z</time></trkpt><trkpt lat="45.0921883" lon="1.2498489"><ele>215.0</ele><time>2026-04-02T07:51:40.944Z</time></trkpt><trkpt lat="45.0922394" lon="1.2496905"><ele>215.0</ele><time>2026-04-02T07:51:41.944Z</time></trkpt><trkpt lat="45.0922739" lon="1.2495417"><ele>215.0</ele><time>2026-04-02T07:51:42.944Z</time></trkpt><trkpt lat="45.0923317" lon="1.2494084"><ele>216.16666666666669</ele><time>2026-04-02T07:51:43.944Z</time></trkpt><trkpt lat="45.092386" lon="1.2493094"><ele>217.33333333333334</ele><time>2026-04-02T07:51:44.943Z</time></trkpt><trkpt lat="45.0924574" lon="1.2492378"><ele>218.5</ele><time>2026-04-02T07:51:45.943Z</time></trkpt><trkpt lat="45.0925237" lon="1.2491696"><ele>219.66666666666669</ele><time>2026-04-02T07:51:46.943Z</time></trkpt><trkpt lat="45.0925611" lon="1.2490892"><ele>220.83333333333334</ele><time>2026-04-02T07:51:47.944Z</time></trkpt><trkpt lat="45.0926058" lon="1.2490045"><ele>222.0</ele><time>2026-04-02T07:51:48.943Z</time></trkpt><trkpt lat="45.092662" lon="1.2489423"><ele>223.6</ele><time>2026-04-02T07:51:49.943Z</time></trkpt><trkpt lat="45.0927291" lon="1.248893"><ele>225.2</ele><time>2026-04-02T07:51:50.943Z</time></trkpt><trkpt lat="45.092787" lon="1.248852"><ele>226.8</ele><time>2026-04-02T07:51:51.943Z</time></trkpt><trkpt lat="45.0928637" lon="1.2487225"><ele>228.4</ele><time>2026-04-02T07:51:53.943Z</time></trkpt><trkpt lat="45.0929479" lon="1.2486009"><ele>230.0</ele><time>2026-04-02T07:51:55.943Z</time></trkpt><trkpt lat="45.0930243" lon="1.2485723"><ele>230.0</ele><time>2026-04-02T07:51:56.943Z</time></trkpt><trkpt lat="45.0931175" lon="1.248549"><ele>230.0</ele><time>2026-04-02T07:51:57.943Z</time></trkpt><trkpt lat="45.0932256" lon="1.2485313"><ele>230.0</ele><time>2026-04-02T07:51:58.943Z</time></trkpt><trkpt lat="45.0933458" lon="1.2485355"><ele>230.0</ele><time>2026-04-02T07:51:59.943Z</time></trkpt><trkpt lat="45.093461" lon="1.2485429"><ele>230.0</ele><time>2026-04-02T07:52:00.943Z</time></trkpt><trkpt lat="45.093575" lon="1.2485322"><ele>230.50000000000003</ele><time>2026-04-02T07:52:01.943Z</time></trkpt><trkpt lat="45.0936767" lon="1.2484999"><ele>231.0</ele><time>2026-04-02T07:52:02.944Z</time></trkpt><trkpt lat="45.0937586" lon="1.2484489"><ele>231.5</ele><time>2026-04-02T07:52:03.943Z</time></trkpt><trkpt lat="45.0938179" lon="1.2483766"><ele>232.0</ele><time>2026-04-02T07:52:04.942Z</time></trkpt><trkpt lat="45.0938576" lon="1.2482964"><ele>232.50000000000003</ele><time>2026-04-02T07:52:05.942Z</time></trkpt><trkpt lat="45.0938822" lon="1.2482125"><ele>233.0</ele><time>2026-04-02T07:52:06.943Z</time></trkpt><trkpt lat="45.0938783" lon="1.2480916"><ele>233.83333333333334</ele><time>2026-04-02T07:52:09.943Z</time></trkpt><trkpt lat="45.0937974" lon="1.2479962"><ele>234.66666666666669</ele><time>2026-04-02T07:52:11.944Z</time></trkpt><trkpt lat="45.0937317" lon="1.2479785"><ele>235.5</ele><time>2026-04-02T07:52:12.944Z</time></trkpt><trkpt lat="45.0936528" lon="1.2479827"><ele>236.33333333333331</ele><time>2026-04-02T07:52:13.943Z</time></trkpt><trkpt lat="45.0935625" lon="1.2479912"><ele>237.16666666666666</ele><time>2026-04-02T07:52:14.944Z</time></trkpt><trkpt lat="45.0934683" lon="1.2479875"><ele>238.0</ele><time>2026-04-02T07:52:15.942Z</time></trkpt><trkpt lat="45.0933788" lon="1.2479818"><ele>238.0</ele><time>2026-04-02T07:52:16.944Z</time></trkpt><trkpt lat="45.0932969" lon="1.2479641"><ele>238.0</ele><time>2026-04-02T07:52:17.943Z</time></trkpt><trkpt lat="45.0932194" lon="1.2479168"><ele>238.0</ele><time>2026-04-02T07:52:18.944Z</time></trkpt><trkpt lat="45.0931309" lon="1.2478472"><ele>238.0</ele><time>2026-04-02T07:52:19.943Z</time></trkpt><trkpt lat="45.0930232" lon="1.2477818"><ele>238.0</ele><time>2026-04-02T07:52:20.943Z</time></trkpt><trkpt lat="45.0929151" lon="1.2477346"><ele>238.0</ele><time>2026-04-02T07:52:21.943Z</time></trkpt><trkpt lat="45.0927851" lon="1.247702"><ele>238.0</ele><time>2026-04-02T07:52:22.943Z</time></trkpt><trkpt lat="45.0926597" lon="1.2476688"><ele>238.0</ele><time>2026-04-02T07:52:23.944Z</time></trkpt><trkpt lat="45.0925251" lon="1.2476392"><ele>238.0</ele><time>2026-04-02T07:52:24.943Z</time></trkpt><trkpt lat="45.0923992" lon="1.2476222"><ele>237.5</ele><time>2026-04-02T07:52:25.944Z</time></trkpt><trkpt lat="45.0922775" lon="1.2476047"><ele>237.0</ele><time>2026-04-02T07:52:26.944Z</time></trkpt><trkpt lat="45.0921652" lon="1.2475828"><ele>236.5</ele><time>2026-04-02T07:52:27.943Z</time></trkpt><trkpt lat="45.0920589" lon="1.247535"><ele>236.0</ele><time>2026-04-02T07:52:28.943Z</time></trkpt><trkpt lat="45.0919589" lon="1.2474708"><ele>236.0</ele><time>2026-04-02T07:52:29.943Z</time></trkpt><trkpt lat="45.0918551" lon="1.2474186"><ele>236.00000000000003</ele><time>2026-04-02T07:52:30.944Z</time></trkpt><trkpt lat="45.0917379" lon="1.2473982"><ele>236.00000000000003</ele><time>2026-04-02T07:52:31.944Z</time></trkpt><trkpt lat="45.0916292" lon="1.2473953"><ele>236.0</ele><time>2026-04-02T07:52:32.943Z</time></trkpt><trkpt lat="45.0915278" lon="1.2474041"><ele>236.0</ele><time>2026-04-02T07:52:33.943Z</time></trkpt><trkpt lat="45.0914332" lon="1.2474241"><ele>235.8</ele><time>2026-04-02T07:52:34.944Z</time></trkpt><trkpt lat="45.0913366" lon="1.2474386"><ele>235.60000000000002</ele><time>2026-04-02T07:52:35.943Z</time></trkpt><trkpt lat="45.0912445" lon="1.2474244"><ele>235.4</ele><time>2026-04-02T07:52:36.943Z</time></trkpt><trkpt lat="45.0911494" lon="1.2473781"><ele>235.2</ele><time>2026-04-02T07:52:37.944Z</time></trkpt><trkpt lat="45.0910572" lon="1.2473138"><ele>235.0</ele><time>2026-04-02T07:52:38.943Z</time></trkpt><trkpt lat="45.0909777" lon="1.2472509"><ele>234.8</ele><time>2026-04-02T07:52:39.944Z</time></trkpt><trkpt lat="45.0909132" lon="1.2471687"><ele>234.6</ele><time>2026-04-02T07:52:40.942Z</time></trkpt><trkpt lat="45.0908604" lon="1.2470458"><ele>234.39999999999998</ele><time>2026-04-02T07:52:41.943Z</time></trkpt><trkpt lat="45.0908042" lon="1.2469103"><ele>234.2</ele><time>2026-04-02T07:52:42.943Z</time></trkpt><trkpt lat="45.0907659" lon="1.2467785"><ele>234.0</ele><time>2026-04-02T07:52:43.943Z</time></trkpt><trkpt lat="45.0907265" lon="1.2466664"><ele>232.79999999999998</ele><time>2026-04-02T07:52:44.944Z</time></trkpt><trkpt lat="45.0906596" lon="1.246594"><ele>231.59999999999997</ele><time>2026-04-02T07:52:45.943Z</time></trkpt><trkpt lat="45.0905693" lon="1.2465431"><ele>230.4</ele><time>2026-04-02T07:52:46.944Z</time></trkpt><trkpt lat="45.0904664" lon="1.2465003"><ele>229.2</ele><time>2026-04-02T07:52:47.943Z</time></trkpt><trkpt lat="45.0903709" lon="1.2464614"><ele>228.0</ele><time>2026-04-02T07:52:48.942Z</time></trkpt><trkpt lat="45.0902729" lon="1.2464357"><ele>227.33333333333334</ele><time>2026-04-02T07:52:49.944Z</time></trkpt><trkpt lat="45.0901772" lon="1.2464106"><ele>226.66666666666669</ele><time>2026-04-02T07:52:50.944Z</time></trkpt><trkpt lat="45.0900967" lon="1.2463702"><ele>226.0</ele><time>2026-04-02T07:52:51.942Z</time></trkpt><trkpt lat="45.09004" lon="1.2463214"><ele>225.33333333333334</ele><time>2026-04-02T07:52:52.944Z</time></trkpt><trkpt lat="45.0899824" lon="1.2461897"><ele>224.66666666666669</ele><time>2026-04-02T07:52:54.943Z</time></trkpt><trkpt lat="45.0899772" lon="1.2460909"><ele>224.0</ele><time>2026-04-02T07:52:55.942Z</time></trkpt><trkpt lat="45.0899755" lon="1.2459716"><ele>224.0</ele><time>2026-04-02T07:52:56.943Z</time></trkpt><trkpt lat="45.0899599" lon="1.2458456"><ele>224.0</ele><time>2026-04-02T07:52:57.944Z</time></trkpt><trkpt lat="45.0899254" lon="1.2457137"><ele>224.0</ele><time>2026-04-02T07:52:58.942Z</time></trkpt><trkpt lat="45.0898471" lon="1.245569"><ele>224.0</ele><time>2026-04-02T07:52:59.943Z</time></trkpt><trkpt lat="45.0897531" lon="1.2454013"><ele>223.66666666666669</ele><time>2026-04-02T07:53:00.944Z</time></trkpt><trkpt lat="45.0896479" lon="1.2452252"><ele>223.33333333333331</ele><time>2026-04-02T07:53:01.943Z</time></trkpt><trkpt lat="45.0895363" lon="1.2450803"><ele>223.0</ele><time>2026-04-02T07:53:02.943Z</time></trkpt><trkpt lat="45.0893934" lon="1.2449555"><ele>223.0</ele><time>2026-04-02T07:53:03.942Z</time></trkpt><trkpt lat="45.0892356" lon="1.2448448"><ele>223.0</ele><time>2026-04-02T07:53:04.943Z</time></trkpt><trkpt lat="45.0890841" lon="1.2447516"><ele>223.0</ele><time>2026-04-02T07:53:05.944Z</time></trkpt><trkpt lat="45.0889243" lon="1.2446778"><ele>223.0</ele><time>2026-04-02T07:53:06.943Z</time></trkpt><trkpt lat="45.0887647" lon="1.2446087"><ele>223.0</ele><time>2026-04-02T07:53:07.943Z</time></trkpt><trkpt lat="45.0886087" lon="1.2445443"><ele>223.0</ele><time>2026-04-02T07:53:08.944Z</time></trkpt><trkpt lat="45.0884489" lon="1.2444933"><ele>223.0</ele><time>2026-04-02T07:53:09.943Z</time></trkpt><trkpt lat="45.088288" lon="1.2444499"><ele>223.0</ele><time>2026-04-02T07:53:10.943Z</time></trkpt><trkpt lat="45.0881351" lon="1.2443979"><ele>223.0</ele><time>2026-04-02T07:53:11.943Z</time></trkpt><trkpt lat="45.087999" lon="1.2443368"><ele>222.0</ele><time>2026-04-02T07:53:12.943Z</time></trkpt><trkpt lat="45.0878732" lon="1.2442677"><ele>221.0</ele><time>2026-04-02T07:53:13.944Z</time></trkpt><trkpt lat="45.0877452" lon="1.244169"><ele>220.0</ele><time>2026-04-02T07:53:14.943Z</time></trkpt><trkpt lat="45.0876057" lon="1.2440241"><ele>220.0</ele><time>2026-04-02T07:53:15.943Z</time></trkpt><trkpt lat="45.0874635" lon="1.243867"><ele>220.0</ele><time>2026-04-02T07:53:16.943Z</time></trkpt><trkpt lat="45.087331" lon="1.2437237"><ele>220.0</ele><time>2026-04-02T07:53:17.944Z</time></trkpt><trkpt lat="45.0872336" lon="1.2436181"><ele>220.0</ele><time>2026-04-02T07:53:18.944Z</time></trkpt><trkpt lat="45.087148" lon="1.2435194"><ele>220.0</ele><time>2026-04-02T07:53:19.944Z</time></trkpt><trkpt lat="45.0870682" lon="1.2434185"><ele>220.0</ele><time>2026-04-02T07:53:20.943Z</time></trkpt><trkpt lat="45.0870044" lon="1.2433167"><ele>220.0</ele><time>2026-04-02T07:53:21.944Z</time></trkpt><trkpt lat="45.0869517" lon="1.2432061"><ele>220.0</ele><time>2026-04-02T07:53:22.944Z</time></trkpt><trkpt lat="45.0868969" lon="1.2430584"><ele>220.75</ele><time>2026-04-02T07:53:23.943Z</time></trkpt><trkpt lat="45.0868311" lon="1.2429039"><ele>221.5</ele><time>2026-04-02T07:53:24.943Z</time></trkpt><trkpt lat="45.0867601" lon="1.2427486"><ele>222.25</ele><time>2026-04-02T07:53:25.944Z</time></trkpt><trkpt lat="45.0866862" lon="1.2425854"><ele>223.0</ele><time>2026-04-02T07:53:26.943Z</time></trkpt><trkpt lat="45.086602" lon="1.2424217"><ele>222.5</ele><time>2026-04-02T07:53:27.944Z</time></trkpt><trkpt lat="45.0865056" lon="1.242278"><ele>222.0</ele><time>2026-04-02T07:53:28.943Z</time></trkpt><trkpt lat="45.0863977" lon="1.2421211"><ele>221.5</ele><time>2026-04-02T07:53:29.943Z</time></trkpt><trkpt lat="45.0862898" lon="1.2419703"><ele>221.0</ele><time>2026-04-02T07:53:30.944Z</time></trkpt><trkpt lat="45.0861704" lon="1.2418072"><ele>221.0</ele><time>2026-04-02T07:53:31.944Z</time></trkpt><trkpt lat="45.0860571" lon="1.2416477"><ele>221.0</ele><time>2026-04-02T07:53:32.942Z</time></trkpt><trkpt lat="45.0859426" lon="1.2414728"><ele>221.0</ele><time>2026-04-02T07:53:33.943Z</time></trkpt><trkpt lat="45.0858253" lon="1.2412974"><ele>220.66666666666669</ele><time>2026-04-02T07:53:34.944Z</time></trkpt><trkpt lat="45.0857034" lon="1.2411359"><ele>220.33333333333331</ele><time>2026-04-02T07:53:35.943Z</time></trkpt><trkpt lat="45.0855804" lon="1.2409871"><ele>220.0</ele><time>2026-04-02T07:53:36.944Z</time></trkpt><trkpt lat="45.0854629" lon="1.2408463"><ele>220.0</ele><time>2026-04-02T07:53:37.943Z</time></trkpt><trkpt lat="45.085358" lon="1.2407054"><ele>220.0</ele><time>2026-04-02T07:53:38.943Z</time></trkpt><trkpt lat="45.0852512" lon="1.2405848"><ele>220.0</ele><time>2026-04-02T07:53:39.943Z</time></trkpt><trkpt lat="45.0851458" lon="1.2404861"><ele>220.0</ele><time>2026-04-02T07:53:40.944Z</time></trkpt><trkpt lat="45.0850513" lon="1.2403676"><ele>219.66666666666666</ele><time>2026-04-02T07:53:41.944Z</time></trkpt><trkpt lat="45.0849574" lon="1.2402153"><ele>219.33333333333331</ele><time>2026-04-02T07:53:42.944Z</time></trkpt><trkpt lat="45.0848615" lon="1.2400381"><ele>219.0</ele><time>2026-04-02T07:53:43.943Z</time></trkpt><trkpt lat="45.08476" lon="1.2398513"><ele>219.33333333333331</ele><time>2026-04-02T07:53:44.943Z</time></trkpt><trkpt lat="45.0846512" lon="1.2396865"><ele>219.66666666666666</ele><time>2026-04-02T07:53:45.943Z</time></trkpt><trkpt lat="45.0845449" lon="1.239527"><ele>220.0</ele><time>2026-04-02T07:53:46.943Z</time></trkpt><trkpt lat="45.0844602" lon="1.2393702"><ele>220.0</ele><time>2026-04-02T07:53:47.943Z</time></trkpt><trkpt lat="45.084369" lon="1.2392318"><ele>220.0</ele><time>2026-04-02T07:53:48.943Z</time></trkpt><trkpt lat="45.084254" lon="1.2391295"><ele>220.0</ele><time>2026-04-02T07:53:49.943Z</time></trkpt><trkpt lat="45.0841213" lon="1.239032"><ele>220.0</ele><time>2026-04-02T07:53:50.943Z</time></trkpt><trkpt lat="45.084002" lon="1.2389315"><ele>222.0</ele><time>2026-04-02T07:53:51.943Z</time></trkpt><trkpt lat="45.0838719" lon="1.2388395"><ele>224.0</ele><time>2026-04-02T07:53:52.943Z</time></trkpt><trkpt lat="45.083718" lon="1.238745"><ele>226.0</ele><time>2026-04-02T07:53:53.944Z</time></trkpt><trkpt lat="45.0835538" lon="1.2386457"><ele>226.0</ele><time>2026-04-02T07:53:54.943Z</time></trkpt><trkpt lat="45.0833817" lon="1.2385515"><ele>226.0</ele><time>2026-04-02T07:53:55.943Z</time></trkpt><trkpt lat="45.0832071" lon="1.2384688"><ele>226.0</ele><time>2026-04-02T07:53:56.943Z</time></trkpt><trkpt lat="45.0830362" lon="1.2383748"><ele>228.0</ele><time>2026-04-02T07:53:57.943Z</time></trkpt><trkpt lat="45.0828676" lon="1.2382581"><ele>230.0</ele><time>2026-04-02T07:53:58.944Z</time></trkpt><trkpt lat="45.0826952" lon="1.2381161"><ele>232.0</ele><time>2026-04-02T07:53:59.943Z</time></trkpt><trkpt lat="45.0825371" lon="1.23798"><ele>233.66666666666666</ele><time>2026-04-02T07:54:00.943Z</time></trkpt><trkpt lat="45.0823946" lon="1.2378643"><ele>235.33333333333331</ele><time>2026-04-02T07:54:01.944Z</time></trkpt><trkpt lat="45.0822434" lon="1.237783"><ele>237.0</ele><time>2026-04-02T07:54:02.942Z</time></trkpt><trkpt lat="45.0820749" lon="1.23773"><ele>237.0</ele><time>2026-04-02T07:54:03.943Z</time></trkpt><trkpt lat="45.0819075" lon="1.2376769"><ele>237.0</ele><time>2026-04-02T07:54:04.944Z</time></trkpt><trkpt lat="45.0817486" lon="1.2376276"><ele>237.0</ele><time>2026-04-02T07:54:05.943Z</time></trkpt><trkpt lat="45.0815954" lon="1.2375687"><ele>237.25</ele><time>2026-04-02T07:54:06.943Z</time></trkpt><trkpt lat="45.0814535" lon="1.237499"><ele>237.5</ele><time>2026-04-02T07:54:07.944Z</time></trkpt><trkpt lat="45.0813294" lon="1.2374106"><ele>237.75</ele><time>2026-04-02T07:54:08.943Z</time></trkpt><trkpt lat="45.0812361" lon="1.237318"><ele>238.0</ele><time>2026-04-02T07:54:09.943Z</time></trkpt><trkpt lat="45.0811689" lon="1.237238"><ele>237.66666666666666</ele><time>2026-04-02T07:54:10.943Z</time></trkpt><trkpt lat="45.0811319" lon="1.2371417"><ele>237.33333333333331</ele><time>2026-04-02T07:54:11.943Z</time></trkpt><trkpt lat="45.0811145" lon="1.2370275"><ele>237.0</ele><time>2026-04-02T07:54:12.943Z</time></trkpt><trkpt lat="45.0810954" lon="1.2369135"><ele>236.66666666666669</ele><time>2026-04-02T07:54:13.943Z</time></trkpt><trkpt lat="45.0810348" lon="1.2368266"><ele>236.33333333333334</ele><time>2026-04-02T07:54:14.943Z</time></trkpt><trkpt lat="45.0809551" lon="1.2367399"><ele>236.0</ele><time>2026-04-02T07:54:15.943Z</time></trkpt><trkpt lat="45.080865" lon="1.2366436"><ele>236.0</ele><time>2026-04-02T07:54:16.944Z</time></trkpt><trkpt lat="45.0807813" lon="1.2365435"><ele>236.00000000000003</ele><time>2026-04-02T07:54:17.944Z</time></trkpt><trkpt lat="45.0807113" lon="1.236456"><ele>236.00000000000003</ele><time>2026-04-02T07:54:18.944Z</time></trkpt><trkpt lat="45.0806592" lon="1.2363214"><ele>236.0</ele><time>2026-04-02T07:54:20.943Z</time></trkpt><trkpt lat="45.0807235" lon="1.2362449"><ele>236.0</ele><time>2026-04-02T07:54:22.944Z</time></trkpt><trkpt lat="45.0807992" lon="1.2362239"><ele>235.5</ele><time>2026-04-02T07:54:23.943Z</time></trkpt><trkpt lat="45.0809033" lon="1.2361989"><ele>235.0</ele><time>2026-04-02T07:54:24.944Z</time></trkpt><trkpt lat="45.0810232" lon="1.2361515"><ele>234.5</ele><time>2026-04-02T07:54:25.943Z</time></trkpt><trkpt lat="45.081144" lon="1.236066"><ele>234.0</ele><time>2026-04-02T07:54:26.943Z</time></trkpt><trkpt lat="45.0812423" lon="1.2359896"><ele>234.0</ele><time>2026-04-02T07:54:27.942Z</time></trkpt><trkpt lat="45.0813274" lon="1.2359038"><ele>233.99999999999997</ele><time>2026-04-02T07:54:28.943Z</time></trkpt><trkpt lat="45.0814109" lon="1.2357988"><ele>233.99999999999997</ele><time>2026-04-02T07:54:29.943Z</time></trkpt><trkpt lat="45.0814821" lon="1.2356863"><ele>234.0</ele><time>2026-04-02T07:54:30.943Z</time></trkpt><trkpt lat="45.0815563" lon="1.2355613"><ele>234.0</ele><time>2026-04-02T07:54:31.943Z</time></trkpt><trkpt lat="45.0816477" lon="1.2354552"><ele>235.0</ele><time>2026-04-02T07:54:32.944Z</time></trkpt><trkpt lat="45.0817579" lon="1.2353463"><ele>236.0</ele><time>2026-04-02T07:54:33.943Z</time></trkpt><trkpt lat="45.0818813" lon="1.235241"><ele>237.0</ele><time>2026-04-02T07:54:34.943Z</time></trkpt><trkpt lat="45.0820124" lon="1.2351487"><ele>238.0</ele><time>2026-04-02T07:54:35.943Z</time></trkpt><trkpt lat="45.0821412" lon="1.2350738"><ele>238.0</ele><time>2026-04-02T07:54:36.943Z</time></trkpt><trkpt lat="45.0822666" lon="1.2350172"><ele>238.0</ele><time>2026-04-02T07:54:37.943Z</time></trkpt><trkpt lat="45.082379" lon="1.234943"><ele>238.0</ele><time>2026-04-02T07:54:38.942Z</time></trkpt><trkpt lat="45.082496" lon="1.2348347"><ele>238.0</ele><time>2026-04-02T07:54:39.944Z</time></trkpt><trkpt lat="45.082622" lon="1.2347149"><ele>234.66666666666666</ele><time>2026-04-02T07:54:40.943Z</time></trkpt><trkpt lat="45.082757" lon="1.2345828"><ele>231.33333333333331</ele><time>2026-04-02T07:54:41.943Z</time></trkpt><trkpt lat="45.0828824" lon="1.2344562"><ele>228.0</ele><time>2026-04-02T07:54:42.944Z</time></trkpt><trkpt lat="45.0830064" lon="1.2343381"><ele>228.0</ele><time>2026-04-02T07:54:43.943Z</time></trkpt><trkpt lat="45.0831304" lon="1.2342366"><ele>228.0</ele><time>2026-04-02T07:54:44.943Z</time></trkpt><trkpt lat="45.0832503" lon="1.2341633"><ele>228.0</ele><time>2026-04-02T07:54:45.942Z</time></trkpt><trkpt lat="45.0833801" lon="1.2340851"><ele>228.0</ele><time>2026-04-02T07:54:46.943Z</time></trkpt><trkpt lat="45.0835178" lon="1.2339919"><ele>229.5</ele><time>2026-04-02T07:54:47.945Z</time></trkpt><trkpt lat="45.0836328" lon="1.2339093"><ele>231.0</ele><time>2026-04-02T07:54:48.944Z</time></trkpt><trkpt lat="45.0837387" lon="1.2338102"><ele>232.5</ele><time>2026-04-02T07:54:49.945Z</time></trkpt><trkpt lat="45.0838387" lon="1.2336717"><ele>234.0</ele><time>2026-04-02T07:54:50.944Z</time></trkpt><trkpt lat="45.0839243" lon="1.2335076"><ele>234.0</ele><time>2026-04-02T07:54:51.945Z</time></trkpt><trkpt lat="45.0839915" lon="1.2333528"><ele>234.0</ele><time>2026-04-02T07:54:52.945Z</time></trkpt><trkpt lat="45.0840576" lon="1.2331933"><ele>234.0</ele><time>2026-04-02T07:54:53.945Z</time></trkpt><trkpt lat="45.084143" lon="1.2330608"><ele>234.0</ele><time>2026-04-02T07:54:54.943Z</time></trkpt><trkpt lat="45.0842325" lon="1.2329355"><ele>231.0</ele><time>2026-04-02T07:54:55.944Z</time></trkpt><trkpt lat="45.0843233" lon="1.2327909"><ele>228.0</ele><time>2026-04-02T07:54:56.944Z</time></trkpt><trkpt lat="45.0844195" lon="1.2326304"><ele>225.0</ele><time>2026-04-02T07:54:57.944Z</time></trkpt><trkpt lat="45.0845299" lon="1.2324523"><ele>222.75</ele><time>2026-04-02T07:54:58.945Z</time></trkpt><trkpt lat="45.0846396" lon="1.2322907"><ele>220.5</ele><time>2026-04-02T07:54:59.945Z</time></trkpt><trkpt lat="45.0847456" lon="1.2321425"><ele>218.25</ele><time>2026-04-02T07:55:00.944Z</time></trkpt><trkpt lat="45.0848461" lon="1.2320001"><ele>216.0</ele><time>2026-04-02T07:55:01.944Z</time></trkpt><trkpt lat="45.0849261" lon="1.2318506"><ele>218.0</ele><time>2026-04-02T07:55:02.945Z</time></trkpt><trkpt lat="45.0849874" lon="1.2316879"><ele>220.0</ele><time>2026-04-02T07:55:03.945Z</time></trkpt><trkpt lat="45.0850251" lon="1.231519"><ele>222.0</ele><time>2026-04-02T07:55:04.945Z</time></trkpt><trkpt lat="45.0850442" lon="1.2313109"><ele>224.0</ele><time>2026-04-02T07:55:05.944Z</time></trkpt><trkpt lat="45.0850823" lon="1.2311145"><ele>224.0</ele><time>2026-04-02T07:55:06.944Z</time></trkpt><trkpt lat="45.0851249" lon="1.2309038"><ele>224.0</ele><time>2026-04-02T07:55:07.945Z</time></trkpt><trkpt lat="45.0851639" lon="1.230691"><ele>224.0</ele><time>2026-04-02T07:55:08.944Z</time></trkpt><trkpt lat="45.0851928" lon="1.2304758"><ele>224.0</ele><time>2026-04-02T07:55:09.943Z</time></trkpt><trkpt lat="45.0852053" lon="1.2302336"><ele>224.0</ele><time>2026-04-02T07:55:10.944Z</time></trkpt><trkpt lat="45.0852102" lon="1.2299735"><ele>224.0</ele><time>2026-04-02T07:55:11.944Z</time></trkpt><trkpt lat="45.0852211" lon="1.2297177"><ele>224.33333333333334</ele><time>2026-04-02T07:55:12.945Z</time></trkpt><trkpt lat="45.0852555" lon="1.2294593"><ele>224.66666666666669</ele><time>2026-04-02T07:55:13.943Z</time></trkpt><trkpt lat="45.0852962" lon="1.2292193"><ele>225.0</ele><time>2026-04-02T07:55:14.944Z</time></trkpt><trkpt lat="45.0853445" lon="1.2289794"><ele>225.2</ele><time>2026-04-02T07:55:15.944Z</time></trkpt><trkpt lat="45.0853872" lon="1.228797"><ele>225.4</ele><time>2026-04-02T07:55:16.944Z</time></trkpt><trkpt lat="45.0854196" lon="1.2286686"><ele>225.60000000000002</ele><time>2026-04-02T07:55:17.945Z</time></trkpt><trkpt lat="45.0854432" lon="1.2285784"><ele>225.8</ele><time>2026-04-02T07:55:18.945Z</time></trkpt><trkpt lat="45.0855006" lon="1.2284177"><ele>226.0</ele><time>2026-04-02T07:55:20.944Z</time></trkpt><trkpt lat="45.0855398" lon="1.2283313"><ele>225.99999999999997</ele><time>2026-04-02T07:55:21.943Z</time></trkpt><trkpt lat="45.0855832" lon="1.2282533"><ele>226.0</ele><time>2026-04-02T07:55:22.944Z</time></trkpt><trkpt lat="45.0856209" lon="1.2281584"><ele>226.0</ele><time>2026-04-02T07:55:23.945Z</time></trkpt><trkpt lat="45.0856654" lon="1.2280737"><ele>226.0</ele><time>2026-04-02T07:55:24.943Z</time></trkpt><trkpt lat="45.0857113" lon="1.2279976"><ele>225.99999999999997</ele><time>2026-04-02T07:55:25.944Z</time></trkpt><trkpt lat="45.0857599" lon="1.2279147"><ele>226.0</ele><time>2026-04-02T07:55:26.944Z</time></trkpt><trkpt lat="45.0858229" lon="1.2278202"><ele>223.60000000000002</ele><time>2026-04-02T07:55:27.943Z</time></trkpt><trkpt lat="45.0858812" lon="1.2277529"><ele>221.20000000000002</ele><time>2026-04-02T07:55:28.944Z</time></trkpt><trkpt lat="45.0859578" lon="1.2276884"><ele>218.79999999999998</ele><time>2026-04-02T07:55:29.944Z</time></trkpt><trkpt lat="45.0860464" lon="1.2276036"><ele>216.39999999999998</ele><time>2026-04-02T07:55:30.943Z</time></trkpt><trkpt lat="45.086144" lon="1.2274716"><ele>214.0</ele><time>2026-04-02T07:55:31.945Z</time></trkpt><trkpt lat="45.0862579" lon="1.2273091"><ele>212.66666666666666</ele><time>2026-04-02T07:55:32.945Z</time></trkpt><trkpt lat="45.0864092" lon="1.2271179"><ele>211.33333333333331</ele><time>2026-04-02T07:55:33.944Z</time></trkpt><trkpt lat="45.0865811" lon="1.2269022"><ele>210.0</ele><time>2026-04-02T07:55:34.945Z</time></trkpt><trkpt lat="45.0867729" lon="1.2266618"><ele>207.5</ele><time>2026-04-02T07:55:35.944Z</time></trkpt><trkpt lat="45.0869637" lon="1.2264044"><ele>205.0</ele><time>2026-04-02T07:55:36.943Z</time></trkpt><trkpt lat="45.0871316" lon="1.2261736"><ele>205.0</ele><time>2026-04-02T07:55:37.944Z</time></trkpt><trkpt lat="45.0872882" lon="1.225985"><ele>205.0</ele><time>2026-04-02T07:55:38.944Z</time></trkpt><trkpt lat="45.0874532" lon="1.2258173"><ele>205.0</ele><time>2026-04-02T07:55:39.945Z</time></trkpt><trkpt lat="45.0875977" lon="1.2256288"><ele>204.33333333333331</ele><time>2026-04-02T07:55:40.944Z</time></trkpt><trkpt lat="45.087727" lon="1.2254171"><ele>203.66666666666669</ele><time>2026-04-02T07:55:41.945Z</time></trkpt><trkpt lat="45.0878089" lon="1.2252339"><ele>203.0</ele><time>2026-04-02T07:55:42.945Z</time></trkpt><trkpt lat="45.0878526" lon="1.2250516"><ele>203.0</ele><time>2026-04-02T07:55:43.945Z</time></trkpt><trkpt lat="45.0878623" lon="1.2248171"><ele>203.0</ele><time>2026-04-02T07:55:44.943Z</time></trkpt><trkpt lat="45.0878357" lon="1.2245637"><ele>203.0</ele><time>2026-04-02T07:55:45.945Z</time></trkpt><trkpt lat="45.0878172" lon="1.2242965"><ele>202.66666666666669</ele><time>2026-04-02T07:55:46.945Z</time></trkpt><trkpt lat="45.0878094" lon="1.2240155"><ele>202.33333333333331</ele><time>2026-04-02T07:55:47.944Z</time></trkpt><trkpt lat="45.0878098" lon="1.2236954"><ele>202.0</ele><time>2026-04-02T07:55:48.944Z</time></trkpt><trkpt lat="45.087818" lon="1.2233569"><ele>202.0</ele><time>2026-04-02T07:55:49.943Z</time></trkpt><trkpt lat="45.0878199" lon="1.2229972"><ele>202.0</ele><time>2026-04-02T07:55:50.945Z</time></trkpt><trkpt lat="45.0878248" lon="1.2226713"><ele>202.0</ele><time>2026-04-02T07:55:51.945Z</time></trkpt><trkpt lat="45.0878223" lon="1.2223537"><ele>202.0</ele><time>2026-04-02T07:55:52.945Z</time></trkpt><trkpt lat="45.0878208" lon="1.2220663"><ele>202.0</ele><time>2026-04-02T07:55:53.945Z</time></trkpt><trkpt lat="45.0878069" lon="1.2217976"><ele>202.0</ele><time>2026-04-02T07:55:54.944Z</time></trkpt><trkpt lat="45.0877797" lon="1.2215424"><ele>202.0</ele><time>2026-04-02T07:55:55.944Z</time></trkpt><trkpt lat="45.0877648" lon="1.2212838"><ele>202.0</ele><time>2026-04-02T07:55:56.944Z</time></trkpt><trkpt lat="45.0877696" lon="1.2210021"><ele>202.0</ele><time>2026-04-02T07:55:57.944Z</time></trkpt><trkpt lat="45.0877857" lon="1.2207024"><ele>202.0</ele><time>2026-04-02T07:55:58.944Z</time></trkpt><trkpt lat="45.0878116" lon="1.2204421"><ele>202.0</ele><time>2026-04-02T07:55:59.945Z</time></trkpt><trkpt lat="45.0878223" lon="1.2202186"><ele>201.33333333333331</ele><time>2026-04-02T07:56:00.945Z</time></trkpt><trkpt lat="45.0877978" lon="1.2199638"><ele>200.66666666666669</ele><time>2026-04-02T07:56:01.944Z</time></trkpt><trkpt lat="45.0877703" lon="1.2196962"><ele>200.0</ele><time>2026-04-02T07:56:02.945Z</time></trkpt><trkpt lat="45.0877546" lon="1.2194088"><ele>198.33333333333334</ele><time>2026-04-02T07:56:03.944Z</time></trkpt><trkpt lat="45.0877299" lon="1.2191389"><ele>196.66666666666669</ele><time>2026-04-02T07:56:04.944Z</time></trkpt><trkpt lat="45.0877205" lon="1.218887"><ele>195.0</ele><time>2026-04-02T07:56:05.945Z</time></trkpt><trkpt lat="45.0877539" lon="1.2186153"><ele>192.5</ele><time>2026-04-02T07:56:06.944Z</time></trkpt><trkpt lat="45.0878052" lon="1.2183167"><ele>190.0</ele><time>2026-04-02T07:56:07.944Z</time></trkpt><trkpt lat="45.0878477" lon="1.2179795"><ele>190.0</ele><time>2026-04-02T07:56:08.944Z</time></trkpt><trkpt lat="45.0878901" lon="1.2176247"><ele>190.0</ele><time>2026-04-02T07:56:09.944Z</time></trkpt><trkpt lat="45.0879395" lon="1.2172627"><ele>190.0</ele><time>2026-04-02T07:56:10.943Z</time></trkpt><trkpt lat="45.0879934" lon="1.2169143"><ele>190.0</ele><time>2026-04-02T07:56:11.944Z</time></trkpt><trkpt lat="45.0880541" lon="1.2166287"><ele>191.66666666666669</ele><time>2026-04-02T07:56:12.944Z</time></trkpt><trkpt lat="45.0881344" lon="1.216381"><ele>193.33333333333334</ele><time>2026-04-02T07:56:13.944Z</time></trkpt><trkpt lat="45.0882281" lon="1.2161385"><ele>195.0</ele><time>2026-04-02T07:56:14.943Z</time></trkpt><trkpt lat="45.0882878" lon="1.2159046"><ele>197.66666666666669</ele><time>2026-04-02T07:56:15.943Z</time></trkpt><trkpt lat="45.0883382" lon="1.2156435"><ele>200.33333333333334</ele><time>2026-04-02T07:56:16.944Z</time></trkpt><trkpt lat="45.088385" lon="1.2154261"><ele>203.0</ele><time>2026-04-02T07:56:17.945Z</time></trkpt><trkpt lat="45.0884148" lon="1.2152658"><ele>203.0</ele><time>2026-04-02T07:56:18.944Z</time></trkpt><trkpt lat="45.0884305" lon="1.2151442"><ele>203.0</ele><time>2026-04-02T07:56:19.944Z</time></trkpt><trkpt lat="45.0884384" lon="1.2150469"><ele>203.0</ele><time>2026-04-02T07:56:20.944Z</time></trkpt><trkpt lat="45.0884673" lon="1.2149604"><ele>203.0</ele><time>2026-04-02T07:56:22.945Z</time></trkpt><trkpt lat="45.0885245" lon="1.2150011"><ele>203.0</ele><time>2026-04-02T07:56:26.945Z</time></trkpt><trkpt lat="45.0885542" lon="1.2150903"><ele>203.0</ele><time>2026-04-02T07:57:21.944Z</time></trkpt><trkpt lat="45.0886041" lon="1.2151651"><ele>203.0</ele><time>2026-04-02T07:57:27.944Z</time></trkpt><trkpt lat="45.08856" lon="1.2150525"><ele>203.00000000000003</ele><time>2026-04-02T08:11:11.948Z</time></trkpt><trkpt lat="45.088496" lon="1.2149943"><ele>203.0</ele><time>2026-04-02T08:11:13.948Z</time></trkpt><trkpt lat="45.088422" lon="1.2149838"><ele>203.0</ele><time>2026-04-02T08:11:16.949Z</time></trkpt><trkpt lat="45.0883996" lon="1.2150739"><ele>203.0</ele><time>2026-04-02T08:11:18.948Z</time></trkpt><trkpt lat="45.0884109" lon="1.215217"><ele>203.00000000000003</ele><time>2026-04-02T08:11:20.947Z</time></trkpt><trkpt lat="45.0883891" lon="1.2153696"><ele>203.0</ele><time>2026-04-02T08:11:22.948Z</time></trkpt><trkpt lat="45.0883687" lon="1.215512"><ele>202.4</ele><time>2026-04-02T08:11:24.949Z</time></trkpt><trkpt lat="45.088334" lon="1.2156925"><ele>201.8</ele><time>2026-04-02T08:11:26.947Z</time></trkpt><trkpt lat="45.0883087" lon="1.2158013"><ele>201.2</ele><time>2026-04-02T08:11:27.948Z</time></trkpt><trkpt lat="45.0882798" lon="1.2159246"><ele>200.6</ele><time>2026-04-02T08:11:28.948Z</time></trkpt><trkpt lat="45.0882504" lon="1.2160627"><ele>200.0</ele><time>2026-04-02T08:11:29.948Z</time></trkpt><trkpt lat="45.0882063" lon="1.2162051"><ele>198.75</ele><time>2026-04-02T08:11:30.948Z</time></trkpt><trkpt lat="45.0881453" lon="1.2163538"><ele>197.5</ele><time>2026-04-02T08:11:31.947Z</time></trkpt><trkpt lat="45.0880878" lon="1.216514"><ele>196.25</ele><time>2026-04-02T08:11:32.947Z</time></trkpt><trkpt lat="45.0880441" lon="1.2166885"><ele>195.0</ele><time>2026-04-02T08:11:33.948Z</time></trkpt><trkpt lat="45.0880109" lon="1.2168692"><ele>193.75</ele><time>2026-04-02T08:11:34.949Z</time></trkpt><trkpt lat="45.0879816" lon="1.2170546"><ele>192.5</ele><time>2026-04-02T08:11:35.949Z</time></trkpt><trkpt lat="45.0879551" lon="1.2172408"><ele>191.25</ele><time>2026-04-02T08:11:36.948Z</time></trkpt><trkpt lat="45.0879282" lon="1.2174329"><ele>190.0</ele><time>2026-04-02T08:11:37.948Z</time></trkpt><trkpt lat="45.0879008" lon="1.2176294"><ele>190.0</ele><time>2026-04-02T08:11:38.948Z</time></trkpt><trkpt lat="45.0878736" lon="1.2178332"><ele>190.0</ele><time>2026-04-02T08:11:39.947Z</time></trkpt><trkpt lat="45.0878475" lon="1.2180404"><ele>190.0</ele><time>2026-04-02T08:11:40.948Z</time></trkpt><trkpt lat="45.0878214" lon="1.2182232"><ele>190.0</ele><time>2026-04-02T08:11:41.948Z</time></trkpt><trkpt lat="45.0878025" lon="1.2183601"><ele>190.0</ele><time>2026-04-02T08:11:42.948Z</time></trkpt><trkpt lat="45.0877907" lon="1.2184668"><ele>190.0</ele><time>2026-04-02T08:11:43.947Z</time></trkpt><trkpt lat="45.0878336" lon="1.2186059"><ele>190.0</ele><time>2026-04-02T08:11:45.948Z</time></trkpt><trkpt lat="45.0879251" lon="1.2186342"><ele>190.0</ele><time>2026-04-02T08:11:47.948Z</time></trkpt><trkpt lat="45.0880043" lon="1.2186912"><ele>190.0</ele><time>2026-04-02T08:11:49.949Z</time></trkpt><trkpt lat="45.0880693" lon="1.218817"><ele>190.0</ele><time>2026-04-02T08:11:51.948Z</time></trkpt><trkpt lat="45.088104" lon="1.2189012"><ele>190.0</ele><time>2026-04-02T08:11:52.948Z</time></trkpt><trkpt lat="45.0881554" lon="1.2189837"><ele>190.0</ele><time>2026-04-02T08:11:53.949Z</time></trkpt><trkpt lat="45.0882278" lon="1.2190558"><ele>190.0</ele><time>2026-04-02T08:11:54.949Z</time></trkpt><trkpt lat="45.0883112" lon="1.2191234"><ele>190.0</ele><time>2026-04-02T08:11:55.948Z</time></trkpt><trkpt lat="45.0883963" lon="1.219183"><ele>190.0</ele><time>2026-04-02T08:11:56.948Z</time></trkpt><trkpt lat="45.0884929" lon="1.2192188"><ele>190.4</ele><time>2026-04-02T08:11:57.948Z</time></trkpt><trkpt lat="45.0885884" lon="1.2192231"><ele>190.8</ele><time>2026-04-02T08:11:58.949Z</time></trkpt><trkpt lat="45.0886777" lon="1.2191967"><ele>191.2</ele><time>2026-04-02T08:11:59.949Z</time></trkpt><trkpt lat="45.0887675" lon="1.2191554"><ele>191.6</ele><time>2026-04-02T08:12:00.948Z</time></trkpt><trkpt lat="45.0888662" lon="1.2191072"><ele>192.0</ele><time>2026-04-02T08:12:01.947Z</time></trkpt><trkpt lat="45.0889621" lon="1.2190664"><ele>192.0</ele><time>2026-04-02T08:12:02.948Z</time></trkpt><trkpt lat="45.0890576" lon="1.2190326"><ele>192.0</ele><time>2026-04-02T08:12:03.948Z</time></trkpt><trkpt lat="45.0891459" lon="1.2189885"><ele>192.0</ele><time>2026-04-02T08:12:04.948Z</time></trkpt><trkpt lat="45.089236" lon="1.2189579"><ele>192.0</ele><time>2026-04-02T08:12:05.947Z</time></trkpt><trkpt lat="45.0893116" lon="1.2189462"><ele>192.0</ele><time>2026-04-02T08:12:06.947Z</time></trkpt><trkpt lat="45.0894031" lon="1.2189953"><ele>190.5</ele><time>2026-04-02T08:12:08.948Z</time></trkpt><trkpt lat="45.0894477" lon="1.2191342"><ele>189.0</ele><time>2026-04-02T08:12:10.947Z</time></trkpt><trkpt lat="45.089477" lon="1.2192147"><ele>187.5</ele><time>2026-04-02T08:12:11.949Z</time></trkpt><trkpt lat="45.0895127" lon="1.2193113"><ele>186.0</ele><time>2026-04-02T08:12:12.949Z</time></trkpt><trkpt lat="45.0895681" lon="1.2194161"><ele>184.5</ele><time>2026-04-02T08:12:13.949Z</time></trkpt><trkpt lat="45.0896315" lon="1.2195212"><ele>183.0</ele><time>2026-04-02T08:12:14.949Z</time></trkpt><trkpt lat="45.0896968" lon="1.2196381"><ele>183.0</ele><time>2026-04-02T08:12:15.949Z</time></trkpt><trkpt lat="45.0897643" lon="1.2197615"><ele>183.0</ele><time>2026-04-02T08:12:16.948Z</time></trkpt><trkpt lat="45.0898341" lon="1.2198784"><ele>183.0</ele><time>2026-04-02T08:12:17.949Z</time></trkpt><trkpt lat="45.089904" lon="1.2200042"><ele>183.0</ele><time>2026-04-02T08:12:18.949Z</time></trkpt><trkpt lat="45.0899719" lon="1.2201231"><ele>183.0</ele><time>2026-04-02T08:12:19.948Z</time></trkpt><trkpt lat="45.0900469" lon="1.2202432"><ele>183.25</ele><time>2026-04-02T08:12:20.948Z</time></trkpt><trkpt lat="45.0901232" lon="1.2203678"><ele>183.5</ele><time>2026-04-02T08:12:21.949Z</time></trkpt><trkpt lat="45.0902053" lon="1.2204927"><ele>183.75</ele><time>2026-04-02T08:12:22.949Z</time></trkpt><trkpt lat="45.0902896" lon="1.2206038"><ele>184.0</ele><time>2026-04-02T08:12:23.948Z</time></trkpt><trkpt lat="45.0903791" lon="1.2207078"><ele>184.0</ele><time>2026-04-02T08:12:24.948Z</time></trkpt><trkpt lat="45.0904591" lon="1.2208192"><ele>184.0</ele><time>2026-04-02T08:12:25.948Z</time></trkpt><trkpt lat="45.0905363" lon="1.2209347"><ele>184.0</ele><time>2026-04-02T08:12:26.949Z</time></trkpt><trkpt lat="45.0906205" lon="1.2210325"><ele>184.0</ele><time>2026-04-02T08:12:27.949Z</time></trkpt><trkpt lat="45.0906938" lon="1.2211321"><ele>184.0</ele><time>2026-04-02T08:12:28.949Z</time></trkpt><trkpt lat="45.0907644" lon="1.2212193"><ele>178.79999999999998</ele><time>2026-04-02T08:12:29.948Z</time></trkpt><trkpt lat="45.0908424" lon="1.2213024"><ele>173.6</ele><time>2026-04-02T08:12:30.949Z</time></trkpt><trkpt lat="45.0909057" lon="1.2214025"><ele>168.4</ele><time>2026-04-02T08:12:31.949Z</time></trkpt><trkpt lat="45.0909882" lon="1.2215016"><ele>163.2</ele><time>2026-04-02T08:12:32.947Z</time></trkpt><trkpt lat="45.0910551" lon="1.2216014"><ele>158.0</ele><time>2026-04-02T08:12:33.948Z</time></trkpt><trkpt lat="45.0911302" lon="1.2217096"><ele>158.0</ele><time>2026-04-02T08:12:34.949Z</time></trkpt><trkpt lat="45.0912048" lon="1.2218184"><ele>158.0</ele><time>2026-04-02T08:12:35.949Z</time></trkpt><trkpt lat="45.0912864" lon="1.2219418"><ele>158.0</ele><time>2026-04-02T08:12:36.949Z</time></trkpt><trkpt lat="45.0913666" lon="1.2220534"><ele>158.0</ele><time>2026-04-02T08:12:37.948Z</time></trkpt><trkpt lat="45.0914504" lon="1.22216"><ele>158.0</ele><time>2026-04-02T08:12:38.949Z</time></trkpt><trkpt lat="45.0915288" lon="1.2222745"><ele>158.0</ele><time>2026-04-02T08:12:39.949Z</time></trkpt><trkpt lat="45.0916097" lon="1.2223873"><ele>158.0</ele><time>2026-04-02T08:12:40.949Z</time></trkpt><trkpt lat="45.0916967" lon="1.2225087"><ele>158.0</ele><time>2026-04-02T08:12:41.947Z</time></trkpt><trkpt lat="45.0917861" lon="1.2226403"><ele>156.75</ele><time>2026-04-02T08:12:42.948Z</time></trkpt><trkpt lat="45.0918755" lon="1.2227679"><ele>155.5</ele><time>2026-04-02T08:12:43.947Z</time></trkpt><trkpt lat="45.091964" lon="1.2229135"><ele>154.25</ele><time>2026-04-02T08:12:44.948Z</time></trkpt><trkpt lat="45.0920493" lon="1.2230612"><ele>153.0</ele><time>2026-04-02T08:12:45.949Z</time></trkpt><trkpt lat="45.0921325" lon="1.2232159"><ele>153.0</ele><time>2026-04-02T08:12:46.949Z</time></trkpt><trkpt lat="45.092231" lon="1.2233819"><ele>153.0</ele><time>2026-04-02T08:12:47.948Z</time></trkpt><trkpt lat="45.0923196" lon="1.2235488"><ele>153.0</ele><time>2026-04-02T08:12:48.948Z</time></trkpt><trkpt lat="45.0924088" lon="1.2237129"><ele>153.0</ele><time>2026-04-02T08:12:49.949Z</time></trkpt><trkpt lat="45.0924935" lon="1.223874"><ele>146.5</ele><time>2026-04-02T08:12:50.948Z</time></trkpt><trkpt lat="45.0925817" lon="1.2240323"><ele>140.0</ele><time>2026-04-02T08:12:51.948Z</time></trkpt><trkpt lat="45.0926715" lon="1.2241767"><ele>133.5</ele><time>2026-04-02T08:12:52.949Z</time></trkpt><trkpt lat="45.0927715" lon="1.2243141"><ele>127.0</ele><time>2026-04-02T08:12:53.947Z</time></trkpt><trkpt lat="45.0928756" lon="1.2244439"><ele>127.0</ele><time>2026-04-02T08:12:54.948Z</time></trkpt><trkpt lat="45.0929843" lon="1.2245734"><ele>127.0</ele><time>2026-04-02T08:12:55.948Z</time></trkpt><trkpt lat="45.0930944" lon="1.2246984"><ele>127.0</ele><time>2026-04-02T08:12:56.948Z</time></trkpt><trkpt lat="45.0932126" lon="1.2248226"><ele>127.0</ele><time>2026-04-02T08:12:57.948Z</time></trkpt><trkpt lat="45.0933267" lon="1.2249416"><ele>123.5</ele><time>2026-04-02T08:12:58.949Z</time></trkpt><trkpt lat="45.0934333" lon="1.2250597"><ele>120.0</ele><time>2026-04-02T08:12:59.949Z</time></trkpt><trkpt lat="45.093531" lon="1.225173"><ele>116.5</ele><time>2026-04-02T08:13:00.948Z</time></trkpt><trkpt lat="45.0936254" lon="1.225275"><ele>113.0</ele><time>2026-04-02T08:13:01.948Z</time></trkpt><trkpt lat="45.0937108" lon="1.2253673"><ele>113.0</ele><time>2026-04-02T08:13:02.948Z</time></trkpt><trkpt lat="45.0937886" lon="1.2254588"><ele>113.00000000000001</ele><time>2026-04-02T08:13:03.948Z</time></trkpt><trkpt lat="45.0938743" lon="1.22554"><ele>113.00000000000001</ele><time>2026-04-02T08:13:04.949Z</time></trkpt><trkpt lat="45.0939514" lon="1.2256048"><ele>113.0</ele><time>2026-04-02T08:13:05.948Z</time></trkpt><trkpt lat="45.0940316" lon="1.2256658"><ele>113.0</ele><time>2026-04-02T08:13:06.948Z</time></trkpt><trkpt lat="45.0941123" lon="1.2257163"><ele>110.2</ele><time>2026-04-02T08:13:07.948Z</time></trkpt><trkpt lat="45.0941987" lon="1.225753"><ele>107.4</ele><time>2026-04-02T08:13:08.949Z</time></trkpt><trkpt lat="45.0942969" lon="1.2257792"><ele>104.60000000000001</ele><time>2026-04-02T08:13:09.949Z</time></trkpt><trkpt lat="45.0944055" lon="1.2257959"><ele>101.80000000000001</ele><time>2026-04-02T08:13:10.948Z</time></trkpt><trkpt lat="45.0945173" lon="1.2258109"><ele>99.0</ele><time>2026-04-02T08:13:11.948Z</time></trkpt><trkpt lat="45.0946347" lon="1.2258224"><ele>99.0</ele><time>2026-04-02T08:13:12.949Z</time></trkpt><trkpt lat="45.0947542" lon="1.2258268"><ele>99.0</ele><time>2026-04-02T08:13:13.949Z</time></trkpt><trkpt lat="45.0948744" lon="1.2258176"><ele>99.0</ele><time>2026-04-02T08:13:14.949Z</time></trkpt><trkpt lat="45.0949979" lon="1.2257929"><ele>99.0</ele><time>2026-04-02T08:13:15.947Z</time></trkpt><trkpt lat="45.0951216" lon="1.2257472"><ele>98.5</ele><time>2026-04-02T08:13:16.948Z</time></trkpt><trkpt lat="45.0952445" lon="1.2256811"><ele>98.0</ele><time>2026-04-02T08:13:17.948Z</time></trkpt><trkpt lat="45.0953693" lon="1.2255972"><ele>97.5</ele><time>2026-04-02T08:13:18.948Z</time></trkpt><trkpt lat="45.0954911" lon="1.2255099"><ele>97.0</ele><time>2026-04-02T08:13:19.949Z</time></trkpt><trkpt lat="45.095614" lon="1.2254158"><ele>95.5</ele><time>2026-04-02T08:13:20.95Z</time></trkpt><trkpt lat="45.0957407" lon="1.225323"><ele>94.0</ele><time>2026-04-02T08:13:21.95Z</time></trkpt><trkpt lat="45.095865" lon="1.2252326"><ele>92.5</ele><time>2026-04-02T08:13:22.95Z</time></trkpt><trkpt lat="45.095988" lon="1.2251413"><ele>91.0</ele><time>2026-04-02T08:13:23.949Z</time></trkpt><trkpt lat="45.0961081" lon="1.225053"><ele>91.0</ele><time>2026-04-02T08:13:24.949Z</time></trkpt><trkpt lat="45.0962283" lon="1.2249656"><ele>91.0</ele><time>2026-04-02T08:13:25.949Z</time></trkpt><trkpt lat="45.0963484" lon="1.2248756"><ele>91.0</ele><time>2026-04-02T08:13:26.949Z</time></trkpt><trkpt lat="45.0964701" lon="1.2247857"><ele>91.0</ele><time>2026-04-02T08:13:27.948Z</time></trkpt><trkpt lat="45.0965926" lon="1.2246973"><ele>90.0</ele><time>2026-04-02T08:13:28.95Z</time></trkpt><trkpt lat="45.0967165" lon="1.2246076"><ele>89.0</ele><time>2026-04-02T08:13:29.95Z</time></trkpt><trkpt lat="45.0968387" lon="1.2245179"><ele>88.0</ele><time>2026-04-02T08:13:30.949Z</time></trkpt><trkpt lat="45.0969646" lon="1.2244327"><ele>87.0</ele><time>2026-04-02T08:13:31.949Z</time></trkpt><trkpt lat="45.0970906" lon="1.2243445"><ele>87.0</ele><time>2026-04-02T08:13:32.948Z</time></trkpt><trkpt lat="45.097217" lon="1.2242617"><ele>87.0</ele><time>2026-04-02T08:13:33.949Z</time></trkpt><trkpt lat="45.0973471" lon="1.2241877"><ele>87.0</ele><time>2026-04-02T08:13:34.948Z</time></trkpt><trkpt lat="45.0974763" lon="1.2241138"><ele>87.0</ele><time>2026-04-02T08:13:35.95Z</time></trkpt><trkpt lat="45.0976074" lon="1.224041"><ele>86.5</ele><time>2026-04-02T08:13:36.949Z</time></trkpt><trkpt lat="45.0977399" lon="1.223964"><ele>86.0</ele><time>2026-04-02T08:13:37.949Z</time></trkpt><trkpt lat="45.0978735" lon="1.223888"><ele>85.5</ele><time>2026-04-02T08:13:38.948Z</time></trkpt><trkpt lat="45.098009" lon="1.2238092"><ele>85.0</ele><time>2026-04-02T08:13:39.949Z</time></trkpt><trkpt lat="45.0981467" lon="1.2237257"><ele>84.66666666666666</ele><time>2026-04-02T08:13:40.95Z</time></trkpt><trkpt lat="45.0982892" lon="1.2236451"><ele>84.33333333333333</ele><time>2026-04-02T08:13:41.95Z</time></trkpt><trkpt lat="45.0984298" lon="1.223567"><ele>84.0</ele><time>2026-04-02T08:13:42.949Z</time></trkpt><trkpt lat="45.0985712" lon="1.2234826"><ele>84.0</ele><time>2026-04-02T08:13:43.948Z</time></trkpt><trkpt lat="45.0987138" lon="1.2234029"><ele>84.0</ele><time>2026-04-02T08:13:44.948Z</time></trkpt><trkpt lat="45.0988562" lon="1.2233258"><ele>84.0</ele><time>2026-04-02T08:13:45.95Z</time></trkpt><trkpt lat="45.0989971" lon="1.2232458"><ele>83.33333333333333</ele><time>2026-04-02T08:13:46.95Z</time></trkpt><trkpt lat="45.099146" lon="1.2231612"><ele>82.66666666666666</ele><time>2026-04-02T08:13:47.949Z</time></trkpt><trkpt lat="45.0992921" lon="1.2230795"><ele>82.0</ele><time>2026-04-02T08:13:48.949Z</time></trkpt><trkpt lat="45.0994365" lon="1.2229933"><ele>82.0</ele><time>2026-04-02T08:13:49.95Z</time></trkpt><trkpt lat="45.0995847" lon="1.2229072"><ele>82.0</ele><time>2026-04-02T08:13:50.949Z</time></trkpt><trkpt lat="45.0997361" lon="1.2228316"><ele>82.0</ele><time>2026-04-02T08:13:51.949Z</time></trkpt><trkpt lat="45.0998886" lon="1.2227744"><ele>82.66666666666666</ele><time>2026-04-02T08:13:52.948Z</time></trkpt><trkpt lat="45.1000444" lon="1.2227408"><ele>83.33333333333333</ele><time>2026-04-02T08:13:53.949Z</time></trkpt><trkpt lat="45.1002021" lon="1.222728"><ele>84.0</ele><time>2026-04-02T08:13:54.949Z</time></trkpt><trkpt lat="45.1003632" lon="1.2227348"><ele>84.0</ele><time>2026-04-02T08:13:55.95Z</time></trkpt><trkpt lat="45.1005277" lon="1.2227536"><ele>84.0</ele><time>2026-04-02T08:13:56.95Z</time></trkpt><trkpt lat="45.1006921" lon="1.2227764"><ele>84.0</ele><time>2026-04-02T08:13:57.949Z</time></trkpt><trkpt lat="45.1008563" lon="1.2228021"><ele>84.0</ele><time>2026-04-02T08:13:58.949Z</time></trkpt><trkpt lat="45.1010162" lon="1.22283"><ele>84.0</ele><time>2026-04-02T08:13:59.948Z</time></trkpt><trkpt lat="45.1011733" lon="1.2228582"><ele>84.0</ele><time>2026-04-02T08:14:00.949Z</time></trkpt><trkpt lat="45.1013313" lon="1.2228876"><ele>84.0</ele><time>2026-04-02T08:14:01.949Z</time></trkpt><trkpt lat="45.1014867" lon="1.2229178"><ele>84.0</ele><time>2026-04-02T08:14:02.95Z</time></trkpt><trkpt lat="45.1016394" lon="1.2229506"><ele>84.0</ele><time>2026-04-02T08:14:03.949Z</time></trkpt><trkpt lat="45.1017854" lon="1.2229913"><ele>84.25</ele><time>2026-04-02T08:14:04.949Z</time></trkpt><trkpt lat="45.1019277" lon="1.2230475"><ele>84.5</ele><time>2026-04-02T08:14:05.949Z</time></trkpt><trkpt lat="45.1020639" lon="1.2231179"><ele>84.75</ele><time>2026-04-02T08:14:06.95Z</time></trkpt><trkpt lat="45.1022084" lon="1.223193"><ele>85.0</ele><time>2026-04-02T08:14:07.95Z</time></trkpt><trkpt lat="45.1023536" lon="1.223263"><ele>83.0</ele><time>2026-04-02T08:14:08.95Z</time></trkpt><trkpt lat="45.1024993" lon="1.2233346"><ele>81.0</ele><time>2026-04-02T08:14:09.95Z</time></trkpt><trkpt lat="45.1026433" lon="1.2234056"><ele>79.0</ele><time>2026-04-02T08:14:10.95Z</time></trkpt><trkpt lat="45.1027882" lon="1.2234751"><ele>79.0</ele><time>2026-04-02T08:14:11.949Z</time></trkpt><trkpt lat="45.1029309" lon="1.223544"><ele>79.0</ele><time>2026-04-02T08:14:12.95Z</time></trkpt><trkpt lat="45.1030774" lon="1.2236144"><ele>79.0</ele><time>2026-04-02T08:14:13.949Z</time></trkpt><trkpt lat="45.1032222" lon="1.2236879"><ele>79.33333333333333</ele><time>2026-04-02T08:14:14.949Z</time></trkpt><trkpt lat="45.1033668" lon="1.2237592"><ele>79.66666666666667</ele><time>2026-04-02T08:14:15.95Z</time></trkpt><trkpt lat="45.1035105" lon="1.2238304"><ele>80.0</ele><time>2026-04-02T08:14:16.95Z</time></trkpt><trkpt lat="45.1036579" lon="1.2239026"><ele>80.0</ele><time>2026-04-02T08:14:17.95Z</time></trkpt><trkpt lat="45.1038061" lon="1.2239742"><ele>80.0</ele><time>2026-04-02T08:14:18.949Z</time></trkpt><trkpt lat="45.1039545" lon="1.2240411"><ele>80.0</ele><time>2026-04-02T08:14:19.948Z</time></trkpt><trkpt lat="45.1041015" lon="1.2240952"><ele>80.66666666666667</ele><time>2026-04-02T08:14:20.949Z</time></trkpt><trkpt lat="45.1042493" lon="1.224137"><ele>81.33333333333333</ele><time>2026-04-02T08:14:21.95Z</time></trkpt><trkpt lat="45.1044046" lon="1.2241648"><ele>82.0</ele><time>2026-04-02T08:14:22.95Z</time></trkpt><trkpt lat="45.1045664" lon="1.2241821"><ele>82.0</ele><time>2026-04-02T08:14:23.949Z</time></trkpt><trkpt lat="45.1047298" lon="1.2241933"><ele>82.0</ele><time>2026-04-02T08:14:24.949Z</time></trkpt><trkpt lat="45.1048918" lon="1.2242064"><ele>82.0</ele><time>2026-04-02T08:14:25.95Z</time></trkpt><trkpt lat="45.1050539" lon="1.2242137"><ele>82.0</ele><time>2026-04-02T08:14:26.95Z</time></trkpt><trkpt lat="45.105215" lon="1.2242224"><ele>82.0</ele><time>2026-04-02T08:14:27.949Z</time></trkpt><trkpt lat="45.1053733" lon="1.2242343"><ele>82.0</ele><time>2026-04-02T08:14:28.95Z</time></trkpt><trkpt lat="45.1055324" lon="1.2242444"><ele>82.0</ele><time>2026-04-02T08:14:29.95Z</time></trkpt><trkpt lat="45.105688" lon="1.2242554"><ele>82.0</ele><time>2026-04-02T08:14:30.949Z</time></trkpt><trkpt lat="45.1058414" lon="1.2242667"><ele>82.0</ele><time>2026-04-02T08:14:31.949Z</time></trkpt><trkpt lat="45.1059947" lon="1.2242845"><ele>81.33333333333333</ele><time>2026-04-02T08:14:32.948Z</time></trkpt><trkpt lat="45.1061451" lon="1.2243078"><ele>80.66666666666667</ele><time>2026-04-02T08:14:33.949Z</time></trkpt><trkpt lat="45.1062979" lon="1.2243352"><ele>80.0</ele><time>2026-04-02T08:14:34.949Z</time></trkpt><trkpt lat="45.1064443" lon="1.2243692"><ele>79.33333333333334</ele><time>2026-04-02T08:14:35.95Z</time></trkpt><trkpt lat="45.1065918" lon="1.2244057"><ele>78.66666666666667</ele><time>2026-04-02T08:14:36.95Z</time></trkpt><trkpt lat="45.1067386" lon="1.2244477"><ele>78.0</ele><time>2026-04-02T08:14:37.948Z</time></trkpt><trkpt lat="45.106889" lon="1.2244919"><ele>78.0</ele><time>2026-04-02T08:14:38.95Z</time></trkpt><trkpt lat="45.1070401" lon="1.2245353"><ele>78.0</ele><time>2026-04-02T08:14:39.949Z</time></trkpt><trkpt lat="45.1071969" lon="1.2245833"><ele>78.0</ele><time>2026-04-02T08:14:40.95Z</time></trkpt><trkpt lat="45.1073492" lon="1.2246313"><ele>78.66666666666667</ele><time>2026-04-02T08:14:41.95Z</time></trkpt><trkpt lat="45.1074994" lon="1.2246807"><ele>79.33333333333334</ele><time>2026-04-02T08:14:42.95Z</time></trkpt><trkpt lat="45.1076466" lon="1.224744"><ele>80.0</ele><time>2026-04-02T08:14:43.95Z</time></trkpt><trkpt lat="45.1077955" lon="1.2248059"><ele>80.0</ele><time>2026-04-02T08:14:44.95Z</time></trkpt><trkpt lat="45.1079404" lon="1.2248642"><ele>80.0</ele><time>2026-04-02T08:14:45.949Z</time></trkpt><trkpt lat="45.1080932" lon="1.2249213"><ele>80.0</ele><time>2026-04-02T08:14:46.949Z</time></trkpt><trkpt lat="45.1082424" lon="1.2249747"><ele>80.33333333333334</ele><time>2026-04-02T08:14:47.95Z</time></trkpt><trkpt lat="45.1083902" lon="1.2250222"><ele>80.66666666666667</ele><time>2026-04-02T08:14:48.95Z</time></trkpt><trkpt lat="45.108538" lon="1.2250609"><ele>81.0</ele><time>2026-04-02T08:14:49.949Z</time></trkpt><trkpt lat="45.1086897" lon="1.2250807"><ele>81.0</ele><time>2026-04-02T08:14:50.949Z</time></trkpt><trkpt lat="45.1088407" lon="1.2250865"><ele>81.0</ele><time>2026-04-02T08:14:51.95Z</time></trkpt><trkpt lat="45.1089902" lon="1.2250808"><ele>81.0</ele><time>2026-04-02T08:14:52.95Z</time></trkpt><trkpt lat="45.1091397" lon="1.2250564"><ele>81.0</ele><time>2026-04-02T08:14:53.949Z</time></trkpt><trkpt lat="45.10929" lon="1.2250205"><ele>81.0</ele><time>2026-04-02T08:14:54.949Z</time></trkpt><trkpt lat="45.1094391" lon="1.2249799"><ele>81.0</ele><time>2026-04-02T08:14:55.95Z</time></trkpt><trkpt lat="45.1095868" lon="1.224937"><ele>81.0</ele><time>2026-04-02T08:14:56.95Z</time></trkpt><trkpt lat="45.1097337" lon="1.2248951"><ele>81.0</ele><time>2026-04-02T08:14:57.95Z</time></trkpt><trkpt lat="45.1098805" lon="1.2248502"><ele>81.0</ele><time>2026-04-02T08:14:58.95Z</time></trkpt><trkpt lat="45.1100249" lon="1.2248089"><ele>81.0</ele><time>2026-04-02T08:14:59.949Z</time></trkpt><trkpt lat="45.1101677" lon="1.2247665"><ele>80.75</ele><time>2026-04-02T08:15:00.95Z</time></trkpt><trkpt lat="45.1103078" lon="1.2247273"><ele>80.5</ele><time>2026-04-02T08:15:01.95Z</time></trkpt><trkpt lat="45.1104376" lon="1.2246904"><ele>80.25</ele><time>2026-04-02T08:15:02.948Z</time></trkpt><trkpt lat="45.1105513" lon="1.2246671"><ele>80.0</ele><time>2026-04-02T08:15:03.949Z</time></trkpt><trkpt lat="45.1106551" lon="1.2246529"><ele>80.0</ele><time>2026-04-02T08:15:04.95Z</time></trkpt><trkpt lat="45.1107409" lon="1.2246666"><ele>80.0</ele><time>2026-04-02T08:15:05.95Z</time></trkpt><trkpt lat="45.1108172" lon="1.224681"><ele>80.0</ele><time>2026-04-02T08:15:06.95Z</time></trkpt><trkpt lat="45.1108796" lon="1.2246979"><ele>80.0</ele><time>2026-04-02T08:15:07.95Z</time></trkpt><trkpt lat="45.1109636" lon="1.2247526"><ele>80.0</ele><time>2026-04-02T08:15:09.949Z</time></trkpt><trkpt lat="45.1109501" lon="1.224881"><ele>80.0</ele><time>2026-04-02T08:15:11.948Z</time></trkpt><trkpt lat="45.1108999" lon="1.2249943"><ele>80.0</ele><time>2026-04-02T08:15:12.95Z</time></trkpt><trkpt lat="45.1108546" lon="1.2251449"><ele>80.0</ele><time>2026-04-02T08:15:13.949Z</time></trkpt><trkpt lat="45.1108115" lon="1.2253029"><ele>80.0</ele><time>2026-04-02T08:15:14.949Z</time></trkpt><trkpt lat="45.110764" lon="1.2254686"><ele>80.0</ele><time>2026-04-02T08:15:15.948Z</time></trkpt><trkpt lat="45.1107133" lon="1.2256445"><ele>80.5</ele><time>2026-04-02T08:15:16.949Z</time></trkpt><trkpt lat="45.1106619" lon="1.2258208"><ele>81.0</ele><time>2026-04-02T08:15:17.95Z</time></trkpt><trkpt lat="45.110606" lon="1.2260016"><ele>81.5</ele><time>2026-04-02T08:15:18.95Z</time></trkpt><trkpt lat="45.1105506" lon="1.226176"><ele>82.0</ele><time>2026-04-02T08:15:19.949Z</time></trkpt><trkpt lat="45.1104949" lon="1.226348"><ele>82.25</ele><time>2026-04-02T08:15:20.949Z</time></trkpt><trkpt lat="45.1104364" lon="1.2265177"><ele>82.5</ele><time>2026-04-02T08:15:21.949Z</time></trkpt><trkpt lat="45.110378" lon="1.2266873"><ele>82.75</ele><time>2026-04-02T08:15:22.949Z</time></trkpt><trkpt lat="45.1103245" lon="1.2268489"><ele>83.0</ele><time>2026-04-02T08:15:23.95Z</time></trkpt><trkpt lat="45.1102715" lon="1.2269935"><ele>83.0</ele><time>2026-04-02T08:15:24.949Z</time></trkpt><trkpt lat="45.1102182" lon="1.2271201"><ele>83.0</ele><time>2026-04-02T08:15:25.948Z</time></trkpt><trkpt lat="45.1101584" lon="1.2272301"><ele>83.0</ele><time>2026-04-02T08:15:26.949Z</time></trkpt><trkpt lat="45.1100771" lon="1.2273262"><ele>83.0</ele><time>2026-04-02T08:15:27.95Z</time></trkpt><trkpt lat="45.1099877" lon="1.2274106"><ele>83.0</ele><time>2026-04-02T08:15:28.949Z</time></trkpt><trkpt lat="45.1099054" lon="1.2274999"><ele>85.4</ele><time>2026-04-02T08:15:29.948Z</time></trkpt><trkpt lat="45.1098427" lon="1.2275882"><ele>87.80000000000001</ele><time>2026-04-02T08:15:30.949Z</time></trkpt><trkpt lat="45.1098052" lon="1.2277031"><ele>90.2</ele><time>2026-04-02T08:15:31.949Z</time></trkpt><trkpt lat="45.1097599" lon="1.2278429"><ele>92.6</ele><time>2026-04-02T08:15:32.949Z</time></trkpt><trkpt lat="45.1097074" lon="1.2279951"><ele>95.0</ele><time>2026-04-02T08:15:33.949Z</time></trkpt><trkpt lat="45.1096487" lon="1.2281628"><ele>95.25</ele><time>2026-04-02T08:15:34.949Z</time></trkpt><trkpt lat="45.109582" lon="1.22832"><ele>95.5</ele><time>2026-04-02T08:15:35.949Z</time></trkpt><trkpt lat="45.1095079" lon="1.2284712"><ele>95.75</ele><time>2026-04-02T08:15:36.95Z</time></trkpt><trkpt lat="45.1094209" lon="1.2286023"><ele>96.0</ele><time>2026-04-02T08:15:37.949Z</time></trkpt><trkpt lat="45.1093197" lon="1.2287099"><ele>96.0</ele><time>2026-04-02T08:15:38.949Z</time></trkpt><trkpt lat="45.1092212" lon="1.2288172"><ele>96.0</ele><time>2026-04-02T08:15:39.949Z</time></trkpt><trkpt lat="45.1091324" lon="1.2289217"><ele>96.0</ele><time>2026-04-02T08:15:40.949Z</time></trkpt><trkpt lat="45.1090546" lon="1.2290234"><ele>96.0</ele><time>2026-04-02T08:15:41.949Z</time></trkpt><trkpt lat="45.1089801" lon="1.229112"><ele>96.0</ele><time>2026-04-02T08:15:42.949Z</time></trkpt><trkpt lat="45.1088911" lon="1.2291716"><ele>97.0</ele><time>2026-04-02T08:15:43.95Z</time></trkpt><trkpt lat="45.1087813" lon="1.2291989"><ele>98.0</ele><time>2026-04-02T08:15:44.95Z</time></trkpt><trkpt lat="45.1086498" lon="1.2292239"><ele>99.0</ele><time>2026-04-02T08:15:45.95Z</time></trkpt><trkpt lat="45.1085057" lon="1.2292621"><ele>100.0</ele><time>2026-04-02T08:15:46.949Z</time></trkpt><trkpt lat="45.1083605" lon="1.2293253"><ele>102.0</ele><time>2026-04-02T08:15:47.95Z</time></trkpt><trkpt lat="45.1081994" lon="1.2294026"><ele>104.0</ele><time>2026-04-02T08:15:48.95Z</time></trkpt><trkpt lat="45.1080371" lon="1.2294937"><ele>106.0</ele><time>2026-04-02T08:15:49.949Z</time></trkpt><trkpt lat="45.1078632" lon="1.229595"><ele>106.0</ele><time>2026-04-02T08:15:50.95Z</time></trkpt><trkpt lat="45.1076875" lon="1.2296917"><ele>106.0</ele><time>2026-04-02T08:15:51.949Z</time></trkpt><trkpt lat="45.1075158" lon="1.2297875"><ele>106.0</ele><time>2026-04-02T08:15:52.95Z</time></trkpt><trkpt lat="45.1073341" lon="1.2298986"><ele>105.66666666666667</ele><time>2026-04-02T08:15:53.949Z</time></trkpt><trkpt lat="45.1071608" lon="1.2300124"><ele>105.33333333333334</ele><time>2026-04-02T08:15:54.949Z</time></trkpt><trkpt lat="45.1069899" lon="1.2301081"><ele>105.0</ele><time>2026-04-02T08:15:55.949Z</time></trkpt><trkpt lat="45.1068349" lon="1.2301734"><ele>105.0</ele><time>2026-04-02T08:15:56.95Z</time></trkpt><trkpt lat="45.1066691" lon="1.2302141"><ele>105.0</ele><time>2026-04-02T08:15:57.949Z</time></trkpt><trkpt lat="45.1064897" lon="1.2302499"><ele>105.0</ele><time>2026-04-02T08:15:58.949Z</time></trkpt><trkpt lat="45.1063292" lon="1.2302694"><ele>105.25</ele><time>2026-04-02T08:15:59.949Z</time></trkpt><trkpt lat="45.1061771" lon="1.2302695"><ele>105.5</ele><time>2026-04-02T08:16:00.949Z</time></trkpt><trkpt lat="45.1060343" lon="1.2302509"><ele>105.75</ele><time>2026-04-02T08:16:01.95Z</time></trkpt><trkpt lat="45.1058867" lon="1.2302106"><ele>106.0</ele><time>2026-04-02T08:16:02.949Z</time></trkpt><trkpt lat="45.1057433" lon="1.2301842"><ele>107.75</ele><time>2026-04-02T08:16:03.949Z</time></trkpt><trkpt lat="45.1056063" lon="1.2301752"><ele>109.5</ele><time>2026-04-02T08:16:04.95Z</time></trkpt><trkpt lat="45.1054709" lon="1.2301815"><ele>111.25</ele><time>2026-04-02T08:16:05.95Z</time></trkpt><trkpt lat="45.1053406" lon="1.2301956"><ele>113.0</ele><time>2026-04-02T08:16:06.95Z</time></trkpt><trkpt lat="45.1052103" lon="1.230221"><ele>113.0</ele><time>2026-04-02T08:16:07.95Z</time></trkpt><trkpt lat="45.1050731" lon="1.2302627"><ele>113.0</ele><time>2026-04-02T08:16:08.949Z</time></trkpt><trkpt lat="45.1049438" lon="1.2303139"><ele>113.0</ele><time>2026-04-02T08:16:09.949Z</time></trkpt><trkpt lat="45.1048192" lon="1.2303828"><ele>113.0</ele><time>2026-04-02T08:16:10.949Z</time></trkpt><trkpt lat="45.1046989" lon="1.2304797"><ele>113.33333333333333</ele><time>2026-04-02T08:16:11.948Z</time></trkpt><trkpt lat="45.1045792" lon="1.230603"><ele>113.66666666666666</ele><time>2026-04-02T08:16:12.95Z</time></trkpt><trkpt lat="45.1044623" lon="1.2307387"><ele>114.0</ele><time>2026-04-02T08:16:13.949Z</time></trkpt><trkpt lat="45.1043451" lon="1.2308802"><ele>114.0</ele><time>2026-04-02T08:16:14.949Z</time></trkpt><trkpt lat="45.1042368" lon="1.2310219"><ele>114.0</ele><time>2026-04-02T08:16:15.949Z</time></trkpt><trkpt lat="45.1041339" lon="1.2311771"><ele>114.0</ele><time>2026-04-02T08:16:16.95Z</time></trkpt><trkpt lat="45.1040361" lon="1.2313357"><ele>114.0</ele><time>2026-04-02T08:16:17.95Z</time></trkpt><trkpt lat="45.1039382" lon="1.2314903"><ele>114.25</ele><time>2026-04-02T08:16:18.949Z</time></trkpt><trkpt lat="45.1038379" lon="1.2316347"><ele>114.5</ele><time>2026-04-02T08:16:19.949Z</time></trkpt><trkpt lat="45.1037415" lon="1.2317758"><ele>114.75</ele><time>2026-04-02T08:16:20.95Z</time></trkpt><trkpt lat="45.1036538" lon="1.2319325"><ele>115.0</ele><time>2026-04-02T08:16:21.95Z</time></trkpt><trkpt lat="45.1035704" lon="1.2321044"><ele>115.0</ele><time>2026-04-02T08:16:22.95Z</time></trkpt><trkpt lat="45.103486" lon="1.2322728"><ele>115.0</ele><time>2026-04-02T08:16:23.949Z</time></trkpt><trkpt lat="45.1033936" lon="1.2324373"><ele>115.0</ele><time>2026-04-02T08:16:24.949Z</time></trkpt><trkpt lat="45.1033007" lon="1.232602"><ele>115.0</ele><time>2026-04-02T08:16:25.949Z</time></trkpt><trkpt lat="45.1032083" lon="1.2327712"><ele>117.33333333333334</ele><time>2026-04-02T08:16:26.95Z</time></trkpt><trkpt lat="45.1031161" lon="1.23295"><ele>119.66666666666666</ele><time>2026-04-02T08:16:27.95Z</time></trkpt><trkpt lat="45.1030154" lon="1.2331202"><ele>122.0</ele><time>2026-04-02T08:16:28.95Z</time></trkpt><trkpt lat="45.1029124" lon="1.2332907"><ele>122.0</ele><time>2026-04-02T08:16:29.949Z</time></trkpt><trkpt lat="45.1028123" lon="1.2334601"><ele>122.0</ele><time>2026-04-02T08:16:30.949Z</time></trkpt><trkpt lat="45.1027213" lon="1.233624"><ele>122.0</ele><time>2026-04-02T08:16:31.949Z</time></trkpt><trkpt lat="45.1026278" lon="1.2337986"><ele>122.0</ele><time>2026-04-02T08:16:32.95Z</time></trkpt><trkpt lat="45.1025304" lon="1.2339449"><ele>122.0</ele><time>2026-04-02T08:16:33.95Z</time></trkpt><trkpt lat="45.1024439" lon="1.234086"><ele>122.0</ele><time>2026-04-02T08:16:34.949Z</time></trkpt><trkpt lat="45.102358" lon="1.234227"><ele>122.0</ele><time>2026-04-02T08:16:35.95Z</time></trkpt><trkpt lat="45.1022879" lon="1.2343612"><ele>122.49999999999999</ele><time>2026-04-02T08:16:36.949Z</time></trkpt><trkpt lat="45.102239" lon="1.2344837"><ele>123.0</ele><time>2026-04-02T08:16:37.948Z</time></trkpt><trkpt lat="45.1022081" lon="1.2345862"><ele>123.5</ele><time>2026-04-02T08:16:38.948Z</time></trkpt><trkpt lat="45.1021867" lon="1.2346997"><ele>124.0</ele><time>2026-04-02T08:16:39.949Z</time></trkpt><trkpt lat="45.1021653" lon="1.2348072"><ele>124.49999999999999</ele><time>2026-04-02T08:16:40.948Z</time></trkpt><trkpt lat="45.1021381" lon="1.2349148"><ele>125.0</ele><time>2026-04-02T08:16:41.95Z</time></trkpt><trkpt lat="45.1021048" lon="1.2350276"><ele>124.99999999999999</ele><time>2026-04-02T08:16:42.95Z</time></trkpt><trkpt lat="45.1020736" lon="1.2351414"><ele>125.0</ele><time>2026-04-02T08:16:43.95Z</time></trkpt><trkpt lat="45.1020508" lon="1.2352632"><ele>125.0</ele><time>2026-04-02T08:16:44.95Z</time></trkpt><trkpt lat="45.1020322" lon="1.2353888"><ele>125.0</ele><time>2026-04-02T08:16:45.95Z</time></trkpt><trkpt lat="45.1020164" lon="1.2355157"><ele>124.99999999999999</ele><time>2026-04-02T08:16:46.949Z</time></trkpt><trkpt lat="45.1020112" lon="1.2356335"><ele>125.0</ele><time>2026-04-02T08:16:47.95Z</time></trkpt><trkpt lat="45.1020178" lon="1.2357507"><ele>124.49999999999999</ele><time>2026-04-02T08:16:48.95Z</time></trkpt><trkpt lat="45.1020368" lon="1.2358713"><ele>124.0</ele><time>2026-04-02T08:16:49.95Z</time></trkpt><trkpt lat="45.1020555" lon="1.2359888"><ele>123.5</ele><time>2026-04-02T08:16:50.949Z</time></trkpt><trkpt lat="45.1020767" lon="1.2361034"><ele>123.0</ele><time>2026-04-02T08:16:51.949Z</time></trkpt><trkpt lat="45.1021028" lon="1.2362245"><ele>122.49999999999999</ele><time>2026-04-02T08:16:52.949Z</time></trkpt><trkpt lat="45.1021213" lon="1.2363482"><ele>122.0</ele><time>2026-04-02T08:16:53.949Z</time></trkpt><trkpt lat="45.1021375" lon="1.2364628"><ele>123.83333333333333</ele><time>2026-04-02T08:16:54.948Z</time></trkpt><trkpt lat="45.1021592" lon="1.2365692"><ele>125.66666666666666</ele><time>2026-04-02T08:16:55.949Z</time></trkpt><trkpt lat="45.1021974" lon="1.2366632"><ele>127.5</ele><time>2026-04-02T08:16:56.95Z</time></trkpt><trkpt lat="45.1022558" lon="1.2367364"><ele>129.33333333333334</ele><time>2026-04-02T08:16:57.949Z</time></trkpt><trkpt lat="45.1023239" lon="1.236802"><ele>131.16666666666669</ele><time>2026-04-02T08:16:58.95Z</time></trkpt><trkpt lat="45.1023876" lon="1.2368858"><ele>133.0</ele><time>2026-04-02T08:16:59.95Z</time></trkpt><trkpt lat="45.1024524" lon="1.2369737"><ele>133.4</ele><time>2026-04-02T08:17:00.949Z</time></trkpt><trkpt lat="45.1025156" lon="1.2370747"><ele>133.8</ele><time>2026-04-02T08:17:01.949Z</time></trkpt><trkpt lat="45.1025836" lon="1.2371801"><ele>134.2</ele><time>2026-04-02T08:17:02.949Z</time></trkpt><trkpt lat="45.1026551" lon="1.2372835"><ele>134.6</ele><time>2026-04-02T08:17:03.949Z</time></trkpt><trkpt lat="45.1027187" lon="1.2373849"><ele>135.0</ele><time>2026-04-02T08:17:04.949Z</time></trkpt><trkpt lat="45.1027775" lon="1.2374854"><ele>135.0</ele><time>2026-04-02T08:17:05.949Z</time></trkpt><trkpt lat="45.1028277" lon="1.2375691"><ele>135.0</ele><time>2026-04-02T08:17:06.95Z</time></trkpt><trkpt lat="45.1028867" lon="1.2376847"><ele>135.0</ele><time>2026-04-02T08:17:08.95Z</time></trkpt><trkpt lat="45.102929" lon="1.2377838"><ele>135.0</ele><time>2026-04-02T08:17:11.95Z</time></trkpt><trkpt lat="45.1029708" lon="1.237886"><ele>135.0</ele><time>2026-04-02T08:17:17.948Z</time></trkpt><trkpt lat="45.1030293" lon="1.2378476"><ele>135.0</ele><time>2026-04-02T08:18:06.951Z</time></trkpt><trkpt lat="45.1030577" lon="1.2377637"><ele>135.0</ele><time>2026-04-02T08:18:09.951Z</time></trkpt><trkpt lat="45.1030968" lon="1.2376818"><ele>135.0</ele><time>2026-04-02T08:18:34.951Z</time></trkpt><trkpt lat="45.1030877" lon="1.2375901"><ele>135.0</ele><time>2026-04-02T08:18:46.949Z</time></trkpt><trkpt lat="45.1030948" lon="1.2375005"><ele>135.0</ele><time>2026-04-02T08:18:49.95Z</time></trkpt><trkpt lat="45.1030735" lon="1.2373794"><ele>135.0</ele><time>2026-04-02T08:19:00.951Z</time></trkpt><trkpt lat="45.103056" lon="1.2372657"><ele>135.0</ele><time>2026-04-02T08:19:03.95Z</time></trkpt><trkpt lat="45.1030679" lon="1.2371754"><ele>135.0</ele><time>2026-04-02T08:19:06.951Z</time></trkpt><trkpt lat="45.1030947" lon="1.2370808"><ele>135.14285714285714</ele><time>2026-04-02T08:19:58.95Z</time></trkpt><trkpt lat="45.1030584" lon="1.2369904"><ele>135.28571428571428</ele><time>2026-04-02T08:20:30.95Z</time></trkpt><trkpt lat="45.1030121" lon="1.2369234"><ele>135.42857142857142</ele><time>2026-04-02T08:20:40.951Z</time></trkpt><trkpt lat="45.1029906" lon="1.2368298"><ele>135.57142857142856</ele><time>2026-04-02T08:20:44.95Z</time></trkpt><trkpt lat="45.103057" lon="1.2368194"><ele>135.71428571428572</ele><time>2026-04-02T08:21:20.951Z</time></trkpt><trkpt lat="45.1031003" lon="1.2368949"><ele>135.85714285714283</ele><time>2026-04-02T08:21:36.951Z</time></trkpt><trkpt lat="45.103137" lon="1.2369688"><ele>136.0</ele><time>2026-04-02T08:21:45.951Z</time></trkpt><trkpt lat="45.1031959" lon="1.2370031"><ele>135.99999999999997</ele><time>2026-04-02T08:22:16.952Z</time></trkpt><trkpt lat="45.1032297" lon="1.2369219"><ele>136.0</ele><time>2026-04-02T08:22:51.951Z</time></trkpt><trkpt lat="45.103223" lon="1.2368177"><ele>136.0</ele><time>2026-04-02T08:22:57.952Z</time></trkpt><trkpt lat="45.103284" lon="1.2367775"><ele>136.0</ele><time>2026-04-02T08:23:02.95Z</time></trkpt><trkpt lat="45.1033699" lon="1.236833"><ele>136.0</ele><time>2026-04-02T08:23:05.95Z</time></trkpt><trkpt lat="45.1034267" lon="1.2368734"><ele>135.99999999999997</ele><time>2026-04-02T08:23:07.952Z</time></trkpt><trkpt lat="45.1034844" lon="1.2369206"><ele>136.0</ele><time>2026-04-02T08:23:09.952Z</time></trkpt><trkpt lat="45.1035195" lon="1.2370104"><ele>135.99999999999997</ele><time>2026-04-02T08:23:12.95Z</time></trkpt><trkpt lat="45.1034515" lon="1.2370134"><ele>136.0</ele><time>2026-04-02T08:23:17.951Z</time></trkpt><trkpt lat="45.103385" lon="1.2369779"><ele>136.0</ele><time>2026-04-02T08:23:22.95Z</time></trkpt><trkpt lat="45.1033247" lon="1.2369419"><ele>136.0</ele><time>2026-04-02T08:23:27.952Z</time></trkpt><trkpt lat="45.1032792" lon="1.2368786"><ele>136.0</ele><time>2026-04-02T08:23:36.952Z</time></trkpt><trkpt lat="45.1032216" lon="1.2369309"><ele>135.99999999999997</ele><time>2026-04-02T08:23:43.952Z</time></trkpt><trkpt lat="45.1031644" lon="1.2369821"><ele>136.0</ele><time>2026-04-02T08:24:04.952Z</time></trkpt><trkpt lat="45.1031019" lon="1.2369442"><ele>135.99999999999997</ele><time>2026-04-02T08:24:19.952Z</time></trkpt><trkpt lat="45.1030319" lon="1.2369632"><ele>136.0</ele><time>2026-04-02T08:24:38.951Z</time></trkpt><trkpt lat="45.1029965" lon="1.2370434"><ele>136.0</ele><time>2026-04-02T08:24:47.951Z</time></trkpt><trkpt lat="45.1030137" lon="1.2371332"><ele>136.0</ele><time>2026-04-02T08:25:39.951Z</time></trkpt><trkpt lat="45.1030333" lon="1.2372275"><ele>136.0</ele><time>2026-04-02T08:25:45.951Z</time></trkpt><trkpt lat="45.103059" lon="1.2373113"><ele>135.99999999999997</ele><time>2026-04-02T08:25:51.951Z</time></trkpt><trkpt lat="45.1030787" lon="1.2374036"><ele>136.0</ele><time>2026-04-02T08:25:57.951Z</time></trkpt><trkpt lat="45.1030908" lon="1.2374928"><ele>135.85714285714283</ele><time>2026-04-02T08:26:03.951Z</time></trkpt><trkpt lat="45.1030827" lon="1.2376068"><ele>135.71428571428572</ele><time>2026-04-02T08:26:08.951Z</time></trkpt><trkpt lat="45.1030898" lon="1.2377002"><ele>135.57142857142856</ele><time>2026-04-02T08:26:15.951Z</time></trkpt><trkpt lat="45.1030552" lon="1.2377924"><ele>135.42857142857142</ele><time>2026-04-02T08:26:20.952Z</time></trkpt><trkpt lat="45.1030221" lon="1.2378755"><ele>135.28571428571428</ele><time>2026-04-02T08:26:26.951Z</time></trkpt><trkpt lat="45.1029958" lon="1.2379695"><ele>135.14285714285714</ele><time>2026-04-02T08:26:30.953Z</time></trkpt><trkpt lat="45.1030307" lon="1.2380459"><ele>135.0</ele><time>2026-04-02T08:26:59.952Z</time></trkpt><trkpt lat="45.1030499" lon="1.2381799"><ele>136.6</ele><time>2026-04-02T08:27:01.952Z</time></trkpt><trkpt lat="45.1030677" lon="1.2383339"><ele>138.2</ele><time>2026-04-02T08:27:03.951Z</time></trkpt><trkpt lat="45.1030703" lon="1.2384588"><ele>139.8</ele><time>2026-04-02T08:27:05.953Z</time></trkpt><trkpt lat="45.1030948" lon="1.2386005"><ele>141.4</ele><time>2026-04-02T08:27:07.953Z</time></trkpt><trkpt lat="45.1031148" lon="1.2387574"><ele>143.0</ele><time>2026-04-02T08:27:09.952Z</time></trkpt><trkpt lat="45.1031176" lon="1.2389314"><ele>143.6</ele><time>2026-04-02T08:27:11.953Z</time></trkpt><trkpt lat="45.1031046" lon="1.239095"><ele>144.20000000000002</ele><time>2026-04-02T08:27:13.952Z</time></trkpt><trkpt lat="45.1030777" lon="1.2392476"><ele>144.8</ele><time>2026-04-02T08:27:15.952Z</time></trkpt><trkpt lat="45.1030517" lon="1.2393909"><ele>145.4</ele><time>2026-04-02T08:27:17.953Z</time></trkpt><trkpt lat="45.1030502" lon="1.2394914"><ele>146.0</ele><time>2026-04-02T08:27:18.952Z</time></trkpt><trkpt lat="45.1030426" lon="1.2396631"><ele>146.0</ele><time>2026-04-02T08:27:20.952Z</time></trkpt><trkpt lat="45.1030113" lon="1.2397508"><ele>146.0</ele><time>2026-04-02T08:27:21.951Z</time></trkpt><trkpt lat="45.1029587" lon="1.2398425"><ele>146.0</ele><time>2026-04-02T08:27:22.952Z</time></trkpt><trkpt lat="45.1028969" lon="1.2399285"><ele>146.0</ele><time>2026-04-02T08:27:23.952Z</time></trkpt><trkpt lat="45.1028425" lon="1.2399955"><ele>146.0</ele><time>2026-04-02T08:27:24.951Z</time></trkpt><trkpt lat="45.1027855" lon="1.24004"><ele>146.0</ele><time>2026-04-02T08:27:25.952Z</time></trkpt><trkpt lat="45.1026594" lon="1.2400479"><ele>145.75</ele><time>2026-04-02T08:27:27.952Z</time></trkpt><trkpt lat="45.1025344" lon="1.240054"><ele>145.5</ele><time>2026-04-02T08:27:29.953Z</time></trkpt><trkpt lat="45.1024482" lon="1.2400688"><ele>145.25</ele><time>2026-04-02T08:27:31.953Z</time></trkpt><trkpt lat="45.1023392" lon="1.2400861"><ele>145.0</ele><time>2026-04-02T08:27:33.952Z</time></trkpt><trkpt lat="45.102233" lon="1.2401882"><ele>147.0</ele><time>2026-04-02T08:27:35.952Z</time></trkpt><trkpt lat="45.1021815" lon="1.2402579"><ele>149.0</ele><time>2026-04-02T08:27:36.952Z</time></trkpt><trkpt lat="45.1021258" lon="1.2403353"><ele>151.0</ele><time>2026-04-02T08:27:37.951Z</time></trkpt><trkpt lat="45.1020679" lon="1.2404116"><ele>153.0</ele><time>2026-04-02T08:27:38.952Z</time></trkpt><trkpt lat="45.1020026" lon="1.240482"><ele>155.0</ele><time>2026-04-02T08:27:39.951Z</time></trkpt><trkpt lat="45.1019396" lon="1.2405551"><ele>157.0</ele><time>2026-04-02T08:27:40.952Z</time></trkpt><trkpt lat="45.1018763" lon="1.240631"><ele>156.16666666666669</ele><time>2026-04-02T08:27:41.951Z</time></trkpt><trkpt lat="45.1018239" lon="1.2407026"><ele>155.33333333333334</ele><time>2026-04-02T08:27:42.951Z</time></trkpt><trkpt lat="45.1017649" lon="1.2407713"><ele>154.5</ele><time>2026-04-02T08:27:43.952Z</time></trkpt><trkpt lat="45.1017181" lon="1.2408523"><ele>153.66666666666666</ele><time>2026-04-02T08:27:44.951Z</time></trkpt><trkpt lat="45.1016528" lon="1.2409833"><ele>152.83333333333331</ele><time>2026-04-02T08:27:46.952Z</time></trkpt><trkpt lat="45.1016028" lon="1.2410746"><ele>152.0</ele><time>2026-04-02T08:27:48.953Z</time></trkpt><trkpt lat="45.1015203" lon="1.2411552"><ele>154.6</ele><time>2026-04-02T08:27:50.952Z</time></trkpt><trkpt lat="45.1014565" lon="1.2412009"><ele>157.2</ele><time>2026-04-02T08:27:51.953Z</time></trkpt><trkpt lat="45.1013442" lon="1.2412243"><ele>159.8</ele><time>2026-04-02T08:27:53.951Z</time></trkpt><trkpt lat="45.1012291" lon="1.2411994"><ele>162.4</ele><time>2026-04-02T08:27:55.952Z</time></trkpt><trkpt lat="45.1011591" lon="1.2411761"><ele>165.0</ele><time>2026-04-02T08:27:56.953Z</time></trkpt><trkpt lat="45.1010803" lon="1.2411975"><ele>165.0</ele><time>2026-04-02T08:27:57.952Z</time></trkpt><trkpt lat="45.1010001" lon="1.241209"><ele>165.0</ele><time>2026-04-02T08:27:58.952Z</time></trkpt><trkpt lat="45.100908" lon="1.2412144"><ele>165.0</ele><time>2026-04-02T08:27:59.953Z</time></trkpt><trkpt lat="45.1008188" lon="1.2412076"><ele>165.0</ele><time>2026-04-02T08:28:00.952Z</time></trkpt><trkpt lat="45.1007429" lon="1.2412032"><ele>165.0</ele><time>2026-04-02T08:28:01.952Z</time></trkpt><trkpt lat="45.1006595" lon="1.2412416"><ele>165.0</ele><time>2026-04-02T08:28:02.953Z</time></trkpt><trkpt lat="45.1005795" lon="1.2412611"><ele>168.0</ele><time>2026-04-02T08:28:03.953Z</time></trkpt><trkpt lat="45.1004949" lon="1.2412614"><ele>171.0</ele><time>2026-04-02T08:28:04.952Z</time></trkpt><trkpt lat="45.1003782" lon="1.241256"><ele>174.0</ele><time>2026-04-02T08:28:06.953Z</time></trkpt><trkpt lat="45.1002686" lon="1.2412429"><ele>177.0</ele><time>2026-04-02T08:28:08.953Z</time></trkpt><trkpt lat="45.1001641" lon="1.2412482"><ele>180.0</ele><time>2026-04-02T08:28:10.952Z</time></trkpt><trkpt lat="45.1000448" lon="1.2412319"><ele>180.0</ele><time>2026-04-02T08:28:12.952Z</time></trkpt><trkpt lat="45.0999639" lon="1.2412874"><ele>180.0</ele><time>2026-04-02T08:28:14.952Z</time></trkpt><trkpt lat="45.0998706" lon="1.2412701"><ele>180.0</ele><time>2026-04-02T08:28:16.952Z</time></trkpt><trkpt lat="45.0997567" lon="1.2411914"><ele>180.0</ele><time>2026-04-02T08:28:18.952Z</time></trkpt><trkpt lat="45.0996953" lon="1.2411511"><ele>180.0</ele><time>2026-04-02T08:28:19.951Z</time></trkpt><trkpt lat="45.0996421" lon="1.2410317"><ele>183.16666666666666</ele><time>2026-04-02T08:28:21.952Z</time></trkpt><trkpt lat="45.099641" lon="1.240926"><ele>186.33333333333331</ele><time>2026-04-02T08:28:23.952Z</time></trkpt><trkpt lat="45.0996206" lon="1.2408407"><ele>189.5</ele><time>2026-04-02T08:28:25.952Z</time></trkpt><trkpt lat="45.0995649" lon="1.2407619"><ele>192.66666666666666</ele><time>2026-04-02T08:28:27.952Z</time></trkpt><trkpt lat="45.0994762" lon="1.2407878"><ele>195.83333333333331</ele><time>2026-04-02T08:28:30.952Z</time></trkpt><trkpt lat="45.0993882" lon="1.2408778"><ele>199.0</ele><time>2026-04-02T08:28:32.952Z</time></trkpt><trkpt lat="45.0993325" lon="1.2409341"><ele>198.99999999999997</ele><time>2026-04-02T08:28:33.951Z</time></trkpt><trkpt lat="45.0992373" lon="1.2410355"><ele>199.0</ele><time>2026-04-02T08:28:35.952Z</time></trkpt><trkpt lat="45.0991607" lon="1.2410133"><ele>199.0</ele><time>2026-04-02T08:28:37.952Z</time></trkpt><trkpt lat="45.0991551" lon="1.2409044"><ele>199.0</ele><time>2026-04-02T08:28:39.952Z</time></trkpt><trkpt lat="45.0991285" lon="1.2407904"><ele>198.99999999999997</ele><time>2026-04-02T08:28:41.953Z</time></trkpt><trkpt lat="45.0990621" lon="1.2407074"><ele>199.0</ele><time>2026-04-02T08:28:43.952Z</time></trkpt><trkpt lat="45.0989759" lon="1.2406972"><ele>201.39999999999998</ele><time>2026-04-02T08:28:45.952Z</time></trkpt><trkpt lat="45.0989102" lon="1.2408014"><ele>203.8</ele><time>2026-04-02T08:28:47.953Z</time></trkpt><trkpt lat="45.0988611" lon="1.2408944"><ele>206.2</ele><time>2026-04-02T08:28:49.952Z</time></trkpt><trkpt lat="45.0988026" lon="1.2409807"><ele>208.60000000000002</ele><time>2026-04-02T08:28:51.952Z</time></trkpt><trkpt lat="45.0987428" lon="1.2410732"><ele>211.0</ele><time>2026-04-02T08:28:53.953Z</time></trkpt><trkpt lat="45.0986551" lon="1.2411752"><ele>211.0</ele><time>2026-04-02T08:28:55.953Z</time></trkpt><trkpt lat="45.0985761" lon="1.2412924"><ele>211.0</ele><time>2026-04-02T08:28:57.952Z</time></trkpt><trkpt lat="45.0985255" lon="1.2414458"><ele>211.0</ele><time>2026-04-02T08:28:59.952Z</time></trkpt><trkpt lat="45.0984542" lon="1.2415312"><ele>211.0</ele><time>2026-04-02T08:29:01.953Z</time></trkpt><trkpt lat="45.0983986" lon="1.2415811"><ele>211.0</ele><time>2026-04-02T08:29:03.953Z</time></trkpt><trkpt lat="45.0983131" lon="1.2416605"><ele>211.8</ele><time>2026-04-02T08:29:06.953Z</time></trkpt><trkpt lat="45.0982184" lon="1.2417762"><ele>212.60000000000002</ele><time>2026-04-02T08:29:08.952Z</time></trkpt><trkpt lat="45.0981645" lon="1.2418253"><ele>213.4</ele><time>2026-04-02T08:29:09.953Z</time></trkpt><trkpt lat="45.0980722" lon="1.2418496"><ele>214.2</ele><time>2026-04-02T08:29:11.952Z</time></trkpt><trkpt lat="45.09801" lon="1.241934"><ele>215.0</ele><time>2026-04-02T08:29:14.953Z</time></trkpt><trkpt lat="45.097938" lon="1.2419968"><ele>215.0</ele><time>2026-04-02T08:29:16.953Z</time></trkpt><trkpt lat="45.0978674" lon="1.2420545"><ele>215.0</ele><time>2026-04-02T08:29:18.952Z</time></trkpt><trkpt lat="45.0978172" lon="1.2421903"><ele>215.0</ele><time>2026-04-02T08:29:20.951Z</time></trkpt><trkpt lat="45.0977361" lon="1.2423124"><ele>215.0</ele><time>2026-04-02T08:29:22.953Z</time></trkpt><trkpt lat="45.0976708" lon="1.2424344"><ele>215.0</ele><time>2026-04-02T08:29:24.952Z</time></trkpt><trkpt lat="45.0975816" lon="1.2425306"><ele>215.0</ele><time>2026-04-02T08:29:26.953Z</time></trkpt><trkpt lat="45.0974698" lon="1.2425894"><ele>215.0</ele><time>2026-04-02T08:29:28.952Z</time></trkpt><trkpt lat="45.0973632" lon="1.2426654"><ele>215.0</ele><time>2026-04-02T08:29:30.952Z</time></trkpt><trkpt lat="45.0973168" lon="1.2427335"><ele>215.0</ele><time>2026-04-02T08:29:31.953Z</time></trkpt><trkpt lat="45.0972814" lon="1.2428162"><ele>215.0</ele><time>2026-04-02T08:29:32.952Z</time></trkpt><trkpt lat="45.0972363" lon="1.242964"><ele>215.0</ele><time>2026-04-02T08:29:34.953Z</time></trkpt><trkpt lat="45.0971624" lon="1.2430544"><ele>215.0</ele><time>2026-04-02T08:29:36.952Z</time></trkpt><trkpt lat="45.0970695" lon="1.2430532"><ele>215.0</ele><time>2026-04-02T08:29:38.953Z</time></trkpt><trkpt lat="45.0969936" lon="1.2431332"><ele>215.0</ele><time>2026-04-02T08:29:40.951Z</time></trkpt><trkpt lat="45.0969895" lon="1.2432772"><ele>215.0</ele><time>2026-04-02T08:29:42.951Z</time></trkpt><trkpt lat="45.0970303" lon="1.2434498"><ele>215.28571428571428</ele><time>2026-04-02T08:29:44.953Z</time></trkpt><trkpt lat="45.097042" lon="1.243539"><ele>215.57142857142858</ele><time>2026-04-02T08:29:45.953Z</time></trkpt><trkpt lat="45.0970431" lon="1.243636"><ele>215.85714285714286</ele><time>2026-04-02T08:29:46.953Z</time></trkpt><trkpt lat="45.0970307" lon="1.2437265"><ele>216.14285714285714</ele><time>2026-04-02T08:29:47.952Z</time></trkpt><trkpt lat="45.096966" lon="1.2438604"><ele>216.42857142857144</ele><time>2026-04-02T08:29:49.952Z</time></trkpt><trkpt lat="45.0969113" lon="1.2439047"><ele>216.71428571428572</ele><time>2026-04-02T08:29:50.953Z</time></trkpt><trkpt lat="45.0968473" lon="1.2439396"><ele>217.0</ele><time>2026-04-02T08:29:51.952Z</time></trkpt><trkpt lat="45.0967766" lon="1.2439552"><ele>216.83333333333331</ele><time>2026-04-02T08:29:52.952Z</time></trkpt><trkpt lat="45.0967088" lon="1.2439795"><ele>216.66666666666666</ele><time>2026-04-02T08:29:53.952Z</time></trkpt><trkpt lat="45.0966357" lon="1.2440335"><ele>216.5</ele><time>2026-04-02T08:29:54.952Z</time></trkpt><trkpt lat="45.09657" lon="1.2440979"><ele>216.33333333333331</ele><time>2026-04-02T08:29:55.951Z</time></trkpt><trkpt lat="45.0965069" lon="1.244153"><ele>216.16666666666666</ele><time>2026-04-02T08:29:56.952Z</time></trkpt><trkpt lat="45.0964238" lon="1.2442627"><ele>216.0</ele><time>2026-04-02T08:29:58.953Z</time></trkpt><trkpt lat="45.096404" lon="1.2443486"><ele>216.0</ele><time>2026-04-02T08:29:59.953Z</time></trkpt><trkpt lat="45.0963893" lon="1.2444495"><ele>216.0</ele><time>2026-04-02T08:30:00.952Z</time></trkpt><trkpt lat="45.0963693" lon="1.2445425"><ele>216.0</ele><time>2026-04-02T08:30:01.953Z</time></trkpt><trkpt lat="45.0963359" lon="1.2446282"><ele>216.0</ele><time>2026-04-02T08:30:02.953Z</time></trkpt><trkpt lat="45.0962303" lon="1.2447309"><ele>216.0</ele><time>2026-04-02T08:30:04.952Z</time></trkpt><trkpt lat="45.0961662" lon="1.2447562"><ele>216.0</ele><time>2026-04-02T08:30:05.952Z</time></trkpt><trkpt lat="45.096099" lon="1.2448012"><ele>217.0</ele><time>2026-04-02T08:30:06.953Z</time></trkpt><trkpt lat="45.0960288" lon="1.2448457"><ele>218.0</ele><time>2026-04-02T08:30:07.952Z</time></trkpt><trkpt lat="45.0959584" lon="1.2448778"><ele>219.0</ele><time>2026-04-02T08:30:08.952Z</time></trkpt><trkpt lat="45.0958997" lon="1.2449247"><ele>220.0</ele><time>2026-04-02T08:30:09.953Z</time></trkpt><trkpt lat="45.0958472" lon="1.2449862"><ele>221.0</ele><time>2026-04-02T08:30:10.952Z</time></trkpt><trkpt lat="45.0958162" lon="1.2450688"><ele>222.0</ele><time>2026-04-02T08:30:11.952Z</time></trkpt><trkpt lat="45.0958026" lon="1.2451625"><ele>223.0</ele><time>2026-04-02T08:30:12.953Z</time></trkpt><trkpt lat="45.0957984" lon="1.245255"><ele>222.99999999999997</ele><time>2026-04-02T08:30:13.952Z</time></trkpt><trkpt lat="45.0958114" lon="1.2453546"><ele>223.0</ele><time>2026-04-02T08:30:14.952Z</time></trkpt><trkpt lat="45.0958346" lon="1.245442"><ele>223.0</ele><time>2026-04-02T08:30:15.952Z</time></trkpt><trkpt lat="45.0958867" lon="1.2455732"><ele>223.0</ele><time>2026-04-02T08:30:17.952Z</time></trkpt><trkpt lat="45.0959013" lon="1.2456705"><ele>222.99999999999997</ele><time>2026-04-02T08:30:19.952Z</time></trkpt><trkpt lat="45.095819" lon="1.2457705"><ele>223.0</ele><time>2026-04-02T08:30:21.953Z</time></trkpt><trkpt lat="45.0957585" lon="1.2458211"><ele>223.66666666666666</ele><time>2026-04-02T08:30:22.953Z</time></trkpt><trkpt lat="45.0956983" lon="1.2458799"><ele>224.33333333333331</ele><time>2026-04-02T08:30:23.951Z</time></trkpt><trkpt lat="45.0956472" lon="1.2459551"><ele>225.0</ele><time>2026-04-02T08:30:24.952Z</time></trkpt><trkpt lat="45.0956008" lon="1.2460606"><ele>225.66666666666669</ele><time>2026-04-02T08:30:25.952Z</time></trkpt><trkpt lat="45.0955427" lon="1.246165"><ele>226.33333333333334</ele><time>2026-04-02T08:30:26.953Z</time></trkpt><trkpt lat="45.09547" lon="1.2462419"><ele>227.0</ele><time>2026-04-02T08:30:27.952Z</time></trkpt><trkpt lat="45.0954106" lon="1.2463168"><ele>227.00000000000003</ele><time>2026-04-02T08:30:28.952Z</time></trkpt><trkpt lat="45.095387" lon="1.2464072"><ele>227.0</ele><time>2026-04-02T08:30:29.952Z</time></trkpt><trkpt lat="45.0954431" lon="1.2465642"><ele>227.0</ele><time>2026-04-02T08:30:31.952Z</time></trkpt><trkpt lat="45.0954859" lon="1.2466449"><ele>227.0</ele><time>2026-04-02T08:30:32.951Z</time></trkpt><trkpt lat="45.0955096" lon="1.2467431"><ele>227.00000000000003</ele><time>2026-04-02T08:30:33.951Z</time></trkpt><trkpt lat="45.0955117" lon="1.2468827"><ele>227.0</ele><time>2026-04-02T08:30:34.952Z</time></trkpt><trkpt lat="45.0954919" lon="1.2470227"><ele>227.8</ele><time>2026-04-02T08:30:35.952Z</time></trkpt><trkpt lat="45.0954564" lon="1.2471686"><ele>228.6</ele><time>2026-04-02T08:30:36.953Z</time></trkpt><trkpt lat="45.0954089" lon="1.247306"><ele>229.40000000000003</ele><time>2026-04-02T08:30:37.953Z</time></trkpt><trkpt lat="45.0953493" lon="1.2474288"><ele>230.20000000000002</ele><time>2026-04-02T08:30:38.952Z</time></trkpt><trkpt lat="45.0952828" lon="1.2475426"><ele>231.0</ele><time>2026-04-02T08:30:39.954Z</time></trkpt><trkpt lat="45.0952171" lon="1.2476441"><ele>232.0</ele><time>2026-04-02T08:30:40.953Z</time></trkpt><trkpt lat="45.0951486" lon="1.2477216"><ele>233.00000000000003</ele><time>2026-04-02T08:30:41.953Z</time></trkpt><trkpt lat="45.0950633" lon="1.2477584"><ele>234.00000000000003</ele><time>2026-04-02T08:30:42.954Z</time></trkpt><trkpt lat="45.0949789" lon="1.2477783"><ele>235.0</ele><time>2026-04-02T08:30:43.953Z</time></trkpt><trkpt lat="45.0948879" lon="1.2478163"><ele>236.0</ele><time>2026-04-02T08:30:44.954Z</time></trkpt><trkpt lat="45.0947915" lon="1.2478713"><ele>236.0</ele><time>2026-04-02T08:30:45.954Z</time></trkpt><trkpt lat="45.094709" lon="1.2479253"><ele>236.00000000000003</ele><time>2026-04-02T08:30:46.953Z</time></trkpt><trkpt lat="45.0946179" lon="1.2479782"><ele>236.00000000000003</ele><time>2026-04-02T08:30:47.954Z</time></trkpt><trkpt lat="45.0945295" lon="1.2480264"><ele>236.0</ele><time>2026-04-02T08:30:48.954Z</time></trkpt><trkpt lat="45.0944447" lon="1.2480558"><ele>236.0</ele><time>2026-04-02T08:30:49.954Z</time></trkpt><trkpt lat="45.0943572" lon="1.2480583"><ele>236.00000000000003</ele><time>2026-04-02T08:30:50.954Z</time></trkpt><trkpt lat="45.0942698" lon="1.2480661"><ele>236.0</ele><time>2026-04-02T08:30:51.954Z</time></trkpt><trkpt lat="45.0941767" lon="1.2480833"><ele>236.0</ele><time>2026-04-02T08:30:52.952Z</time></trkpt><trkpt lat="45.0940861" lon="1.2481041"><ele>236.0</ele><time>2026-04-02T08:30:53.952Z</time></trkpt><trkpt lat="45.0940056" lon="1.2481244"><ele>236.00000000000003</ele><time>2026-04-02T08:30:54.952Z</time></trkpt><trkpt lat="45.0939425" lon="1.2481298"><ele>236.0</ele><time>2026-04-02T08:30:55.953Z</time></trkpt><trkpt lat="45.0938576" lon="1.2480703"><ele>236.4</ele><time>2026-04-02T08:30:59.953Z</time></trkpt><trkpt lat="45.0938267" lon="1.2479898"><ele>236.8</ele><time>2026-04-02T08:31:01.954Z</time></trkpt><trkpt lat="45.0938172" lon="1.2479011"><ele>237.20000000000002</ele><time>2026-04-02T08:31:04.952Z</time></trkpt><trkpt lat="45.0938469" lon="1.2480319"><ele>237.60000000000002</ele><time>2026-04-02T08:31:07.954Z</time></trkpt><trkpt lat="45.0938721" lon="1.2481766"><ele>238.0</ele><time>2026-04-02T08:31:09.953Z</time></trkpt><trkpt lat="45.0938211" lon="1.2483386"><ele>237.0</ele><time>2026-04-02T08:31:11.954Z</time></trkpt><trkpt lat="45.0937524" lon="1.2484268"><ele>236.0</ele><time>2026-04-02T08:31:13.953Z</time></trkpt><trkpt lat="45.0936415" lon="1.2485058"><ele>235.0</ele><time>2026-04-02T08:31:16.953Z</time></trkpt><trkpt lat="45.0935611" lon="1.248526"><ele>234.0</ele><time>2026-04-02T08:31:17.952Z</time></trkpt><trkpt lat="45.0934739" lon="1.2485312"><ele>233.0</ele><time>2026-04-02T08:31:18.953Z</time></trkpt><trkpt lat="45.0933764" lon="1.2485277"><ele>233.0</ele><time>2026-04-02T08:31:19.953Z</time></trkpt><trkpt lat="45.0932748" lon="1.2485193"><ele>233.0</ele><time>2026-04-02T08:31:20.952Z</time></trkpt><trkpt lat="45.0931736" lon="1.2485222"><ele>233.0</ele><time>2026-04-02T08:31:21.952Z</time></trkpt><trkpt lat="45.0930741" lon="1.2485406"><ele>233.0</ele><time>2026-04-02T08:31:22.953Z</time></trkpt><trkpt lat="45.092982" lon="1.2485664"><ele>233.0</ele><time>2026-04-02T08:31:23.954Z</time></trkpt><trkpt lat="45.0929114" lon="1.248614"><ele>232.4</ele><time>2026-04-02T08:31:24.952Z</time></trkpt><trkpt lat="45.0928617" lon="1.2486947"><ele>231.8</ele><time>2026-04-02T08:31:25.954Z</time></trkpt><trkpt lat="45.0927923" lon="1.2488371"><ele>231.2</ele><time>2026-04-02T08:31:27.953Z</time></trkpt><trkpt lat="45.0926767" lon="1.248928"><ele>230.6</ele><time>2026-04-02T08:31:29.954Z</time></trkpt><trkpt lat="45.0926172" lon="1.2489902"><ele>230.0</ele><time>2026-04-02T08:31:30.953Z</time></trkpt><trkpt lat="45.0925715" lon="1.2490645"><ele>229.00000000000003</ele><time>2026-04-02T08:31:31.954Z</time></trkpt><trkpt lat="45.0925336" lon="1.2491508"><ele>228.0</ele><time>2026-04-02T08:31:32.953Z</time></trkpt><trkpt lat="45.0924852" lon="1.2492091"><ele>227.0</ele><time>2026-04-02T08:31:33.953Z</time></trkpt><trkpt lat="45.0924194" lon="1.249261"><ele>226.0</ele><time>2026-04-02T08:31:34.954Z</time></trkpt><trkpt lat="45.0923617" lon="1.2493344"><ele>225.00000000000003</ele><time>2026-04-02T08:31:35.954Z</time></trkpt><trkpt lat="45.0923144" lon="1.2494342"><ele>224.0</ele><time>2026-04-02T08:31:36.954Z</time></trkpt><trkpt lat="45.092269" lon="1.2495582"><ele>224.0</ele><time>2026-04-02T08:31:37.953Z</time></trkpt><trkpt lat="45.0922295" lon="1.2496985"><ele>223.99999999999997</ele><time>2026-04-02T08:31:38.953Z</time></trkpt><trkpt lat="45.0921936" lon="1.2498434"><ele>223.99999999999997</ele><time>2026-04-02T08:31:39.954Z</time></trkpt><trkpt lat="45.0921453" lon="1.2499946"><ele>224.0</ele><time>2026-04-02T08:31:40.954Z</time></trkpt><trkpt lat="45.0921064" lon="1.2501415"><ele>224.0</ele><time>2026-04-02T08:31:41.954Z</time></trkpt><trkpt lat="45.0920835" lon="1.2503001"><ele>222.2</ele><time>2026-04-02T08:31:42.953Z</time></trkpt><trkpt lat="45.0920885" lon="1.2504516"><ele>220.39999999999998</ele><time>2026-04-02T08:31:43.953Z</time></trkpt><trkpt lat="45.092085" lon="1.2506005"><ele>218.6</ele><time>2026-04-02T08:31:44.954Z</time></trkpt><trkpt lat="45.0920789" lon="1.2507557"><ele>216.8</ele><time>2026-04-02T08:31:45.952Z</time></trkpt><trkpt lat="45.0920766" lon="1.2509027"><ele>215.0</ele><time>2026-04-02T08:31:46.954Z</time></trkpt><trkpt lat="45.0920733" lon="1.2510456"><ele>213.4</ele><time>2026-04-02T08:31:47.953Z</time></trkpt><trkpt lat="45.0920497" lon="1.251184"><ele>211.8</ele><time>2026-04-02T08:31:48.953Z</time></trkpt><trkpt lat="45.0920166" lon="1.2513208"><ele>210.2</ele><time>2026-04-02T08:31:49.953Z</time></trkpt><trkpt lat="45.0919921" lon="1.2514657"><ele>208.6</ele><time>2026-04-02T08:31:50.952Z</time></trkpt><trkpt lat="45.0919662" lon="1.2516102"><ele>207.0</ele><time>2026-04-02T08:31:51.953Z</time></trkpt><trkpt lat="45.0919376" lon="1.2517588"><ele>204.8</ele><time>2026-04-02T08:31:52.952Z</time></trkpt><trkpt lat="45.091908" lon="1.2519154"><ele>202.6</ele><time>2026-04-02T08:31:53.953Z</time></trkpt><trkpt lat="45.0918783" lon="1.2520714"><ele>200.4</ele><time>2026-04-02T08:31:54.953Z</time></trkpt><trkpt lat="45.0918532" lon="1.2522299"><ele>198.20000000000002</ele><time>2026-04-02T08:31:55.953Z</time></trkpt><trkpt lat="45.0918492" lon="1.2523759"><ele>196.0</ele><time>2026-04-02T08:31:56.953Z</time></trkpt><trkpt lat="45.0918431" lon="1.2525156"><ele>193.4</ele><time>2026-04-02T08:31:57.954Z</time></trkpt><trkpt lat="45.0918137" lon="1.2526442"><ele>190.8</ele><time>2026-04-02T08:31:58.954Z</time></trkpt><trkpt lat="45.0917701" lon="1.252765"><ele>188.20000000000002</ele><time>2026-04-02T08:31:59.953Z</time></trkpt><trkpt lat="45.0917313" lon="1.2528885"><ele>185.60000000000002</ele><time>2026-04-02T08:32:00.953Z</time></trkpt><trkpt lat="45.0917016" lon="1.2530124"><ele>183.0</ele><time>2026-04-02T08:32:01.954Z</time></trkpt><trkpt lat="45.0916577" lon="1.2531254"><ele>181.60000000000002</ele><time>2026-04-02T08:32:02.954Z</time></trkpt><trkpt lat="45.0916033" lon="1.2532374"><ele>180.20000000000002</ele><time>2026-04-02T08:32:03.953Z</time></trkpt><trkpt lat="45.0915436" lon="1.2533563"><ele>178.8</ele><time>2026-04-02T08:32:04.952Z</time></trkpt><trkpt lat="45.0914802" lon="1.2534711"><ele>177.4</ele><time>2026-04-02T08:32:05.953Z</time></trkpt><trkpt lat="45.0914175" lon="1.2535859"><ele>176.0</ele><time>2026-04-02T08:32:06.953Z</time></trkpt><trkpt lat="45.0913647" lon="1.2537116"><ele>176.0</ele><time>2026-04-02T08:32:07.954Z</time></trkpt><trkpt lat="45.0913192" lon="1.2538402"><ele>176.0</ele><time>2026-04-02T08:32:08.954Z</time></trkpt><trkpt lat="45.0912862" lon="1.2539811"><ele>176.0</ele><time>2026-04-02T08:32:09.953Z</time></trkpt><trkpt lat="45.0912724" lon="1.2541241"><ele>176.0</ele><time>2026-04-02T08:32:10.953Z</time></trkpt><trkpt lat="45.0912738" lon="1.2542753"><ele>176.0</ele><time>2026-04-02T08:32:11.954Z</time></trkpt><trkpt lat="45.0912807" lon="1.2544112"><ele>173.4</ele><time>2026-04-02T08:32:12.953Z</time></trkpt><trkpt lat="45.0913039" lon="1.254541"><ele>170.8</ele><time>2026-04-02T08:32:13.953Z</time></trkpt><trkpt lat="45.0913367" lon="1.2546724"><ele>168.20000000000002</ele><time>2026-04-02T08:32:14.953Z</time></trkpt><trkpt lat="45.091363" lon="1.2548029"><ele>165.60000000000002</ele><time>2026-04-02T08:32:15.954Z</time></trkpt><trkpt lat="45.0913927" lon="1.2549332"><ele>163.0</ele><time>2026-04-02T08:32:16.954Z</time></trkpt><trkpt lat="45.0914249" lon="1.2550633"><ele>160.6</ele><time>2026-04-02T08:32:17.952Z</time></trkpt><trkpt lat="45.09145" lon="1.2551956"><ele>158.20000000000002</ele><time>2026-04-02T08:32:18.954Z</time></trkpt><trkpt lat="45.0914771" lon="1.2553339"><ele>155.8</ele><time>2026-04-02T08:32:19.953Z</time></trkpt><trkpt lat="45.0915088" lon="1.2554767"><ele>153.4</ele><time>2026-04-02T08:32:20.953Z</time></trkpt><trkpt lat="45.0915461" lon="1.2556226"><ele>151.0</ele><time>2026-04-02T08:32:21.954Z</time></trkpt><trkpt lat="45.0915851" lon="1.2557736"><ele>150.2</ele><time>2026-04-02T08:32:22.954Z</time></trkpt><trkpt lat="45.0916257" lon="1.2559279"><ele>149.39999999999998</ele><time>2026-04-02T08:32:23.953Z</time></trkpt><trkpt lat="45.0916603" lon="1.2560792"><ele>148.6</ele><time>2026-04-02T08:32:24.953Z</time></trkpt><trkpt lat="45.091694" lon="1.2562283"><ele>147.79999999999998</ele><time>2026-04-02T08:32:25.953Z</time></trkpt><trkpt lat="45.0917357" lon="1.2563686"><ele>147.0</ele><time>2026-04-02T08:32:26.953Z</time></trkpt><trkpt lat="45.0917764" lon="1.2565021"><ele>145.83333333333334</ele><time>2026-04-02T08:32:27.953Z</time></trkpt><trkpt lat="45.0918066" lon="1.2566375"><ele>144.66666666666666</ele><time>2026-04-02T08:32:28.954Z</time></trkpt><trkpt lat="45.0918304" lon="1.256764"><ele>143.5</ele><time>2026-04-02T08:32:29.953Z</time></trkpt><trkpt lat="45.0918337" lon="1.2568654"><ele>142.33333333333331</ele><time>2026-04-02T08:32:30.953Z</time></trkpt><trkpt lat="45.0918041" lon="1.2569456"><ele>141.16666666666666</ele><time>2026-04-02T08:32:31.952Z</time></trkpt><trkpt lat="45.0917489" lon="1.2570174"><ele>140.0</ele><time>2026-04-02T08:32:32.953Z</time></trkpt><trkpt lat="45.0916776" lon="1.2570731"><ele>139.8</ele><time>2026-04-02T08:32:33.953Z</time></trkpt><trkpt lat="45.0915857" lon="1.2571244"><ele>139.6</ele><time>2026-04-02T08:32:34.954Z</time></trkpt><trkpt lat="45.0914993" lon="1.2571821"><ele>139.4</ele><time>2026-04-02T08:32:35.953Z</time></trkpt><trkpt lat="45.0914444" lon="1.2572368"><ele>139.2</ele><time>2026-04-02T08:32:36.954Z</time></trkpt><trkpt lat="45.0914016" lon="1.2573598"><ele>139.0</ele><time>2026-04-02T08:32:38.953Z</time></trkpt><trkpt lat="45.0914518" lon="1.2575325"><ele>138.2</ele><time>2026-04-02T08:32:40.953Z</time></trkpt><trkpt lat="45.0915048" lon="1.2576321"><ele>137.4</ele><time>2026-04-02T08:32:41.953Z</time></trkpt><trkpt lat="45.0915668" lon="1.2577549"><ele>136.6</ele><time>2026-04-02T08:32:42.953Z</time></trkpt><trkpt lat="45.0916325" lon="1.2578868"><ele>135.8</ele><time>2026-04-02T08:32:43.954Z</time></trkpt><trkpt lat="45.0916987" lon="1.2580272"><ele>135.0</ele><time>2026-04-02T08:32:44.954Z</time></trkpt><trkpt lat="45.0917666" lon="1.2581747"><ele>131.5</ele><time>2026-04-02T08:32:45.954Z</time></trkpt><trkpt lat="45.0918379" lon="1.2583179"><ele>128.0</ele><time>2026-04-02T08:32:46.954Z</time></trkpt><trkpt lat="45.0919051" lon="1.2584642"><ele>124.5</ele><time>2026-04-02T08:32:47.954Z</time></trkpt><trkpt lat="45.0919695" lon="1.2586067"><ele>121.0</ele><time>2026-04-02T08:32:48.954Z</time></trkpt><trkpt lat="45.0920197" lon="1.258737"><ele>121.0</ele><time>2026-04-02T08:32:49.954Z</time></trkpt><trkpt lat="45.0920611" lon="1.2588688"><ele>121.0</ele><time>2026-04-02T08:32:50.954Z</time></trkpt><trkpt lat="45.0921108" lon="1.2589931"><ele>121.0</ele><time>2026-04-02T08:32:51.953Z</time></trkpt><trkpt lat="45.0921657" lon="1.2591075"><ele>121.0</ele><time>2026-04-02T08:32:52.953Z</time></trkpt><trkpt lat="45.0922149" lon="1.2592167"><ele>121.0</ele><time>2026-04-02T08:32:53.953Z</time></trkpt><trkpt lat="45.092251" lon="1.2593057"><ele>119.66666666666667</ele><time>2026-04-02T08:32:54.953Z</time></trkpt><trkpt lat="45.0922814" lon="1.2594171"><ele>118.33333333333334</ele><time>2026-04-02T08:32:56.954Z</time></trkpt><trkpt lat="45.0922353" lon="1.2594797"><ele>117.0</ele><time>2026-04-02T08:32:58.954Z</time></trkpt><trkpt lat="45.0921649" lon="1.2595069"><ele>115.66666666666666</ele><time>2026-04-02T08:32:59.953Z</time></trkpt><trkpt lat="45.0920742" lon="1.2595377"><ele>114.33333333333333</ele><time>2026-04-02T08:33:00.953Z</time></trkpt><trkpt lat="45.0919636" lon="1.2595785"><ele>113.0</ele><time>2026-04-02T08:33:01.954Z</time></trkpt><trkpt lat="45.0918333" lon="1.2596315"><ele>113.0</ele><time>2026-04-02T08:33:02.953Z</time></trkpt><trkpt lat="45.0916986" lon="1.2596808"><ele>113.0</ele><time>2026-04-02T08:33:03.953Z</time></trkpt><trkpt lat="45.0915635" lon="1.2597313"><ele>113.0</ele><time>2026-04-02T08:33:04.953Z</time></trkpt><trkpt lat="45.0914313" lon="1.2597886"><ele>113.0</ele><time>2026-04-02T08:33:05.952Z</time></trkpt><trkpt lat="45.0913012" lon="1.2598612"><ele>113.25</ele><time>2026-04-02T08:33:06.953Z</time></trkpt><trkpt lat="45.0911744" lon="1.2599523"><ele>113.5</ele><time>2026-04-02T08:33:07.953Z</time></trkpt><trkpt lat="45.091054" lon="1.2600648"><ele>113.75</ele><time>2026-04-02T08:33:08.953Z</time></trkpt><trkpt lat="45.0909388" lon="1.2601905"><ele>114.0</ele><time>2026-04-02T08:33:09.954Z</time></trkpt><trkpt lat="45.0908346" lon="1.2603348"><ele>115.33333333333334</ele><time>2026-04-02T08:33:10.954Z</time></trkpt><trkpt lat="45.090736" lon="1.2605021"><ele>116.66666666666667</ele><time>2026-04-02T08:33:11.953Z</time></trkpt><trkpt lat="45.0906409" lon="1.2606847"><ele>118.0</ele><time>2026-04-02T08:33:12.953Z</time></trkpt><trkpt lat="45.0905482" lon="1.2608716"><ele>118.0</ele><time>2026-04-02T08:33:13.952Z</time></trkpt><trkpt lat="45.0904601" lon="1.2610512"><ele>118.0</ele><time>2026-04-02T08:33:14.953Z</time></trkpt><trkpt lat="45.0903718" lon="1.2612245"><ele>118.0</ele><time>2026-04-02T08:33:15.953Z</time></trkpt><trkpt lat="45.0902846" lon="1.2614024"><ele>116.66666666666667</ele><time>2026-04-02T08:33:16.954Z</time></trkpt><trkpt lat="45.0901937" lon="1.2615862"><ele>115.33333333333334</ele><time>2026-04-02T08:33:17.954Z</time></trkpt><trkpt lat="45.0900973" lon="1.2617762"><ele>114.0</ele><time>2026-04-02T08:33:18.954Z</time></trkpt><trkpt lat="45.089998" lon="1.2619656"><ele>115.0</ele><time>2026-04-02T08:33:19.954Z</time></trkpt><trkpt lat="45.0898971" lon="1.2621496"><ele>116.0</ele><time>2026-04-02T08:33:20.954Z</time></trkpt><trkpt lat="45.0897963" lon="1.2623291"><ele>117.0</ele><time>2026-04-02T08:33:21.952Z</time></trkpt><trkpt lat="45.0896947" lon="1.2625194"><ele>117.0</ele><time>2026-04-02T08:33:22.953Z</time></trkpt><trkpt lat="45.0895962" lon="1.2627104"><ele>117.0</ele><time>2026-04-02T08:33:23.954Z</time></trkpt><trkpt lat="45.0894949" lon="1.262902"><ele>117.0</ele><time>2026-04-02T08:33:24.953Z</time></trkpt><trkpt lat="45.0893891" lon="1.2630947"><ele>118.0</ele><time>2026-04-02T08:33:25.954Z</time></trkpt><trkpt lat="45.0892802" lon="1.2632864"><ele>119.0</ele><time>2026-04-02T08:33:26.953Z</time></trkpt><trkpt lat="45.0891709" lon="1.2634794"><ele>120.0</ele><time>2026-04-02T08:33:27.954Z</time></trkpt><trkpt lat="45.0890561" lon="1.2636808"><ele>120.0</ele><time>2026-04-02T08:33:28.954Z</time></trkpt><trkpt lat="45.0889423" lon="1.2638761"><ele>120.0</ele><time>2026-04-02T08:33:29.953Z</time></trkpt><trkpt lat="45.0888259" lon="1.2640646"><ele>120.0</ele><time>2026-04-02T08:33:30.953Z</time></trkpt><trkpt lat="45.0887129" lon="1.2642591"><ele>119.0</ele><time>2026-04-02T08:33:31.952Z</time></trkpt><trkpt lat="45.0885998" lon="1.2644499"><ele>118.0</ele><time>2026-04-02T08:33:32.952Z</time></trkpt><trkpt lat="45.0884879" lon="1.2646364"><ele>117.0</ele><time>2026-04-02T08:33:33.953Z</time></trkpt><trkpt lat="45.088377" lon="1.2648201"><ele>115.66666666666666</ele><time>2026-04-02T08:33:34.954Z</time></trkpt><trkpt lat="45.0882693" lon="1.2650057"><ele>114.33333333333333</ele><time>2026-04-02T08:33:35.953Z</time></trkpt><trkpt lat="45.0881614" lon="1.2651871"><ele>113.0</ele><time>2026-04-02T08:33:36.954Z</time></trkpt><trkpt lat="45.0880558" lon="1.2653668"><ele>114.66666666666666</ele><time>2026-04-02T08:33:37.953Z</time></trkpt><trkpt lat="45.087948" lon="1.2655485"><ele>116.33333333333334</ele><time>2026-04-02T08:33:38.952Z</time></trkpt><trkpt lat="45.0878404" lon="1.2657316"><ele>118.0</ele><time>2026-04-02T08:33:39.953Z</time></trkpt><trkpt lat="45.0877334" lon="1.2659168"><ele>118.0</ele><time>2026-04-02T08:33:40.954Z</time></trkpt><trkpt lat="45.0876241" lon="1.2660999"><ele>118.0</ele><time>2026-04-02T08:33:41.954Z</time></trkpt><trkpt lat="45.0875171" lon="1.2662757"><ele>118.0</ele><time>2026-04-02T08:33:42.954Z</time></trkpt><trkpt lat="45.0874178" lon="1.2664442"><ele>120.5</ele><time>2026-04-02T08:33:43.953Z</time></trkpt><trkpt lat="45.087323" lon="1.266599"><ele>123.0</ele><time>2026-04-02T08:33:44.954Z</time></trkpt><trkpt lat="45.0872338" lon="1.2667463"><ele>125.5</ele><time>2026-04-02T08:33:45.954Z</time></trkpt><trkpt lat="45.0871515" lon="1.2668824"><ele>128.0</ele><time>2026-04-02T08:33:46.953Z</time></trkpt><trkpt lat="45.0870742" lon="1.2670163"><ele>128.0</ele><time>2026-04-02T08:33:47.954Z</time></trkpt><trkpt lat="45.0870008" lon="1.267147"><ele>128.0</ele><time>2026-04-02T08:33:48.954Z</time></trkpt><trkpt lat="45.0869306" lon="1.2672767"><ele>128.0</ele><time>2026-04-02T08:33:49.954Z</time></trkpt><trkpt lat="45.0868599" lon="1.2673993"><ele>128.0</ele><time>2026-04-02T08:33:50.953Z</time></trkpt><trkpt lat="45.0867843" lon="1.267522"><ele>127.33333333333333</ele><time>2026-04-02T08:33:51.953Z</time></trkpt><trkpt lat="45.0867105" lon="1.2676373"><ele>126.66666666666666</ele><time>2026-04-02T08:33:52.954Z</time></trkpt><trkpt lat="45.0866376" lon="1.2677444"><ele>126.0</ele><time>2026-04-02T08:33:53.953Z</time></trkpt><trkpt lat="45.0865761" lon="1.2678317"><ele>125.33333333333334</ele><time>2026-04-02T08:33:54.954Z</time></trkpt><trkpt lat="45.0865198" lon="1.2679053"><ele>124.66666666666667</ele><time>2026-04-02T08:33:55.953Z</time></trkpt><trkpt lat="45.0864686" lon="1.2679663"><ele>124.0</ele><time>2026-04-02T08:33:56.953Z</time></trkpt><trkpt lat="45.0863944" lon="1.2680666"><ele>122.16666666666667</ele><time>2026-04-02T08:33:58.954Z</time></trkpt><trkpt lat="45.0863837" lon="1.2681593"><ele>120.33333333333334</ele><time>2026-04-02T08:34:00.953Z</time></trkpt><trkpt lat="45.0864464" lon="1.2681689"><ele>118.5</ele><time>2026-04-02T08:34:04.953Z</time></trkpt><trkpt lat="45.0863737" lon="1.2681115"><ele>116.66666666666666</ele><time>2026-04-02T08:34:18.953Z</time></trkpt><trkpt lat="45.0862574" lon="1.2681916"><ele>114.83333333333333</ele><time>2026-04-02T08:34:20.953Z</time></trkpt><trkpt lat="45.0861929" lon="1.2682361"><ele>113.0</ele><time>2026-04-02T08:34:21.953Z</time></trkpt><trkpt lat="45.0860975" lon="1.2682806"><ele>112.99999999999999</ele><time>2026-04-02T08:34:23.954Z</time></trkpt><trkpt lat="45.0860246" lon="1.268305"><ele>113.0</ele><time>2026-04-02T08:34:26.953Z</time></trkpt><trkpt lat="45.0860742" lon="1.268446"><ele>113.0</ele><time>2026-04-02T08:34:32.954Z</time></trkpt><trkpt lat="45.0861276" lon="1.2684986"><ele>113.0</ele><time>2026-04-02T08:34:33.954Z</time></trkpt><trkpt lat="45.0861952" lon="1.2685487"><ele>112.99999999999999</ele><time>2026-04-02T08:34:34.953Z</time></trkpt><trkpt lat="45.0862688" lon="1.2686004"><ele>113.0</ele><time>2026-04-02T08:34:35.953Z</time></trkpt><trkpt lat="45.0863511" lon="1.2686572"><ele>113.0</ele><time>2026-04-02T08:34:36.953Z</time></trkpt><trkpt lat="45.0864389" lon="1.2687223"><ele>113.00000000000001</ele><time>2026-04-02T08:34:37.952Z</time></trkpt><trkpt lat="45.0865306" lon="1.2687893"><ele>113.00000000000001</ele><time>2026-04-02T08:34:38.953Z</time></trkpt><trkpt lat="45.0866243" lon="1.2688497"><ele>113.0</ele><time>2026-04-02T08:34:39.953Z</time></trkpt><trkpt lat="45.0867168" lon="1.2689036"><ele>113.0</ele><time>2026-04-02T08:34:40.953Z</time></trkpt><trkpt lat="45.0868092" lon="1.2689611"><ele>112.80000000000001</ele><time>2026-04-02T08:34:41.953Z</time></trkpt><trkpt lat="45.0869013" lon="1.2690202"><ele>112.60000000000001</ele><time>2026-04-02T08:34:42.954Z</time></trkpt><trkpt lat="45.086993" lon="1.2690812"><ele>112.39999999999999</ele><time>2026-04-02T08:34:43.954Z</time></trkpt><trkpt lat="45.0870832" lon="1.2691527"><ele>112.19999999999999</ele><time>2026-04-02T08:34:44.954Z</time></trkpt><trkpt lat="45.0871709" lon="1.2692355"><ele>112.0</ele><time>2026-04-02T08:34:45.954Z</time></trkpt><trkpt lat="45.0872521" lon="1.2693324"><ele>112.0</ele><time>2026-04-02T08:34:46.954Z</time></trkpt><trkpt lat="45.0873261" lon="1.269437"><ele>111.99999999999999</ele><time>2026-04-02T08:34:47.954Z</time></trkpt><trkpt lat="45.0873969" lon="1.2695442"><ele>111.99999999999999</ele><time>2026-04-02T08:34:48.954Z</time></trkpt><trkpt lat="45.087465" lon="1.2696482"><ele>112.0</ele><time>2026-04-02T08:34:49.954Z</time></trkpt><trkpt lat="45.0875339" lon="1.2697517"><ele>112.0</ele><time>2026-04-02T08:34:50.953Z</time></trkpt><trkpt lat="45.0876056" lon="1.2698545"><ele>111.8</ele><time>2026-04-02T08:34:51.953Z</time></trkpt><trkpt lat="45.0876759" lon="1.2699616"><ele>111.6</ele><time>2026-04-02T08:34:52.952Z</time></trkpt><trkpt lat="45.0877447" lon="1.2700637"><ele>111.39999999999999</ele><time>2026-04-02T08:34:53.953Z</time></trkpt><trkpt lat="45.0878121" lon="1.2701694"><ele>111.19999999999999</ele><time>2026-04-02T08:34:54.953Z</time></trkpt><trkpt lat="45.0878772" lon="1.2702717"><ele>111.0</ele><time>2026-04-02T08:34:55.955Z</time></trkpt><trkpt lat="45.087939" lon="1.2703718"><ele>111.0</ele><time>2026-04-02T08:34:56.955Z</time></trkpt><trkpt lat="45.088001" lon="1.2704719"><ele>111.0</ele><time>2026-04-02T08:34:57.955Z</time></trkpt><trkpt lat="45.0880599" lon="1.2705651"><ele>111.0</ele><time>2026-04-02T08:34:58.954Z</time></trkpt><trkpt lat="45.0881149" lon="1.2706454"><ele>111.0</ele><time>2026-04-02T08:34:59.954Z</time></trkpt><trkpt lat="45.0881555" lon="1.2707161"><ele>111.0</ele><time>2026-04-02T08:35:00.954Z</time></trkpt><trkpt lat="45.0881364" lon="1.2708678"><ele>111.0</ele><time>2026-04-02T08:35:02.954Z</time></trkpt><trkpt lat="45.0880784" lon="1.2709717"><ele>111.5</ele><time>2026-04-02T08:35:03.954Z</time></trkpt><trkpt lat="45.0880097" lon="1.2710863"><ele>112.0</ele><time>2026-04-02T08:35:04.954Z</time></trkpt><trkpt lat="45.0879408" lon="1.2712167"><ele>112.5</ele><time>2026-04-02T08:35:05.954Z</time></trkpt><trkpt lat="45.0878736" lon="1.2713614"><ele>113.0</ele><time>2026-04-02T08:35:06.954Z</time></trkpt><trkpt lat="45.0877975" lon="1.2715262"><ele>113.0</ele><time>2026-04-02T08:35:07.955Z</time></trkpt><trkpt lat="45.0877292" lon="1.2716683"><ele>113.0</ele><time>2026-04-02T08:35:08.955Z</time></trkpt><trkpt lat="45.0876569" lon="1.2718066"><ele>113.0</ele><time>2026-04-02T08:35:09.955Z</time></trkpt><trkpt lat="45.0875911" lon="1.2719384"><ele>113.0</ele><time>2026-04-02T08:35:10.953Z</time></trkpt><trkpt lat="45.087542" lon="1.2720853"><ele>113.0</ele><time>2026-04-02T08:35:11.954Z</time></trkpt><trkpt lat="45.087502" lon="1.2722587"><ele>113.0</ele><time>2026-04-02T08:35:12.954Z</time></trkpt><trkpt lat="45.087454" lon="1.2724628"><ele>113.0</ele><time>2026-04-02T08:35:13.954Z</time></trkpt><trkpt lat="45.087412" lon="1.2726729"><ele>113.0</ele><time>2026-04-02T08:35:14.954Z</time></trkpt><trkpt lat="45.0873889" lon="1.2728903"><ele>119.0</ele><time>2026-04-02T08:35:15.954Z</time></trkpt><trkpt lat="45.0873644" lon="1.2731146"><ele>125.0</ele><time>2026-04-02T08:35:16.954Z</time></trkpt><trkpt lat="45.0873561" lon="1.2733372"><ele>131.0</ele><time>2026-04-02T08:35:17.955Z</time></trkpt><trkpt lat="45.0873749" lon="1.2735867"><ele>131.0</ele><time>2026-04-02T08:35:18.955Z</time></trkpt><trkpt lat="45.0874025" lon="1.27386"><ele>131.0</ele><time>2026-04-02T08:35:19.955Z</time></trkpt><trkpt lat="45.0874242" lon="1.2741115"><ele>131.0</ele><time>2026-04-02T08:35:20.955Z</time></trkpt><trkpt lat="45.0874415" lon="1.2743333"><ele>131.0</ele><time>2026-04-02T08:35:21.955Z</time></trkpt><trkpt lat="45.0874758" lon="1.2745401"><ele>131.0</ele><time>2026-04-02T08:35:22.954Z</time></trkpt><trkpt lat="45.087542" lon="1.2747441"><ele>131.0</ele><time>2026-04-02T08:35:23.953Z</time></trkpt><trkpt lat="45.0876128" lon="1.274936"><ele>131.25</ele><time>2026-04-02T08:35:24.954Z</time></trkpt><trkpt lat="45.087683" lon="1.2751143"><ele>131.5</ele><time>2026-04-02T08:35:25.955Z</time></trkpt><trkpt lat="45.0877427" lon="1.2752837"><ele>131.75</ele><time>2026-04-02T08:35:26.955Z</time></trkpt><trkpt lat="45.0877956" lon="1.2754447"><ele>132.0</ele><time>2026-04-02T08:35:27.955Z</time></trkpt><trkpt lat="45.0878403" lon="1.275608"><ele>133.2</ele><time>2026-04-02T08:35:28.955Z</time></trkpt><trkpt lat="45.0878863" lon="1.2757622"><ele>134.39999999999998</ele><time>2026-04-02T08:35:29.955Z</time></trkpt><trkpt lat="45.0879295" lon="1.2758965"><ele>135.60000000000002</ele><time>2026-04-02T08:35:30.955Z</time></trkpt><trkpt lat="45.087965" lon="1.2760102"><ele>136.8</ele><time>2026-04-02T08:35:31.955Z</time></trkpt><trkpt lat="45.0879912" lon="1.2761067"><ele>138.0</ele><time>2026-04-02T08:35:32.955Z</time></trkpt><trkpt lat="45.0879784" lon="1.2762564"><ele>138.0</ele><time>2026-04-02T08:35:34.954Z</time></trkpt><trkpt lat="45.0879385" lon="1.2763272"><ele>138.0</ele><time>2026-04-02T08:35:35.954Z</time></trkpt><trkpt lat="45.0878919" lon="1.276409"><ele>138.0</ele><time>2026-04-02T08:35:36.954Z</time></trkpt><trkpt lat="45.0878522" lon="1.2764885"><ele>138.0</ele><time>2026-04-02T08:35:37.955Z</time></trkpt><trkpt lat="45.0878644" lon="1.2766433"><ele>138.0</ele><time>2026-04-02T08:35:39.953Z</time></trkpt><trkpt lat="45.0879341" lon="1.2768053"><ele>140.16666666666666</ele><time>2026-04-02T08:35:41.954Z</time></trkpt><trkpt lat="45.0879779" lon="1.2769029"><ele>142.33333333333334</ele><time>2026-04-02T08:35:42.954Z</time></trkpt><trkpt lat="45.0880172" lon="1.2770103"><ele>144.5</ele><time>2026-04-02T08:35:43.955Z</time></trkpt><trkpt lat="45.0880561" lon="1.2771201"><ele>146.66666666666669</ele><time>2026-04-02T08:35:44.954Z</time></trkpt><trkpt lat="45.0880906" lon="1.2772311"><ele>148.83333333333334</ele><time>2026-04-02T08:35:45.955Z</time></trkpt><trkpt lat="45.0881219" lon="1.2773516"><ele>151.0</ele><time>2026-04-02T08:35:46.954Z</time></trkpt><trkpt lat="45.0881377" lon="1.2774616"><ele>150.5</ele><time>2026-04-02T08:35:47.955Z</time></trkpt><trkpt lat="45.0881563" lon="1.2775704"><ele>150.0</ele><time>2026-04-02T08:35:48.955Z</time></trkpt><trkpt lat="45.0881787" lon="1.2776858"><ele>149.5</ele><time>2026-04-02T08:35:49.955Z</time></trkpt><trkpt lat="45.0881966" lon="1.2777894"><ele>149.0</ele><time>2026-04-02T08:35:50.953Z</time></trkpt><trkpt lat="45.0882146" lon="1.2778837"><ele>148.5</ele><time>2026-04-02T08:35:51.954Z</time></trkpt><trkpt lat="45.0882872" lon="1.2779951"><ele>148.0</ele><time>2026-04-02T08:35:53.954Z</time></trkpt><trkpt lat="45.0883831" lon="1.278123"><ele>150.5</ele><time>2026-04-02T08:35:55.955Z</time></trkpt><trkpt lat="45.0884279" lon="1.2782067"><ele>153.0</ele><time>2026-04-02T08:35:56.955Z</time></trkpt><trkpt lat="45.0884417" lon="1.2783145"><ele>155.5</ele><time>2026-04-02T08:35:57.955Z</time></trkpt><trkpt lat="45.0884574" lon="1.2784066"><ele>158.0</ele><time>2026-04-02T08:35:58.954Z</time></trkpt><trkpt lat="45.0884652" lon="1.2785069"><ele>160.5</ele><time>2026-04-02T08:35:59.954Z</time></trkpt><trkpt lat="45.0883649" lon="1.2786056"><ele>163.0</ele><time>2026-04-02T08:36:01.953Z</time></trkpt><trkpt lat="45.0882965" lon="1.2786382"><ele>165.16666666666669</ele><time>2026-04-02T08:36:02.955Z</time></trkpt><trkpt lat="45.0882317" lon="1.2786907"><ele>167.33333333333334</ele><time>2026-04-02T08:36:03.954Z</time></trkpt><trkpt lat="45.088166" lon="1.2787625"><ele>169.5</ele><time>2026-04-02T08:36:04.954Z</time></trkpt><trkpt lat="45.0880894" lon="1.2788348"><ele>171.66666666666666</ele><time>2026-04-02T08:36:05.953Z</time></trkpt><trkpt lat="45.0880064" lon="1.2788824"><ele>173.83333333333331</ele><time>2026-04-02T08:36:06.954Z</time></trkpt><trkpt lat="45.0879169" lon="1.2789322"><ele>176.0</ele><time>2026-04-02T08:36:07.955Z</time></trkpt><trkpt lat="45.0878414" lon="1.2790027"><ele>177.16666666666666</ele><time>2026-04-02T08:36:08.955Z</time></trkpt><trkpt lat="45.0877758" lon="1.2790915"><ele>178.33333333333331</ele><time>2026-04-02T08:36:09.955Z</time></trkpt><trkpt lat="45.0877091" lon="1.2791483"><ele>179.5</ele><time>2026-04-02T08:36:10.955Z</time></trkpt><trkpt lat="45.0876355" lon="1.2792032"><ele>180.66666666666666</ele><time>2026-04-02T08:36:11.955Z</time></trkpt><trkpt lat="45.0875886" lon="1.279264"><ele>181.83333333333334</ele><time>2026-04-02T08:36:12.955Z</time></trkpt><trkpt lat="45.087549" lon="1.2793552"><ele>183.0</ele><time>2026-04-02T08:36:13.953Z</time></trkpt><trkpt lat="45.0875389" lon="1.2794435"><ele>183.0</ele><time>2026-04-02T08:36:14.954Z</time></trkpt><trkpt lat="45.0875288" lon="1.2795505"><ele>183.0</ele><time>2026-04-02T08:36:15.955Z</time></trkpt><trkpt lat="45.0874938" lon="1.2796478"><ele>183.0</ele><time>2026-04-02T08:36:16.954Z</time></trkpt><trkpt lat="45.0874392" lon="1.2797637"><ele>183.0</ele><time>2026-04-02T08:36:17.953Z</time></trkpt><trkpt lat="45.08739" lon="1.2798959"><ele>183.0</ele><time>2026-04-02T08:36:18.954Z</time></trkpt><trkpt lat="45.087359" lon="1.2800232"><ele>186.2</ele><time>2026-04-02T08:36:19.954Z</time></trkpt><trkpt lat="45.0873159" lon="1.2801375"><ele>189.4</ele><time>2026-04-02T08:36:20.954Z</time></trkpt><trkpt lat="45.0872635" lon="1.2802501"><ele>192.6</ele><time>2026-04-02T08:36:21.954Z</time></trkpt><trkpt lat="45.087198" lon="1.2803457"><ele>195.79999999999998</ele><time>2026-04-02T08:36:22.954Z</time></trkpt><trkpt lat="45.087116" lon="1.2804375"><ele>199.0</ele><time>2026-04-02T08:36:23.954Z</time></trkpt><trkpt lat="45.0870217" lon="1.280532"><ele>198.2</ele><time>2026-04-02T08:36:24.954Z</time></trkpt><trkpt lat="45.0869219" lon="1.2806089"><ele>197.39999999999998</ele><time>2026-04-02T08:36:25.955Z</time></trkpt><trkpt lat="45.0868252" lon="1.2806847"><ele>196.6</ele><time>2026-04-02T08:36:26.954Z</time></trkpt><trkpt lat="45.0867381" lon="1.2807677"><ele>195.8</ele><time>2026-04-02T08:36:27.955Z</time></trkpt><trkpt lat="45.0866897" lon="1.2808634"><ele>195.0</ele><time>2026-04-02T08:36:28.955Z</time></trkpt><trkpt lat="45.0866426" lon="1.280955"><ele>195.0</ele><time>2026-04-02T08:36:29.955Z</time></trkpt><trkpt lat="45.0866054" lon="1.281056"><ele>195.0</ele><time>2026-04-02T08:36:30.955Z</time></trkpt><trkpt lat="45.0865847" lon="1.2811555"><ele>195.0</ele><time>2026-04-02T08:36:31.954Z</time></trkpt><trkpt lat="45.0865966" lon="1.2812474"><ele>195.0</ele><time>2026-04-02T08:36:32.954Z</time></trkpt><trkpt lat="45.0866262" lon="1.281385"><ele>195.0</ele><time>2026-04-02T08:36:33.953Z</time></trkpt><trkpt lat="45.0866299" lon="1.2815069"><ele>195.0</ele><time>2026-04-02T08:36:34.954Z</time></trkpt><trkpt lat="45.0866449" lon="1.2816392"><ele>195.0</ele><time>2026-04-02T08:36:35.954Z</time></trkpt><trkpt lat="45.0866783" lon="1.2817757"><ele>195.0</ele><time>2026-04-02T08:36:36.954Z</time></trkpt><trkpt lat="45.0867191" lon="1.2819164"><ele>195.0</ele><time>2026-04-02T08:36:37.954Z</time></trkpt><trkpt lat="45.0867511" lon="1.2820494"><ele>195.0</ele><time>2026-04-02T08:36:38.954Z</time></trkpt><trkpt lat="45.0867857" lon="1.2821974"><ele>195.0</ele><time>2026-04-02T08:36:39.954Z</time></trkpt><trkpt lat="45.0868135" lon="1.2823334"><ele>196.16666666666666</ele><time>2026-04-02T08:36:40.954Z</time></trkpt><trkpt lat="45.0868456" lon="1.2824452"><ele>197.33333333333331</ele><time>2026-04-02T08:36:41.954Z</time></trkpt><trkpt lat="45.0868699" lon="1.2825474"><ele>198.5</ele><time>2026-04-02T08:36:42.954Z</time></trkpt><trkpt lat="45.0868818" lon="1.2826375"><ele>199.66666666666666</ele><time>2026-04-02T08:36:43.955Z</time></trkpt><trkpt lat="45.0868742" lon="1.2827409"><ele>200.83333333333331</ele><time>2026-04-02T08:36:44.954Z</time></trkpt><trkpt lat="45.0868801" lon="1.2828604"><ele>202.0</ele><time>2026-04-02T08:36:45.955Z</time></trkpt><trkpt lat="45.0868922" lon="1.2830044"><ele>203.25</ele><time>2026-04-02T08:36:46.955Z</time></trkpt><trkpt lat="45.086895" lon="1.2831557"><ele>204.5</ele><time>2026-04-02T08:36:47.955Z</time></trkpt><trkpt lat="45.086904" lon="1.2833109"><ele>205.75</ele><time>2026-04-02T08:36:48.954Z</time></trkpt><trkpt lat="45.0869157" lon="1.2834839"><ele>207.0</ele><time>2026-04-02T08:36:49.954Z</time></trkpt><trkpt lat="45.0869303" lon="1.2836633"><ele>207.0</ele><time>2026-04-02T08:36:50.953Z</time></trkpt><trkpt lat="45.0869378" lon="1.2838206"><ele>207.0</ele><time>2026-04-02T08:36:51.954Z</time></trkpt><trkpt lat="45.0869465" lon="1.2839627"><ele>207.0</ele><time>2026-04-02T08:36:52.955Z</time></trkpt><trkpt lat="45.0869604" lon="1.2841003"><ele>207.0</ele><time>2026-04-02T08:36:53.955Z</time></trkpt><trkpt lat="45.0869572" lon="1.2842363"><ele>207.0</ele><time>2026-04-02T08:36:54.954Z</time></trkpt><trkpt lat="45.0869378" lon="1.2843816"><ele>207.6</ele><time>2026-04-02T08:36:55.954Z</time></trkpt><trkpt lat="45.0869205" lon="1.2845301"><ele>208.2</ele><time>2026-04-02T08:36:56.954Z</time></trkpt><trkpt lat="45.0869104" lon="1.2846771"><ele>208.8</ele><time>2026-04-02T08:36:57.954Z</time></trkpt><trkpt lat="45.0869088" lon="1.284832"><ele>209.4</ele><time>2026-04-02T08:36:58.953Z</time></trkpt><trkpt lat="45.0869197" lon="1.284992"><ele>210.0</ele><time>2026-04-02T08:36:59.954Z</time></trkpt><trkpt lat="45.0869423" lon="1.2851565"><ele>211.5</ele><time>2026-04-02T08:37:00.954Z</time></trkpt><trkpt lat="45.0869606" lon="1.2853229"><ele>213.0</ele><time>2026-04-02T08:37:01.954Z</time></trkpt><trkpt lat="45.0869697" lon="1.2854964"><ele>214.5</ele><time>2026-04-02T08:37:02.954Z</time></trkpt><trkpt lat="45.0869693" lon="1.2856748"><ele>216.0</ele><time>2026-04-02T08:37:03.955Z</time></trkpt><trkpt lat="45.0869596" lon="1.2858508"><ele>216.5</ele><time>2026-04-02T08:37:04.955Z</time></trkpt><trkpt lat="45.0869406" lon="1.2860381"><ele>217.0</ele><time>2026-04-02T08:37:05.954Z</time></trkpt><trkpt lat="45.0869211" lon="1.2862276"><ele>217.5</ele><time>2026-04-02T08:37:06.953Z</time></trkpt><trkpt lat="45.0869016" lon="1.2864121"><ele>218.0</ele><time>2026-04-02T08:37:07.954Z</time></trkpt><trkpt lat="45.0868884" lon="1.286591"><ele>218.5</ele><time>2026-04-02T08:37:08.955Z</time></trkpt><trkpt lat="45.0868941" lon="1.2867726"><ele>219.0</ele><time>2026-04-02T08:37:09.955Z</time></trkpt><trkpt lat="45.0869171" lon="1.2869586"><ele>219.5</ele><time>2026-04-02T08:37:10.955Z</time></trkpt><trkpt lat="45.0869355" lon="1.2871436"><ele>220.0</ele><time>2026-04-02T08:37:11.955Z</time></trkpt><trkpt lat="45.0869342" lon="1.28733"><ele>220.5</ele><time>2026-04-02T08:37:12.955Z</time></trkpt><trkpt lat="45.0869134" lon="1.2875069"><ele>221.0</ele><time>2026-04-02T08:37:13.955Z</time></trkpt><trkpt lat="45.0868951" lon="1.2876763"><ele>221.5</ele><time>2026-04-02T08:37:14.954Z</time></trkpt><trkpt lat="45.0868965" lon="1.287842"><ele>222.0</ele><time>2026-04-02T08:37:15.955Z</time></trkpt><trkpt lat="45.0869061" lon="1.2880262"><ele>222.5</ele><time>2026-04-02T08:37:16.955Z</time></trkpt><trkpt lat="45.0869168" lon="1.2882029"><ele>223.0</ele><time>2026-04-02T08:37:17.953Z</time></trkpt><trkpt lat="45.0869095" lon="1.2883825"><ele>223.5</ele><time>2026-04-02T08:37:18.954Z</time></trkpt><trkpt lat="45.08691" lon="1.2885662"><ele>224.0</ele><time>2026-04-02T08:37:19.954Z</time></trkpt><trkpt lat="45.0869247" lon="1.2887583"><ele>225.25</ele><time>2026-04-02T08:37:20.955Z</time></trkpt><trkpt lat="45.0869536" lon="1.2889406"><ele>226.5</ele><time>2026-04-02T08:37:21.955Z</time></trkpt><trkpt lat="45.0869897" lon="1.2891159"><ele>227.75</ele><time>2026-04-02T08:37:22.954Z</time></trkpt><trkpt lat="45.0870363" lon="1.2892795"><ele>229.0</ele><time>2026-04-02T08:37:23.954Z</time></trkpt><trkpt lat="45.0870939" lon="1.2894317"><ele>229.0</ele><time>2026-04-02T08:37:24.955Z</time></trkpt><trkpt lat="45.0871429" lon="1.2895821"><ele>229.0</ele><time>2026-04-02T08:37:25.953Z</time></trkpt><trkpt lat="45.0871638" lon="1.2897424"><ele>229.0</ele><time>2026-04-02T08:37:26.955Z</time></trkpt><trkpt lat="45.0871741" lon="1.289916"><ele>229.0</ele><time>2026-04-02T08:37:27.955Z</time></trkpt><trkpt lat="45.0871866" lon="1.2900898"><ele>229.75</ele><time>2026-04-02T08:37:28.954Z</time></trkpt><trkpt lat="45.0871944" lon="1.2902709"><ele>230.5</ele><time>2026-04-02T08:37:29.953Z</time></trkpt><trkpt lat="45.0872023" lon="1.2904525"><ele>231.25</ele><time>2026-04-02T08:37:30.953Z</time></trkpt><trkpt lat="45.0872222" lon="1.29064"><ele>232.0</ele><time>2026-04-02T08:37:31.953Z</time></trkpt><trkpt lat="45.0872399" lon="1.2908301"><ele>232.25</ele><time>2026-04-02T08:37:32.954Z</time></trkpt><trkpt lat="45.087252" lon="1.2910195"><ele>232.5</ele><time>2026-04-02T08:37:33.955Z</time></trkpt><trkpt lat="45.0872592" lon="1.2912076"><ele>232.75</ele><time>2026-04-02T08:37:34.954Z</time></trkpt><trkpt lat="45.0872624" lon="1.291393"><ele>233.0</ele><time>2026-04-02T08:37:35.955Z</time></trkpt><trkpt lat="45.0872556" lon="1.2915617"><ele>233.0</ele><time>2026-04-02T08:37:36.954Z</time></trkpt><trkpt lat="45.087242" lon="1.2917233"><ele>233.0</ele><time>2026-04-02T08:37:37.954Z</time></trkpt><trkpt lat="45.087226" lon="1.2918755"><ele>233.0</ele><time>2026-04-02T08:37:38.955Z</time></trkpt><trkpt lat="45.0872104" lon="1.29203"><ele>233.0</ele><time>2026-04-02T08:37:39.955Z</time></trkpt><trkpt lat="45.0872232" lon="1.2921777"><ele>233.0</ele><time>2026-04-02T08:37:40.955Z</time></trkpt><trkpt lat="45.0872448" lon="1.2923081"><ele>233.50000000000003</ele><time>2026-04-02T08:37:41.954Z</time></trkpt><trkpt lat="45.0872535" lon="1.2924463"><ele>234.0</ele><time>2026-04-02T08:37:42.954Z</time></trkpt><trkpt lat="45.0872546" lon="1.2925842"><ele>234.5</ele><time>2026-04-02T08:37:43.955Z</time></trkpt><trkpt lat="45.0872515" lon="1.2926859"><ele>235.0</ele><time>2026-04-02T08:37:44.954Z</time></trkpt><trkpt lat="45.0872417" lon="1.2927887"><ele>235.50000000000003</ele><time>2026-04-02T08:37:46.954Z</time></trkpt><trkpt lat="45.0872279" lon="1.2928818"><ele>236.0</ele><time>2026-04-02T08:37:48.954Z</time></trkpt><trkpt lat="45.0872687" lon="1.2930537"><ele>235.25</ele><time>2026-04-02T08:37:50.953Z</time></trkpt><trkpt lat="45.0872984" lon="1.2931773"><ele>234.5</ele><time>2026-04-02T08:37:51.954Z</time></trkpt><trkpt lat="45.0873152" lon="1.293334"><ele>233.75</ele><time>2026-04-02T08:37:52.954Z</time></trkpt><trkpt lat="45.0873003" lon="1.2935104"><ele>233.0</ele><time>2026-04-02T08:37:53.954Z</time></trkpt><trkpt lat="45.0872644" lon="1.2936937"><ele>233.0</ele><time>2026-04-02T08:37:54.954Z</time></trkpt><trkpt lat="45.0872182" lon="1.2938822"><ele>233.0</ele><time>2026-04-02T08:37:55.954Z</time></trkpt><trkpt lat="45.0871749" lon="1.2940766"><ele>233.0</ele><time>2026-04-02T08:37:56.953Z</time></trkpt><trkpt lat="45.0871349" lon="1.2942726"><ele>233.0</ele><time>2026-04-02T08:37:57.953Z</time></trkpt><trkpt lat="45.0871003" lon="1.2944699"><ele>233.75</ele><time>2026-04-02T08:37:58.955Z</time></trkpt><trkpt lat="45.0870779" lon="1.2946639"><ele>234.5</ele><time>2026-04-02T08:37:59.954Z</time></trkpt><trkpt lat="45.0870685" lon="1.2948411"><ele>235.25</ele><time>2026-04-02T08:38:00.954Z</time></trkpt><trkpt lat="45.0870694" lon="1.2949968"><ele>236.0</ele><time>2026-04-02T08:38:01.953Z</time></trkpt><trkpt lat="45.0870753" lon="1.2951319"><ele>237.16666666666669</ele><time>2026-04-02T08:38:02.954Z</time></trkpt><trkpt lat="45.0870783" lon="1.2952452"><ele>238.33333333333334</ele><time>2026-04-02T08:38:03.955Z</time></trkpt><trkpt lat="45.0870636" lon="1.2953566"><ele>239.5</ele><time>2026-04-02T08:38:04.955Z</time></trkpt><trkpt lat="45.087031" lon="1.2954681"><ele>240.66666666666669</ele><time>2026-04-02T08:38:05.954Z</time></trkpt><trkpt lat="45.0869872" lon="1.29558"><ele>241.83333333333334</ele><time>2026-04-02T08:38:06.954Z</time></trkpt><trkpt lat="45.0869402" lon="1.295692"><ele>243.0</ele><time>2026-04-02T08:38:07.954Z</time></trkpt><trkpt lat="45.0868897" lon="1.2957974"><ele>243.5</ele><time>2026-04-02T08:38:08.954Z</time></trkpt><trkpt lat="45.0868401" lon="1.2959004"><ele>244.0</ele><time>2026-04-02T08:38:09.955Z</time></trkpt><trkpt lat="45.0867872" lon="1.295989"><ele>244.5</ele><time>2026-04-02T08:38:10.955Z</time></trkpt><trkpt lat="45.0867343" lon="1.2960799"><ele>245.0</ele><time>2026-04-02T08:38:11.954Z</time></trkpt><trkpt lat="45.086688" lon="1.2961714"><ele>245.5</ele><time>2026-04-02T08:38:12.955Z</time></trkpt><trkpt lat="45.0866644" lon="1.2962716"><ele>246.0</ele><time>2026-04-02T08:38:13.955Z</time></trkpt><trkpt lat="45.0866605" lon="1.2963755"><ele>245.8571428571429</ele><time>2026-04-02T08:38:14.954Z</time></trkpt><trkpt lat="45.0866568" lon="1.2964867"><ele>245.71428571428572</ele><time>2026-04-02T08:38:15.955Z</time></trkpt><trkpt lat="45.0866458" lon="1.29658"><ele>245.57142857142858</ele><time>2026-04-02T08:38:16.954Z</time></trkpt><trkpt lat="45.0866187" lon="1.2966612"><ele>245.42857142857144</ele><time>2026-04-02T08:38:17.955Z</time></trkpt><trkpt lat="45.0865686" lon="1.2967243"><ele>245.28571428571428</ele><time>2026-04-02T08:38:18.954Z</time></trkpt><trkpt lat="45.0865038" lon="1.2967676"><ele>245.14285714285714</ele><time>2026-04-02T08:38:19.955Z</time></trkpt><trkpt lat="45.0864431" lon="1.2968074"><ele>245.0</ele><time>2026-04-02T08:38:20.955Z</time></trkpt><trkpt lat="45.0863873" lon="1.2968509"><ele>244.16666666666669</ele><time>2026-04-02T08:38:21.955Z</time></trkpt><trkpt lat="45.0863209" lon="1.2969792"><ele>243.33333333333334</ele><time>2026-04-02T08:38:23.955Z</time></trkpt><trkpt lat="45.0863223" lon="1.2970726"><ele>242.5</ele><time>2026-04-02T08:38:24.954Z</time></trkpt><trkpt lat="45.0863448" lon="1.2971731"><ele>241.66666666666669</ele><time>2026-04-02T08:38:25.955Z</time></trkpt><trkpt lat="45.0863805" lon="1.2972747"><ele>240.83333333333334</ele><time>2026-04-02T08:38:26.955Z</time></trkpt><trkpt lat="45.0864315" lon="1.2973755"><ele>240.0</ele><time>2026-04-02T08:38:27.955Z</time></trkpt><trkpt lat="45.0864893" lon="1.2974708"><ele>240.0</ele><time>2026-04-02T08:38:28.955Z</time></trkpt><trkpt lat="45.0865505" lon="1.2975661"><ele>240.0</ele><time>2026-04-02T08:38:29.954Z</time></trkpt><trkpt lat="45.0866107" lon="1.2976619"><ele>240.0</ele><time>2026-04-02T08:38:30.955Z</time></trkpt><trkpt lat="45.0866795" lon="1.2977442"><ele>240.0</ele><time>2026-04-02T08:38:31.954Z</time></trkpt><trkpt lat="45.0867587" lon="1.297808"><ele>240.0</ele><time>2026-04-02T08:38:32.955Z</time></trkpt><trkpt lat="45.0868479" lon="1.297861"><ele>240.16666666666666</ele><time>2026-04-02T08:38:33.954Z</time></trkpt><trkpt lat="45.0869282" lon="1.2978935"><ele>240.33333333333331</ele><time>2026-04-02T08:38:34.955Z</time></trkpt><trkpt lat="45.0869943" lon="1.2979361"><ele>240.5</ele><time>2026-04-02T08:38:35.954Z</time></trkpt><trkpt lat="45.0870547" lon="1.2980166"><ele>240.66666666666666</ele><time>2026-04-02T08:38:36.954Z</time></trkpt><trkpt lat="45.0871099" lon="1.2981122"><ele>240.83333333333331</ele><time>2026-04-02T08:38:37.954Z</time></trkpt><trkpt lat="45.0871655" lon="1.2982111"><ele>241.0</ele><time>2026-04-02T08:38:38.955Z</time></trkpt><trkpt lat="45.0872061" lon="1.2983032"><ele>239.0</ele><time>2026-04-02T08:38:39.955Z</time></trkpt><trkpt lat="45.0872268" lon="1.2984123"><ele>237.00000000000003</ele><time>2026-04-02T08:38:40.955Z</time></trkpt><trkpt lat="45.0872241" lon="1.2985301"><ele>235.00000000000003</ele><time>2026-04-02T08:38:41.955Z</time></trkpt><trkpt lat="45.0871971" lon="1.2986519"><ele>233.0</ele><time>2026-04-02T08:38:42.955Z</time></trkpt><trkpt lat="45.0871567" lon="1.2987779"><ele>231.0</ele><time>2026-04-02T08:38:43.955Z</time></trkpt><trkpt lat="45.0871246" lon="1.2989151"><ele>228.20000000000002</ele><time>2026-04-02T08:38:44.954Z</time></trkpt><trkpt lat="45.0870918" lon="1.2990514"><ele>225.40000000000003</ele><time>2026-04-02T08:38:45.954Z</time></trkpt><trkpt lat="45.087056" lon="1.2991873"><ele>222.6</ele><time>2026-04-02T08:38:46.954Z</time></trkpt><trkpt lat="45.0870293" lon="1.2993202"><ele>219.8</ele><time>2026-04-02T08:38:47.954Z</time></trkpt><trkpt lat="45.087002" lon="1.2994314"><ele>217.0</ele><time>2026-04-02T08:38:48.955Z</time></trkpt><trkpt lat="45.0869377" lon="1.2995249"><ele>217.0</ele><time>2026-04-02T08:38:49.954Z</time></trkpt><trkpt lat="45.0868748" lon="1.2996188"><ele>217.0</ele><time>2026-04-02T08:38:50.955Z</time></trkpt><trkpt lat="45.0868083" lon="1.2996905"><ele>217.0</ele><time>2026-04-02T08:38:51.955Z</time></trkpt><trkpt lat="45.0867124" lon="1.2997404"><ele>217.0</ele><time>2026-04-02T08:38:52.953Z</time></trkpt><trkpt lat="45.0866175" lon="1.299795"><ele>217.0</ele><time>2026-04-02T08:38:53.954Z</time></trkpt><trkpt lat="45.0865169" lon="1.2998517"><ele>213.25</ele><time>2026-04-02T08:38:54.954Z</time></trkpt><trkpt lat="45.0864074" lon="1.2998968"><ele>209.5</ele><time>2026-04-02T08:38:55.953Z</time></trkpt><trkpt lat="45.0862934" lon="1.2999349"><ele>205.75</ele><time>2026-04-02T08:38:56.953Z</time></trkpt><trkpt lat="45.0861768" lon="1.2999894"><ele>202.0</ele><time>2026-04-02T08:38:57.954Z</time></trkpt><trkpt lat="45.0860577" lon="1.3000382"><ele>202.0</ele><time>2026-04-02T08:38:58.955Z</time></trkpt><trkpt lat="45.0859418" lon="1.3000903"><ele>202.0</ele><time>2026-04-02T08:38:59.954Z</time></trkpt><trkpt lat="45.0858291" lon="1.3001333"><ele>202.0</ele><time>2026-04-02T08:39:00.955Z</time></trkpt><trkpt lat="45.0857141" lon="1.3001605"><ele>202.0</ele><time>2026-04-02T08:39:01.954Z</time></trkpt><trkpt lat="45.0855883" lon="1.3001583"><ele>199.25</ele><time>2026-04-02T08:39:02.954Z</time></trkpt><trkpt lat="45.085467" lon="1.3001549"><ele>196.5</ele><time>2026-04-02T08:39:03.954Z</time></trkpt><trkpt lat="45.085346" lon="1.3001285"><ele>193.75</ele><time>2026-04-02T08:39:04.955Z</time></trkpt><trkpt lat="45.0852295" lon="1.3000803"><ele>191.0</ele><time>2026-04-02T08:39:05.955Z</time></trkpt><trkpt lat="45.0851096" lon="1.3000313"><ele>191.0</ele><time>2026-04-02T08:39:06.955Z</time></trkpt><trkpt lat="45.0849889" lon="1.2999837"><ele>191.0</ele><time>2026-04-02T08:39:07.955Z</time></trkpt><trkpt lat="45.0848611" lon="1.2999293"><ele>191.0</ele><time>2026-04-02T08:39:08.954Z</time></trkpt><trkpt lat="45.0847361" lon="1.2998626"><ele>191.0</ele><time>2026-04-02T08:39:09.954Z</time></trkpt><trkpt lat="45.0846006" lon="1.2997833"><ele>189.0</ele><time>2026-04-02T08:39:10.953Z</time></trkpt><trkpt lat="45.0844683" lon="1.2996975"><ele>187.0</ele><time>2026-04-02T08:39:11.955Z</time></trkpt><trkpt lat="45.0843249" lon="1.2995798"><ele>185.0</ele><time>2026-04-02T08:39:12.956Z</time></trkpt><trkpt lat="45.0841901" lon="1.2994594"><ele>184.75</ele><time>2026-04-02T08:39:13.955Z</time></trkpt><trkpt lat="45.0840605" lon="1.2993438"><ele>184.5</ele><time>2026-04-02T08:39:14.956Z</time></trkpt><trkpt lat="45.0839304" lon="1.2992254"><ele>184.25</ele><time>2026-04-02T08:39:15.956Z</time></trkpt><trkpt lat="45.0838142" lon="1.2991183"><ele>184.0</ele><time>2026-04-02T08:39:16.955Z</time></trkpt><trkpt lat="45.0837004" lon="1.2990058"><ele>181.75</ele><time>2026-04-02T08:39:17.956Z</time></trkpt><trkpt lat="45.0835959" lon="1.2988904"><ele>179.5</ele><time>2026-04-02T08:39:18.956Z</time></trkpt><trkpt lat="45.0834973" lon="1.2987777"><ele>177.25</ele><time>2026-04-02T08:39:19.956Z</time></trkpt><trkpt lat="45.0834257" lon="1.2986632"><ele>175.0</ele><time>2026-04-02T08:39:20.955Z</time></trkpt><trkpt lat="45.0833356" lon="1.2984953"><ele>175.0</ele><time>2026-04-02T08:39:21.956Z</time></trkpt><trkpt lat="45.0832365" lon="1.2983136"><ele>175.0</ele><time>2026-04-02T08:39:22.956Z</time></trkpt><trkpt lat="45.0831369" lon="1.2981444"><ele>175.0</ele><time>2026-04-02T08:39:23.954Z</time></trkpt><trkpt lat="45.0830493" lon="1.298"><ele>171.25</ele><time>2026-04-02T08:39:24.955Z</time></trkpt><trkpt lat="45.0829725" lon="1.2978572"><ele>167.5</ele><time>2026-04-02T08:39:25.954Z</time></trkpt><trkpt lat="45.0829004" lon="1.2977047"><ele>163.75</ele><time>2026-04-02T08:39:26.955Z</time></trkpt><trkpt lat="45.0828421" lon="1.2975744"><ele>160.0</ele><time>2026-04-02T08:39:27.956Z</time></trkpt><trkpt lat="45.0827864" lon="1.2974586"><ele>160.0</ele><time>2026-04-02T08:39:28.956Z</time></trkpt><trkpt lat="45.0827368" lon="1.2973849"><ele>160.0</ele><time>2026-04-02T08:39:29.956Z</time></trkpt><trkpt lat="45.0826849" lon="1.2973162"><ele>160.0</ele><time>2026-04-02T08:39:30.956Z</time></trkpt><trkpt lat="45.0826347" lon="1.2972522"><ele>160.0</ele><time>2026-04-02T08:39:31.956Z</time></trkpt><trkpt lat="45.08257" lon="1.2971894"><ele>160.0</ele><time>2026-04-02T08:39:33.955Z</time></trkpt><trkpt lat="45.082499" lon="1.2971488"><ele>160.0</ele><time>2026-04-02T08:39:36.956Z</time></trkpt><trkpt lat="45.0824178" lon="1.2971107"><ele>159.0</ele><time>2026-04-02T08:39:39.955Z</time></trkpt><trkpt lat="45.0823414" lon="1.2970868"><ele>158.0</ele><time>2026-04-02T08:39:42.954Z</time></trkpt><trkpt lat="45.0824221" lon="1.2971484"><ele>157.0</ele><time>2026-04-02T08:39:53.955Z</time></trkpt><trkpt lat="45.0825174" lon="1.2971907"><ele>156.0</ele><time>2026-04-02T08:39:55.955Z</time></trkpt><trkpt lat="45.082606" lon="1.2971542"><ele>155.0</ele><time>2026-04-02T08:39:58.955Z</time></trkpt><trkpt lat="45.082716" lon="1.2970816"><ele>157.66666666666666</ele><time>2026-04-02T08:40:00.956Z</time></trkpt><trkpt lat="45.0827822" lon="1.2970212"><ele>160.33333333333331</ele><time>2026-04-02T08:40:01.955Z</time></trkpt><trkpt lat="45.0828831" lon="1.296959"><ele>163.0</ele><time>2026-04-02T08:40:03.955Z</time></trkpt><trkpt lat="45.0829572" lon="1.297006"><ele>165.66666666666666</ele><time>2026-04-02T08:40:05.956Z</time></trkpt><trkpt lat="45.0829855" lon="1.2970882"><ele>168.33333333333334</ele><time>2026-04-02T08:42:50.955Z</time></trkpt><trkpt lat="45.0829252" lon="1.297045"><ele>171.0</ele><time>2026-04-02T08:43:08.955Z</time></trkpt><trkpt lat="45.0828648" lon="1.2970815"><ele>170.99999999999997</ele><time>2026-04-02T08:43:19.955Z</time></trkpt><trkpt lat="45.0827982" lon="1.2970704"><ele>171.0</ele><time>2026-04-02T08:43:58.956Z</time></trkpt><trkpt lat="45.0828505" lon="1.2970204"><ele>171.0</ele><time>2026-04-02T08:45:16.956Z</time></trkpt><trkpt lat="45.0829119" lon="1.29699"><ele>171.0</ele><time>2026-04-02T08:45:34.956Z</time></trkpt><trkpt lat="45.0829499" lon="1.2970718"><ele>171.0</ele><time>2026-04-02T08:46:35.956Z</time></trkpt><trkpt lat="45.0830145" lon="1.2971058"><ele>170.99999999999997</ele><time>2026-04-02T08:46:43.957Z</time></trkpt><trkpt lat="45.0830766" lon="1.2970595"><ele>171.0</ele><time>2026-04-02T08:47:03.957Z</time></trkpt><trkpt lat="45.083086" lon="1.2969609"><ele>171.0</ele><time>2026-04-02T08:47:08.957Z</time></trkpt><trkpt lat="45.0831421" lon="1.2968771"><ele>171.0</ele><time>2026-04-02T08:47:12.956Z</time></trkpt><trkpt lat="45.0832018" lon="1.2969443"><ele>171.0</ele><time>2026-04-02T08:47:37.956Z</time></trkpt><trkpt lat="45.083193" lon="1.2968513"><ele>171.0</ele><time>2026-04-02T08:47:46.956Z</time></trkpt><trkpt lat="45.0831855" lon="1.2967592"><ele>171.0</ele><time>2026-04-02T08:47:49.957Z</time></trkpt><trkpt lat="45.083257" lon="1.2966831"><ele>171.0</ele><time>2026-04-02T08:52:28.959Z</time></trkpt><trkpt lat="45.0832891" lon="1.296557"><ele>174.28571428571428</ele><time>2026-04-02T08:52:30.957Z</time></trkpt><trkpt lat="45.083317" lon="1.2964727"><ele>177.57142857142856</ele><time>2026-04-02T08:52:33.958Z</time></trkpt><trkpt lat="45.083381" lon="1.2964382"><ele>180.85714285714283</ele><time>2026-04-02T08:52:36.959Z</time></trkpt><trkpt lat="45.0833396" lon="1.2963633"><ele>184.14285714285714</ele><time>2026-04-02T08:54:06.959Z</time></trkpt><trkpt lat="45.083294" lon="1.2962426"><ele>187.42857142857144</ele><time>2026-04-02T08:54:09.958Z</time></trkpt><trkpt lat="45.0832317" lon="1.2962189"><ele>190.7142857142857</ele><time>2026-04-02T08:54:20.958Z</time></trkpt><trkpt lat="45.0831636" lon="1.2961626"><ele>194.0</ele><time>2026-04-02T08:54:27.958Z</time></trkpt><trkpt lat="45.0830938" lon="1.2961068"><ele>194.0</ele><time>2026-04-02T08:54:38.958Z</time></trkpt><trkpt lat="45.0830371" lon="1.2960516"><ele>194.0</ele><time>2026-04-02T08:54:51.958Z</time></trkpt><trkpt lat="45.0829687" lon="1.2960482"><ele>194.0</ele><time>2026-04-02T08:54:57.959Z</time></trkpt><trkpt lat="45.0829243" lon="1.295968"><ele>194.0</ele><time>2026-04-02T08:55:02.959Z</time></trkpt><trkpt lat="45.0828753" lon="1.2959033"><ele>194.0</ele><time>2026-04-02T08:55:06.958Z</time></trkpt><trkpt lat="45.0828451" lon="1.2957909"><ele>194.0</ele><time>2026-04-02T08:55:10.959Z</time></trkpt><trkpt lat="45.0827999" lon="1.2957239"><ele>194.0</ele><time>2026-04-02T08:55:29.959Z</time></trkpt><trkpt lat="45.0827858" lon="1.2955965"><ele>195.42857142857142</ele><time>2026-04-02T08:55:32.957Z</time></trkpt><trkpt lat="45.0827843" lon="1.2954968"><ele>196.85714285714286</ele><time>2026-04-02T08:55:34.958Z</time></trkpt><trkpt lat="45.0827665" lon="1.2953982"><ele>198.28571428571428</ele><time>2026-04-02T08:55:37.957Z</time></trkpt><trkpt lat="45.0828151" lon="1.2952996"><ele>199.71428571428572</ele><time>2026-04-02T08:55:40.959Z</time></trkpt><trkpt lat="45.0828289" lon="1.2951948"><ele>201.14285714285717</ele><time>2026-04-02T08:55:43.958Z</time></trkpt><trkpt lat="45.0828314" lon="1.2950917"><ele>202.57142857142858</ele><time>2026-04-02T08:55:45.959Z</time></trkpt><trkpt lat="45.0828568" lon="1.2950017"><ele>204.0</ele><time>2026-04-02T08:55:47.958Z</time></trkpt><trkpt lat="45.0829128" lon="1.2949552"><ele>204.0</ele><time>2026-04-02T08:55:49.958Z</time></trkpt><trkpt lat="45.0829775" lon="1.2949022"><ele>204.0</ele><time>2026-04-02T08:55:52.958Z</time></trkpt><trkpt lat="45.0829301" lon="1.2948338"><ele>204.0</ele><time>2026-04-02T08:57:57.959Z</time></trkpt><trkpt lat="45.0828576" lon="1.2947651"><ele>204.0</ele><time>2026-04-02T08:57:59.958Z</time></trkpt><trkpt lat="45.0828016" lon="1.294718"><ele>204.0</ele><time>2026-04-02T08:58:00.96Z</time></trkpt><trkpt lat="45.0826908" lon="1.294629"><ele>204.0</ele><time>2026-04-02T08:58:02.959Z</time></trkpt><trkpt lat="45.0825841" lon="1.2945448"><ele>203.33333333333334</ele><time>2026-04-02T08:58:04.96Z</time></trkpt><trkpt lat="45.0825195" lon="1.2944467"><ele>202.66666666666669</ele><time>2026-04-02T08:58:06.96Z</time></trkpt><trkpt lat="45.0824682" lon="1.2943194"><ele>202.0</ele><time>2026-04-02T08:58:08.959Z</time></trkpt><trkpt lat="45.082432" lon="1.2942407"><ele>201.33333333333334</ele><time>2026-04-02T08:58:09.959Z</time></trkpt><trkpt lat="45.082398" lon="1.2941649"><ele>200.66666666666669</ele><time>2026-04-02T08:58:10.96Z</time></trkpt><trkpt lat="45.0823708" lon="1.2940043"><ele>200.0</ele><time>2026-04-02T08:58:12.959Z</time></trkpt><trkpt lat="45.0823258" lon="1.2939018"><ele>198.2</ele><time>2026-04-02T08:58:14.959Z</time></trkpt><trkpt lat="45.0822404" lon="1.2937723"><ele>196.4</ele><time>2026-04-02T08:58:16.96Z</time></trkpt><trkpt lat="45.0821341" lon="1.2936674"><ele>194.60000000000002</ele><time>2026-04-02T08:58:18.96Z</time></trkpt><trkpt lat="45.0820893" lon="1.2935883"><ele>192.8</ele><time>2026-04-02T08:58:19.96Z</time></trkpt><trkpt lat="45.082044" lon="1.2934982"><ele>191.0</ele><time>2026-04-02T08:58:20.96Z</time></trkpt><trkpt lat="45.0819943" lon="1.2934038"><ele>191.0</ele><time>2026-04-02T08:58:21.958Z</time></trkpt><trkpt lat="45.0819355" lon="1.2933125"><ele>191.0</ele><time>2026-04-02T08:58:22.958Z</time></trkpt><trkpt lat="45.0818832" lon="1.2932293"><ele>191.0</ele><time>2026-04-02T08:58:23.959Z</time></trkpt><trkpt lat="45.0818539" lon="1.2931271"><ele>191.0</ele><time>2026-04-02T08:58:24.959Z</time></trkpt><trkpt lat="45.0818408" lon="1.2930266"><ele>191.0</ele><time>2026-04-02T08:58:25.959Z</time></trkpt><trkpt lat="45.08185" lon="1.2929152"><ele>191.0</ele><time>2026-04-02T08:58:26.96Z</time></trkpt><trkpt lat="45.0818613" lon="1.2928013"><ele>189.5</ele><time>2026-04-02T08:58:27.96Z</time></trkpt><trkpt lat="45.0818672" lon="1.2926829"><ele>188.0</ele><time>2026-04-02T08:58:28.959Z</time></trkpt><trkpt lat="45.0818795" lon="1.292571"><ele>186.5</ele><time>2026-04-02T08:58:29.958Z</time></trkpt><trkpt lat="45.0819032" lon="1.2924502"><ele>185.0</ele><time>2026-04-02T08:58:30.959Z</time></trkpt><trkpt lat="45.0819171" lon="1.2923254"><ele>183.5</ele><time>2026-04-02T08:58:31.959Z</time></trkpt><trkpt lat="45.0819234" lon="1.2922101"><ele>182.0</ele><time>2026-04-02T08:58:32.959Z</time></trkpt><trkpt lat="45.0819126" lon="1.2921144"><ele>180.85714285714286</ele><time>2026-04-02T08:58:33.958Z</time></trkpt><trkpt lat="45.081942" lon="1.2919802"><ele>179.71428571428572</ele><time>2026-04-02T08:58:35.96Z</time></trkpt><trkpt lat="45.0819558" lon="1.2918908"><ele>178.57142857142856</ele><time>2026-04-02T08:58:36.96Z</time></trkpt><trkpt lat="45.0819517" lon="1.2917977"><ele>177.42857142857144</ele><time>2026-04-02T08:58:37.959Z</time></trkpt><trkpt lat="45.081931" lon="1.2917068"><ele>176.28571428571428</ele><time>2026-04-02T08:58:38.959Z</time></trkpt><trkpt lat="45.0819132" lon="1.2916181"><ele>175.14285714285714</ele><time>2026-04-02T08:58:39.958Z</time></trkpt><trkpt lat="45.0818969" lon="1.2915257"><ele>174.0</ele><time>2026-04-02T08:58:40.959Z</time></trkpt><trkpt lat="45.0818771" lon="1.2913554"><ele>174.0</ele><time>2026-04-02T08:58:42.959Z</time></trkpt><trkpt lat="45.0818185" lon="1.2912054"><ele>174.0</ele><time>2026-04-02T08:58:44.96Z</time></trkpt><trkpt lat="45.081746" lon="1.291127"><ele>174.0</ele><time>2026-04-02T08:58:46.959Z</time></trkpt><trkpt lat="45.0816922" lon="1.291225"><ele>174.0</ele><time>2026-04-02T08:58:51.959Z</time></trkpt><trkpt lat="45.0816239" lon="1.2912293"><ele>174.0</ele><time>2026-04-02T08:58:59.958Z</time></trkpt><trkpt lat="45.0815774" lon="1.2911479"><ele>174.0</ele><time>2026-04-02T08:59:03.959Z</time></trkpt><trkpt lat="45.0814993" lon="1.2911563"><ele>174.14285714285714</ele><time>2026-04-02T08:59:07.959Z</time></trkpt><trkpt lat="45.0814356" lon="1.2911853"><ele>174.28571428571428</ele><time>2026-04-02T08:59:11.96Z</time></trkpt><trkpt lat="45.0813644" lon="1.291214"><ele>174.42857142857144</ele><time>2026-04-02T08:59:14.959Z</time></trkpt><trkpt lat="45.0812837" lon="1.2912603"><ele>174.57142857142856</ele><time>2026-04-02T08:59:17.958Z</time></trkpt><trkpt lat="45.0812252" lon="1.2912995"><ele>174.71428571428572</ele><time>2026-04-02T08:59:20.959Z</time></trkpt><trkpt lat="45.0811629" lon="1.2913381"><ele>174.85714285714286</ele><time>2026-04-02T08:59:24.959Z</time></trkpt><trkpt lat="45.0810926" lon="1.2913414"><ele>175.0</ele><time>2026-04-02T08:59:29.96Z</time></trkpt><trkpt lat="45.0810069" lon="1.291354"><ele>175.0</ele><time>2026-04-02T08:59:30.96Z</time></trkpt><trkpt lat="45.0809163" lon="1.2913948"><ele>175.0</ele><time>2026-04-02T08:59:32.96Z</time></trkpt><trkpt lat="45.0807979" lon="1.2914363"><ele>175.0</ele><time>2026-04-02T08:59:34.958Z</time></trkpt><trkpt lat="45.0807246" lon="1.291475"><ele>175.0</ele><time>2026-04-02T08:59:35.959Z</time></trkpt><trkpt lat="45.0806529" lon="1.291503"><ele>175.0</ele><time>2026-04-02T08:59:36.959Z</time></trkpt><trkpt lat="45.0805794" lon="1.291528"><ele>175.0</ele><time>2026-04-02T08:59:37.959Z</time></trkpt><trkpt lat="45.0805092" lon="1.2915552"><ele>171.83333333333334</ele><time>2026-04-02T08:59:38.959Z</time></trkpt><trkpt lat="45.0804415" lon="1.2915652"><ele>168.66666666666669</ele><time>2026-04-02T08:59:39.96Z</time></trkpt><trkpt lat="45.0803731" lon="1.2915629"><ele>165.5</ele><time>2026-04-02T08:59:40.959Z</time></trkpt><trkpt lat="45.0802567" lon="1.291596"><ele>162.33333333333334</ele><time>2026-04-02T08:59:42.96Z</time></trkpt><trkpt lat="45.0801416" lon="1.2916374"><ele>159.16666666666666</ele><time>2026-04-02T08:59:44.959Z</time></trkpt><trkpt lat="45.0800707" lon="1.2916391"><ele>156.0</ele><time>2026-04-02T08:59:45.959Z</time></trkpt><trkpt lat="45.0800042" lon="1.2916446"><ele>156.0</ele><time>2026-04-02T08:59:46.959Z</time></trkpt><trkpt lat="45.0799358" lon="1.2916466"><ele>156.0</ele><time>2026-04-02T08:59:47.959Z</time></trkpt><trkpt lat="45.0798648" lon="1.2916365"><ele>156.0</ele><time>2026-04-02T08:59:48.959Z</time></trkpt><trkpt lat="45.0797887" lon="1.2916213"><ele>156.0</ele><time>2026-04-02T08:59:49.958Z</time></trkpt><trkpt lat="45.0797091" lon="1.2916149"><ele>156.0</ele><time>2026-04-02T08:59:50.958Z</time></trkpt><trkpt lat="45.0796136" lon="1.2915821"><ele>156.0</ele><time>2026-04-02T08:59:51.96Z</time></trkpt><trkpt lat="45.0795265" lon="1.2915601"><ele>154.0</ele><time>2026-04-02T08:59:52.959Z</time></trkpt><trkpt lat="45.0794297" lon="1.2915493"><ele>152.0</ele><time>2026-04-02T08:59:53.96Z</time></trkpt><trkpt lat="45.0793314" lon="1.2915376"><ele>150.0</ele><time>2026-04-02T08:59:54.96Z</time></trkpt><trkpt lat="45.0792296" lon="1.2915231"><ele>148.0</ele><time>2026-04-02T08:59:55.96Z</time></trkpt><trkpt lat="45.0791282" lon="1.2915122"><ele>146.0</ele><time>2026-04-02T08:59:56.959Z</time></trkpt><trkpt lat="45.0790311" lon="1.2914909"><ele>144.6</ele><time>2026-04-02T08:59:57.959Z</time></trkpt><trkpt lat="45.0789328" lon="1.2914718"><ele>143.2</ele><time>2026-04-02T08:59:58.959Z</time></trkpt><trkpt lat="45.0788397" lon="1.2914429"><ele>141.8</ele><time>2026-04-02T08:59:59.959Z</time></trkpt><trkpt lat="45.0787525" lon="1.2913888"><ele>140.4</ele><time>2026-04-02T09:00:00.959Z</time></trkpt><trkpt lat="45.078672" lon="1.2913427"><ele>139.0</ele><time>2026-04-02T09:00:01.959Z</time></trkpt><trkpt lat="45.078599" lon="1.2912854"><ele>139.0</ele><time>2026-04-02T09:00:02.96Z</time></trkpt><trkpt lat="45.0785368" lon="1.2912115"><ele>139.0</ele><time>2026-04-02T09:00:03.959Z</time></trkpt><trkpt lat="45.0784702" lon="1.2911672"><ele>139.0</ele><time>2026-04-02T09:00:04.959Z</time></trkpt><trkpt lat="45.0783998" lon="1.2911642"><ele>139.0</ele><time>2026-04-02T09:00:05.959Z</time></trkpt><trkpt lat="45.0783199" lon="1.2911619"><ele>139.0</ele><time>2026-04-02T09:00:06.959Z</time></trkpt><trkpt lat="45.0782466" lon="1.291159"><ele>139.0</ele><time>2026-04-02T09:00:07.959Z</time></trkpt><trkpt lat="45.0781761" lon="1.2911627"><ele>139.0</ele><time>2026-04-02T09:00:08.959Z</time></trkpt><trkpt lat="45.0780594" lon="1.291159"><ele>136.16666666666669</ele><time>2026-04-02T09:00:10.958Z</time></trkpt><trkpt lat="45.0779864" lon="1.2911938"><ele>133.33333333333334</ele><time>2026-04-02T09:00:13.96Z</time></trkpt><trkpt lat="45.0779527" lon="1.2912873"><ele>130.5</ele><time>2026-04-02T09:00:15.959Z</time></trkpt><trkpt lat="45.0779552" lon="1.2914199"><ele>127.66666666666666</ele><time>2026-04-02T09:00:18.959Z</time></trkpt><trkpt lat="45.0779673" lon="1.2915163"><ele>124.83333333333333</ele><time>2026-04-02T09:00:20.959Z</time></trkpt><trkpt lat="45.0779336" lon="1.2916432"><ele>122.0</ele><time>2026-04-02T09:00:22.959Z</time></trkpt><trkpt lat="45.0779281" lon="1.291786"><ele>121.66666666666666</ele><time>2026-04-02T09:00:24.959Z</time></trkpt><trkpt lat="45.077923" lon="1.2919215"><ele>121.33333333333333</ele><time>2026-04-02T09:00:26.958Z</time></trkpt><trkpt lat="45.0778658" lon="1.2920018"><ele>121.0</ele><time>2026-04-02T09:00:28.959Z</time></trkpt><trkpt lat="45.0778287" lon="1.2921075"><ele>120.66666666666666</ele><time>2026-04-02T09:00:30.959Z</time></trkpt><trkpt lat="45.0778431" lon="1.292276"><ele>120.33333333333333</ele><time>2026-04-02T09:00:32.959Z</time></trkpt><trkpt lat="45.0778613" lon="1.2923625"><ele>120.0</ele><time>2026-04-02T09:00:33.959Z</time></trkpt><trkpt lat="45.0778753" lon="1.2924555"><ele>120.0</ele><time>2026-04-02T09:00:34.958Z</time></trkpt><trkpt lat="45.0779179" lon="1.2925926"><ele>120.0</ele><time>2026-04-02T09:00:36.96Z</time></trkpt><trkpt lat="45.0779436" lon="1.2927404"><ele>120.0</ele><time>2026-04-02T09:00:38.959Z</time></trkpt><trkpt lat="45.0779868" lon="1.2929002"><ele>120.0</ele><time>2026-04-02T09:00:40.96Z</time></trkpt><trkpt lat="45.0780061" lon="1.2929968"><ele>120.0</ele><time>2026-04-02T09:00:41.959Z</time></trkpt><trkpt lat="45.0780438" lon="1.2930781"><ele>120.16666666666667</ele><time>2026-04-02T09:00:42.959Z</time></trkpt><trkpt lat="45.0780743" lon="1.2931633"><ele>120.33333333333334</ele><time>2026-04-02T09:00:43.959Z</time></trkpt><trkpt lat="45.0781093" lon="1.2932476"><ele>120.5</ele><time>2026-04-02T09:00:44.959Z</time></trkpt><trkpt lat="45.078178" lon="1.2933658"><ele>120.66666666666667</ele><time>2026-04-02T09:00:46.959Z</time></trkpt><trkpt lat="45.0782445" lon="1.2934595"><ele>120.83333333333334</ele><time>2026-04-02T09:00:48.959Z</time></trkpt><trkpt lat="45.0782883" lon="1.2935592"><ele>121.0</ele><time>2026-04-02T09:00:50.959Z</time></trkpt><trkpt lat="45.0783299" lon="1.2936775"><ele>121.33333333333334</ele><time>2026-04-02T09:00:52.96Z</time></trkpt><trkpt lat="45.0784026" lon="1.2937808"><ele>121.66666666666667</ele><time>2026-04-02T09:00:54.96Z</time></trkpt><trkpt lat="45.078457" lon="1.2938626"><ele>122.0</ele><time>2026-04-02T09:00:56.959Z</time></trkpt><trkpt lat="45.0785112" lon="1.2939691"><ele>122.33333333333334</ele><time>2026-04-02T09:00:58.958Z</time></trkpt><trkpt lat="45.0785655" lon="1.2940637"><ele>122.66666666666667</ele><time>2026-04-02T09:01:00.959Z</time></trkpt><trkpt lat="45.0786238" lon="1.2941346"><ele>123.0</ele><time>2026-04-02T09:01:02.96Z</time></trkpt><trkpt lat="45.0787151" lon="1.2942544"><ele>123.0</ele><time>2026-04-02T09:01:04.958Z</time></trkpt><trkpt lat="45.0787887" lon="1.2943559"><ele>123.00000000000001</ele><time>2026-04-02T09:01:06.961Z</time></trkpt><trkpt lat="45.0788813" lon="1.2944426"><ele>123.00000000000001</ele><time>2026-04-02T09:01:08.96Z</time></trkpt><trkpt lat="45.0789659" lon="1.2945087"><ele>123.0</ele><time>2026-04-02T09:01:10.961Z</time></trkpt><trkpt lat="45.0790378" lon="1.2945847"><ele>123.0</ele><time>2026-04-02T09:01:13.96Z</time></trkpt><trkpt lat="45.0791186" lon="1.294616"><ele>124.0</ele><time>2026-04-02T09:01:16.961Z</time></trkpt><trkpt lat="45.0791547" lon="1.2947179"><ele>125.0</ele><time>2026-04-02T09:01:19.961Z</time></trkpt><trkpt lat="45.0791947" lon="1.2948029"><ele>126.0</ele><time>2026-04-02T09:01:22.961Z</time></trkpt><trkpt lat="45.0792856" lon="1.2948761"><ele>127.0</ele><time>2026-04-02T09:01:24.961Z</time></trkpt><trkpt lat="45.0793647" lon="1.2949395"><ele>128.0</ele><time>2026-04-02T09:01:26.961Z</time></trkpt><trkpt lat="45.0794437" lon="1.2950238"><ele>129.0</ele><time>2026-04-02T09:01:28.96Z</time></trkpt><trkpt lat="45.0795217" lon="1.295126"><ele>129.0</ele><time>2026-04-02T09:01:30.96Z</time></trkpt><trkpt lat="45.079592" lon="1.2952108"><ele>129.0</ele><time>2026-04-02T09:01:32.96Z</time></trkpt><trkpt lat="45.0796474" lon="1.2952828"><ele>129.0</ele><time>2026-04-02T09:01:34.959Z</time></trkpt><trkpt lat="45.0796998" lon="1.2953598"><ele>129.0</ele><time>2026-04-02T09:01:36.96Z</time></trkpt><trkpt lat="45.0797695" lon="1.2954659"><ele>129.0</ele><time>2026-04-02T09:01:38.961Z</time></trkpt><trkpt lat="45.0798356" lon="1.2955673"><ele>129.0</ele><time>2026-04-02T09:01:40.961Z</time></trkpt><trkpt lat="45.0799036" lon="1.2956546"><ele>129.66666666666666</ele><time>2026-04-02T09:01:42.96Z</time></trkpt><trkpt lat="45.0799789" lon="1.2957505"><ele>130.33333333333334</ele><time>2026-04-02T09:01:44.961Z</time></trkpt><trkpt lat="45.0800304" lon="1.2958482"><ele>131.0</ele><time>2026-04-02T09:01:46.96Z</time></trkpt><trkpt lat="45.0800875" lon="1.2959246"><ele>131.66666666666669</ele><time>2026-04-02T09:01:48.96Z</time></trkpt><trkpt lat="45.0801434" lon="1.2960009"><ele>132.33333333333334</ele><time>2026-04-02T09:01:50.96Z</time></trkpt><trkpt lat="45.080184" lon="1.2960706"><ele>133.0</ele><time>2026-04-02T09:01:52.961Z</time></trkpt><trkpt lat="45.0802434" lon="1.2961114"><ele>133.0</ele><time>2026-04-02T09:01:54.961Z</time></trkpt><trkpt lat="45.080287" lon="1.296196"><ele>133.0</ele><time>2026-04-02T09:01:56.96Z</time></trkpt><trkpt lat="45.0803341" lon="1.2962712"><ele>133.0</ele><time>2026-04-02T09:01:58.961Z</time></trkpt><trkpt lat="45.0803869" lon="1.2963412"><ele>133.0</ele><time>2026-04-02T09:02:01.961Z</time></trkpt><trkpt lat="45.080432" lon="1.2964226"><ele>133.0</ele><time>2026-04-02T09:02:11.961Z</time></trkpt><trkpt lat="45.0804972" lon="1.2965312"><ele>133.0</ele><time>2026-04-02T09:02:13.961Z</time></trkpt><trkpt lat="45.0805767" lon="1.2966051"><ele>133.6</ele><time>2026-04-02T09:02:15.959Z</time></trkpt><trkpt lat="45.0806877" lon="1.2965671"><ele>134.20000000000002</ele><time>2026-04-02T09:02:17.96Z</time></trkpt><trkpt lat="45.0808104" lon="1.2965369"><ele>134.8</ele><time>2026-04-02T09:02:19.961Z</time></trkpt><trkpt lat="45.0808769" lon="1.2965372"><ele>135.4</ele><time>2026-04-02T09:02:20.96Z</time></trkpt><trkpt lat="45.0809879" lon="1.2965289"><ele>136.0</ele><time>2026-04-02T09:02:22.96Z</time></trkpt><trkpt lat="45.0810946" lon="1.2965609"><ele>136.0</ele><time>2026-04-02T09:02:24.961Z</time></trkpt><trkpt lat="45.0811545" lon="1.2965951"><ele>136.0</ele><time>2026-04-02T09:02:26.96Z</time></trkpt><trkpt lat="45.0812024" lon="1.2966639"><ele>136.0</ele><time>2026-04-02T09:02:29.961Z</time></trkpt><trkpt lat="45.0811361" lon="1.2967132"><ele>136.0</ele><time>2026-04-02T09:02:33.96Z</time></trkpt><trkpt lat="45.081049" lon="1.2967588"><ele>136.0</ele><time>2026-04-02T09:02:34.959Z</time></trkpt><trkpt lat="45.0809727" lon="1.2968145"><ele>136.0</ele><time>2026-04-02T09:02:35.96Z</time></trkpt><trkpt lat="45.0809075" lon="1.2968678"><ele>136.0</ele><time>2026-04-02T09:02:36.961Z</time></trkpt><trkpt lat="45.0808406" lon="1.2969278"><ele>136.0</ele><time>2026-04-02T09:02:37.961Z</time></trkpt><trkpt lat="45.0807874" lon="1.2970029"><ele>136.0</ele><time>2026-04-02T09:02:38.96Z</time></trkpt><trkpt lat="45.0807453" lon="1.2970961"><ele>136.0</ele><time>2026-04-02T09:02:39.961Z</time></trkpt><trkpt lat="45.080715" lon="1.2972038"><ele>136.0</ele><time>2026-04-02T09:02:40.961Z</time></trkpt><trkpt lat="45.0806968" lon="1.2973219"><ele>136.0</ele><time>2026-04-02T09:02:41.96Z</time></trkpt><trkpt lat="45.0807053" lon="1.2974402"><ele>134.83333333333334</ele><time>2026-04-02T09:02:42.96Z</time></trkpt><trkpt lat="45.080718" lon="1.297553"><ele>133.66666666666669</ele><time>2026-04-02T09:02:43.96Z</time></trkpt><trkpt lat="45.0807253" lon="1.2976608"><ele>132.5</ele><time>2026-04-02T09:02:44.96Z</time></trkpt><trkpt lat="45.0807293" lon="1.2977683"><ele>131.33333333333334</ele><time>2026-04-02T09:02:45.959Z</time></trkpt><trkpt lat="45.0807414" lon="1.297877"><ele>130.16666666666666</ele><time>2026-04-02T09:02:46.96Z</time></trkpt><trkpt lat="45.0807448" lon="1.298001"><ele>129.0</ele><time>2026-04-02T09:02:47.96Z</time></trkpt><trkpt lat="45.0807253" lon="1.2981273"><ele>129.0</ele><time>2026-04-02T09:02:48.961Z</time></trkpt><trkpt lat="45.0806931" lon="1.2982781"><ele>129.0</ele><time>2026-04-02T09:02:49.961Z</time></trkpt><trkpt lat="45.0806569" lon="1.2984326"><ele>129.0</ele><time>2026-04-02T09:02:50.96Z</time></trkpt><trkpt lat="45.0806245" lon="1.2985893"><ele>129.0</ele><time>2026-04-02T09:02:51.961Z</time></trkpt><trkpt lat="45.0805913" lon="1.2987541"><ele>129.0</ele><time>2026-04-02T09:02:52.96Z</time></trkpt><trkpt lat="45.0805549" lon="1.2989311"><ele>129.0</ele><time>2026-04-02T09:02:53.96Z</time></trkpt><trkpt lat="45.0805158" lon="1.2991005"><ele>129.0</ele><time>2026-04-02T09:02:54.96Z</time></trkpt><trkpt lat="45.0804753" lon="1.2992667"><ele>129.0</ele><time>2026-04-02T09:02:55.96Z</time></trkpt><trkpt lat="45.0804405" lon="1.2994346"><ele>129.0</ele><time>2026-04-02T09:02:56.959Z</time></trkpt><trkpt lat="45.0804185" lon="1.2995936"><ele>129.0</ele><time>2026-04-02T09:02:57.959Z</time></trkpt><trkpt lat="45.0803832" lon="1.2997308"><ele>129.0</ele><time>2026-04-02T09:02:58.96Z</time></trkpt><trkpt lat="45.0803275" lon="1.2998442"><ele>129.0</ele><time>2026-04-02T09:02:59.96Z</time></trkpt><trkpt lat="45.0802414" lon="1.2999634"><ele>129.0</ele><time>2026-04-02T09:03:00.961Z</time></trkpt><trkpt lat="45.0801377" lon="1.3000718"><ele>129.0</ele><time>2026-04-02T09:03:01.961Z</time></trkpt><trkpt lat="45.080013" lon="1.3001827"><ele>129.0</ele><time>2026-04-02T09:03:02.959Z</time></trkpt><trkpt lat="45.0798935" lon="1.3002933"><ele>129.0</ele><time>2026-04-02T09:03:03.96Z</time></trkpt><trkpt lat="45.0797675" lon="1.3003978"><ele>129.0</ele><time>2026-04-02T09:03:04.961Z</time></trkpt><trkpt lat="45.079616" lon="1.3004958"><ele>129.33333333333334</ele><time>2026-04-02T09:03:05.96Z</time></trkpt><trkpt lat="45.0794552" lon="1.3006113"><ele>129.66666666666669</ele><time>2026-04-02T09:03:06.96Z</time></trkpt><trkpt lat="45.0792598" lon="1.3007645"><ele>130.0</ele><time>2026-04-02T09:03:07.96Z</time></trkpt><trkpt lat="45.0790482" lon="1.3009326"><ele>130.0</ele><time>2026-04-02T09:03:08.961Z</time></trkpt><trkpt lat="45.0788263" lon="1.3011037"><ele>130.0</ele><time>2026-04-02T09:03:09.96Z</time></trkpt><trkpt lat="45.0786002" lon="1.3012704"><ele>130.0</ele><time>2026-04-02T09:03:10.961Z</time></trkpt><trkpt lat="45.0783748" lon="1.30143"><ele>130.0</ele><time>2026-04-02T09:03:11.96Z</time></trkpt><trkpt lat="45.0781679" lon="1.3015759"><ele>130.0</ele><time>2026-04-02T09:03:12.961Z</time></trkpt><trkpt lat="45.0779741" lon="1.3017118"><ele>130.0</ele><time>2026-04-02T09:03:13.96Z</time></trkpt><trkpt lat="45.0778026" lon="1.3018267"><ele>130.0</ele><time>2026-04-02T09:03:14.96Z</time></trkpt><trkpt lat="45.0776423" lon="1.3019265"><ele>130.0</ele><time>2026-04-02T09:03:15.96Z</time></trkpt><trkpt lat="45.0774943" lon="1.3019986"><ele>130.0</ele><time>2026-04-02T09:03:16.96Z</time></trkpt><trkpt lat="45.0773497" lon="1.302038"><ele>130.0</ele><time>2026-04-02T09:03:17.96Z</time></trkpt><trkpt lat="45.077198" lon="1.3020651"><ele>130.25</ele><time>2026-04-02T09:03:18.96Z</time></trkpt><trkpt lat="45.07706" lon="1.3021004"><ele>130.5</ele><time>2026-04-02T09:03:19.96Z</time></trkpt><trkpt lat="45.0769296" lon="1.302156"><ele>130.75</ele><time>2026-04-02T09:03:20.96Z</time></trkpt><trkpt lat="45.0768106" lon="1.3022232"><ele>131.0</ele><time>2026-04-02T09:03:21.96Z</time></trkpt><trkpt lat="45.0766987" lon="1.3022958"><ele>132.4</ele><time>2026-04-02T09:03:22.96Z</time></trkpt><trkpt lat="45.0765909" lon="1.3023385"><ele>133.8</ele><time>2026-04-02T09:03:23.961Z</time></trkpt><trkpt lat="45.0764779" lon="1.302371"><ele>135.20000000000002</ele><time>2026-04-02T09:03:24.961Z</time></trkpt><trkpt lat="45.0763782" lon="1.3024102"><ele>136.6</ele><time>2026-04-02T09:03:25.961Z</time></trkpt><trkpt lat="45.076288" lon="1.302456"><ele>138.0</ele><time>2026-04-02T09:03:26.961Z</time></trkpt><trkpt lat="45.0762118" lon="1.3025162"><ele>138.0</ele><time>2026-04-02T09:03:27.961Z</time></trkpt><trkpt lat="45.0761507" lon="1.3025857"><ele>138.0</ele><time>2026-04-02T09:03:28.961Z</time></trkpt><trkpt lat="45.0761125" lon="1.302687"><ele>138.0</ele><time>2026-04-02T09:03:29.96Z</time></trkpt><trkpt lat="45.0760963" lon="1.302825"><ele>138.0</ele><time>2026-04-02T09:03:30.96Z</time></trkpt><trkpt lat="45.0760823" lon="1.3029721"><ele>138.0</ele><time>2026-04-02T09:03:31.96Z</time></trkpt><trkpt lat="45.0760748" lon="1.3031103"><ele>136.8</ele><time>2026-04-02T09:03:32.96Z</time></trkpt><trkpt lat="45.0760744" lon="1.303231"><ele>135.60000000000002</ele><time>2026-04-02T09:03:33.96Z</time></trkpt><trkpt lat="45.0760838" lon="1.3033443"><ele>134.39999999999998</ele><time>2026-04-02T09:03:34.96Z</time></trkpt><trkpt lat="45.076097" lon="1.3034467"><ele>133.2</ele><time>2026-04-02T09:03:35.961Z</time></trkpt><trkpt lat="45.0760624" lon="1.3035965"><ele>132.0</ele><time>2026-04-02T09:03:37.959Z</time></trkpt><trkpt lat="45.0759889" lon="1.3037129"><ele>132.0</ele><time>2026-04-02T09:03:39.96Z</time></trkpt><trkpt lat="45.0759117" lon="1.3037856"><ele>132.0</ele><time>2026-04-02T09:03:41.961Z</time></trkpt><trkpt lat="45.0758526" lon="1.3039341"><ele>132.0</ele><time>2026-04-02T09:03:43.961Z</time></trkpt><trkpt lat="45.075824" lon="1.3040553"><ele>132.0</ele><time>2026-04-02T09:03:44.961Z</time></trkpt><trkpt lat="45.0757702" lon="1.3041846"><ele>132.0</ele><time>2026-04-02T09:03:45.96Z</time></trkpt><trkpt lat="45.0757021" lon="1.3043075"><ele>132.75</ele><time>2026-04-02T09:03:46.96Z</time></trkpt><trkpt lat="45.0756215" lon="1.304444"><ele>133.5</ele><time>2026-04-02T09:03:47.96Z</time></trkpt><trkpt lat="45.0755418" lon="1.3045934"><ele>134.25</ele><time>2026-04-02T09:03:48.96Z</time></trkpt><trkpt lat="45.0754697" lon="1.3047643"><ele>135.0</ele><time>2026-04-02T09:03:49.96Z</time></trkpt><trkpt lat="45.0754043" lon="1.3049517"><ele>135.0</ele><time>2026-04-02T09:03:50.961Z</time></trkpt><trkpt lat="45.0753333" lon="1.3051569"><ele>135.0</ele><time>2026-04-02T09:03:51.96Z</time></trkpt><trkpt lat="45.0752648" lon="1.3053586"><ele>135.0</ele><time>2026-04-02T09:03:52.96Z</time></trkpt><trkpt lat="45.0751895" lon="1.3055681"><ele>134.66666666666666</ele><time>2026-04-02T09:03:53.96Z</time></trkpt><trkpt lat="45.0751087" lon="1.3057801"><ele>134.33333333333331</ele><time>2026-04-02T09:03:54.96Z</time></trkpt><trkpt lat="45.0750295" lon="1.3059764"><ele>134.0</ele><time>2026-04-02T09:03:55.961Z</time></trkpt><trkpt lat="45.0749546" lon="1.3061788"><ele>136.66666666666666</ele><time>2026-04-02T09:03:56.96Z</time></trkpt><trkpt lat="45.0748941" lon="1.3063841"><ele>139.33333333333334</ele><time>2026-04-02T09:03:57.96Z</time></trkpt><trkpt lat="45.0748439" lon="1.3065996"><ele>142.0</ele><time>2026-04-02T09:03:58.961Z</time></trkpt><trkpt lat="45.0747995" lon="1.3068244"><ele>142.0</ele><time>2026-04-02T09:03:59.961Z</time></trkpt><trkpt lat="45.0747703" lon="1.3070493"><ele>142.0</ele><time>2026-04-02T09:04:00.96Z</time></trkpt><trkpt lat="45.0747786" lon="1.3072947"><ele>142.0</ele><time>2026-04-02T09:04:01.961Z</time></trkpt><trkpt lat="45.0748021" lon="1.3075411"><ele>141.0</ele><time>2026-04-02T09:04:02.96Z</time></trkpt><trkpt lat="45.0748239" lon="1.3077734"><ele>140.0</ele><time>2026-04-02T09:04:03.96Z</time></trkpt><trkpt lat="45.0748566" lon="1.3080063"><ele>139.0</ele><time>2026-04-02T09:04:04.961Z</time></trkpt><trkpt lat="45.0749137" lon="1.3082209"><ele>138.33333333333334</ele><time>2026-04-02T09:04:05.959Z</time></trkpt><trkpt lat="45.074994" lon="1.3084226"><ele>137.66666666666666</ele><time>2026-04-02T09:04:06.96Z</time></trkpt><trkpt lat="45.075096" lon="1.30861"><ele>137.0</ele><time>2026-04-02T09:04:07.961Z</time></trkpt><trkpt lat="45.0752163" lon="1.3087858"><ele>137.66666666666666</ele><time>2026-04-02T09:04:08.961Z</time></trkpt><trkpt lat="45.0753198" lon="1.3089502"><ele>138.33333333333334</ele><time>2026-04-02T09:04:09.961Z</time></trkpt><trkpt lat="45.0754052" lon="1.3091347"><ele>139.0</ele><time>2026-04-02T09:04:10.96Z</time></trkpt><trkpt lat="45.0754697" lon="1.3093307"><ele>139.0</ele><time>2026-04-02T09:04:11.959Z</time></trkpt><trkpt lat="45.0755022" lon="1.3095337"><ele>139.0</ele><time>2026-04-02T09:04:12.959Z</time></trkpt><trkpt lat="45.0755032" lon="1.3097621"><ele>139.0</ele><time>2026-04-02T09:04:13.96Z</time></trkpt><trkpt lat="45.0754856" lon="1.3099685"><ele>139.66666666666669</ele><time>2026-04-02T09:04:14.96Z</time></trkpt><trkpt lat="45.0754376" lon="1.310186"><ele>140.33333333333334</ele><time>2026-04-02T09:04:15.961Z</time></trkpt><trkpt lat="45.0753516" lon="1.3103931"><ele>141.0</ele><time>2026-04-02T09:04:16.96Z</time></trkpt><trkpt lat="45.075241" lon="1.3105917"><ele>141.0</ele><time>2026-04-02T09:04:17.961Z</time></trkpt><trkpt lat="45.0751203" lon="1.3107723"><ele>141.0</ele><time>2026-04-02T09:04:18.961Z</time></trkpt><trkpt lat="45.0749976" lon="1.3109363"><ele>141.0</ele><time>2026-04-02T09:04:19.959Z</time></trkpt><trkpt lat="45.0748764" lon="1.3111"><ele>141.0</ele><time>2026-04-02T09:04:20.96Z</time></trkpt><trkpt lat="45.0747659" lon="1.3112497"><ele>141.0</ele><time>2026-04-02T09:04:21.961Z</time></trkpt><trkpt lat="45.0746806" lon="1.311382"><ele>141.0</ele><time>2026-04-02T09:04:22.96Z</time></trkpt><trkpt lat="45.0746236" lon="1.3115154"><ele>141.0</ele><time>2026-04-02T09:04:23.96Z</time></trkpt><trkpt lat="45.0745871" lon="1.3116739"><ele>141.0</ele><time>2026-04-02T09:04:24.96Z</time></trkpt><trkpt lat="45.0745585" lon="1.3118555"><ele>141.0</ele><time>2026-04-02T09:04:25.96Z</time></trkpt><trkpt lat="45.0745133" lon="1.3120483"><ele>141.0</ele><time>2026-04-02T09:04:26.959Z</time></trkpt><trkpt lat="45.0744371" lon="1.3122313"><ele>141.0</ele><time>2026-04-02T09:04:27.96Z</time></trkpt><trkpt lat="45.0743377" lon="1.3123962"><ele>141.66666666666666</ele><time>2026-04-02T09:04:28.96Z</time></trkpt><trkpt lat="45.074219" lon="1.3125499"><ele>142.33333333333331</ele><time>2026-04-02T09:04:29.96Z</time></trkpt><trkpt lat="45.0740887" lon="1.3126682"><ele>143.0</ele><time>2026-04-02T09:04:30.961Z</time></trkpt><trkpt lat="45.0739393" lon="1.3127548"><ele>144.0</ele><time>2026-04-02T09:04:31.961Z</time></trkpt><trkpt lat="45.0737766" lon="1.3128304"><ele>145.0</ele><time>2026-04-02T09:04:32.961Z</time></trkpt><trkpt lat="45.073618" lon="1.3128995"><ele>146.0</ele><time>2026-04-02T09:04:33.96Z</time></trkpt><trkpt lat="45.0734568" lon="1.3129539"><ele>146.0</ele><time>2026-04-02T09:04:34.96Z</time></trkpt><trkpt lat="45.0733016" lon="1.3129772"><ele>146.0</ele><time>2026-04-02T09:04:35.96Z</time></trkpt><trkpt lat="45.0731556" lon="1.3129854"><ele>146.0</ele><time>2026-04-02T09:04:36.96Z</time></trkpt><trkpt lat="45.0730231" lon="1.3129865"><ele>146.0</ele><time>2026-04-02T09:04:37.961Z</time></trkpt><trkpt lat="45.0729003" lon="1.3129768"><ele>146.2</ele><time>2026-04-02T09:04:38.961Z</time></trkpt><trkpt lat="45.0727884" lon="1.3129453"><ele>146.39999999999998</ele><time>2026-04-02T09:04:39.961Z</time></trkpt><trkpt lat="45.0726888" lon="1.3128945"><ele>146.6</ele><time>2026-04-02T09:04:40.961Z</time></trkpt><trkpt lat="45.0725951" lon="1.3128341"><ele>146.79999999999998</ele><time>2026-04-02T09:04:41.961Z</time></trkpt><trkpt lat="45.0725032" lon="1.3127618"><ele>147.0</ele><time>2026-04-02T09:04:42.96Z</time></trkpt><trkpt lat="45.0724077" lon="1.3126942"><ele>146.6</ele><time>2026-04-02T09:04:43.961Z</time></trkpt><trkpt lat="45.0723137" lon="1.3126283"><ele>146.2</ele><time>2026-04-02T09:04:44.96Z</time></trkpt><trkpt lat="45.0722182" lon="1.3125702"><ele>145.8</ele><time>2026-04-02T09:04:45.961Z</time></trkpt><trkpt lat="45.0721271" lon="1.3125266"><ele>145.4</ele><time>2026-04-02T09:04:46.96Z</time></trkpt><trkpt lat="45.0720349" lon="1.3124866"><ele>145.0</ele><time>2026-04-02T09:04:47.961Z</time></trkpt><trkpt lat="45.0719547" lon="1.3124493"><ele>145.0</ele><time>2026-04-02T09:04:48.961Z</time></trkpt><trkpt lat="45.0718769" lon="1.312411"><ele>145.0</ele><time>2026-04-02T09:04:49.959Z</time></trkpt><trkpt lat="45.0718043" lon="1.3123819"><ele>145.0</ele><time>2026-04-02T09:04:50.96Z</time></trkpt><trkpt lat="45.0717331" lon="1.3123654"><ele>145.0</ele><time>2026-04-02T09:04:51.96Z</time></trkpt><trkpt lat="45.0716131" lon="1.3123314"><ele>145.0</ele><time>2026-04-02T09:04:53.96Z</time></trkpt><trkpt lat="45.0715408" lon="1.3122996"><ele>145.0</ele><time>2026-04-02T09:04:54.96Z</time></trkpt><trkpt lat="45.0714706" lon="1.312268"><ele>145.33333333333334</ele><time>2026-04-02T09:04:55.96Z</time></trkpt><trkpt lat="45.0714048" lon="1.3122344"><ele>145.66666666666669</ele><time>2026-04-02T09:04:56.96Z</time></trkpt><trkpt lat="45.0713388" lon="1.3121933"><ele>146.0</ele><time>2026-04-02T09:04:57.961Z</time></trkpt><trkpt lat="45.0712673" lon="1.3121651"><ele>146.33333333333334</ele><time>2026-04-02T09:04:58.961Z</time></trkpt><trkpt lat="45.0711842" lon="1.3121345"><ele>146.66666666666666</ele><time>2026-04-02T09:04:59.96Z</time></trkpt><trkpt lat="45.0710944" lon="1.3121169"><ele>147.0</ele><time>2026-04-02T09:05:00.96Z</time></trkpt><trkpt lat="45.0710002" lon="1.3121009"><ele>147.0</ele><time>2026-04-02T09:05:01.96Z</time></trkpt><trkpt lat="45.0709043" lon="1.3120888"><ele>147.0</ele><time>2026-04-02T09:05:02.961Z</time></trkpt><trkpt lat="45.0708068" lon="1.3120734"><ele>147.0</ele><time>2026-04-02T09:05:03.961Z</time></trkpt><trkpt lat="45.0707076" lon="1.3120536"><ele>147.0</ele><time>2026-04-02T09:05:04.959Z</time></trkpt><trkpt lat="45.0706069" lon="1.3120309"><ele>147.0</ele><time>2026-04-02T09:05:05.96Z</time></trkpt><trkpt lat="45.0705064" lon="1.3120253"><ele>147.4</ele><time>2026-04-02T09:05:06.96Z</time></trkpt><trkpt lat="45.0704033" lon="1.3120387"><ele>147.79999999999998</ele><time>2026-04-02T09:05:07.959Z</time></trkpt><trkpt lat="45.0703074" lon="1.3120593"><ele>148.2</ele><time>2026-04-02T09:05:08.961Z</time></trkpt><trkpt lat="45.0702211" lon="1.3120912"><ele>148.6</ele><time>2026-04-02T09:05:09.961Z</time></trkpt><trkpt lat="45.0701416" lon="1.3121346"><ele>149.0</ele><time>2026-04-02T09:05:10.961Z</time></trkpt><trkpt lat="45.0700695" lon="1.312184"><ele>148.83333333333331</ele><time>2026-04-02T09:05:11.959Z</time></trkpt><trkpt lat="45.07001" lon="1.3122411"><ele>148.66666666666666</ele><time>2026-04-02T09:05:12.961Z</time></trkpt><trkpt lat="45.069952" lon="1.3122947"><ele>148.5</ele><time>2026-04-02T09:05:13.96Z</time></trkpt><trkpt lat="45.0698574" lon="1.312384"><ele>148.33333333333334</ele><time>2026-04-02T09:05:15.96Z</time></trkpt><trkpt lat="45.069789" lon="1.3124496"><ele>148.16666666666669</ele><time>2026-04-02T09:05:17.96Z</time></trkpt><trkpt lat="45.0697326" lon="1.3123993"><ele>148.0</ele><time>2026-04-02T09:05:21.96Z</time></trkpt><trkpt lat="45.0697662" lon="1.312308"><ele>148.20000000000002</ele><time>2026-04-02T09:05:25.96Z</time></trkpt><trkpt lat="45.0698419" lon="1.3122116"><ele>148.4</ele><time>2026-04-02T09:05:27.959Z</time></trkpt><trkpt lat="45.0699004" lon="1.3121018"><ele>148.60000000000002</ele><time>2026-04-02T09:05:29.959Z</time></trkpt><trkpt lat="45.0699627" lon="1.3120269"><ele>148.8</ele><time>2026-04-02T09:05:31.96Z</time></trkpt><trkpt lat="45.0700057" lon="1.3119241"><ele>149.0</ele><time>2026-04-02T09:05:33.962Z</time></trkpt><trkpt lat="45.0700838" lon="1.3117951"><ele>149.0</ele><time>2026-04-02T09:05:35.962Z</time></trkpt><trkpt lat="45.0701515" lon="1.3117152"><ele>149.0</ele><time>2026-04-02T09:05:37.961Z</time></trkpt><trkpt lat="45.0702586" lon="1.3116375"><ele>149.0</ele><time>2026-04-02T09:05:39.961Z</time></trkpt><trkpt lat="45.070319" lon="1.3116052"><ele>149.0</ele><time>2026-04-02T09:05:40.962Z</time></trkpt><trkpt lat="45.070415" lon="1.3115578"><ele>149.0</ele><time>2026-04-02T09:05:42.961Z</time></trkpt><trkpt lat="45.0705078" lon="1.3115318"><ele>149.0</ele><time>2026-04-02T09:05:45.962Z</time></trkpt><trkpt lat="45.0705729" lon="1.3115015"><ele>149.0</ele><time>2026-04-02T09:05:47.961Z</time></trkpt><trkpt lat="45.0706058" lon="1.3114005"><ele>149.0</ele><time>2026-04-02T09:05:51.961Z</time></trkpt><trkpt lat="45.0706656" lon="1.3113199"><ele>149.0</ele><time>2026-04-02T09:05:53.962Z</time></trkpt><trkpt lat="45.0707221" lon="1.3112148"><ele>149.0</ele><time>2026-04-02T09:05:55.962Z</time></trkpt><trkpt lat="45.070744" lon="1.3111291"><ele>149.0</ele><time>2026-04-02T09:05:56.961Z</time></trkpt><trkpt lat="45.0707629" lon="1.3110066"><ele>151.16666666666666</ele><time>2026-04-02T09:05:57.962Z</time></trkpt><trkpt lat="45.0708064" lon="1.3108706"><ele>153.33333333333331</ele><time>2026-04-02T09:05:59.962Z</time></trkpt><trkpt lat="45.0708687" lon="1.3107726"><ele>155.5</ele><time>2026-04-02T09:06:01.962Z</time></trkpt><trkpt lat="45.0709438" lon="1.3107647"><ele>157.66666666666666</ele><time>2026-04-02T09:06:33.961Z</time></trkpt><trkpt lat="45.0708774" lon="1.3107723"><ele>159.83333333333334</ele><time>2026-04-02T09:06:48.96Z</time></trkpt><trkpt lat="45.0709417" lon="1.3107653"><ele>162.0</ele><time>2026-04-02T09:07:22.961Z</time></trkpt><trkpt lat="45.0709988" lon="1.3107218"><ele>162.0</ele><time>2026-04-02T09:07:43.961Z</time></trkpt><trkpt lat="45.0710782" lon="1.3107215"><ele>162.0</ele><time>2026-04-02T09:07:46.961Z</time></trkpt><trkpt lat="45.0711466" lon="1.3107077"><ele>162.0</ele><time>2026-04-02T09:07:48.961Z</time></trkpt><trkpt lat="45.0712032" lon="1.3106678"><ele>162.0</ele><time>2026-04-02T09:07:50.961Z</time></trkpt><trkpt lat="45.0712738" lon="1.3107085"><ele>162.0</ele><time>2026-04-02T09:08:00.962Z</time></trkpt><trkpt lat="45.0713511" lon="1.3107069"><ele>162.0</ele><time>2026-04-02T09:08:04.962Z</time></trkpt><trkpt lat="45.0714079" lon="1.3106682"><ele>162.0</ele><time>2026-04-02T09:08:07.961Z</time></trkpt><trkpt lat="45.0714685" lon="1.3106159"><ele>162.0</ele><time>2026-04-02T09:08:16.961Z</time></trkpt><trkpt lat="45.0715334" lon="1.3106698"><ele>162.0</ele><time>2026-04-02T09:08:19.961Z</time></trkpt><trkpt lat="45.0716116" lon="1.3107121"><ele>162.0</ele><time>2026-04-02T09:08:22.962Z</time></trkpt><trkpt lat="45.0716747" lon="1.3107391"><ele>162.0</ele><time>2026-04-02T09:08:24.962Z</time></trkpt><trkpt lat="45.0717508" lon="1.3106871"><ele>162.0</ele><time>2026-04-02T09:08:28.961Z</time></trkpt><trkpt lat="45.0718184" lon="1.3106798"><ele>162.0</ele><time>2026-04-02T09:08:31.961Z</time></trkpt><trkpt lat="45.0718952" lon="1.3106265"><ele>163.16666666666666</ele><time>2026-04-02T09:08:34.962Z</time></trkpt><trkpt lat="45.0719791" lon="1.310596"><ele>164.33333333333334</ele><time>2026-04-02T09:08:37.961Z</time></trkpt><trkpt lat="45.0720453" lon="1.3106078"><ele>165.5</ele><time>2026-04-02T09:08:39.961Z</time></trkpt><trkpt lat="45.0721056" lon="1.3105742"><ele>166.66666666666669</ele><time>2026-04-02T09:08:41.961Z</time></trkpt><trkpt lat="45.0721856" lon="1.3105232"><ele>167.83333333333334</ele><time>2026-04-02T09:08:44.962Z</time></trkpt><trkpt lat="45.0722644" lon="1.3105842"><ele>169.0</ele><time>2026-04-02T09:08:48.96Z</time></trkpt><trkpt lat="45.0723354" lon="1.3105797"><ele>169.16666666666669</ele><time>2026-04-02T09:08:51.962Z</time></trkpt><trkpt lat="45.0723964" lon="1.3104992"><ele>169.33333333333334</ele><time>2026-04-02T09:08:54.96Z</time></trkpt><trkpt lat="45.0724377" lon="1.3104317"><ele>169.5</ele><time>2026-04-02T09:08:56.961Z</time></trkpt><trkpt lat="45.0724671" lon="1.3103137"><ele>169.66666666666666</ele><time>2026-04-02T09:08:59.961Z</time></trkpt><trkpt lat="45.0725437" lon="1.3102512"><ele>169.83333333333331</ele><time>2026-04-02T09:09:02.962Z</time></trkpt><trkpt lat="45.0726171" lon="1.3102224"><ele>170.0</ele><time>2026-04-02T09:09:05.962Z</time></trkpt><trkpt lat="45.0726866" lon="1.3101833"><ele>170.0</ele><time>2026-04-02T09:09:09.962Z</time></trkpt><trkpt lat="45.0727128" lon="1.3100959"><ele>170.0</ele><time>2026-04-02T09:09:11.96Z</time></trkpt><trkpt lat="45.0727489" lon="1.3100046"><ele>170.0</ele><time>2026-04-02T09:09:14.962Z</time></trkpt><trkpt lat="45.0727931" lon="1.3099318"><ele>170.0</ele><time>2026-04-02T09:09:17.961Z</time></trkpt><trkpt lat="45.072838" lon="1.3098298"><ele>170.0</ele><time>2026-04-02T09:09:20.961Z</time></trkpt><trkpt lat="45.0728939" lon="1.3097343"><ele>170.0</ele><time>2026-04-02T09:09:23.96Z</time></trkpt><trkpt lat="45.0729594" lon="1.3096673"><ele>170.0</ele><time>2026-04-02T09:09:28.962Z</time></trkpt><trkpt lat="45.0730329" lon="1.3096705"><ele>170.0</ele><time>2026-04-02T09:09:32.962Z</time></trkpt><trkpt lat="45.0730871" lon="1.3097781"><ele>170.0</ele><time>2026-04-02T09:09:34.961Z</time></trkpt><trkpt lat="45.0731267" lon="1.3098503"><ele>170.0</ele><time>2026-04-02T09:09:35.962Z</time></trkpt><trkpt lat="45.073169" lon="1.3099379"><ele>170.0</ele><time>2026-04-02T09:09:36.962Z</time></trkpt><trkpt lat="45.0732044" lon="1.3100302"><ele>170.0</ele><time>2026-04-02T09:09:37.961Z</time></trkpt><trkpt lat="45.0732312" lon="1.3101262"><ele>170.0</ele><time>2026-04-02T09:09:38.96Z</time></trkpt><trkpt lat="45.0732405" lon="1.3102425"><ele>170.0</ele><time>2026-04-02T09:09:39.961Z</time></trkpt><trkpt lat="45.0732394" lon="1.3103669"><ele>170.0</ele><time>2026-04-02T09:09:40.96Z</time></trkpt><trkpt lat="45.0732312" lon="1.3104939"><ele>170.0</ele><time>2026-04-02T09:09:41.961Z</time></trkpt><trkpt lat="45.0732228" lon="1.3106325"><ele>170.0</ele><time>2026-04-02T09:09:42.961Z</time></trkpt><trkpt lat="45.0732011" lon="1.3107762"><ele>169.2</ele><time>2026-04-02T09:09:43.962Z</time></trkpt><trkpt lat="45.0731857" lon="1.3109007"><ele>168.4</ele><time>2026-04-02T09:09:44.961Z</time></trkpt><trkpt lat="45.0731614" lon="1.3110273"><ele>167.60000000000002</ele><time>2026-04-02T09:09:45.962Z</time></trkpt><trkpt lat="45.0731373" lon="1.3111545"><ele>166.8</ele><time>2026-04-02T09:09:46.96Z</time></trkpt><trkpt lat="45.0731093" lon="1.3112837"><ele>166.0</ele><time>2026-04-02T09:09:47.962Z</time></trkpt><trkpt lat="45.0730823" lon="1.3114056"><ele>164.0</ele><time>2026-04-02T09:09:48.962Z</time></trkpt><trkpt lat="45.0730645" lon="1.3115259"><ele>162.0</ele><time>2026-04-02T09:09:49.961Z</time></trkpt><trkpt lat="45.0730305" lon="1.3116568"><ele>160.0</ele><time>2026-04-02T09:09:50.961Z</time></trkpt><trkpt lat="45.073" lon="1.3117725"><ele>158.0</ele><time>2026-04-02T09:09:51.961Z</time></trkpt><trkpt lat="45.0729716" lon="1.3118903"><ele>156.0</ele><time>2026-04-02T09:09:52.96Z</time></trkpt><trkpt lat="45.0729395" lon="1.3120027"><ele>154.0</ele><time>2026-04-02T09:09:53.962Z</time></trkpt><trkpt lat="45.0729006" lon="1.3121047"><ele>154.0</ele><time>2026-04-02T09:09:54.96Z</time></trkpt><trkpt lat="45.07286" lon="1.3122153"><ele>154.0</ele><time>2026-04-02T09:09:55.96Z</time></trkpt><trkpt lat="45.0728174" lon="1.3123155"><ele>154.0</ele><time>2026-04-02T09:09:56.962Z</time></trkpt><trkpt lat="45.0727755" lon="1.3124287"><ele>154.0</ele><time>2026-04-02T09:09:57.962Z</time></trkpt><trkpt lat="45.0727403" lon="1.3125444"><ele>154.0</ele><time>2026-04-02T09:09:58.963Z</time></trkpt><trkpt lat="45.072722" lon="1.3126503"><ele>154.0</ele><time>2026-04-02T09:09:59.963Z</time></trkpt><trkpt lat="45.0726716" lon="1.3127582"><ele>152.83333333333334</ele><time>2026-04-02T09:10:01.961Z</time></trkpt><trkpt lat="45.0726066" lon="1.3127906"><ele>151.66666666666669</ele><time>2026-04-02T09:10:03.962Z</time></trkpt><trkpt lat="45.0725465" lon="1.3127576"><ele>150.5</ele><time>2026-04-02T09:10:04.962Z</time></trkpt><trkpt lat="45.0724808" lon="1.3127167"><ele>149.33333333333334</ele><time>2026-04-02T09:10:05.963Z</time></trkpt><trkpt lat="45.072415" lon="1.3126704"><ele>148.16666666666666</ele><time>2026-04-02T09:10:06.962Z</time></trkpt><trkpt lat="45.0723155" lon="1.3126148"><ele>147.0</ele><time>2026-04-02T09:10:07.961Z</time></trkpt><trkpt lat="45.0722222" lon="1.3125673"><ele>146.5</ele><time>2026-04-02T09:10:08.962Z</time></trkpt><trkpt lat="45.0721198" lon="1.3125083"><ele>146.0</ele><time>2026-04-02T09:10:09.962Z</time></trkpt><trkpt lat="45.0720094" lon="1.3124594"><ele>145.5</ele><time>2026-04-02T09:10:10.962Z</time></trkpt><trkpt lat="45.0718851" lon="1.3124195"><ele>145.0</ele><time>2026-04-02T09:10:11.962Z</time></trkpt><trkpt lat="45.0717505" lon="1.3123821"><ele>145.5</ele><time>2026-04-02T09:10:12.962Z</time></trkpt><trkpt lat="45.0716069" lon="1.3123354"><ele>146.0</ele><time>2026-04-02T09:10:13.962Z</time></trkpt><trkpt lat="45.0714651" lon="1.3122758"><ele>146.5</ele><time>2026-04-02T09:10:14.963Z</time></trkpt><trkpt lat="45.0713284" lon="1.3121982"><ele>147.0</ele><time>2026-04-02T09:10:15.963Z</time></trkpt><trkpt lat="45.0711911" lon="1.3121352"><ele>147.0</ele><time>2026-04-02T09:10:16.962Z</time></trkpt><trkpt lat="45.0710401" lon="1.3121024"><ele>147.0</ele><time>2026-04-02T09:10:17.962Z</time></trkpt><trkpt lat="45.0708885" lon="1.3120817"><ele>147.0</ele><time>2026-04-02T09:10:18.962Z</time></trkpt><trkpt lat="45.070738" lon="1.3120492"><ele>147.66666666666666</ele><time>2026-04-02T09:10:19.962Z</time></trkpt><trkpt lat="45.0705862" lon="1.3120218"><ele>148.33333333333331</ele><time>2026-04-02T09:10:20.962Z</time></trkpt><trkpt lat="45.0704289" lon="1.3120329"><ele>149.0</ele><time>2026-04-02T09:10:21.963Z</time></trkpt><trkpt lat="45.0702727" lon="1.3120708"><ele>149.0</ele><time>2026-04-02T09:10:22.962Z</time></trkpt><trkpt lat="45.0701315" lon="1.3121425"><ele>149.0</ele><time>2026-04-02T09:10:23.961Z</time></trkpt><trkpt lat="45.0699835" lon="1.3122607"><ele>149.0</ele><time>2026-04-02T09:10:24.963Z</time></trkpt><trkpt lat="45.0698378" lon="1.3123901"><ele>148.66666666666666</ele><time>2026-04-02T09:10:25.963Z</time></trkpt><trkpt lat="45.0696798" lon="1.3125184"><ele>148.33333333333334</ele><time>2026-04-02T09:10:26.963Z</time></trkpt><trkpt lat="45.0695035" lon="1.3126299"><ele>148.0</ele><time>2026-04-02T09:10:27.962Z</time></trkpt><trkpt lat="45.0693214" lon="1.3127332"><ele>148.0</ele><time>2026-04-02T09:10:28.962Z</time></trkpt><trkpt lat="45.0691336" lon="1.3128223"><ele>148.0</ele><time>2026-04-02T09:10:29.963Z</time></trkpt><trkpt lat="45.0689522" lon="1.3129178"><ele>148.0</ele><time>2026-04-02T09:10:30.962Z</time></trkpt><trkpt lat="45.068768" lon="1.3130371"><ele>148.0</ele><time>2026-04-02T09:10:31.963Z</time></trkpt><trkpt lat="45.0685869" lon="1.3131876"><ele>148.0</ele><time>2026-04-02T09:10:32.962Z</time></trkpt><trkpt lat="45.0684127" lon="1.3133778"><ele>148.0</ele><time>2026-04-02T09:10:33.963Z</time></trkpt><trkpt lat="45.0682383" lon="1.3135721"><ele>148.5</ele><time>2026-04-02T09:10:34.963Z</time></trkpt><trkpt lat="45.0680408" lon="1.3137469"><ele>149.0</ele><time>2026-04-02T09:10:35.963Z</time></trkpt><trkpt lat="45.0678453" lon="1.3139029"><ele>149.33333333333331</ele><time>2026-04-02T09:10:36.963Z</time></trkpt><trkpt lat="45.0676557" lon="1.3140466"><ele>149.66666666666666</ele><time>2026-04-02T09:10:37.963Z</time></trkpt><trkpt lat="45.0674782" lon="1.3141788"><ele>150.0</ele><time>2026-04-02T09:10:38.962Z</time></trkpt><trkpt lat="45.0673196" lon="1.3143212"><ele>150.0</ele><time>2026-04-02T09:10:39.962Z</time></trkpt><trkpt lat="45.0671735" lon="1.3144865"><ele>150.0</ele><time>2026-04-02T09:10:40.962Z</time></trkpt><trkpt lat="45.0670399" lon="1.3146732"><ele>150.0</ele><time>2026-04-02T09:10:41.962Z</time></trkpt><trkpt lat="45.0669215" lon="1.3148775"><ele>149.33333333333334</ele><time>2026-04-02T09:10:42.962Z</time></trkpt><trkpt lat="45.0668223" lon="1.3151056"><ele>148.66666666666669</ele><time>2026-04-02T09:10:43.962Z</time></trkpt><trkpt lat="45.066741" lon="1.3153696"><ele>148.0</ele><time>2026-04-02T09:10:44.961Z</time></trkpt><trkpt lat="45.0666714" lon="1.3156451"><ele>148.33333333333334</ele><time>2026-04-02T09:10:45.962Z</time></trkpt><trkpt lat="45.0666074" lon="1.315915"><ele>148.66666666666666</ele><time>2026-04-02T09:10:46.962Z</time></trkpt><trkpt lat="45.0665467" lon="1.3161871"><ele>149.0</ele><time>2026-04-02T09:10:47.962Z</time></trkpt><trkpt lat="45.0664865" lon="1.3164552"><ele>149.0</ele><time>2026-04-02T09:10:48.962Z</time></trkpt><trkpt lat="45.0664313" lon="1.3167226"><ele>149.0</ele><time>2026-04-02T09:10:49.962Z</time></trkpt><trkpt lat="45.0663858" lon="1.3169912"><ele>149.0</ele><time>2026-04-02T09:10:50.962Z</time></trkpt><trkpt lat="45.0663436" lon="1.3172596"><ele>148.66666666666666</ele><time>2026-04-02T09:10:51.962Z</time></trkpt><trkpt lat="45.066304" lon="1.3175276"><ele>148.33333333333334</ele><time>2026-04-02T09:10:52.962Z</time></trkpt><trkpt lat="45.0662693" lon="1.3177917"><ele>148.0</ele><time>2026-04-02T09:10:53.962Z</time></trkpt><trkpt lat="45.0662302" lon="1.3180677"><ele>148.66666666666669</ele><time>2026-04-02T09:10:54.963Z</time></trkpt><trkpt lat="45.066183" lon="1.3183377"><ele>149.33333333333334</ele><time>2026-04-02T09:10:55.963Z</time></trkpt><trkpt lat="45.0661258" lon="1.3186088"><ele>150.0</ele><time>2026-04-02T09:10:56.963Z</time></trkpt><trkpt lat="45.0660581" lon="1.3188689"><ele>151.66666666666666</ele><time>2026-04-02T09:10:57.963Z</time></trkpt><trkpt lat="45.0659864" lon="1.3190948"><ele>153.33333333333331</ele><time>2026-04-02T09:10:58.962Z</time></trkpt><trkpt lat="45.0659177" lon="1.3192894"><ele>155.0</ele><time>2026-04-02T09:10:59.963Z</time></trkpt><trkpt lat="45.0658509" lon="1.319463"><ele>155.0</ele><time>2026-04-02T09:11:00.963Z</time></trkpt><trkpt lat="45.0657875" lon="1.319623"><ele>155.0</ele><time>2026-04-02T09:11:01.962Z</time></trkpt><trkpt lat="45.0657276" lon="1.3197717"><ele>155.0</ele><time>2026-04-02T09:11:02.962Z</time></trkpt><trkpt lat="45.0656633" lon="1.3199141"><ele>155.0</ele><time>2026-04-02T09:11:03.961Z</time></trkpt><trkpt lat="45.0655867" lon="1.3200616"><ele>154.5</ele><time>2026-04-02T09:11:04.963Z</time></trkpt><trkpt lat="45.0655088" lon="1.3202093"><ele>154.0</ele><time>2026-04-02T09:11:05.962Z</time></trkpt><trkpt lat="45.0654276" lon="1.3203662"><ele>153.5</ele><time>2026-04-02T09:11:06.962Z</time></trkpt><trkpt lat="45.0653535" lon="1.320522"><ele>153.0</ele><time>2026-04-02T09:11:07.962Z</time></trkpt><trkpt lat="45.0652835" lon="1.3206696"><ele>153.0</ele><time>2026-04-02T09:11:08.962Z</time></trkpt><trkpt lat="45.0652171" lon="1.3207929"><ele>153.0</ele><time>2026-04-02T09:11:09.963Z</time></trkpt><trkpt lat="45.0651423" lon="1.3209004"><ele>153.0</ele><time>2026-04-02T09:11:10.962Z</time></trkpt><trkpt lat="45.0650527" lon="1.3210037"><ele>153.0</ele><time>2026-04-02T09:11:11.962Z</time></trkpt><trkpt lat="45.0649399" lon="1.3210962"><ele>152.0</ele><time>2026-04-02T09:11:12.962Z</time></trkpt><trkpt lat="45.0648322" lon="1.3211568"><ele>151.0</ele><time>2026-04-02T09:11:13.962Z</time></trkpt><trkpt lat="45.0647108" lon="1.3211993"><ele>150.0</ele><time>2026-04-02T09:11:14.962Z</time></trkpt><trkpt lat="45.0645832" lon="1.3212164"><ele>149.0</ele><time>2026-04-02T09:11:15.962Z</time></trkpt><trkpt lat="45.064449" lon="1.3212193"><ele>149.0</ele><time>2026-04-02T09:11:16.962Z</time></trkpt><trkpt lat="45.0643084" lon="1.3212304"><ele>149.0</ele><time>2026-04-02T09:11:17.963Z</time></trkpt><trkpt lat="45.0641662" lon="1.3212511"><ele>149.0</ele><time>2026-04-02T09:11:18.963Z</time></trkpt><trkpt lat="45.06402" lon="1.321278"><ele>149.0</ele><time>2026-04-02T09:11:19.963Z</time></trkpt><trkpt lat="45.0638746" lon="1.3213139"><ele>151.33333333333331</ele><time>2026-04-02T09:11:20.962Z</time></trkpt><trkpt lat="45.0637261" lon="1.3213714"><ele>153.66666666666666</ele><time>2026-04-02T09:11:21.961Z</time></trkpt><trkpt lat="45.0635777" lon="1.3214516"><ele>156.0</ele><time>2026-04-02T09:11:22.961Z</time></trkpt><trkpt lat="45.0634315" lon="1.3215477"><ele>156.0</ele><time>2026-04-02T09:11:23.962Z</time></trkpt><trkpt lat="45.063285" lon="1.3216426"><ele>156.0</ele><time>2026-04-02T09:11:24.962Z</time></trkpt><trkpt lat="45.0631474" lon="1.3217427"><ele>156.0</ele><time>2026-04-02T09:11:25.962Z</time></trkpt><trkpt lat="45.0630282" lon="1.3218422"><ele>156.25</ele><time>2026-04-02T09:11:26.963Z</time></trkpt><trkpt lat="45.0629211" lon="1.3219434"><ele>156.5</ele><time>2026-04-02T09:11:27.962Z</time></trkpt><trkpt lat="45.0628264" lon="1.3220414"><ele>156.75</ele><time>2026-04-02T09:11:28.963Z</time></trkpt><trkpt lat="45.0627461" lon="1.3221362"><ele>157.0</ele><time>2026-04-02T09:11:29.963Z</time></trkpt><trkpt lat="45.0626687" lon="1.3222258"><ele>157.0</ele><time>2026-04-02T09:11:30.963Z</time></trkpt><trkpt lat="45.0626046" lon="1.3223154"><ele>157.0</ele><time>2026-04-02T09:11:31.962Z</time></trkpt><trkpt lat="45.0625463" lon="1.3224002"><ele>157.0</ele><time>2026-04-02T09:11:32.962Z</time></trkpt><trkpt lat="45.0624963" lon="1.3224815"><ele>157.0</ele><time>2026-04-02T09:11:33.963Z</time></trkpt><trkpt lat="45.0624532" lon="1.3225585"><ele>157.0</ele><time>2026-04-02T09:11:34.962Z</time></trkpt><trkpt lat="45.062386" lon="1.3226995"><ele>157.0</ele><time>2026-04-02T09:11:36.962Z</time></trkpt><trkpt lat="45.0623408" lon="1.3228199"><ele>157.4</ele><time>2026-04-02T09:11:38.963Z</time></trkpt><trkpt lat="45.0623028" lon="1.3229453"><ele>157.79999999999998</ele><time>2026-04-02T09:11:40.962Z</time></trkpt><trkpt lat="45.0622636" lon="1.3230794"><ele>158.2</ele><time>2026-04-02T09:11:42.962Z</time></trkpt><trkpt lat="45.0622254" lon="1.3232237"><ele>158.6</ele><time>2026-04-02T09:11:44.963Z</time></trkpt><trkpt lat="45.0622073" lon="1.3233775"><ele>159.0</ele><time>2026-04-02T09:11:46.962Z</time></trkpt><trkpt lat="45.0622112" lon="1.3235327"><ele>159.0</ele><time>2026-04-02T09:11:48.962Z</time></trkpt><trkpt lat="45.0622278" lon="1.3236698"><ele>159.0</ele><time>2026-04-02T09:11:50.961Z</time></trkpt><trkpt lat="45.0622443" lon="1.3237706"><ele>159.0</ele><time>2026-04-02T09:11:52.961Z</time></trkpt><trkpt lat="45.0622551" lon="1.3238723"><ele>159.0</ele><time>2026-04-02T09:11:55.963Z</time></trkpt><trkpt lat="45.0622577" lon="1.3239816"><ele>159.0</ele><time>2026-04-02T09:12:10.962Z</time></trkpt><trkpt lat="45.062265" lon="1.3241359"><ele>159.0</ele><time>2026-04-02T09:12:12.962Z</time></trkpt><trkpt lat="45.0622668" lon="1.324291"><ele>159.0</ele><time>2026-04-02T09:12:14.962Z</time></trkpt><trkpt lat="45.0622919" lon="1.3244588"><ele>159.0</ele><time>2026-04-02T09:12:16.961Z</time></trkpt><trkpt lat="45.0623337" lon="1.3245486"><ele>159.0</ele><time>2026-04-02T09:12:17.962Z</time></trkpt><trkpt lat="45.0624" lon="1.3246349"><ele>159.0</ele><time>2026-04-02T09:12:18.962Z</time></trkpt><trkpt lat="45.0624738" lon="1.3247264"><ele>159.0</ele><time>2026-04-02T09:12:19.962Z</time></trkpt><trkpt lat="45.0625589" lon="1.3248437"><ele>160.5</ele><time>2026-04-02T09:12:20.961Z</time></trkpt><trkpt lat="45.0626493" lon="1.3249827"><ele>162.0</ele><time>2026-04-02T09:12:21.962Z</time></trkpt><trkpt lat="45.0627315" lon="1.3251255"><ele>163.5</ele><time>2026-04-02T09:12:22.963Z</time></trkpt><trkpt lat="45.0628184" lon="1.3253001"><ele>165.0</ele><time>2026-04-02T09:12:23.963Z</time></trkpt><trkpt lat="45.0628915" lon="1.3254862"><ele>166.25</ele><time>2026-04-02T09:12:24.962Z</time></trkpt><trkpt lat="45.0629594" lon="1.3256723"><ele>167.5</ele><time>2026-04-02T09:12:25.962Z</time></trkpt><trkpt lat="45.0630013" lon="1.3258622"><ele>168.75</ele><time>2026-04-02T09:12:26.962Z</time></trkpt><trkpt lat="45.0630086" lon="1.3260704"><ele>170.0</ele><time>2026-04-02T09:12:27.963Z</time></trkpt><trkpt lat="45.0630033" lon="1.326293"><ele>171.66666666666666</ele><time>2026-04-02T09:12:28.961Z</time></trkpt><trkpt lat="45.0629847" lon="1.3265366"><ele>173.33333333333334</ele><time>2026-04-02T09:12:29.962Z</time></trkpt><trkpt lat="45.0629567" lon="1.3267831"><ele>175.0</ele><time>2026-04-02T09:12:30.962Z</time></trkpt><trkpt lat="45.0629284" lon="1.3270015"><ele>175.0</ele><time>2026-04-02T09:12:31.962Z</time></trkpt><trkpt lat="45.0629086" lon="1.3272041"><ele>175.0</ele><time>2026-04-02T09:12:32.962Z</time></trkpt><trkpt lat="45.0629113" lon="1.3273841"><ele>175.0</ele><time>2026-04-02T09:12:33.961Z</time></trkpt><trkpt lat="45.0629445" lon="1.3275247"><ele>175.0</ele><time>2026-04-02T09:12:34.962Z</time></trkpt><trkpt lat="45.0629676" lon="1.327637"><ele>175.0</ele><time>2026-04-02T09:12:35.962Z</time></trkpt><trkpt lat="45.0629739" lon="1.3277289"><ele>175.0</ele><time>2026-04-02T09:12:36.963Z</time></trkpt><trkpt lat="45.0629541" lon="1.3278834"><ele>175.0</ele><time>2026-04-02T09:12:38.963Z</time></trkpt><trkpt lat="45.0629313" lon="1.3280232"><ele>175.0</ele><time>2026-04-02T09:12:40.963Z</time></trkpt><trkpt lat="45.062918" lon="1.3281165"><ele>175.0</ele><time>2026-04-02T09:12:42.963Z</time></trkpt><trkpt lat="45.0629228" lon="1.3282147"><ele>175.0</ele><time>2026-04-02T09:12:49.963Z</time></trkpt><trkpt lat="45.0629903" lon="1.3281871"><ele>175.0</ele><time>2026-04-02T09:12:55.962Z</time></trkpt><trkpt lat="45.0630409" lon="1.3281319"><ele>175.0</ele><time>2026-04-02T09:13:09.963Z</time></trkpt><trkpt lat="45.0631088" lon="1.3281222"><ele>175.0</ele><time>2026-04-02T09:14:00.963Z</time></trkpt><trkpt lat="45.0631638" lon="1.3281716"><ele>175.0</ele><time>2026-04-02T09:14:05.962Z</time></trkpt><trkpt lat="45.0632248" lon="1.3281951"><ele>175.0</ele><time>2026-04-02T09:14:08.962Z</time></trkpt><trkpt lat="45.0631795" lon="1.3282659"><ele>175.0</ele><time>2026-04-02T09:14:33.964Z</time></trkpt><trkpt lat="45.0631434" lon="1.3283398"><ele>175.0</ele><time>2026-04-02T09:14:40.964Z</time></trkpt><trkpt lat="45.0631514" lon="1.328227"><ele>175.0</ele><time>2026-04-02T09:15:12.964Z</time></trkpt><trkpt lat="45.0631857" lon="1.328121"><ele>175.0</ele><time>2026-04-02T09:15:15.964Z</time></trkpt><trkpt lat="45.0632183" lon="1.3280237"><ele>175.0</ele><time>2026-04-02T09:15:18.963Z</time></trkpt><trkpt lat="45.0632271" lon="1.3279288"><ele>175.0</ele><time>2026-04-02T09:15:21.963Z</time></trkpt><trkpt lat="45.0632547" lon="1.3278475"><ele>175.0</ele><time>2026-04-02T09:15:24.964Z</time></trkpt><trkpt lat="45.0632913" lon="1.327758"><ele>175.0</ele><time>2026-04-02T09:15:27.963Z</time></trkpt><trkpt lat="45.0632748" lon="1.3276598"><ele>175.0</ele><time>2026-04-02T09:15:30.964Z</time></trkpt><trkpt lat="45.0632834" lon="1.3275565"><ele>175.33333333333334</ele><time>2026-04-02T09:15:33.963Z</time></trkpt><trkpt lat="45.0632972" lon="1.3274613"><ele>175.66666666666669</ele><time>2026-04-02T09:15:38.963Z</time></trkpt><trkpt lat="45.0633189" lon="1.3273746"><ele>176.0</ele><time>2026-04-02T09:15:43.963Z</time></trkpt><trkpt lat="45.0633717" lon="1.3272818"><ele>176.33333333333334</ele><time>2026-04-02T09:15:47.963Z</time></trkpt><trkpt lat="45.0634357" lon="1.3273284"><ele>176.66666666666666</ele><time>2026-04-02T09:16:02.963Z</time></trkpt><trkpt lat="45.0634981" lon="1.3272454"><ele>177.0</ele><time>2026-04-02T09:16:06.963Z</time></trkpt><trkpt lat="45.0635551" lon="1.3271449"><ele>176.33333333333334</ele><time>2026-04-02T09:16:09.963Z</time></trkpt><trkpt lat="45.0635814" lon="1.3270588"><ele>175.66666666666666</ele><time>2026-04-02T09:16:11.962Z</time></trkpt><trkpt lat="45.0635934" lon="1.3269566"><ele>175.0</ele><time>2026-04-02T09:16:13.964Z</time></trkpt><trkpt lat="45.0635944" lon="1.3268106"><ele>174.33333333333331</ele><time>2026-04-02T09:16:15.964Z</time></trkpt><trkpt lat="45.0636039" lon="1.3267194"><ele>173.66666666666666</ele><time>2026-04-02T09:16:16.962Z</time></trkpt><trkpt lat="45.063609" lon="1.3266082"><ele>173.0</ele><time>2026-04-02T09:16:17.963Z</time></trkpt><trkpt lat="45.0636003" lon="1.3264954"><ele>173.14285714285714</ele><time>2026-04-02T09:16:18.963Z</time></trkpt><trkpt lat="45.0635817" lon="1.3263903"><ele>173.2857142857143</ele><time>2026-04-02T09:16:19.963Z</time></trkpt><trkpt lat="45.0635629" lon="1.3262879"><ele>173.42857142857144</ele><time>2026-04-02T09:16:20.963Z</time></trkpt><trkpt lat="45.0635427" lon="1.3261888"><ele>173.57142857142856</ele><time>2026-04-02T09:16:21.964Z</time></trkpt><trkpt lat="45.0635196" lon="1.3260954"><ele>173.71428571428572</ele><time>2026-04-02T09:16:22.963Z</time></trkpt><trkpt lat="45.0635007" lon="1.3260043"><ele>173.85714285714286</ele><time>2026-04-02T09:16:23.963Z</time></trkpt><trkpt lat="45.0634845" lon="1.3259142"><ele>174.0</ele><time>2026-04-02T09:16:24.963Z</time></trkpt><trkpt lat="45.0634403" lon="1.325746"><ele>174.0</ele><time>2026-04-02T09:16:26.963Z</time></trkpt><trkpt lat="45.0634099" lon="1.3256643"><ele>174.0</ele><time>2026-04-02T09:16:27.963Z</time></trkpt><trkpt lat="45.0633428" lon="1.3255188"><ele>174.0</ele><time>2026-04-02T09:16:29.964Z</time></trkpt><trkpt lat="45.0632816" lon="1.3253653"><ele>174.0</ele><time>2026-04-02T09:16:31.964Z</time></trkpt><trkpt lat="45.0632455" lon="1.3252878"><ele>174.0</ele><time>2026-04-02T09:16:32.963Z</time></trkpt><trkpt lat="45.0632098" lon="1.3252088"><ele>174.0</ele><time>2026-04-02T09:16:33.963Z</time></trkpt><trkpt lat="45.0631712" lon="1.3251284"><ele>172.2</ele><time>2026-04-02T09:16:34.963Z</time></trkpt><trkpt lat="45.063138" lon="1.3250489"><ele>170.39999999999998</ele><time>2026-04-02T09:16:35.964Z</time></trkpt><trkpt lat="45.0631059" lon="1.3249698"><ele>168.6</ele><time>2026-04-02T09:16:36.963Z</time></trkpt><trkpt lat="45.0630394" lon="1.3248263"><ele>166.8</ele><time>2026-04-02T09:16:38.963Z</time></trkpt><trkpt lat="45.0629698" lon="1.3246908"><ele>165.0</ele><time>2026-04-02T09:16:40.963Z</time></trkpt><trkpt lat="45.0629002" lon="1.324562"><ele>164.6</ele><time>2026-04-02T09:16:42.962Z</time></trkpt><trkpt lat="45.0628323" lon="1.3244353"><ele>164.2</ele><time>2026-04-02T09:16:44.964Z</time></trkpt><trkpt lat="45.0627531" lon="1.3243319"><ele>163.8</ele><time>2026-04-02T09:16:46.964Z</time></trkpt><trkpt lat="45.0626823" lon="1.3242244"><ele>163.4</ele><time>2026-04-02T09:16:48.963Z</time></trkpt><trkpt lat="45.0626025" lon="1.3241276"><ele>163.0</ele><time>2026-04-02T09:16:50.963Z</time></trkpt><trkpt lat="45.0625086" lon="1.3240505"><ele>162.33333333333334</ele><time>2026-04-02T09:16:52.964Z</time></trkpt><trkpt lat="45.0624031" lon="1.3239894"><ele>161.66666666666669</ele><time>2026-04-02T09:16:54.963Z</time></trkpt><trkpt lat="45.0622892" lon="1.3240439"><ele>161.0</ele><time>2026-04-02T09:16:56.963Z</time></trkpt><trkpt lat="45.0622604" lon="1.3241323"><ele>160.33333333333334</ele><time>2026-04-02T09:16:57.962Z</time></trkpt><trkpt lat="45.0622596" lon="1.3242257"><ele>159.66666666666666</ele><time>2026-04-02T09:16:58.962Z</time></trkpt><trkpt lat="45.0622646" lon="1.3243243"><ele>159.0</ele><time>2026-04-02T09:16:59.964Z</time></trkpt><trkpt lat="45.0622786" lon="1.3244269"><ele>159.0</ele><time>2026-04-02T09:17:00.963Z</time></trkpt><trkpt lat="45.0623156" lon="1.3245205"><ele>159.0</ele><time>2026-04-02T09:17:01.964Z</time></trkpt><trkpt lat="45.062374" lon="1.3246048"><ele>159.0</ele><time>2026-04-02T09:17:02.963Z</time></trkpt><trkpt lat="45.0624378" lon="1.3246825"><ele>159.0</ele><time>2026-04-02T09:17:03.963Z</time></trkpt><trkpt lat="45.0625037" lon="1.3247675"><ele>159.0</ele><time>2026-04-02T09:17:04.963Z</time></trkpt><trkpt lat="45.0625668" lon="1.324856"><ele>159.0</ele><time>2026-04-02T09:17:05.963Z</time></trkpt><trkpt lat="45.0626284" lon="1.3249493"><ele>160.2</ele><time>2026-04-02T09:17:06.962Z</time></trkpt><trkpt lat="45.0626876" lon="1.3250464"><ele>161.4</ele><time>2026-04-02T09:17:07.963Z</time></trkpt><trkpt lat="45.0627455" lon="1.3251472"><ele>162.6</ele><time>2026-04-02T09:17:08.963Z</time></trkpt><trkpt lat="45.0627987" lon="1.3252561"><ele>163.8</ele><time>2026-04-02T09:17:09.964Z</time></trkpt><trkpt lat="45.0628467" lon="1.3253706"><ele>165.0</ele><time>2026-04-02T09:17:10.963Z</time></trkpt><trkpt lat="45.0628937" lon="1.3254842"><ele>165.83333333333334</ele><time>2026-04-02T09:17:11.963Z</time></trkpt><trkpt lat="45.062938" lon="1.3256019"><ele>166.66666666666666</ele><time>2026-04-02T09:17:12.964Z</time></trkpt><trkpt lat="45.0629744" lon="1.3257212"><ele>167.5</ele><time>2026-04-02T09:17:13.962Z</time></trkpt><trkpt lat="45.0629988" lon="1.3258373"><ele>168.33333333333331</ele><time>2026-04-02T09:17:14.963Z</time></trkpt><trkpt lat="45.0630126" lon="1.3259502"><ele>169.16666666666666</ele><time>2026-04-02T09:17:15.963Z</time></trkpt><trkpt lat="45.0630144" lon="1.3260597"><ele>170.0</ele><time>2026-04-02T09:17:16.963Z</time></trkpt><trkpt lat="45.0630122" lon="1.3261703"><ele>170.0</ele><time>2026-04-02T09:17:17.964Z</time></trkpt><trkpt lat="45.0630079" lon="1.326279"><ele>170.0</ele><time>2026-04-02T09:17:18.963Z</time></trkpt><trkpt lat="45.0630024" lon="1.326388"><ele>170.0</ele><time>2026-04-02T09:17:19.963Z</time></trkpt><trkpt lat="45.0629954" lon="1.326502"><ele>170.0</ele><time>2026-04-02T09:17:20.964Z</time></trkpt><trkpt lat="45.0629808" lon="1.3266139"><ele>170.0</ele><time>2026-04-02T09:17:21.963Z</time></trkpt><trkpt lat="45.0629646" lon="1.326731"><ele>170.0</ele><time>2026-04-02T09:17:22.963Z</time></trkpt><trkpt lat="45.0629496" lon="1.3268478"><ele>170.66666666666666</ele><time>2026-04-02T09:17:23.963Z</time></trkpt><trkpt lat="45.0629362" lon="1.3269654"><ele>171.33333333333331</ele><time>2026-04-02T09:17:24.963Z</time></trkpt><trkpt lat="45.06292" lon="1.3270761"><ele>172.0</ele><time>2026-04-02T09:17:25.963Z</time></trkpt><trkpt lat="45.0629085" lon="1.3271847"><ele>172.66666666666666</ele><time>2026-04-02T09:17:26.963Z</time></trkpt><trkpt lat="45.0629004" lon="1.3272938"><ele>173.33333333333334</ele><time>2026-04-02T09:17:27.964Z</time></trkpt><trkpt lat="45.062912" lon="1.3274012"><ele>174.0</ele><time>2026-04-02T09:17:28.963Z</time></trkpt><trkpt lat="45.0629371" lon="1.3274985"><ele>174.0</ele><time>2026-04-02T09:17:29.964Z</time></trkpt><trkpt lat="45.0629655" lon="1.3276197"><ele>174.0</ele><time>2026-04-02T09:17:31.963Z</time></trkpt><trkpt lat="45.0629547" lon="1.3277183"><ele>174.0</ele><time>2026-04-02T09:17:44.963Z</time></trkpt><trkpt lat="45.0629665" lon="1.3278135"><ele>174.0</ele><time>2026-04-02T09:17:48.963Z</time></trkpt><trkpt lat="45.0629496" lon="1.327905"><ele>174.0</ele><time>2026-04-02T09:17:52.963Z</time></trkpt><trkpt lat="45.062928" lon="1.3280218"><ele>174.0</ele><time>2026-04-02T09:17:56.963Z</time></trkpt><trkpt lat="45.062905" lon="1.3281119"><ele>174.0</ele><time>2026-04-02T09:17:59.963Z</time></trkpt><trkpt lat="45.0629033" lon="1.3282041"><ele>174.14285714285714</ele><time>2026-04-02T09:18:02.963Z</time></trkpt><trkpt lat="45.0628861" lon="1.3283027"><ele>174.28571428571428</ele><time>2026-04-02T09:18:05.964Z</time></trkpt><trkpt lat="45.0628822" lon="1.3283945"><ele>174.42857142857144</ele><time>2026-04-02T09:18:08.964Z</time></trkpt><trkpt lat="45.0628688" lon="1.328494"><ele>174.57142857142856</ele><time>2026-04-02T09:18:11.964Z</time></trkpt><trkpt lat="45.062849" lon="1.3285927"><ele>174.71428571428572</ele><time>2026-04-02T09:18:14.964Z</time></trkpt><trkpt lat="45.0628282" lon="1.3286846"><ele>174.85714285714286</ele><time>2026-04-02T09:18:17.964Z</time></trkpt><trkpt lat="45.0628236" lon="1.3287738"><ele>175.0</ele><time>2026-04-02T09:18:20.964Z</time></trkpt><trkpt lat="45.0627848" lon="1.3288512"><ele>175.0</ele><time>2026-04-02T09:24:17.965Z</time></trkpt><trkpt lat="45.0627959" lon="1.32894"><ele>175.0</ele><time>2026-04-02T09:24:22.965Z</time></trkpt><trkpt lat="45.0628858" lon="1.3289559"><ele>175.0</ele><time>2026-04-02T09:24:25.966Z</time></trkpt><trkpt lat="45.0629234" lon="1.3288673"><ele>175.0</ele><time>2026-04-02T09:24:27.965Z</time></trkpt><trkpt lat="45.0628673" lon="1.3288243"><ele>175.0</ele><time>2026-04-02T09:24:37.965Z</time></trkpt><trkpt lat="45.062812" lon="1.3287659"><ele>175.0</ele><time>2026-04-02T09:24:41.965Z</time></trkpt><trkpt lat="45.0628177" lon="1.3286764"><ele>175.0</ele><time>2026-04-02T09:24:44.965Z</time></trkpt><trkpt lat="45.0628431" lon="1.328568"><ele>175.0</ele><time>2026-04-02T09:24:47.966Z</time></trkpt><trkpt lat="45.0628745" lon="1.3284795"><ele>175.0</ele><time>2026-04-02T09:24:50.966Z</time></trkpt><trkpt lat="45.0628179" lon="1.3285237"><ele>175.0</ele><time>2026-04-02T09:24:58.965Z</time></trkpt><trkpt lat="45.0628325" lon="1.3286356"><ele>175.0</ele><time>2026-04-02T09:24:59.966Z</time></trkpt><trkpt lat="45.0628186" lon="1.3287317"><ele>175.0</ele><time>2026-04-02T09:25:00.965Z</time></trkpt><trkpt lat="45.0628082" lon="1.3288363"><ele>175.0</ele><time>2026-04-02T09:25:01.965Z</time></trkpt><trkpt lat="45.0628092" lon="1.3289528"><ele>175.0</ele><time>2026-04-02T09:25:02.966Z</time></trkpt><trkpt lat="45.0628244" lon="1.3290941"><ele>175.25</ele><time>2026-04-02T09:25:03.966Z</time></trkpt><trkpt lat="45.0628553" lon="1.3292502"><ele>175.5</ele><time>2026-04-02T09:25:04.966Z</time></trkpt><trkpt lat="45.0628881" lon="1.3294055"><ele>175.75</ele><time>2026-04-02T09:25:05.966Z</time></trkpt><trkpt lat="45.0629242" lon="1.3295752"><ele>176.0</ele><time>2026-04-02T09:25:06.966Z</time></trkpt><trkpt lat="45.0629628" lon="1.3297571"><ele>176.0</ele><time>2026-04-02T09:25:07.965Z</time></trkpt><trkpt lat="45.0630059" lon="1.3299465"><ele>176.0</ele><time>2026-04-02T09:25:08.966Z</time></trkpt><trkpt lat="45.0630562" lon="1.3301452"><ele>176.0</ele><time>2026-04-02T09:25:09.966Z</time></trkpt><trkpt lat="45.06311" lon="1.3303513"><ele>176.0</ele><time>2026-04-02T09:25:10.965Z</time></trkpt><trkpt lat="45.0631649" lon="1.3305651"><ele>176.0</ele><time>2026-04-02T09:25:11.966Z</time></trkpt><trkpt lat="45.0632247" lon="1.3307796"><ele>176.0</ele><time>2026-04-02T09:25:12.966Z</time></trkpt><trkpt lat="45.063288" lon="1.3309866"><ele>176.0</ele><time>2026-04-02T09:25:13.966Z</time></trkpt><trkpt lat="45.0633471" lon="1.3311932"><ele>175.25</ele><time>2026-04-02T09:25:14.965Z</time></trkpt><trkpt lat="45.0633847" lon="1.3314002"><ele>174.5</ele><time>2026-04-02T09:25:15.965Z</time></trkpt><trkpt lat="45.0633951" lon="1.3315916"><ele>173.75</ele><time>2026-04-02T09:25:16.965Z</time></trkpt><trkpt lat="45.0633986" lon="1.3317701"><ele>173.0</ele><time>2026-04-02T09:25:17.965Z</time></trkpt><trkpt lat="45.063401" lon="1.3319314"><ele>173.0</ele><time>2026-04-02T09:25:18.965Z</time></trkpt><trkpt lat="45.0634097" lon="1.3320755"><ele>173.0</ele><time>2026-04-02T09:25:19.965Z</time></trkpt><trkpt lat="45.0634191" lon="1.3322133"><ele>173.0</ele><time>2026-04-02T09:25:20.965Z</time></trkpt><trkpt lat="45.063417" lon="1.3323416"><ele>173.0</ele><time>2026-04-02T09:25:21.965Z</time></trkpt><trkpt lat="45.0633891" lon="1.3324505"><ele>173.0</ele><time>2026-04-02T09:25:22.964Z</time></trkpt><trkpt lat="45.0633333" lon="1.3325513"><ele>175.25</ele><time>2026-04-02T09:25:23.965Z</time></trkpt><trkpt lat="45.0632574" lon="1.3326537"><ele>177.5</ele><time>2026-04-02T09:25:24.965Z</time></trkpt><trkpt lat="45.06319" lon="1.3327774"><ele>179.75</ele><time>2026-04-02T09:25:25.965Z</time></trkpt><trkpt lat="45.0631385" lon="1.3329135"><ele>182.0</ele><time>2026-04-02T09:25:26.965Z</time></trkpt><trkpt lat="45.0630672" lon="1.333062"><ele>182.0</ele><time>2026-04-02T09:25:27.965Z</time></trkpt><trkpt lat="45.0629944" lon="1.3331911"><ele>182.0</ele><time>2026-04-02T09:25:28.966Z</time></trkpt><trkpt lat="45.0629286" lon="1.333326"><ele>182.0</ele><time>2026-04-02T09:25:29.964Z</time></trkpt><trkpt lat="45.0628499" lon="1.333467"><ele>182.0</ele><time>2026-04-02T09:25:30.965Z</time></trkpt><trkpt lat="45.0627719" lon="1.3335996"><ele>182.0</ele><time>2026-04-02T09:25:31.965Z</time></trkpt><trkpt lat="45.0626918" lon="1.3337334"><ele>182.0</ele><time>2026-04-02T09:25:32.965Z</time></trkpt><trkpt lat="45.0626138" lon="1.3338701"><ele>182.0</ele><time>2026-04-02T09:25:33.965Z</time></trkpt><trkpt lat="45.0625438" lon="1.3340156"><ele>182.0</ele><time>2026-04-02T09:25:34.964Z</time></trkpt><trkpt lat="45.06248" lon="1.3341723"><ele>184.0</ele><time>2026-04-02T09:25:35.966Z</time></trkpt><trkpt lat="45.062422" lon="1.3343356"><ele>186.0</ele><time>2026-04-02T09:25:36.965Z</time></trkpt><trkpt lat="45.0623649" lon="1.3345004"><ele>188.0</ele><time>2026-04-02T09:25:37.966Z</time></trkpt><trkpt lat="45.0623096" lon="1.3346617"><ele>190.0</ele><time>2026-04-02T09:25:38.966Z</time></trkpt><trkpt lat="45.0622642" lon="1.3348221"><ele>190.0</ele><time>2026-04-02T09:25:39.966Z</time></trkpt><trkpt lat="45.062224" lon="1.3349768"><ele>190.0</ele><time>2026-04-02T09:25:40.966Z</time></trkpt><trkpt lat="45.0621937" lon="1.3351192"><ele>190.0</ele><time>2026-04-02T09:25:41.965Z</time></trkpt><trkpt lat="45.0621773" lon="1.3352636"><ele>190.0</ele><time>2026-04-02T09:25:42.965Z</time></trkpt><trkpt lat="45.0621784" lon="1.3354187"><ele>190.0</ele><time>2026-04-02T09:25:43.965Z</time></trkpt><trkpt lat="45.0621961" lon="1.3355724"><ele>190.0</ele><time>2026-04-02T09:25:44.965Z</time></trkpt><trkpt lat="45.0622241" lon="1.3357204"><ele>190.0</ele><time>2026-04-02T09:25:45.964Z</time></trkpt><trkpt lat="45.0622679" lon="1.3358691"><ele>190.0</ele><time>2026-04-02T09:25:46.965Z</time></trkpt><trkpt lat="45.0623311" lon="1.3360215"><ele>190.0</ele><time>2026-04-02T09:25:47.964Z</time></trkpt><trkpt lat="45.0624021" lon="1.3361693"><ele>189.0</ele><time>2026-04-02T09:25:48.966Z</time></trkpt><trkpt lat="45.0624785" lon="1.3363283"><ele>188.0</ele><time>2026-04-02T09:25:49.965Z</time></trkpt><trkpt lat="45.0625555" lon="1.3364907"><ele>187.0</ele><time>2026-04-02T09:25:50.965Z</time></trkpt><trkpt lat="45.0626321" lon="1.3366269"><ele>186.0</ele><time>2026-04-02T09:25:51.966Z</time></trkpt><trkpt lat="45.0627102" lon="1.3367479"><ele>185.0</ele><time>2026-04-02T09:25:52.966Z</time></trkpt><trkpt lat="45.0628003" lon="1.3368529"><ele>184.0</ele><time>2026-04-02T09:25:53.965Z</time></trkpt><trkpt lat="45.062903" lon="1.3369394"><ele>183.0</ele><time>2026-04-02T09:25:54.966Z</time></trkpt><trkpt lat="45.0630205" lon="1.3370141"><ele>182.0</ele><time>2026-04-02T09:25:55.965Z</time></trkpt><trkpt lat="45.0631331" lon="1.3370964"><ele>182.0</ele><time>2026-04-02T09:25:56.964Z</time></trkpt><trkpt lat="45.0632383" lon="1.3371948"><ele>182.0</ele><time>2026-04-02T09:25:57.965Z</time></trkpt><trkpt lat="45.0633446" lon="1.337295"><ele>182.0</ele><time>2026-04-02T09:25:58.965Z</time></trkpt><trkpt lat="45.0634521" lon="1.3374009"><ele>182.0</ele><time>2026-04-02T09:25:59.965Z</time></trkpt><trkpt lat="45.0635572" lon="1.3375077"><ele>183.25</ele><time>2026-04-02T09:26:00.966Z</time></trkpt><trkpt lat="45.0636629" lon="1.3376142"><ele>184.5</ele><time>2026-04-02T09:26:01.965Z</time></trkpt><trkpt lat="45.0637635" lon="1.3377233"><ele>185.75</ele><time>2026-04-02T09:26:02.966Z</time></trkpt><trkpt lat="45.0638642" lon="1.3378205"><ele>187.0</ele><time>2026-04-02T09:26:03.966Z</time></trkpt><trkpt lat="45.0639705" lon="1.3379159"><ele>187.0</ele><time>2026-04-02T09:26:04.966Z</time></trkpt><trkpt lat="45.0640727" lon="1.3380176"><ele>187.0</ele><time>2026-04-02T09:26:05.965Z</time></trkpt><trkpt lat="45.0641876" lon="1.3381062"><ele>187.0</ele><time>2026-04-02T09:26:06.965Z</time></trkpt><trkpt lat="45.064321" lon="1.3381851"><ele>187.0</ele><time>2026-04-02T09:26:07.964Z</time></trkpt><trkpt lat="45.064458" lon="1.3382413"><ele>186.5</ele><time>2026-04-02T09:26:08.965Z</time></trkpt><trkpt lat="45.0645903" lon="1.3382789"><ele>186.0</ele><time>2026-04-02T09:26:09.966Z</time></trkpt><trkpt lat="45.0647209" lon="1.3383182"><ele>185.5</ele><time>2026-04-02T09:26:10.964Z</time></trkpt><trkpt lat="45.0648453" lon="1.3383692"><ele>185.0</ele><time>2026-04-02T09:26:11.965Z</time></trkpt><trkpt lat="45.0649497" lon="1.3384373"><ele>185.0</ele><time>2026-04-02T09:26:12.964Z</time></trkpt><trkpt lat="45.0650376" lon="1.3385129"><ele>185.0</ele><time>2026-04-02T09:26:13.965Z</time></trkpt><trkpt lat="45.0650991" lon="1.3385954"><ele>185.0</ele><time>2026-04-02T09:26:14.965Z</time></trkpt><trkpt lat="45.0651749" lon="1.3387089"><ele>185.0</ele><time>2026-04-02T09:26:16.964Z</time></trkpt><trkpt lat="45.0652335" lon="1.3387848"><ele>185.0</ele><time>2026-04-02T09:26:18.966Z</time></trkpt><trkpt lat="45.0652525" lon="1.3388922"><ele>185.8</ele><time>2026-04-02T09:26:20.966Z</time></trkpt><trkpt lat="45.0652087" lon="1.3389815"><ele>186.6</ele><time>2026-04-02T09:26:21.965Z</time></trkpt><trkpt lat="45.0651622" lon="1.3390683"><ele>187.39999999999998</ele><time>2026-04-02T09:26:22.966Z</time></trkpt><trkpt lat="45.0650779" lon="1.3392121"><ele>188.2</ele><time>2026-04-02T09:26:23.964Z</time></trkpt><trkpt lat="45.0650125" lon="1.3393559"><ele>189.0</ele><time>2026-04-02T09:26:24.966Z</time></trkpt><trkpt lat="45.0649501" lon="1.339511"><ele>192.25</ele><time>2026-04-02T09:26:25.966Z</time></trkpt><trkpt lat="45.0648994" lon="1.3396806"><ele>195.5</ele><time>2026-04-02T09:26:26.965Z</time></trkpt><trkpt lat="45.0648462" lon="1.3398646"><ele>198.75</ele><time>2026-04-02T09:26:27.966Z</time></trkpt><trkpt lat="45.0647906" lon="1.3400584"><ele>202.0</ele><time>2026-04-02T09:26:28.965Z</time></trkpt><trkpt lat="45.064734" lon="1.3402479"><ele>201.5</ele><time>2026-04-02T09:26:29.965Z</time></trkpt><trkpt lat="45.0646703" lon="1.3404424"><ele>201.0</ele><time>2026-04-02T09:26:30.966Z</time></trkpt><trkpt lat="45.0646155" lon="1.3406315"><ele>200.5</ele><time>2026-04-02T09:26:31.965Z</time></trkpt><trkpt lat="45.0645692" lon="1.3408024"><ele>200.0</ele><time>2026-04-02T09:26:32.966Z</time></trkpt><trkpt lat="45.0645428" lon="1.3409659"><ele>200.0</ele><time>2026-04-02T09:26:33.966Z</time></trkpt><trkpt lat="45.0645296" lon="1.3411391"><ele>200.0</ele><time>2026-04-02T09:26:34.966Z</time></trkpt><trkpt lat="45.0645334" lon="1.3413318"><ele>200.0</ele><time>2026-04-02T09:26:35.965Z</time></trkpt><trkpt lat="45.0645251" lon="1.3415102"><ele>200.0</ele><time>2026-04-02T09:26:36.966Z</time></trkpt><trkpt lat="45.064511" lon="1.3416797"><ele>199.75</ele><time>2026-04-02T09:26:37.966Z</time></trkpt><trkpt lat="45.0644947" lon="1.3418387"><ele>199.5</ele><time>2026-04-02T09:26:38.965Z</time></trkpt><trkpt lat="45.0644784" lon="1.3419942"><ele>199.25</ele><time>2026-04-02T09:26:39.965Z</time></trkpt><trkpt lat="45.064475" lon="1.342159"><ele>199.0</ele><time>2026-04-02T09:26:40.966Z</time></trkpt><trkpt lat="45.0644885" lon="1.3423378"><ele>199.5</ele><time>2026-04-02T09:26:41.966Z</time></trkpt><trkpt lat="45.0645087" lon="1.3425202"><ele>200.0</ele><time>2026-04-02T09:26:42.965Z</time></trkpt><trkpt lat="45.0645305" lon="1.3427006"><ele>200.5</ele><time>2026-04-02T09:26:43.965Z</time></trkpt><trkpt lat="45.064556" lon="1.342888"><ele>201.0</ele><time>2026-04-02T09:26:44.966Z</time></trkpt><trkpt lat="45.0645823" lon="1.3430726"><ele>202.0</ele><time>2026-04-02T09:26:45.966Z</time></trkpt><trkpt lat="45.064613" lon="1.3432532"><ele>203.0</ele><time>2026-04-02T09:26:46.964Z</time></trkpt><trkpt lat="45.064658" lon="1.3434306"><ele>204.0</ele><time>2026-04-02T09:26:47.965Z</time></trkpt><trkpt lat="45.0647092" lon="1.3436"><ele>205.0</ele><time>2026-04-02T09:26:48.965Z</time></trkpt><trkpt lat="45.0647555" lon="1.343769"><ele>205.25</ele><time>2026-04-02T09:26:49.965Z</time></trkpt><trkpt lat="45.0647775" lon="1.3439281"><ele>205.5</ele><time>2026-04-02T09:26:50.965Z</time></trkpt><trkpt lat="45.0647783" lon="1.3440777"><ele>205.75</ele><time>2026-04-02T09:26:51.965Z</time></trkpt><trkpt lat="45.0647905" lon="1.3442324"><ele>206.0</ele><time>2026-04-02T09:26:52.966Z</time></trkpt><trkpt lat="45.0648288" lon="1.3443964"><ele>206.0</ele><time>2026-04-02T09:26:53.966Z</time></trkpt><trkpt lat="45.0648608" lon="1.3445598"><ele>206.0</ele><time>2026-04-02T09:26:54.966Z</time></trkpt><trkpt lat="45.0648962" lon="1.3447181"><ele>206.0</ele><time>2026-04-02T09:26:55.965Z</time></trkpt><trkpt lat="45.0649224" lon="1.3448801"><ele>206.0</ele><time>2026-04-02T09:26:56.966Z</time></trkpt><trkpt lat="45.064932" lon="1.3450511"><ele>204.66666666666669</ele><time>2026-04-02T09:26:57.966Z</time></trkpt><trkpt lat="45.0649351" lon="1.3452059"><ele>203.33333333333334</ele><time>2026-04-02T09:26:58.965Z</time></trkpt><trkpt lat="45.0649366" lon="1.34535"><ele>202.0</ele><time>2026-04-02T09:26:59.965Z</time></trkpt><trkpt lat="45.0649414" lon="1.3454783"><ele>200.66666666666669</ele><time>2026-04-02T09:27:00.965Z</time></trkpt><trkpt lat="45.0649581" lon="1.3455673"><ele>199.33333333333334</ele><time>2026-04-02T09:27:01.965Z</time></trkpt><trkpt lat="45.0649703" lon="1.3456561"><ele>198.0</ele><time>2026-04-02T09:27:03.965Z</time></trkpt><trkpt lat="45.064894" lon="1.3457269"><ele>197.60000000000002</ele><time>2026-04-02T09:27:19.965Z</time></trkpt><trkpt lat="45.064766" lon="1.3457098"><ele>197.20000000000002</ele><time>2026-04-02T09:27:21.965Z</time></trkpt><trkpt lat="45.0646786" lon="1.345699"><ele>196.8</ele><time>2026-04-02T09:27:22.966Z</time></trkpt><trkpt lat="45.0645902" lon="1.3456997"><ele>196.4</ele><time>2026-04-02T09:27:23.965Z</time></trkpt><trkpt lat="45.0644884" lon="1.3457593"><ele>196.0</ele><time>2026-04-02T09:27:24.965Z</time></trkpt><trkpt lat="45.0644014" lon="1.3458274"><ele>196.0</ele><time>2026-04-02T09:27:25.966Z</time></trkpt><trkpt lat="45.0643218" lon="1.3459229"><ele>196.0</ele><time>2026-04-02T09:27:26.965Z</time></trkpt><trkpt lat="45.0642446" lon="1.3460398"><ele>196.0</ele><time>2026-04-02T09:27:27.965Z</time></trkpt><trkpt lat="45.0641658" lon="1.3461634"><ele>196.0</ele><time>2026-04-02T09:27:28.965Z</time></trkpt><trkpt lat="45.0640948" lon="1.3462925"><ele>198.75</ele><time>2026-04-02T09:27:29.965Z</time></trkpt><trkpt lat="45.0640314" lon="1.3464332"><ele>201.5</ele><time>2026-04-02T09:27:30.965Z</time></trkpt><trkpt lat="45.0639792" lon="1.3465814"><ele>204.25</ele><time>2026-04-02T09:27:31.966Z</time></trkpt><trkpt lat="45.0639314" lon="1.3467467"><ele>207.0</ele><time>2026-04-02T09:27:32.965Z</time></trkpt><trkpt lat="45.0638941" lon="1.3469047"><ele>207.0</ele><time>2026-04-02T09:27:33.965Z</time></trkpt><trkpt lat="45.0638724" lon="1.347056"><ele>207.0</ele><time>2026-04-02T09:27:34.965Z</time></trkpt><trkpt lat="45.0638602" lon="1.347196"><ele>207.0</ele><time>2026-04-02T09:27:35.965Z</time></trkpt><trkpt lat="45.0638726" lon="1.3473476"><ele>207.0</ele><time>2026-04-02T09:27:36.966Z</time></trkpt><trkpt lat="45.0639083" lon="1.3475194"><ele>207.0</ele><time>2026-04-02T09:27:37.966Z</time></trkpt><trkpt lat="45.0639434" lon="1.3477017"><ele>206.75</ele><time>2026-04-02T09:27:38.964Z</time></trkpt><trkpt lat="45.0639714" lon="1.3478858"><ele>206.5</ele><time>2026-04-02T09:27:39.964Z</time></trkpt><trkpt lat="45.0639861" lon="1.348079"><ele>206.25</ele><time>2026-04-02T09:27:40.967Z</time></trkpt><trkpt lat="45.0639823" lon="1.3482732"><ele>206.0</ele><time>2026-04-02T09:27:41.967Z</time></trkpt><trkpt lat="45.0639612" lon="1.3484618"><ele>206.0</ele><time>2026-04-02T09:27:42.966Z</time></trkpt><trkpt lat="45.0639324" lon="1.3486515"><ele>206.0</ele><time>2026-04-02T09:27:43.967Z</time></trkpt><trkpt lat="45.0638948" lon="1.3488335"><ele>206.0</ele><time>2026-04-02T09:27:44.966Z</time></trkpt><trkpt lat="45.0638558" lon="1.3489878"><ele>206.0</ele><time>2026-04-02T09:27:45.966Z</time></trkpt><trkpt lat="45.0638289" lon="1.3491197"><ele>206.60000000000002</ele><time>2026-04-02T09:27:46.966Z</time></trkpt><trkpt lat="45.0638254" lon="1.3492384"><ele>207.2</ele><time>2026-04-02T09:27:47.966Z</time></trkpt><trkpt lat="45.063842" lon="1.3493665"><ele>207.8</ele><time>2026-04-02T09:27:48.967Z</time></trkpt><trkpt lat="45.063872" lon="1.3495018"><ele>208.39999999999998</ele><time>2026-04-02T09:27:49.966Z</time></trkpt><trkpt lat="45.063927" lon="1.3496423"><ele>209.0</ele><time>2026-04-02T09:27:50.965Z</time></trkpt><trkpt lat="45.0639999" lon="1.3497955"><ele>209.0</ele><time>2026-04-02T09:27:51.967Z</time></trkpt><trkpt lat="45.064074" lon="1.349939"><ele>209.0</ele><time>2026-04-02T09:27:52.967Z</time></trkpt><trkpt lat="45.0641442" lon="1.3500944"><ele>209.0</ele><time>2026-04-02T09:27:53.965Z</time></trkpt><trkpt lat="45.0642098" lon="1.3502503"><ele>209.0</ele><time>2026-04-02T09:27:54.966Z</time></trkpt><trkpt lat="45.064269" lon="1.3504033"><ele>209.39999999999998</ele><time>2026-04-02T09:27:55.966Z</time></trkpt><trkpt lat="45.0643241" lon="1.3505501"><ele>209.8</ele><time>2026-04-02T09:27:56.967Z</time></trkpt><trkpt lat="45.064381" lon="1.3506799"><ele>210.2</ele><time>2026-04-02T09:27:57.966Z</time></trkpt><trkpt lat="45.0644518" lon="1.3507915"><ele>210.60000000000002</ele><time>2026-04-02T09:27:58.966Z</time></trkpt><trkpt lat="45.0645388" lon="1.3508792"><ele>211.0</ele><time>2026-04-02T09:27:59.967Z</time></trkpt><trkpt lat="45.0646463" lon="1.350941"><ele>211.0</ele><time>2026-04-02T09:28:00.966Z</time></trkpt><trkpt lat="45.0647734" lon="1.3509753"><ele>211.0</ele><time>2026-04-02T09:28:01.967Z</time></trkpt><trkpt lat="45.0649074" lon="1.3510012"><ele>211.0</ele><time>2026-04-02T09:28:02.966Z</time></trkpt><trkpt lat="45.0650553" lon="1.3510117"><ele>211.0</ele><time>2026-04-02T09:28:03.967Z</time></trkpt><trkpt lat="45.0651978" lon="1.3510198"><ele>212.0</ele><time>2026-04-02T09:28:04.966Z</time></trkpt><trkpt lat="45.0653358" lon="1.3510392"><ele>213.0</ele><time>2026-04-02T09:28:05.967Z</time></trkpt><trkpt lat="45.0654679" lon="1.3510663"><ele>214.0</ele><time>2026-04-02T09:28:06.966Z</time></trkpt><trkpt lat="45.0655967" lon="1.3511161"><ele>215.0</ele><time>2026-04-02T09:28:07.967Z</time></trkpt><trkpt lat="45.0657164" lon="1.3511953"><ele>215.5</ele><time>2026-04-02T09:28:08.967Z</time></trkpt><trkpt lat="45.065826" lon="1.3513087"><ele>216.0</ele><time>2026-04-02T09:28:09.967Z</time></trkpt><trkpt lat="45.0659205" lon="1.3514456"><ele>216.5</ele><time>2026-04-02T09:28:10.966Z</time></trkpt><trkpt lat="45.0660084" lon="1.3515855"><ele>217.0</ele><time>2026-04-02T09:28:11.967Z</time></trkpt><trkpt lat="45.0661062" lon="1.3517181"><ele>217.0</ele><time>2026-04-02T09:28:12.966Z</time></trkpt><trkpt lat="45.0662103" lon="1.3518434"><ele>217.0</ele><time>2026-04-02T09:28:13.967Z</time></trkpt><trkpt lat="45.066304" lon="1.3519761"><ele>217.0</ele><time>2026-04-02T09:28:14.967Z</time></trkpt><trkpt lat="45.0663824" lon="1.3521151"><ele>217.0</ele><time>2026-04-02T09:28:15.967Z</time></trkpt><trkpt lat="45.0664579" lon="1.352249"><ele>218.39999999999998</ele><time>2026-04-02T09:28:16.965Z</time></trkpt><trkpt lat="45.0665272" lon="1.3523876"><ele>219.79999999999998</ele><time>2026-04-02T09:28:17.966Z</time></trkpt><trkpt lat="45.0665898" lon="1.3525242"><ele>221.2</ele><time>2026-04-02T09:28:18.966Z</time></trkpt><trkpt lat="45.0666504" lon="1.3526317"><ele>222.6</ele><time>2026-04-02T09:28:19.966Z</time></trkpt><trkpt lat="45.0667193" lon="1.3527266"><ele>224.0</ele><time>2026-04-02T09:28:20.966Z</time></trkpt><trkpt lat="45.0667953" lon="1.3528009"><ele>224.0</ele><time>2026-04-02T09:28:21.966Z</time></trkpt><trkpt lat="45.0668771" lon="1.3528679"><ele>223.99999999999997</ele><time>2026-04-02T09:28:22.967Z</time></trkpt><trkpt lat="45.0669506" lon="1.3529465"><ele>223.99999999999997</ele><time>2026-04-02T09:28:23.967Z</time></trkpt><trkpt lat="45.0670121" lon="1.3530387"><ele>224.0</ele><time>2026-04-02T09:28:24.966Z</time></trkpt><trkpt lat="45.0670615" lon="1.3531746"><ele>224.0</ele><time>2026-04-02T09:28:26.965Z</time></trkpt><trkpt lat="45.0671186" lon="1.3532649"><ele>223.79999999999998</ele><time>2026-04-02T09:28:28.966Z</time></trkpt><trkpt lat="45.0672285" lon="1.353264"><ele>223.59999999999997</ele><time>2026-04-02T09:28:30.966Z</time></trkpt><trkpt lat="45.0672984" lon="1.3532516"><ele>223.4</ele><time>2026-04-02T09:28:31.966Z</time></trkpt><trkpt lat="45.0673838" lon="1.3532573"><ele>223.2</ele><time>2026-04-02T09:28:32.966Z</time></trkpt><trkpt lat="45.0674761" lon="1.3532649"><ele>223.0</ele><time>2026-04-02T09:28:33.967Z</time></trkpt><trkpt lat="45.0675784" lon="1.3532667"><ele>225.0</ele><time>2026-04-02T09:28:34.966Z</time></trkpt><trkpt lat="45.0676926" lon="1.3532642"><ele>227.0</ele><time>2026-04-02T09:28:35.967Z</time></trkpt><trkpt lat="45.0678111" lon="1.3532596"><ele>229.0</ele><time>2026-04-02T09:28:36.967Z</time></trkpt><trkpt lat="45.0679256" lon="1.3532594"><ele>231.0</ele><time>2026-04-02T09:28:37.966Z</time></trkpt><trkpt lat="45.068046" lon="1.3532757"><ele>231.0</ele><time>2026-04-02T09:28:38.967Z</time></trkpt><trkpt lat="45.0681618" lon="1.3533157"><ele>231.0</ele><time>2026-04-02T09:28:39.967Z</time></trkpt><trkpt lat="45.0682765" lon="1.3533681"><ele>231.0</ele><time>2026-04-02T09:28:40.967Z</time></trkpt><trkpt lat="45.0683969" lon="1.353416"><ele>231.0</ele><time>2026-04-02T09:28:41.966Z</time></trkpt><trkpt lat="45.0685175" lon="1.353459"><ele>234.0</ele><time>2026-04-02T09:28:42.966Z</time></trkpt><trkpt lat="45.0686399" lon="1.3534885"><ele>237.0</ele><time>2026-04-02T09:28:43.966Z</time></trkpt><trkpt lat="45.0687644" lon="1.353498"><ele>240.0</ele><time>2026-04-02T09:28:44.966Z</time></trkpt><trkpt lat="45.0688889" lon="1.3534961"><ele>243.0</ele><time>2026-04-02T09:28:45.966Z</time></trkpt><trkpt lat="45.0690166" lon="1.3534891"><ele>245.0</ele><time>2026-04-02T09:28:46.966Z</time></trkpt><trkpt lat="45.0691449" lon="1.3534777"><ele>247.0</ele><time>2026-04-02T09:28:47.967Z</time></trkpt><trkpt lat="45.0692659" lon="1.353466"><ele>249.0</ele><time>2026-04-02T09:28:48.967Z</time></trkpt><trkpt lat="45.0693709" lon="1.3534561"><ele>251.0</ele><time>2026-04-02T09:28:49.966Z</time></trkpt><trkpt lat="45.0694791" lon="1.3534575"><ele>251.0</ele><time>2026-04-02T09:28:50.967Z</time></trkpt><trkpt lat="45.0695847" lon="1.3534887"><ele>251.0</ele><time>2026-04-02T09:28:51.967Z</time></trkpt><trkpt lat="45.069687" lon="1.3535619"><ele>251.0</ele><time>2026-04-02T09:28:52.966Z</time></trkpt><trkpt lat="45.069785" lon="1.3536571"><ele>251.0</ele><time>2026-04-02T09:28:53.966Z</time></trkpt><trkpt lat="45.06988" lon="1.3537547"><ele>251.25</ele><time>2026-04-02T09:28:54.966Z</time></trkpt><trkpt lat="45.0699789" lon="1.3538581"><ele>251.5</ele><time>2026-04-02T09:28:55.967Z</time></trkpt><trkpt lat="45.0700836" lon="1.3539677"><ele>251.75</ele><time>2026-04-02T09:28:56.966Z</time></trkpt><trkpt lat="45.0701909" lon="1.3540686"><ele>252.0</ele><time>2026-04-02T09:28:57.966Z</time></trkpt><trkpt lat="45.0703026" lon="1.3541624"><ele>253.25</ele><time>2026-04-02T09:28:58.966Z</time></trkpt><trkpt lat="45.0704167" lon="1.3542553"><ele>254.5</ele><time>2026-04-02T09:28:59.967Z</time></trkpt><trkpt lat="45.0705251" lon="1.3543634"><ele>255.75</ele><time>2026-04-02T09:29:00.966Z</time></trkpt><trkpt lat="45.0706223" lon="1.35449"><ele>257.0</ele><time>2026-04-02T09:29:01.966Z</time></trkpt><trkpt lat="45.0707167" lon="1.3546224"><ele>258.5</ele><time>2026-04-02T09:29:02.966Z</time></trkpt><trkpt lat="45.0708261" lon="1.3547475"><ele>260.0</ele><time>2026-04-02T09:29:03.966Z</time></trkpt><trkpt lat="45.0709383" lon="1.3548561"><ele>261.5</ele><time>2026-04-02T09:29:04.966Z</time></trkpt><trkpt lat="45.0710512" lon="1.3549631"><ele>263.0</ele><time>2026-04-02T09:29:05.966Z</time></trkpt><trkpt lat="45.0711647" lon="1.3550628"><ele>263.0</ele><time>2026-04-02T09:29:06.965Z</time></trkpt><trkpt lat="45.0712757" lon="1.3551548"><ele>263.0</ele><time>2026-04-02T09:29:07.966Z</time></trkpt><trkpt lat="45.0713831" lon="1.3552413"><ele>263.0</ele><time>2026-04-02T09:29:08.967Z</time></trkpt><trkpt lat="45.071482" lon="1.3553203"><ele>263.0</ele><time>2026-04-02T09:29:09.967Z</time></trkpt><trkpt lat="45.0715673" lon="1.3553942"><ele>261.4</ele><time>2026-04-02T09:29:10.967Z</time></trkpt><trkpt lat="45.0716578" lon="1.355452"><ele>259.8</ele><time>2026-04-02T09:29:11.967Z</time></trkpt><trkpt lat="45.071756" lon="1.355482"><ele>258.2</ele><time>2026-04-02T09:29:12.967Z</time></trkpt><trkpt lat="45.0718688" lon="1.355489"><ele>256.6</ele><time>2026-04-02T09:29:13.967Z</time></trkpt><trkpt lat="45.0719814" lon="1.3554751"><ele>255.0</ele><time>2026-04-02T09:29:14.966Z</time></trkpt><trkpt lat="45.0720933" lon="1.3554449"><ele>255.0</ele><time>2026-04-02T09:29:15.965Z</time></trkpt><trkpt lat="45.0721992" lon="1.3554035"><ele>255.0</ele><time>2026-04-02T09:29:16.966Z</time></trkpt><trkpt lat="45.0722977" lon="1.3553488"><ele>255.0</ele><time>2026-04-02T09:29:17.966Z</time></trkpt><trkpt lat="45.0723639" lon="1.3553007"><ele>255.0</ele><time>2026-04-02T09:29:18.965Z</time></trkpt><trkpt lat="45.0724233" lon="1.3552497"><ele>255.0</ele><time>2026-04-02T09:29:19.967Z</time></trkpt><trkpt lat="45.0724863" lon="1.3551977"><ele>255.0</ele><time>2026-04-02T09:29:20.967Z</time></trkpt><trkpt lat="45.0725592" lon="1.3551785"><ele>255.0</ele><time>2026-04-02T09:29:21.967Z</time></trkpt><trkpt lat="45.0726371" lon="1.3551812"><ele>255.0</ele><time>2026-04-02T09:29:22.966Z</time></trkpt><trkpt lat="45.0727207" lon="1.3551932"><ele>255.0</ele><time>2026-04-02T09:29:23.967Z</time></trkpt><trkpt lat="45.0728159" lon="1.3552065"><ele>255.0</ele><time>2026-04-02T09:29:24.966Z</time></trkpt><trkpt lat="45.0729102" lon="1.3552175"><ele>255.0</ele><time>2026-04-02T09:29:25.967Z</time></trkpt><trkpt lat="45.0730005" lon="1.3552159"><ele>255.0</ele><time>2026-04-02T09:29:26.966Z</time></trkpt><trkpt lat="45.0730813" lon="1.3551913"><ele>255.0</ele><time>2026-04-02T09:29:27.965Z</time></trkpt><trkpt lat="45.0731572" lon="1.355129"><ele>255.0</ele><time>2026-04-02T09:29:28.966Z</time></trkpt><trkpt lat="45.0732169" lon="1.3550261"><ele>255.0</ele><time>2026-04-02T09:29:29.967Z</time></trkpt><trkpt lat="45.0732646" lon="1.3549007"><ele>255.0</ele><time>2026-04-02T09:29:30.965Z</time></trkpt><trkpt lat="45.0733158" lon="1.3547823"><ele>255.0</ele><time>2026-04-02T09:29:31.966Z</time></trkpt><trkpt lat="45.0733831" lon="1.3546987"><ele>255.2</ele><time>2026-04-02T09:29:32.965Z</time></trkpt><trkpt lat="45.0734562" lon="1.354639"><ele>255.4</ele><time>2026-04-02T09:29:33.966Z</time></trkpt><trkpt lat="45.0735408" lon="1.3545997"><ele>255.60000000000002</ele><time>2026-04-02T09:29:34.967Z</time></trkpt><trkpt lat="45.0736375" lon="1.354573"><ele>255.8</ele><time>2026-04-02T09:29:35.966Z</time></trkpt><trkpt lat="45.0737437" lon="1.3545389"><ele>256.0</ele><time>2026-04-02T09:29:36.966Z</time></trkpt><trkpt lat="45.073854" lon="1.3544952"><ele>256.0</ele><time>2026-04-02T09:29:37.967Z</time></trkpt><trkpt lat="45.0739676" lon="1.3544328"><ele>256.0</ele><time>2026-04-02T09:29:38.966Z</time></trkpt><trkpt lat="45.0740864" lon="1.3543635"><ele>256.0</ele><time>2026-04-02T09:29:39.966Z</time></trkpt><trkpt lat="45.074216" lon="1.3542867"><ele>256.0</ele><time>2026-04-02T09:29:40.966Z</time></trkpt><trkpt lat="45.0743478" lon="1.3542028"><ele>258.25</ele><time>2026-04-02T09:29:41.965Z</time></trkpt><trkpt lat="45.0744825" lon="1.3541103"><ele>260.5</ele><time>2026-04-02T09:29:42.965Z</time></trkpt><trkpt lat="45.0746125" lon="1.3540076"><ele>262.75</ele><time>2026-04-02T09:29:43.965Z</time></trkpt><trkpt lat="45.0747391" lon="1.3539044"><ele>265.0</ele><time>2026-04-02T09:29:44.966Z</time></trkpt><trkpt lat="45.0748741" lon="1.3538077"><ele>268.0</ele><time>2026-04-02T09:29:45.967Z</time></trkpt><trkpt lat="45.0750173" lon="1.3537154"><ele>271.0</ele><time>2026-04-02T09:29:46.967Z</time></trkpt><trkpt lat="45.0751564" lon="1.3536252"><ele>274.0</ele><time>2026-04-02T09:29:47.967Z</time></trkpt><trkpt lat="45.0752889" lon="1.3535351"><ele>274.0</ele><time>2026-04-02T09:29:48.967Z</time></trkpt><trkpt lat="45.0754163" lon="1.3534449"><ele>274.0</ele><time>2026-04-02T09:29:49.967Z</time></trkpt><trkpt lat="45.0755352" lon="1.3533558"><ele>274.0</ele><time>2026-04-02T09:29:50.967Z</time></trkpt><trkpt lat="45.0756371" lon="1.3532482"><ele>274.0</ele><time>2026-04-02T09:29:51.966Z</time></trkpt><trkpt lat="45.075734" lon="1.3531054"><ele>275.75</ele><time>2026-04-02T09:29:52.966Z</time></trkpt><trkpt lat="45.0758292" lon="1.3529612"><ele>277.5</ele><time>2026-04-02T09:29:53.966Z</time></trkpt><trkpt lat="45.0759364" lon="1.3528237"><ele>279.25</ele><time>2026-04-02T09:29:54.965Z</time></trkpt><trkpt lat="45.0760504" lon="1.352695"><ele>281.0</ele><time>2026-04-02T09:29:55.966Z</time></trkpt><trkpt lat="45.0761626" lon="1.3525835"><ele>281.0</ele><time>2026-04-02T09:29:56.967Z</time></trkpt><trkpt lat="45.0762695" lon="1.3524837"><ele>281.0</ele><time>2026-04-02T09:29:57.967Z</time></trkpt><trkpt lat="45.0763723" lon="1.3523744"><ele>281.0</ele><time>2026-04-02T09:29:58.966Z</time></trkpt><trkpt lat="45.0764763" lon="1.352253"><ele>281.0</ele><time>2026-04-02T09:29:59.966Z</time></trkpt><trkpt lat="45.0765888" lon="1.3521438"><ele>284.25</ele><time>2026-04-02T09:30:00.967Z</time></trkpt><trkpt lat="45.0767136" lon="1.3520571"><ele>287.5</ele><time>2026-04-02T09:30:01.967Z</time></trkpt><trkpt lat="45.0768288" lon="1.3519998"><ele>290.75</ele><time>2026-04-02T09:30:02.967Z</time></trkpt><trkpt lat="45.0769522" lon="1.3519221"><ele>294.0</ele><time>2026-04-02T09:30:03.966Z</time></trkpt><trkpt lat="45.0770726" lon="1.3518321"><ele>294.0</ele><time>2026-04-02T09:30:04.966Z</time></trkpt><trkpt lat="45.0771988" lon="1.3517518"><ele>294.0</ele><time>2026-04-02T09:30:05.966Z</time></trkpt><trkpt lat="45.0773295" lon="1.351686"><ele>294.0</ele><time>2026-04-02T09:30:06.967Z</time></trkpt><trkpt lat="45.0774571" lon="1.3516289"><ele>294.0</ele><time>2026-04-02T09:30:07.966Z</time></trkpt><trkpt lat="45.0775714" lon="1.3515791"><ele>295.59999999999997</ele><time>2026-04-02T09:30:08.967Z</time></trkpt><trkpt lat="45.0776636" lon="1.3515406"><ele>297.2</ele><time>2026-04-02T09:30:09.967Z</time></trkpt><trkpt lat="45.0777468" lon="1.3515091"><ele>298.79999999999995</ele><time>2026-04-02T09:30:11.967Z</time></trkpt><trkpt lat="45.0777209" lon="1.3515955"><ele>300.4</ele><time>2026-04-02T09:30:17.966Z</time></trkpt><trkpt lat="45.0776259" lon="1.3517193"><ele>302.0</ele><time>2026-04-02T09:30:19.965Z</time></trkpt><trkpt lat="45.0775675" lon="1.3518115"><ele>302.0</ele><time>2026-04-02T09:30:20.966Z</time></trkpt><trkpt lat="45.0775155" lon="1.3519252"><ele>302.0</ele><time>2026-04-02T09:30:21.966Z</time></trkpt><trkpt lat="45.077464" lon="1.3520684"><ele>302.0</ele><time>2026-04-02T09:30:22.967Z</time></trkpt><trkpt lat="45.0774122" lon="1.3522287"><ele>302.0</ele><time>2026-04-02T09:30:23.966Z</time></trkpt><trkpt lat="45.077353" lon="1.3524025"><ele>301.5</ele><time>2026-04-02T09:30:24.966Z</time></trkpt><trkpt lat="45.0772883" lon="1.352574"><ele>301.0</ele><time>2026-04-02T09:30:25.966Z</time></trkpt><trkpt lat="45.0772182" lon="1.3527581"><ele>300.5</ele><time>2026-04-02T09:30:26.966Z</time></trkpt><trkpt lat="45.0771521" lon="1.3529382"><ele>300.0</ele><time>2026-04-02T09:30:27.966Z</time></trkpt><trkpt lat="45.0770907" lon="1.3531045"><ele>300.0</ele><time>2026-04-02T09:30:28.965Z</time></trkpt><trkpt lat="45.077037" lon="1.3532655"><ele>300.0</ele><time>2026-04-02T09:30:29.966Z</time></trkpt><trkpt lat="45.0769903" lon="1.3534341"><ele>300.0</ele><time>2026-04-02T09:30:30.966Z</time></trkpt><trkpt lat="45.0769416" lon="1.3536042"><ele>300.0</ele><time>2026-04-02T09:30:31.967Z</time></trkpt><trkpt lat="45.0768803" lon="1.3537801"><ele>300.6666666666667</ele><time>2026-04-02T09:30:32.966Z</time></trkpt><trkpt lat="45.0768105" lon="1.3539592"><ele>301.33333333333337</ele><time>2026-04-02T09:30:33.965Z</time></trkpt><trkpt lat="45.076732" lon="1.3541498"><ele>302.0</ele><time>2026-04-02T09:30:34.966Z</time></trkpt><trkpt lat="45.0766541" lon="1.3543476"><ele>299.6666666666667</ele><time>2026-04-02T09:30:35.967Z</time></trkpt><trkpt lat="45.0765726" lon="1.354545"><ele>297.3333333333333</ele><time>2026-04-02T09:30:36.967Z</time></trkpt><trkpt lat="45.0764857" lon="1.3547315"><ele>295.0</ele><time>2026-04-02T09:30:37.967Z</time></trkpt><trkpt lat="45.0763837" lon="1.3549037"><ele>295.0</ele><time>2026-04-02T09:30:38.967Z</time></trkpt><trkpt lat="45.0762666" lon="1.3550702"><ele>295.0</ele><time>2026-04-02T09:30:39.967Z</time></trkpt><trkpt lat="45.0761626" lon="1.3552286"><ele>295.0</ele><time>2026-04-02T09:30:40.966Z</time></trkpt><trkpt lat="45.0760696" lon="1.3553829"><ele>295.0</ele><time>2026-04-02T09:30:41.965Z</time></trkpt><trkpt lat="45.0759842" lon="1.3555317"><ele>295.0</ele><time>2026-04-02T09:30:42.967Z</time></trkpt><trkpt lat="45.0759009" lon="1.355665"><ele>295.0</ele><time>2026-04-02T09:30:43.967Z</time></trkpt><trkpt lat="45.0758138" lon="1.3557772"><ele>295.0</ele><time>2026-04-02T09:30:44.966Z</time></trkpt><trkpt lat="45.0757272" lon="1.355882"><ele>292.75</ele><time>2026-04-02T09:30:45.966Z</time></trkpt><trkpt lat="45.0756532" lon="1.3559995"><ele>290.5</ele><time>2026-04-02T09:30:46.967Z</time></trkpt><trkpt lat="45.0755853" lon="1.3561376"><ele>288.25</ele><time>2026-04-02T09:30:47.965Z</time></trkpt><trkpt lat="45.0755255" lon="1.3562885"><ele>286.0</ele><time>2026-04-02T09:30:48.967Z</time></trkpt><trkpt lat="45.0754778" lon="1.3564533"><ele>285.0</ele><time>2026-04-02T09:30:49.967Z</time></trkpt><trkpt lat="45.0754427" lon="1.3566389"><ele>284.0</ele><time>2026-04-02T09:30:50.967Z</time></trkpt><trkpt lat="45.0754227" lon="1.3568334"><ele>283.0</ele><time>2026-04-02T09:30:51.966Z</time></trkpt><trkpt lat="45.0754106" lon="1.357034"><ele>282.0</ele><time>2026-04-02T09:30:52.967Z</time></trkpt><trkpt lat="45.0754018" lon="1.3572344"><ele>281.25</ele><time>2026-04-02T09:30:53.966Z</time></trkpt><trkpt lat="45.0753911" lon="1.3574187"><ele>280.5</ele><time>2026-04-02T09:30:54.966Z</time></trkpt><trkpt lat="45.0753644" lon="1.3575899"><ele>279.75</ele><time>2026-04-02T09:30:55.966Z</time></trkpt><trkpt lat="45.0753086" lon="1.357749"><ele>279.0</ele><time>2026-04-02T09:30:56.967Z</time></trkpt><trkpt lat="45.075244" lon="1.3579001"><ele>279.5</ele><time>2026-04-02T09:30:57.967Z</time></trkpt><trkpt lat="45.0751789" lon="1.3580387"><ele>280.0</ele><time>2026-04-02T09:30:58.966Z</time></trkpt><trkpt lat="45.0751162" lon="1.3581467"><ele>280.5</ele><time>2026-04-02T09:30:59.967Z</time></trkpt><trkpt lat="45.075061" lon="1.3582184"><ele>281.0</ele><time>2026-04-02T09:31:00.967Z</time></trkpt><trkpt lat="45.0750115" lon="1.3582789"><ele>281.5</ele><time>2026-04-02T09:31:02.967Z</time></trkpt><trkpt lat="45.0750829" lon="1.3583462"><ele>282.0</ele><time>2026-04-02T09:31:08.966Z</time></trkpt><trkpt lat="45.0751553" lon="1.3583402"><ele>282.0</ele><time>2026-04-02T09:31:09.967Z</time></trkpt><trkpt lat="45.0752512" lon="1.3583418"><ele>282.0</ele><time>2026-04-02T09:31:10.967Z</time></trkpt><trkpt lat="45.0753715" lon="1.3583449"><ele>282.0</ele><time>2026-04-02T09:31:11.967Z</time></trkpt><trkpt lat="45.0755115" lon="1.3583481"><ele>282.0</ele><time>2026-04-02T09:31:12.965Z</time></trkpt><trkpt lat="45.0756544" lon="1.3583443"><ele>284.25</ele><time>2026-04-02T09:31:13.966Z</time></trkpt><trkpt lat="45.075783" lon="1.3583342"><ele>286.5</ele><time>2026-04-02T09:31:14.966Z</time></trkpt><trkpt lat="45.0759022" lon="1.3583256"><ele>288.75</ele><time>2026-04-02T09:31:15.966Z</time></trkpt><trkpt lat="45.0760138" lon="1.3583169"><ele>291.0</ele><time>2026-04-02T09:31:16.966Z</time></trkpt><trkpt lat="45.0761222" lon="1.3583004"><ele>291.0</ele><time>2026-04-02T09:31:17.966Z</time></trkpt><trkpt lat="45.0762302" lon="1.3582687"><ele>291.0</ele><time>2026-04-02T09:31:18.966Z</time></trkpt><trkpt lat="45.0763343" lon="1.3582308"><ele>291.0</ele><time>2026-04-02T09:31:19.967Z</time></trkpt><trkpt lat="45.0764377" lon="1.3582251"><ele>291.0</ele><time>2026-04-02T09:31:20.967Z</time></trkpt><trkpt lat="45.0765439" lon="1.3582511"><ele>291.0</ele><time>2026-04-02T09:31:21.966Z</time></trkpt><trkpt lat="45.0766445" lon="1.3582915"><ele>293.6666666666667</ele><time>2026-04-02T09:31:22.966Z</time></trkpt><trkpt lat="45.0767274" lon="1.3583385"><ele>296.3333333333333</ele><time>2026-04-02T09:31:23.966Z</time></trkpt><trkpt lat="45.0768021" lon="1.3583884"><ele>299.0</ele><time>2026-04-02T09:31:24.967Z</time></trkpt><trkpt lat="45.0768621" lon="1.3584246"><ele>301.66666666666663</ele><time>2026-04-02T09:31:25.967Z</time></trkpt><trkpt lat="45.0769314" lon="1.358463"><ele>304.3333333333333</ele><time>2026-04-02T09:31:26.966Z</time></trkpt><trkpt lat="45.0770141" lon="1.3585428"><ele>307.0</ele><time>2026-04-02T09:31:28.966Z</time></trkpt><trkpt lat="45.0770041" lon="1.3587087"><ele>307.0</ele><time>2026-04-02T09:31:30.966Z</time></trkpt><trkpt lat="45.0769689" lon="1.3588257"><ele>307.0</ele><time>2026-04-02T09:31:31.966Z</time></trkpt><trkpt lat="45.0769248" lon="1.3589762"><ele>307.0</ele><time>2026-04-02T09:31:32.967Z</time></trkpt><trkpt lat="45.0768754" lon="1.3591489"><ele>307.0</ele><time>2026-04-02T09:31:33.967Z</time></trkpt><trkpt lat="45.0768154" lon="1.3593596"><ele>307.0</ele><time>2026-04-02T09:31:34.966Z</time></trkpt><trkpt lat="45.0767526" lon="1.3595784"><ele>307.0</ele><time>2026-04-02T09:31:35.967Z</time></trkpt><trkpt lat="45.0766891" lon="1.35981"><ele>307.0</ele><time>2026-04-02T09:31:36.966Z</time></trkpt><trkpt lat="45.0766284" lon="1.3600387"><ele>302.66666666666663</ele><time>2026-04-02T09:31:37.967Z</time></trkpt><trkpt lat="45.0765658" lon="1.3602542"><ele>298.3333333333333</ele><time>2026-04-02T09:31:38.966Z</time></trkpt><trkpt lat="45.0765029" lon="1.3604589"><ele>294.0</ele><time>2026-04-02T09:31:39.966Z</time></trkpt><trkpt lat="45.0764399" lon="1.3606522"><ele>294.0</ele><time>2026-04-02T09:31:40.967Z</time></trkpt><trkpt lat="45.0763756" lon="1.3608384"><ele>294.0</ele><time>2026-04-02T09:31:41.965Z</time></trkpt><trkpt lat="45.0763068" lon="1.3610276"><ele>294.0</ele><time>2026-04-02T09:31:42.966Z</time></trkpt><trkpt lat="45.0762333" lon="1.3612343"><ele>294.3333333333333</ele><time>2026-04-02T09:31:43.966Z</time></trkpt><trkpt lat="45.0761612" lon="1.361435"><ele>294.66666666666663</ele><time>2026-04-02T09:31:44.966Z</time></trkpt><trkpt lat="45.0760872" lon="1.3616242"><ele>295.0</ele><time>2026-04-02T09:31:45.966Z</time></trkpt><trkpt lat="45.0760064" lon="1.3617985"><ele>295.0</ele><time>2026-04-02T09:31:46.966Z</time></trkpt><trkpt lat="45.0759064" lon="1.3619686"><ele>295.0</ele><time>2026-04-02T09:31:47.966Z</time></trkpt><trkpt lat="45.0757886" lon="1.3621324"><ele>295.0</ele><time>2026-04-02T09:31:48.965Z</time></trkpt><trkpt lat="45.0756662" lon="1.3622778"><ele>294.3333333333333</ele><time>2026-04-02T09:31:49.966Z</time></trkpt><trkpt lat="45.0755406" lon="1.3624197"><ele>293.6666666666667</ele><time>2026-04-02T09:31:50.967Z</time></trkpt><trkpt lat="45.0754288" lon="1.3625575"><ele>293.0</ele><time>2026-04-02T09:31:51.966Z</time></trkpt><trkpt lat="45.0753248" lon="1.3627005"><ele>293.0</ele><time>2026-04-02T09:31:52.967Z</time></trkpt><trkpt lat="45.0752295" lon="1.3628614"><ele>293.0</ele><time>2026-04-02T09:31:53.966Z</time></trkpt><trkpt lat="45.0751187" lon="1.3630532"><ele>293.0</ele><time>2026-04-02T09:31:54.967Z</time></trkpt><trkpt lat="45.07501" lon="1.3632228"><ele>289.6666666666667</ele><time>2026-04-02T09:31:55.967Z</time></trkpt><trkpt lat="45.0748987" lon="1.3633859"><ele>286.3333333333333</ele><time>2026-04-02T09:31:56.966Z</time></trkpt><trkpt lat="45.0747895" lon="1.3635447"><ele>283.0</ele><time>2026-04-02T09:31:57.967Z</time></trkpt><trkpt lat="45.0746905" lon="1.3637031"><ele>280.3333333333333</ele><time>2026-04-02T09:31:58.967Z</time></trkpt><trkpt lat="45.0746056" lon="1.3638769"><ele>277.6666666666667</ele><time>2026-04-02T09:31:59.966Z</time></trkpt><trkpt lat="45.0745333" lon="1.3640781"><ele>275.0</ele><time>2026-04-02T09:32:00.966Z</time></trkpt><trkpt lat="45.0744726" lon="1.3643103"><ele>275.0</ele><time>2026-04-02T09:32:01.966Z</time></trkpt><trkpt lat="45.0744258" lon="1.3645546"><ele>275.0</ele><time>2026-04-02T09:32:02.965Z</time></trkpt><trkpt lat="45.0743813" lon="1.3648158"><ele>275.0</ele><time>2026-04-02T09:32:03.965Z</time></trkpt><trkpt lat="45.0743425" lon="1.3650528"><ele>275.75</ele><time>2026-04-02T09:32:04.968Z</time></trkpt><trkpt lat="45.0743116" lon="1.365269"><ele>276.5</ele><time>2026-04-02T09:32:05.968Z</time></trkpt><trkpt lat="45.074295" lon="1.3654313"><ele>277.25</ele><time>2026-04-02T09:32:06.968Z</time></trkpt><trkpt lat="45.0742768" lon="1.365571"><ele>278.0</ele><time>2026-04-02T09:32:07.968Z</time></trkpt><trkpt lat="45.0742531" lon="1.3656866"><ele>278.6</ele><time>2026-04-02T09:32:08.968Z</time></trkpt><trkpt lat="45.074213" lon="1.3657768"><ele>279.20000000000005</ele><time>2026-04-02T09:32:09.968Z</time></trkpt><trkpt lat="45.0741722" lon="1.3658926"><ele>279.8</ele><time>2026-04-02T09:32:10.968Z</time></trkpt><trkpt lat="45.0741455" lon="1.3660192"><ele>280.40000000000003</ele><time>2026-04-02T09:32:11.968Z</time></trkpt><trkpt lat="45.0741125" lon="1.3661598"><ele>281.0</ele><time>2026-04-02T09:32:12.968Z</time></trkpt><trkpt lat="45.0740725" lon="1.3663044"><ele>278.5</ele><time>2026-04-02T09:32:13.968Z</time></trkpt><trkpt lat="45.074039" lon="1.3664524"><ele>276.0</ele><time>2026-04-02T09:32:14.968Z</time></trkpt><trkpt lat="45.0740086" lon="1.3666119"><ele>273.5</ele><time>2026-04-02T09:32:15.967Z</time></trkpt><trkpt lat="45.0739728" lon="1.3667748"><ele>271.0</ele><time>2026-04-02T09:32:16.968Z</time></trkpt><trkpt lat="45.0739361" lon="1.3669356"><ele>271.0</ele><time>2026-04-02T09:32:17.968Z</time></trkpt><trkpt lat="45.0739023" lon="1.3670917"><ele>271.0</ele><time>2026-04-02T09:32:18.968Z</time></trkpt><trkpt lat="45.0738605" lon="1.3672524"><ele>271.0</ele><time>2026-04-02T09:32:19.968Z</time></trkpt><trkpt lat="45.0738229" lon="1.3673934"><ele>271.0</ele><time>2026-04-02T09:32:20.968Z</time></trkpt><trkpt lat="45.0737604" lon="1.367505"><ele>271.0</ele><time>2026-04-02T09:32:21.966Z</time></trkpt><trkpt lat="45.0736852" lon="1.367579"><ele>272.66666666666663</ele><time>2026-04-02T09:32:22.967Z</time></trkpt><trkpt lat="45.073601" lon="1.3676302"><ele>274.3333333333333</ele><time>2026-04-02T09:32:23.967Z</time></trkpt><trkpt lat="45.0735095" lon="1.3676537"><ele>276.0</ele><time>2026-04-02T09:32:24.967Z</time></trkpt><trkpt lat="45.0734313" lon="1.3676601"><ele>277.6666666666667</ele><time>2026-04-02T09:32:25.966Z</time></trkpt><trkpt lat="45.0733641" lon="1.3676947"><ele>279.33333333333337</ele><time>2026-04-02T09:32:26.967Z</time></trkpt><trkpt lat="45.0733167" lon="1.3677736"><ele>281.0</ele><time>2026-04-02T09:32:27.967Z</time></trkpt><trkpt lat="45.0732736" lon="1.3678743"><ele>281.40000000000003</ele><time>2026-04-02T09:32:28.967Z</time></trkpt><trkpt lat="45.0732199" lon="1.3679867"><ele>281.8</ele><time>2026-04-02T09:32:29.967Z</time></trkpt><trkpt lat="45.0731473" lon="1.3681062"><ele>282.20000000000005</ele><time>2026-04-02T09:32:30.967Z</time></trkpt><trkpt lat="45.073073" lon="1.3682285"><ele>282.6</ele><time>2026-04-02T09:32:31.968Z</time></trkpt><trkpt lat="45.0730049" lon="1.368368"><ele>283.0</ele><time>2026-04-02T09:32:32.968Z</time></trkpt><trkpt lat="45.0729518" lon="1.3685114"><ele>283.6</ele><time>2026-04-02T09:32:33.967Z</time></trkpt><trkpt lat="45.0728982" lon="1.3686654"><ele>284.20000000000005</ele><time>2026-04-02T09:32:34.968Z</time></trkpt><trkpt lat="45.0728481" lon="1.3687969"><ele>284.8</ele><time>2026-04-02T09:32:35.968Z</time></trkpt><trkpt lat="45.0727919" lon="1.3689114"><ele>285.40000000000003</ele><time>2026-04-02T09:32:36.968Z</time></trkpt><trkpt lat="45.0727202" lon="1.3690122"><ele>286.0</ele><time>2026-04-02T09:32:37.968Z</time></trkpt><trkpt lat="45.0726583" lon="1.369125"><ele>286.2</ele><time>2026-04-02T09:32:38.968Z</time></trkpt><trkpt lat="45.0725993" lon="1.3692587"><ele>286.40000000000003</ele><time>2026-04-02T09:32:39.968Z</time></trkpt><trkpt lat="45.0725391" lon="1.3693886"><ele>286.6</ele><time>2026-04-02T09:32:40.968Z</time></trkpt><trkpt lat="45.0724731" lon="1.3695185"><ele>286.8</ele><time>2026-04-02T09:32:41.966Z</time></trkpt><trkpt lat="45.0724043" lon="1.3696423"><ele>287.0</ele><time>2026-04-02T09:32:42.967Z</time></trkpt><trkpt lat="45.0723316" lon="1.3697538"><ele>284.4</ele><time>2026-04-02T09:32:43.966Z</time></trkpt><trkpt lat="45.0722556" lon="1.3698588"><ele>281.79999999999995</ele><time>2026-04-02T09:32:44.967Z</time></trkpt><trkpt lat="45.0721817" lon="1.3699689"><ele>279.2</ele><time>2026-04-02T09:32:45.967Z</time></trkpt><trkpt lat="45.0721186" lon="1.370088"><ele>276.59999999999997</ele><time>2026-04-02T09:32:46.967Z</time></trkpt><trkpt lat="45.0720689" lon="1.3702186"><ele>274.0</ele><time>2026-04-02T09:32:47.967Z</time></trkpt><trkpt lat="45.0720128" lon="1.3703477"><ele>274.0</ele><time>2026-04-02T09:32:48.966Z</time></trkpt><trkpt lat="45.0719458" lon="1.3704768"><ele>274.0</ele><time>2026-04-02T09:32:49.967Z</time></trkpt><trkpt lat="45.0718744" lon="1.3706024"><ele>274.0</ele><time>2026-04-02T09:32:50.967Z</time></trkpt><trkpt lat="45.0717929" lon="1.3707258"><ele>274.0</ele><time>2026-04-02T09:32:51.967Z</time></trkpt><trkpt lat="45.0717057" lon="1.370833"><ele>274.2</ele><time>2026-04-02T09:32:52.967Z</time></trkpt><trkpt lat="45.0716147" lon="1.3709163"><ele>274.4</ele><time>2026-04-02T09:32:53.967Z</time></trkpt><trkpt lat="45.0715263" lon="1.3709927"><ele>274.6</ele><time>2026-04-02T09:32:54.968Z</time></trkpt><trkpt lat="45.0714543" lon="1.371057"><ele>274.8</ele><time>2026-04-02T09:32:55.968Z</time></trkpt><trkpt lat="45.0713948" lon="1.37118"><ele>275.0</ele><time>2026-04-02T09:32:57.968Z</time></trkpt><trkpt lat="45.0714336" lon="1.3712963"><ele>274.8</ele><time>2026-04-02T09:32:59.967Z</time></trkpt><trkpt lat="45.071494" lon="1.371342"><ele>274.6</ele><time>2026-04-02T09:33:00.967Z</time></trkpt><trkpt lat="45.0715781" lon="1.3713865"><ele>274.4</ele><time>2026-04-02T09:33:01.967Z</time></trkpt><trkpt lat="45.0716757" lon="1.3714178"><ele>274.2</ele><time>2026-04-02T09:33:02.967Z</time></trkpt><trkpt lat="45.0717742" lon="1.3714341"><ele>274.0</ele><time>2026-04-02T09:33:03.966Z</time></trkpt><trkpt lat="45.0718792" lon="1.3714552"><ele>274.0</ele><time>2026-04-02T09:33:04.967Z</time></trkpt><trkpt lat="45.0719778" lon="1.3714853"><ele>274.0</ele><time>2026-04-02T09:33:05.967Z</time></trkpt><trkpt lat="45.0720857" lon="1.3715055"><ele>274.0</ele><time>2026-04-02T09:33:06.968Z</time></trkpt><trkpt lat="45.0721969" lon="1.3715085"><ele>274.0</ele><time>2026-04-02T09:33:07.968Z</time></trkpt><trkpt lat="45.0722997" lon="1.3715048"><ele>274.0</ele><time>2026-04-02T09:33:08.966Z</time></trkpt><trkpt lat="45.0724005" lon="1.3714956"><ele>274.25</ele><time>2026-04-02T09:33:09.968Z</time></trkpt><trkpt lat="45.0725083" lon="1.3715008"><ele>274.5</ele><time>2026-04-02T09:33:10.967Z</time></trkpt><trkpt lat="45.0726307" lon="1.3715091"><ele>274.75</ele><time>2026-04-02T09:33:11.967Z</time></trkpt><trkpt lat="45.0727508" lon="1.3715116"><ele>275.0</ele><time>2026-04-02T09:33:12.967Z</time></trkpt><trkpt lat="45.072876" lon="1.3715333"><ele>275.0</ele><time>2026-04-02T09:33:13.967Z</time></trkpt><trkpt lat="45.0729969" lon="1.3715823"><ele>275.0</ele><time>2026-04-02T09:33:14.968Z</time></trkpt><trkpt lat="45.0731275" lon="1.371625"><ele>275.0</ele><time>2026-04-02T09:33:15.968Z</time></trkpt><trkpt lat="45.0732454" lon="1.3716726"><ele>275.0</ele><time>2026-04-02T09:33:16.966Z</time></trkpt><trkpt lat="45.0733495" lon="1.3717365"><ele>275.0</ele><time>2026-04-02T09:33:17.968Z</time></trkpt><trkpt lat="45.0734431" lon="1.3718021"><ele>275.0</ele><time>2026-04-02T09:33:18.967Z</time></trkpt><trkpt lat="45.0735428" lon="1.3718895"><ele>275.0</ele><time>2026-04-02T09:33:19.967Z</time></trkpt><trkpt lat="45.0736447" lon="1.3719737"><ele>275.0</ele><time>2026-04-02T09:33:20.967Z</time></trkpt><trkpt lat="45.0737553" lon="1.3720318"><ele>275.0</ele><time>2026-04-02T09:33:21.968Z</time></trkpt><trkpt lat="45.0738701" lon="1.3720847"><ele>275.0</ele><time>2026-04-02T09:33:22.966Z</time></trkpt><trkpt lat="45.0739831" lon="1.3721617"><ele>275.0</ele><time>2026-04-02T09:33:23.967Z</time></trkpt><trkpt lat="45.0740962" lon="1.3722684"><ele>275.0</ele><time>2026-04-02T09:33:24.967Z</time></trkpt><trkpt lat="45.0742028" lon="1.3723899"><ele>276.5</ele><time>2026-04-02T09:33:25.967Z</time></trkpt><trkpt lat="45.0743115" lon="1.3725239"><ele>278.0</ele><time>2026-04-02T09:33:26.968Z</time></trkpt><trkpt lat="45.0744296" lon="1.3726439"><ele>279.5</ele><time>2026-04-02T09:33:27.968Z</time></trkpt><trkpt lat="45.0745554" lon="1.3727405"><ele>281.0</ele><time>2026-04-02T09:33:28.968Z</time></trkpt><trkpt lat="45.0747027" lon="1.3728194"><ele>281.0</ele><time>2026-04-02T09:33:29.967Z</time></trkpt><trkpt lat="45.0748701" lon="1.3728796"><ele>281.0</ele><time>2026-04-02T09:33:30.967Z</time></trkpt><trkpt lat="45.0750389" lon="1.3729201"><ele>281.0</ele><time>2026-04-02T09:33:31.968Z</time></trkpt><trkpt lat="45.0752112" lon="1.3729642"><ele>282.6666666666667</ele><time>2026-04-02T09:33:32.968Z</time></trkpt><trkpt lat="45.0753943" lon="1.373042"><ele>284.3333333333333</ele><time>2026-04-02T09:33:33.968Z</time></trkpt><trkpt lat="45.0755648" lon="1.3731314"><ele>286.0</ele><time>2026-04-02T09:33:34.967Z</time></trkpt><trkpt lat="45.0757448" lon="1.3732145"><ele>286.0</ele><time>2026-04-02T09:33:35.967Z</time></trkpt><trkpt lat="45.0759049" lon="1.3732994"><ele>286.0</ele><time>2026-04-02T09:33:36.968Z</time></trkpt><trkpt lat="45.076054" lon="1.373391"><ele>286.0</ele><time>2026-04-02T09:33:37.967Z</time></trkpt><trkpt lat="45.076196" lon="1.3734887"><ele>286.0</ele><time>2026-04-02T09:33:38.968Z</time></trkpt><trkpt lat="45.0763356" lon="1.3736027"><ele>286.0</ele><time>2026-04-02T09:33:39.968Z</time></trkpt><trkpt lat="45.0764753" lon="1.3737277"><ele>286.0</ele><time>2026-04-02T09:33:40.968Z</time></trkpt><trkpt lat="45.0766124" lon="1.3738659"><ele>284.66666666666663</ele><time>2026-04-02T09:33:41.968Z</time></trkpt><trkpt lat="45.0767421" lon="1.3740173"><ele>283.3333333333333</ele><time>2026-04-02T09:33:42.968Z</time></trkpt><trkpt lat="45.0768685" lon="1.3742082"><ele>282.0</ele><time>2026-04-02T09:33:43.968Z</time></trkpt><trkpt lat="45.0769995" lon="1.374441"><ele>282.0</ele><time>2026-04-02T09:33:44.968Z</time></trkpt><trkpt lat="45.0771171" lon="1.3746525"><ele>282.0</ele><time>2026-04-02T09:33:45.968Z</time></trkpt><trkpt lat="45.0772333" lon="1.3748573"><ele>282.0</ele><time>2026-04-02T09:33:46.967Z</time></trkpt><trkpt lat="45.0773601" lon="1.3750547"><ele>282.3333333333333</ele><time>2026-04-02T09:33:47.967Z</time></trkpt><trkpt lat="45.0775028" lon="1.3752513"><ele>282.66666666666663</ele><time>2026-04-02T09:33:48.967Z</time></trkpt><trkpt lat="45.0776291" lon="1.3754265"><ele>283.0</ele><time>2026-04-02T09:33:49.968Z</time></trkpt><trkpt lat="45.0777502" lon="1.37556"><ele>283.0</ele><time>2026-04-02T09:33:50.966Z</time></trkpt><trkpt lat="45.0778959" lon="1.3756864"><ele>283.0</ele><time>2026-04-02T09:33:51.967Z</time></trkpt><trkpt lat="45.0780303" lon="1.3758104"><ele>283.0</ele><time>2026-04-02T09:33:52.967Z</time></trkpt><trkpt lat="45.0781629" lon="1.3759309"><ele>285.0</ele><time>2026-04-02T09:33:53.967Z</time></trkpt><trkpt lat="45.0783058" lon="1.3760581"><ele>287.0</ele><time>2026-04-02T09:33:54.967Z</time></trkpt><trkpt lat="45.0784414" lon="1.3761674"><ele>289.0</ele><time>2026-04-02T09:33:55.967Z</time></trkpt><trkpt lat="45.078572" lon="1.3762762"><ele>288.0</ele><time>2026-04-02T09:33:56.966Z</time></trkpt><trkpt lat="45.0787055" lon="1.3763774"><ele>287.0</ele><time>2026-04-02T09:33:57.966Z</time></trkpt><trkpt lat="45.0788476" lon="1.3764392"><ele>286.0</ele><time>2026-04-02T09:33:58.968Z</time></trkpt><trkpt lat="45.079" lon="1.3764816"><ele>287.25</ele><time>2026-04-02T09:33:59.967Z</time></trkpt><trkpt lat="45.0791476" lon="1.3765313"><ele>288.5</ele><time>2026-04-02T09:34:00.967Z</time></trkpt><trkpt lat="45.0792871" lon="1.3765917"><ele>289.75</ele><time>2026-04-02T09:34:01.968Z</time></trkpt><trkpt lat="45.0794217" lon="1.3766691"><ele>291.0</ele><time>2026-04-02T09:34:02.968Z</time></trkpt><trkpt lat="45.0795469" lon="1.3767633"><ele>291.0</ele><time>2026-04-02T09:34:03.968Z</time></trkpt><trkpt lat="45.0796652" lon="1.376861"><ele>291.0</ele><time>2026-04-02T09:34:04.967Z</time></trkpt><trkpt lat="45.079762" lon="1.3769574"><ele>291.0</ele><time>2026-04-02T09:34:05.967Z</time></trkpt><trkpt lat="45.0798361" lon="1.3770675"><ele>291.0</ele><time>2026-04-02T09:34:06.967Z</time></trkpt><trkpt lat="45.0798913" lon="1.3771889"><ele>291.40000000000003</ele><time>2026-04-02T09:34:07.968Z</time></trkpt><trkpt lat="45.0799258" lon="1.3773223"><ele>291.8</ele><time>2026-04-02T09:34:08.967Z</time></trkpt><trkpt lat="45.0799506" lon="1.3774477"><ele>292.20000000000005</ele><time>2026-04-02T09:34:09.968Z</time></trkpt><trkpt lat="45.0799732" lon="1.3775341"><ele>292.6</ele><time>2026-04-02T09:34:10.967Z</time></trkpt><trkpt lat="45.0800486" lon="1.3775908"><ele>293.0</ele><time>2026-04-02T09:34:12.967Z</time></trkpt><trkpt lat="45.080162" lon="1.3775174"><ele>293.1666666666667</ele><time>2026-04-02T09:34:14.968Z</time></trkpt><trkpt lat="45.0802309" lon="1.377471"><ele>293.33333333333337</ele><time>2026-04-02T09:34:15.968Z</time></trkpt><trkpt lat="45.0803113" lon="1.377438"><ele>293.5</ele><time>2026-04-02T09:34:16.968Z</time></trkpt><trkpt lat="45.0804013" lon="1.3774192"><ele>293.6666666666667</ele><time>2026-04-02T09:34:17.968Z</time></trkpt><trkpt lat="45.0804912" lon="1.3774088"><ele>293.8333333333333</ele><time>2026-04-02T09:34:18.968Z</time></trkpt><trkpt lat="45.080576" lon="1.3773997"><ele>294.0</ele><time>2026-04-02T09:34:19.967Z</time></trkpt><trkpt lat="45.0806581" lon="1.3773938"><ele>294.0</ele><time>2026-04-02T09:34:20.967Z</time></trkpt><trkpt lat="45.0807334" lon="1.3773918"><ele>294.0</ele><time>2026-04-02T09:34:21.967Z</time></trkpt><trkpt lat="45.0808027" lon="1.3773823"><ele>294.0</ele><time>2026-04-02T09:34:22.967Z</time></trkpt><trkpt lat="45.0808671" lon="1.3773759"><ele>294.0</ele><time>2026-04-02T09:34:23.967Z</time></trkpt><trkpt lat="45.0809655" lon="1.3773777"><ele>294.0</ele><time>2026-04-02T09:34:25.968Z</time></trkpt><trkpt lat="45.0810408" lon="1.3774146"><ele>294.0</ele><time>2026-04-02T09:34:28.967Z</time></trkpt><trkpt lat="45.081112" lon="1.377481"><ele>293.25</ele><time>2026-04-02T09:34:30.968Z</time></trkpt><trkpt lat="45.0812449" lon="1.3775077"><ele>292.5</ele><time>2026-04-02T09:34:32.967Z</time></trkpt><trkpt lat="45.0813407" lon="1.3775155"><ele>291.75</ele><time>2026-04-02T09:34:33.967Z</time></trkpt><trkpt lat="45.0814538" lon="1.3775174"><ele>291.0</ele><time>2026-04-02T09:34:34.967Z</time></trkpt><trkpt lat="45.081576" lon="1.3775135"><ele>290.0</ele><time>2026-04-02T09:34:35.967Z</time></trkpt><trkpt lat="45.0817051" lon="1.3775049"><ele>289.0</ele><time>2026-04-02T09:34:36.967Z</time></trkpt><trkpt lat="45.0818394" lon="1.3774937"><ele>288.0</ele><time>2026-04-02T09:34:37.968Z</time></trkpt><trkpt lat="45.0819779" lon="1.3774664"><ele>287.0</ele><time>2026-04-02T09:34:38.967Z</time></trkpt><trkpt lat="45.0821128" lon="1.3774298"><ele>287.0</ele><time>2026-04-02T09:34:39.968Z</time></trkpt><trkpt lat="45.0822449" lon="1.3773917"><ele>287.0</ele><time>2026-04-02T09:34:40.967Z</time></trkpt><trkpt lat="45.0823679" lon="1.3773456"><ele>287.0</ele><time>2026-04-02T09:34:41.966Z</time></trkpt><trkpt lat="45.082479" lon="1.3772987"><ele>287.0</ele><time>2026-04-02T09:34:42.967Z</time></trkpt><trkpt lat="45.0825644" lon="1.3772699"><ele>286.0</ele><time>2026-04-02T09:34:43.967Z</time></trkpt><trkpt lat="45.0826321" lon="1.3772624"><ele>285.0</ele><time>2026-04-02T09:34:44.967Z</time></trkpt><trkpt lat="45.082761" lon="1.3772114"><ele>284.0</ele><time>2026-04-02T09:34:46.966Z</time></trkpt><trkpt lat="45.0828295" lon="1.3771621"><ele>283.0</ele><time>2026-04-02T09:34:47.968Z</time></trkpt><trkpt lat="45.0828963" lon="1.3771095"><ele>282.0</ele><time>2026-04-02T09:34:48.968Z</time></trkpt><trkpt lat="45.0829604" lon="1.3770399"><ele>281.0</ele><time>2026-04-02T09:34:49.967Z</time></trkpt><trkpt lat="45.0830214" lon="1.3769749"><ele>281.0</ele><time>2026-04-02T09:34:50.968Z</time></trkpt><trkpt lat="45.0830923" lon="1.3769529"><ele>281.0</ele><time>2026-04-02T09:34:51.966Z</time></trkpt><trkpt lat="45.0831628" lon="1.3769864"><ele>281.0</ele><time>2026-04-02T09:34:52.968Z</time></trkpt><trkpt lat="45.083225" lon="1.3770472"><ele>281.0</ele><time>2026-04-02T09:34:53.968Z</time></trkpt><trkpt lat="45.0832931" lon="1.3771124"><ele>281.0</ele><time>2026-04-02T09:34:54.967Z</time></trkpt><trkpt lat="45.0833722" lon="1.3771854"><ele>281.0</ele><time>2026-04-02T09:34:55.967Z</time></trkpt><trkpt lat="45.0834777" lon="1.3772712"><ele>282.5</ele><time>2026-04-02T09:34:56.967Z</time></trkpt><trkpt lat="45.0835722" lon="1.3773247"><ele>284.0</ele><time>2026-04-02T09:34:57.967Z</time></trkpt><trkpt lat="45.083685" lon="1.3773729"><ele>285.5</ele><time>2026-04-02T09:34:58.968Z</time></trkpt><trkpt lat="45.083805" lon="1.3774143"><ele>287.0</ele><time>2026-04-02T09:34:59.968Z</time></trkpt><trkpt lat="45.0839182" lon="1.3774563"><ele>287.0</ele><time>2026-04-02T09:35:00.967Z</time></trkpt><trkpt lat="45.0840351" lon="1.3774999"><ele>287.0</ele><time>2026-04-02T09:35:01.967Z</time></trkpt><trkpt lat="45.0841474" lon="1.3775359"><ele>287.0</ele><time>2026-04-02T09:35:02.968Z</time></trkpt><trkpt lat="45.0842624" lon="1.3775815"><ele>287.0</ele><time>2026-04-02T09:35:03.967Z</time></trkpt><trkpt lat="45.0843802" lon="1.3776363"><ele>290.4</ele><time>2026-04-02T09:35:04.968Z</time></trkpt><trkpt lat="45.0844656" lon="1.3777237"><ele>293.79999999999995</ele><time>2026-04-02T09:35:05.967Z</time></trkpt><trkpt lat="45.0845591" lon="1.3777611"><ele>297.2</ele><time>2026-04-02T09:35:06.967Z</time></trkpt><trkpt lat="45.0846608" lon="1.3778002"><ele>300.59999999999997</ele><time>2026-04-02T09:35:07.967Z</time></trkpt><trkpt lat="45.0847682" lon="1.3777947"><ele>304.0</ele><time>2026-04-02T09:35:08.968Z</time></trkpt><trkpt lat="45.0848837" lon="1.3778011"><ele>304.5</ele><time>2026-04-02T09:35:09.967Z</time></trkpt><trkpt lat="45.0849907" lon="1.3778022"><ele>305.0</ele><time>2026-04-02T09:35:10.967Z</time></trkpt><trkpt lat="45.0851063" lon="1.3777772"><ele>305.5</ele><time>2026-04-02T09:35:11.967Z</time></trkpt><trkpt lat="45.0852376" lon="1.3777667"><ele>306.0</ele><time>2026-04-02T09:35:12.967Z</time></trkpt><trkpt lat="45.085369" lon="1.3777388"><ele>306.0</ele><time>2026-04-02T09:35:13.967Z</time></trkpt><trkpt lat="45.0855025" lon="1.3777214"><ele>306.0</ele><time>2026-04-02T09:35:14.966Z</time></trkpt><trkpt lat="45.0856266" lon="1.3777118"><ele>306.0</ele><time>2026-04-02T09:35:15.967Z</time></trkpt><trkpt lat="45.0857463" lon="1.3776975"><ele>306.0</ele><time>2026-04-02T09:35:16.968Z</time></trkpt><trkpt lat="45.0858555" lon="1.3776872"><ele>306.0</ele><time>2026-04-02T09:35:17.968Z</time></trkpt><trkpt lat="45.0859581" lon="1.377697"><ele>306.0</ele><time>2026-04-02T09:35:18.968Z</time></trkpt><trkpt lat="45.0860584" lon="1.3777191"><ele>306.0</ele><time>2026-04-02T09:35:19.968Z</time></trkpt><trkpt lat="45.0861525" lon="1.3777485"><ele>306.0</ele><time>2026-04-02T09:35:20.967Z</time></trkpt><trkpt lat="45.0862573" lon="1.3777782"><ele>306.0</ele><time>2026-04-02T09:35:21.967Z</time></trkpt><trkpt lat="45.0863577" lon="1.377829"><ele>306.0</ele><time>2026-04-02T09:35:22.966Z</time></trkpt><trkpt lat="45.0864404" lon="1.3778775"><ele>306.0</ele><time>2026-04-02T09:35:23.967Z</time></trkpt><trkpt lat="45.0865228" lon="1.3779317"><ele>306.0</ele><time>2026-04-02T09:35:24.967Z</time></trkpt><trkpt lat="45.0866047" lon="1.3779803"><ele>306.0</ele><time>2026-04-02T09:35:26.967Z</time></trkpt><trkpt lat="45.0866756" lon="1.3780332"><ele>306.0</ele><time>2026-04-02T09:35:28.967Z</time></trkpt><trkpt lat="45.0867329" lon="1.3780744"><ele>306.0</ele><time>2026-04-02T09:35:29.967Z</time></trkpt><trkpt lat="45.0867952" lon="1.3781059"><ele>305.1666666666667</ele><time>2026-04-02T09:35:30.968Z</time></trkpt><trkpt lat="45.0868634" lon="1.3781345"><ele>304.3333333333333</ele><time>2026-04-02T09:35:31.968Z</time></trkpt><trkpt lat="45.0869377" lon="1.3781659"><ele>303.5</ele><time>2026-04-02T09:35:32.966Z</time></trkpt><trkpt lat="45.0870188" lon="1.3781931"><ele>302.66666666666663</ele><time>2026-04-02T09:35:33.967Z</time></trkpt><trkpt lat="45.0871013" lon="1.3782156"><ele>301.8333333333333</ele><time>2026-04-02T09:35:34.967Z</time></trkpt><trkpt lat="45.0871818" lon="1.3782354"><ele>301.0</ele><time>2026-04-02T09:35:35.967Z</time></trkpt><trkpt lat="45.0872648" lon="1.3782623"><ele>301.0</ele><time>2026-04-02T09:35:36.967Z</time></trkpt><trkpt lat="45.0873526" lon="1.3782886"><ele>301.0</ele><time>2026-04-02T09:35:37.968Z</time></trkpt><trkpt lat="45.0874408" lon="1.3783148"><ele>301.0</ele><time>2026-04-02T09:35:38.968Z</time></trkpt><trkpt lat="45.0875293" lon="1.3783395"><ele>301.0</ele><time>2026-04-02T09:35:39.967Z</time></trkpt><trkpt lat="45.0876184" lon="1.3783626"><ele>301.0</ele><time>2026-04-02T09:35:40.967Z</time></trkpt><trkpt lat="45.0877096" lon="1.3783762"><ele>302.6</ele><time>2026-04-02T09:35:41.967Z</time></trkpt><trkpt lat="45.0878052" lon="1.378365"><ele>304.20000000000005</ele><time>2026-04-02T09:35:42.967Z</time></trkpt><trkpt lat="45.087894" lon="1.3783376"><ele>305.79999999999995</ele><time>2026-04-02T09:35:43.968Z</time></trkpt><trkpt lat="45.0879831" lon="1.3782872"><ele>307.4</ele><time>2026-04-02T09:35:44.967Z</time></trkpt><trkpt lat="45.0880683" lon="1.3782307"><ele>309.0</ele><time>2026-04-02T09:35:45.967Z</time></trkpt><trkpt lat="45.0881559" lon="1.378171"><ele>309.0</ele><time>2026-04-02T09:35:46.967Z</time></trkpt><trkpt lat="45.0882465" lon="1.3781102"><ele>309.0</ele><time>2026-04-02T09:35:47.967Z</time></trkpt><trkpt lat="45.0883377" lon="1.3780529"><ele>309.0</ele><time>2026-04-02T09:35:48.967Z</time></trkpt><trkpt lat="45.0884281" lon="1.3779953"><ele>309.0</ele><time>2026-04-02T09:35:49.967Z</time></trkpt><trkpt lat="45.0885125" lon="1.3779298"><ele>309.0</ele><time>2026-04-02T09:35:50.966Z</time></trkpt><trkpt lat="45.088591" lon="1.3778576"><ele>308.2</ele><time>2026-04-02T09:35:51.967Z</time></trkpt><trkpt lat="45.0886694" lon="1.3777827"><ele>307.4</ele><time>2026-04-02T09:35:52.968Z</time></trkpt><trkpt lat="45.08875" lon="1.3776973"><ele>306.6</ele><time>2026-04-02T09:35:53.968Z</time></trkpt><trkpt lat="45.0888307" lon="1.3776164"><ele>305.8</ele><time>2026-04-02T09:35:54.968Z</time></trkpt><trkpt lat="45.0889056" lon="1.37756"><ele>305.0</ele><time>2026-04-02T09:35:55.967Z</time></trkpt><trkpt lat="45.0890187" lon="1.3775881"><ele>305.0</ele><time>2026-04-02T09:35:57.968Z</time></trkpt><trkpt lat="45.0890799" lon="1.3776152"><ele>305.0</ele><time>2026-04-02T09:35:58.968Z</time></trkpt><trkpt lat="45.0891442" lon="1.3776261"><ele>305.0</ele><time>2026-04-02T09:35:59.968Z</time></trkpt><trkpt lat="45.0892156" lon="1.377631"><ele>305.0</ele><time>2026-04-02T09:36:00.967Z</time></trkpt><trkpt lat="45.0892899" lon="1.3776196"><ele>305.0</ele><time>2026-04-02T09:36:01.968Z</time></trkpt><trkpt lat="45.0893619" lon="1.3776175"><ele>305.0</ele><time>2026-04-02T09:36:02.968Z</time></trkpt><trkpt lat="45.089436" lon="1.3776052"><ele>305.0</ele><time>2026-04-02T09:36:03.967Z</time></trkpt><trkpt lat="45.089504" lon="1.3775825"><ele>305.33333333333337</ele><time>2026-04-02T09:36:04.968Z</time></trkpt><trkpt lat="45.0895693" lon="1.3775547"><ele>305.6666666666667</ele><time>2026-04-02T09:36:05.967Z</time></trkpt><trkpt lat="45.0896413" lon="1.3775135"><ele>306.0</ele><time>2026-04-02T09:36:06.967Z</time></trkpt><trkpt lat="45.0897131" lon="1.3774666"><ele>306.3333333333333</ele><time>2026-04-02T09:36:07.967Z</time></trkpt><trkpt lat="45.0897913" lon="1.377422"><ele>306.66666666666663</ele><time>2026-04-02T09:36:08.967Z</time></trkpt><trkpt lat="45.0898808" lon="1.3773722"><ele>307.0</ele><time>2026-04-02T09:36:09.967Z</time></trkpt><trkpt lat="45.0899594" lon="1.3773316"><ele>308.0</ele><time>2026-04-02T09:36:10.968Z</time></trkpt><trkpt lat="45.0900325" lon="1.3772861"><ele>309.0</ele><time>2026-04-02T09:36:11.967Z</time></trkpt><trkpt lat="45.0900903" lon="1.3772329"><ele>310.0</ele><time>2026-04-02T09:36:12.967Z</time></trkpt><trkpt lat="45.0901636" lon="1.3771022"><ele>311.0</ele><time>2026-04-02T09:36:14.967Z</time></trkpt><trkpt lat="45.090163" lon="1.3769209"><ele>312.0</ele><time>2026-04-02T09:36:16.967Z</time></trkpt><trkpt lat="45.0901373" lon="1.3768162"><ele>312.3333333333333</ele><time>2026-04-02T09:36:17.968Z</time></trkpt><trkpt lat="45.0901097" lon="1.376701"><ele>312.6666666666667</ele><time>2026-04-02T09:36:18.968Z</time></trkpt><trkpt lat="45.0900878" lon="1.3765774"><ele>313.0</ele><time>2026-04-02T09:36:19.968Z</time></trkpt><trkpt lat="45.0900682" lon="1.376454"><ele>313.33333333333337</ele><time>2026-04-02T09:36:20.967Z</time></trkpt><trkpt lat="45.090049" lon="1.3763283"><ele>313.6666666666667</ele><time>2026-04-02T09:36:21.968Z</time></trkpt><trkpt lat="45.0900303" lon="1.3762031"><ele>314.0</ele><time>2026-04-02T09:36:22.968Z</time></trkpt><trkpt lat="45.0900095" lon="1.3760778"><ele>314.2</ele><time>2026-04-02T09:36:23.968Z</time></trkpt><trkpt lat="45.0899904" lon="1.375952"><ele>314.4</ele><time>2026-04-02T09:36:24.967Z</time></trkpt><trkpt lat="45.0899731" lon="1.3758255"><ele>314.6</ele><time>2026-04-02T09:36:25.968Z</time></trkpt><trkpt lat="45.0899607" lon="1.3756944"><ele>314.8</ele><time>2026-04-02T09:36:26.969Z</time></trkpt><trkpt lat="45.0899508" lon="1.3755624"><ele>315.0</ele><time>2026-04-02T09:36:27.968Z</time></trkpt><trkpt lat="45.0899425" lon="1.3754264"><ele>315.0</ele><time>2026-04-02T09:36:28.968Z</time></trkpt><trkpt lat="45.0899399" lon="1.3752863"><ele>315.0</ele><time>2026-04-02T09:36:29.969Z</time></trkpt><trkpt lat="45.0899391" lon="1.3751383"><ele>315.0</ele><time>2026-04-02T09:36:30.969Z</time></trkpt><trkpt lat="45.0899469" lon="1.3749796"><ele>315.0</ele><time>2026-04-02T09:36:31.969Z</time></trkpt><trkpt lat="45.0899526" lon="1.3748234"><ele>315.0</ele><time>2026-04-02T09:36:32.968Z</time></trkpt><trkpt lat="45.0899446" lon="1.37467"><ele>314.0</ele><time>2026-04-02T09:36:33.968Z</time></trkpt><trkpt lat="45.089919" lon="1.3745187"><ele>313.0</ele><time>2026-04-02T09:36:34.968Z</time></trkpt><trkpt lat="45.0898726" lon="1.3743671"><ele>312.0</ele><time>2026-04-02T09:36:35.969Z</time></trkpt><trkpt lat="45.0898189" lon="1.3742145"><ele>311.0</ele><time>2026-04-02T09:36:36.968Z</time></trkpt><trkpt lat="45.0897582" lon="1.374065"><ele>311.0</ele><time>2026-04-02T09:36:37.968Z</time></trkpt><trkpt lat="45.089686" lon="1.3739289"><ele>311.0</ele><time>2026-04-02T09:36:38.969Z</time></trkpt><trkpt lat="45.0896088" lon="1.3738031"><ele>311.0</ele><time>2026-04-02T09:36:39.969Z</time></trkpt><trkpt lat="45.08953" lon="1.3736751"><ele>311.0</ele><time>2026-04-02T09:36:40.967Z</time></trkpt><trkpt lat="45.0894545" lon="1.3735506"><ele>312.8</ele><time>2026-04-02T09:36:41.968Z</time></trkpt><trkpt lat="45.0893777" lon="1.373431"><ele>314.6</ele><time>2026-04-02T09:36:42.968Z</time></trkpt><trkpt lat="45.0892924" lon="1.3733313"><ele>316.4</ele><time>2026-04-02T09:36:43.968Z</time></trkpt><trkpt lat="45.0892082" lon="1.3732487"><ele>318.2</ele><time>2026-04-02T09:36:44.969Z</time></trkpt><trkpt lat="45.0891472" lon="1.3731655"><ele>320.0</ele><time>2026-04-02T09:36:45.969Z</time></trkpt><trkpt lat="45.0890829" lon="1.3730953"><ele>320.1666666666667</ele><time>2026-04-02T09:36:46.969Z</time></trkpt><trkpt lat="45.0890125" lon="1.3730656"><ele>320.33333333333337</ele><time>2026-04-02T09:36:47.969Z</time></trkpt><trkpt lat="45.0889403" lon="1.3730732"><ele>320.5</ele><time>2026-04-02T09:36:48.969Z</time></trkpt><trkpt lat="45.0888801" lon="1.3730997"><ele>320.6666666666667</ele><time>2026-04-02T09:36:49.968Z</time></trkpt><trkpt lat="45.0888004" lon="1.3731339"><ele>320.8333333333333</ele><time>2026-04-02T09:36:51.968Z</time></trkpt><trkpt lat="45.0887662" lon="1.3730244"><ele>321.0</ele><time>2026-04-02T09:36:58.969Z</time></trkpt><trkpt lat="45.0888371" lon="1.3728757"><ele>320.6666666666667</ele><time>2026-04-02T09:37:00.969Z</time></trkpt><trkpt lat="45.0888911" lon="1.3728154"><ele>320.3333333333333</ele><time>2026-04-02T09:37:01.968Z</time></trkpt><trkpt lat="45.0889539" lon="1.3727665"><ele>320.0</ele><time>2026-04-02T09:37:02.967Z</time></trkpt><trkpt lat="45.089021" lon="1.372738"><ele>319.66666666666663</ele><time>2026-04-02T09:37:03.968Z</time></trkpt><trkpt lat="45.0890896" lon="1.3727351"><ele>319.3333333333333</ele><time>2026-04-02T09:37:04.968Z</time></trkpt><trkpt lat="45.0892049" lon="1.3727533"><ele>319.0</ele><time>2026-04-02T09:37:06.969Z</time></trkpt><trkpt lat="45.089285" lon="1.3727765"><ele>319.0</ele><time>2026-04-02T09:37:08.968Z</time></trkpt><trkpt lat="45.0893265" lon="1.3727078"><ele>319.0</ele><time>2026-04-02T09:37:11.968Z</time></trkpt><trkpt lat="45.0892536" lon="1.3726956"><ele>319.0</ele><time>2026-04-02T09:43:17.969Z</time></trkpt><trkpt lat="45.0891788" lon="1.372704"><ele>319.0</ele><time>2026-04-02T09:43:19.97Z</time></trkpt><trkpt lat="45.0891095" lon="1.3726916"><ele>319.0</ele><time>2026-04-02T09:43:21.97Z</time></trkpt><trkpt lat="45.0890877" lon="1.3726037"><ele>319.0</ele><time>2026-04-02T09:43:23.97Z</time></trkpt><trkpt lat="45.0891232" lon="1.3724801"><ele>319.0</ele><time>2026-04-02T09:43:25.969Z</time></trkpt><trkpt lat="45.0891931" lon="1.3723503"><ele>319.8333333333333</ele><time>2026-04-02T09:43:27.97Z</time></trkpt><trkpt lat="45.0892417" lon="1.3722416"><ele>320.66666666666663</ele><time>2026-04-02T09:43:29.969Z</time></trkpt><trkpt lat="45.0893024" lon="1.3721256"><ele>321.5</ele><time>2026-04-02T09:43:31.97Z</time></trkpt><trkpt lat="45.0893388" lon="1.3720494"><ele>322.3333333333333</ele><time>2026-04-02T09:43:32.969Z</time></trkpt><trkpt lat="45.0893802" lon="1.37196"><ele>323.1666666666667</ele><time>2026-04-02T09:43:33.969Z</time></trkpt><trkpt lat="45.0894297" lon="1.3718613"><ele>324.0</ele><time>2026-04-02T09:43:34.969Z</time></trkpt><trkpt lat="45.0894853" lon="1.3717523"><ele>324.0</ele><time>2026-04-02T09:43:35.969Z</time></trkpt><trkpt lat="45.0895478" lon="1.3716333"><ele>324.0</ele><time>2026-04-02T09:43:36.968Z</time></trkpt><trkpt lat="45.0896106" lon="1.3715076"><ele>324.0</ele><time>2026-04-02T09:43:37.969Z</time></trkpt><trkpt lat="45.0896746" lon="1.3713823"><ele>324.0</ele><time>2026-04-02T09:43:38.968Z</time></trkpt><trkpt lat="45.0897403" lon="1.3712521"><ele>324.0</ele><time>2026-04-02T09:43:39.97Z</time></trkpt><trkpt lat="45.0898094" lon="1.3711265"><ele>323.75</ele><time>2026-04-02T09:43:40.969Z</time></trkpt><trkpt lat="45.0898866" lon="1.3710091"><ele>323.5</ele><time>2026-04-02T09:43:41.97Z</time></trkpt><trkpt lat="45.0899707" lon="1.3709057"><ele>323.25</ele><time>2026-04-02T09:43:42.969Z</time></trkpt><trkpt lat="45.0900637" lon="1.3708214"><ele>323.0</ele><time>2026-04-02T09:43:44.505Z</time></trkpt><trkpt lat="45.0902509" lon="1.3706877"><ele>323.79999999999995</ele><time>2026-04-02T09:43:45.97Z</time></trkpt><trkpt lat="45.0903425" lon="1.3706419"><ele>324.6</ele><time>2026-04-02T09:43:46.97Z</time></trkpt><trkpt lat="45.0904313" lon="1.3706104"><ele>325.4</ele><time>2026-04-02T09:43:47.97Z</time></trkpt><trkpt lat="45.0905232" lon="1.3705879"><ele>326.20000000000005</ele><time>2026-04-02T09:43:48.97Z</time></trkpt><trkpt lat="45.0906072" lon="1.3705716"><ele>327.0</ele><time>2026-04-02T09:43:49.97Z</time></trkpt><trkpt lat="45.0906885" lon="1.370544"><ele>327.20000000000005</ele><time>2026-04-02T09:43:50.969Z</time></trkpt><trkpt lat="45.090758" lon="1.3704888"><ele>327.4</ele><time>2026-04-02T09:43:51.97Z</time></trkpt><trkpt lat="45.0908129" lon="1.3704005"><ele>327.6</ele><time>2026-04-02T09:43:52.968Z</time></trkpt><trkpt lat="45.0908457" lon="1.3702805"><ele>327.79999999999995</ele><time>2026-04-02T09:43:53.969Z</time></trkpt><trkpt lat="45.0908578" lon="1.3701344"><ele>328.0</ele><time>2026-04-02T09:43:54.97Z</time></trkpt><trkpt lat="45.0908537" lon="1.369976"><ele>328.0</ele><time>2026-04-02T09:43:55.97Z</time></trkpt><trkpt lat="45.0908469" lon="1.3698228"><ele>328.0</ele><time>2026-04-02T09:43:56.969Z</time></trkpt><trkpt lat="45.0908454" lon="1.3696612"><ele>328.0</ele><time>2026-04-02T09:43:57.97Z</time></trkpt><trkpt lat="45.0908431" lon="1.3694984"><ele>328.0</ele><time>2026-04-02T09:43:58.969Z</time></trkpt><trkpt lat="45.0908407" lon="1.3693312"><ele>327.75</ele><time>2026-04-02T09:43:59.97Z</time></trkpt><trkpt lat="45.0908401" lon="1.3691645"><ele>327.5</ele><time>2026-04-02T09:44:00.97Z</time></trkpt><trkpt lat="45.0908419" lon="1.3689971"><ele>327.25</ele><time>2026-04-02T09:44:01.969Z</time></trkpt><trkpt lat="45.0908482" lon="1.368829"><ele>327.0</ele><time>2026-04-02T09:44:02.97Z</time></trkpt><trkpt lat="45.0908544" lon="1.3686629"><ele>327.5</ele><time>2026-04-02T09:44:03.97Z</time></trkpt><trkpt lat="45.090855" lon="1.3684902"><ele>328.0</ele><time>2026-04-02T09:44:04.969Z</time></trkpt><trkpt lat="45.0908564" lon="1.3683186"><ele>328.5</ele><time>2026-04-02T09:44:05.969Z</time></trkpt><trkpt lat="45.0908569" lon="1.3681457"><ele>329.0</ele><time>2026-04-02T09:44:06.969Z</time></trkpt><trkpt lat="45.0908551" lon="1.3679726"><ele>330.0</ele><time>2026-04-02T09:44:07.969Z</time></trkpt><trkpt lat="45.0908517" lon="1.3677952"><ele>331.0</ele><time>2026-04-02T09:44:08.969Z</time></trkpt><trkpt lat="45.0908508" lon="1.3676188"><ele>332.0</ele><time>2026-04-02T09:44:09.969Z</time></trkpt><trkpt lat="45.0908541" lon="1.3674416"><ele>333.0</ele><time>2026-04-02T09:44:10.97Z</time></trkpt><trkpt lat="45.0908623" lon="1.3672652"><ele>333.0</ele><time>2026-04-02T09:44:11.969Z</time></trkpt><trkpt lat="45.0908752" lon="1.3670879"><ele>333.0</ele><time>2026-04-02T09:44:12.968Z</time></trkpt><trkpt lat="45.0908951" lon="1.3669116"><ele>333.0</ele><time>2026-04-02T09:44:13.969Z</time></trkpt><trkpt lat="45.0909215" lon="1.3667378"><ele>333.0</ele><time>2026-04-02T09:44:14.97Z</time></trkpt><trkpt lat="45.0909593" lon="1.3665691"><ele>333.0</ele><time>2026-04-02T09:44:15.97Z</time></trkpt><trkpt lat="45.0910043" lon="1.3664055"><ele>333.0</ele><time>2026-04-02T09:44:16.969Z</time></trkpt><trkpt lat="45.0910525" lon="1.3662432"><ele>333.0</ele><time>2026-04-02T09:44:17.969Z</time></trkpt><trkpt lat="45.0911004" lon="1.3660786"><ele>333.0</ele><time>2026-04-02T09:44:18.969Z</time></trkpt><trkpt lat="45.091148" lon="1.3659108"><ele>332.0</ele><time>2026-04-02T09:44:19.97Z</time></trkpt><trkpt lat="45.091193" lon="1.3657394"><ele>331.0</ele><time>2026-04-02T09:44:20.97Z</time></trkpt><trkpt lat="45.0912342" lon="1.3655677"><ele>330.0</ele><time>2026-04-02T09:44:21.969Z</time></trkpt><trkpt lat="45.0912717" lon="1.3653934"><ele>329.0</ele><time>2026-04-02T09:44:22.968Z</time></trkpt><trkpt lat="45.0913089" lon="1.3652209"><ele>328.25</ele><time>2026-04-02T09:44:23.969Z</time></trkpt><trkpt lat="45.0913459" lon="1.3650514"><ele>327.5</ele><time>2026-04-02T09:44:24.97Z</time></trkpt><trkpt lat="45.0913794" lon="1.364877"><ele>326.75</ele><time>2026-04-02T09:44:25.97Z</time></trkpt><trkpt lat="45.0914011" lon="1.3647003"><ele>326.0</ele><time>2026-04-02T09:44:26.97Z</time></trkpt><trkpt lat="45.0914042" lon="1.3645169"><ele>326.0</ele><time>2026-04-02T09:44:27.969Z</time></trkpt><trkpt lat="45.0913819" lon="1.3643333"><ele>326.0</ele><time>2026-04-02T09:44:28.969Z</time></trkpt><trkpt lat="45.0913367" lon="1.3641544"><ele>326.0</ele><time>2026-04-02T09:44:29.97Z</time></trkpt><trkpt lat="45.091282" lon="1.3639775"><ele>326.0</ele><time>2026-04-02T09:44:30.97Z</time></trkpt><trkpt lat="45.0912321" lon="1.3638028"><ele>327.0</ele><time>2026-04-02T09:44:31.969Z</time></trkpt><trkpt lat="45.0911965" lon="1.3636217"><ele>328.0</ele><time>2026-04-02T09:44:32.97Z</time></trkpt><trkpt lat="45.0911812" lon="1.3634369"><ele>329.0</ele><time>2026-04-02T09:44:33.97Z</time></trkpt><trkpt lat="45.0911877" lon="1.3632464"><ele>330.0</ele><time>2026-04-02T09:44:34.969Z</time></trkpt><trkpt lat="45.0912127" lon="1.3630558"><ele>330.3333333333333</ele><time>2026-04-02T09:44:35.968Z</time></trkpt><trkpt lat="45.0912567" lon="1.3628594"><ele>330.66666666666663</ele><time>2026-04-02T09:44:36.969Z</time></trkpt><trkpt lat="45.0913122" lon="1.362654"><ele>331.0</ele><time>2026-04-02T09:44:37.968Z</time></trkpt><trkpt lat="45.091369" lon="1.3624502"><ele>331.0</ele><time>2026-04-02T09:44:38.97Z</time></trkpt><trkpt lat="45.0914232" lon="1.362251"><ele>331.0</ele><time>2026-04-02T09:44:39.968Z</time></trkpt><trkpt lat="45.0914759" lon="1.3620535"><ele>331.0</ele><time>2026-04-02T09:44:40.969Z</time></trkpt><trkpt lat="45.0915283" lon="1.361852"><ele>331.0</ele><time>2026-04-02T09:44:41.969Z</time></trkpt><trkpt lat="45.0915792" lon="1.3616614"><ele>331.0</ele><time>2026-04-02T09:44:42.97Z</time></trkpt><trkpt lat="45.091629" lon="1.3614761"><ele>331.0</ele><time>2026-04-02T09:44:43.969Z</time></trkpt><trkpt lat="45.0916769" lon="1.3612947"><ele>331.0</ele><time>2026-04-02T09:44:44.969Z</time></trkpt><trkpt lat="45.0917271" lon="1.3611157"><ele>329.0</ele><time>2026-04-02T09:44:45.969Z</time></trkpt><trkpt lat="45.0917781" lon="1.3609357"><ele>327.0</ele><time>2026-04-02T09:44:46.97Z</time></trkpt><trkpt lat="45.0918334" lon="1.3607572"><ele>325.0</ele><time>2026-04-02T09:44:47.969Z</time></trkpt><trkpt lat="45.0918989" lon="1.3605844"><ele>323.0</ele><time>2026-04-02T09:44:48.969Z</time></trkpt><trkpt lat="45.0919736" lon="1.360423"><ele>319.75</ele><time>2026-04-02T09:44:49.97Z</time></trkpt><trkpt lat="45.0920478" lon="1.3602722"><ele>316.5</ele><time>2026-04-02T09:44:50.968Z</time></trkpt><trkpt lat="45.0921256" lon="1.3601425"><ele>313.25</ele><time>2026-04-02T09:44:51.969Z</time></trkpt><trkpt lat="45.0922017" lon="1.3600213"><ele>310.0</ele><time>2026-04-02T09:44:52.969Z</time></trkpt><trkpt lat="45.0922707" lon="1.3599011"><ele>310.0</ele><time>2026-04-02T09:44:53.969Z</time></trkpt><trkpt lat="45.0923344" lon="1.3597733"><ele>310.0</ele><time>2026-04-02T09:44:54.969Z</time></trkpt><trkpt lat="45.0923893" lon="1.3596391"><ele>310.0</ele><time>2026-04-02T09:44:55.97Z</time></trkpt><trkpt lat="45.0924414" lon="1.3595013"><ele>310.0</ele><time>2026-04-02T09:44:56.97Z</time></trkpt><trkpt lat="45.0924908" lon="1.3593648"><ele>310.0</ele><time>2026-04-02T09:44:57.969Z</time></trkpt><trkpt lat="45.0925387" lon="1.3592241"><ele>310.0</ele><time>2026-04-02T09:44:58.969Z</time></trkpt><trkpt lat="45.0925906" lon="1.3590807"><ele>310.0</ele><time>2026-04-02T09:44:59.969Z</time></trkpt><trkpt lat="45.0926394" lon="1.3589333"><ele>310.0</ele><time>2026-04-02T09:45:00.97Z</time></trkpt><trkpt lat="45.0926854" lon="1.3587783"><ele>310.0</ele><time>2026-04-02T09:45:01.97Z</time></trkpt><trkpt lat="45.0927279" lon="1.3586186"><ele>310.0</ele><time>2026-04-02T09:45:02.97Z</time></trkpt><trkpt lat="45.0927685" lon="1.358457"><ele>310.0</ele><time>2026-04-02T09:45:03.969Z</time></trkpt><trkpt lat="45.0928057" lon="1.3582953"><ele>310.0</ele><time>2026-04-02T09:45:04.968Z</time></trkpt><trkpt lat="45.0928441" lon="1.3581355"><ele>310.0</ele><time>2026-04-02T09:45:05.969Z</time></trkpt><trkpt lat="45.0928823" lon="1.3579748"><ele>308.6</ele><time>2026-04-02T09:45:06.969Z</time></trkpt><trkpt lat="45.0929294" lon="1.3578264"><ele>307.2</ele><time>2026-04-02T09:45:07.969Z</time></trkpt><trkpt lat="45.0929881" lon="1.3576916"><ele>305.8</ele><time>2026-04-02T09:45:08.969Z</time></trkpt><trkpt lat="45.0930601" lon="1.3575873"><ele>304.4</ele><time>2026-04-02T09:45:09.97Z</time></trkpt><trkpt lat="45.0931426" lon="1.3575208"><ele>303.0</ele><time>2026-04-02T09:45:10.97Z</time></trkpt><trkpt lat="45.0932301" lon="1.3574917"><ele>306.6</ele><time>2026-04-02T09:45:11.97Z</time></trkpt><trkpt lat="45.0933217" lon="1.3574943"><ele>310.20000000000005</ele><time>2026-04-02T09:45:12.969Z</time></trkpt><trkpt lat="45.093419" lon="1.3575404"><ele>313.8</ele><time>2026-04-02T09:45:13.97Z</time></trkpt><trkpt lat="45.093505" lon="1.3576263"><ele>317.40000000000003</ele><time>2026-04-02T09:45:14.969Z</time></trkpt><trkpt lat="45.0935626" lon="1.3577513"><ele>321.0</ele><time>2026-04-02T09:45:15.969Z</time></trkpt><trkpt lat="45.0935935" lon="1.3578948"><ele>322.20000000000005</ele><time>2026-04-02T09:45:16.97Z</time></trkpt><trkpt lat="45.0936182" lon="1.3580487"><ele>323.40000000000003</ele><time>2026-04-02T09:45:17.97Z</time></trkpt><trkpt lat="45.0936495" lon="1.3581911"><ele>324.6</ele><time>2026-04-02T09:45:18.968Z</time></trkpt><trkpt lat="45.0936964" lon="1.3583164"><ele>325.8</ele><time>2026-04-02T09:45:19.969Z</time></trkpt><trkpt lat="45.0937639" lon="1.358406"><ele>327.0</ele><time>2026-04-02T09:45:20.969Z</time></trkpt><trkpt lat="45.0938442" lon="1.3584482"><ele>327.0</ele><time>2026-04-02T09:45:21.97Z</time></trkpt><trkpt lat="45.0939221" lon="1.3584472"><ele>327.0</ele><time>2026-04-02T09:45:22.969Z</time></trkpt><trkpt lat="45.0939901" lon="1.3584302"><ele>327.0</ele><time>2026-04-02T09:45:23.969Z</time></trkpt><trkpt lat="45.0940833" lon="1.35846"><ele>327.0</ele><time>2026-04-02T09:45:25.969Z</time></trkpt><trkpt lat="45.0941964" lon="1.3584863"><ele>327.0</ele><time>2026-04-02T09:45:27.97Z</time></trkpt><trkpt lat="45.0942597" lon="1.3585046"><ele>327.0</ele><time>2026-04-02T09:45:28.969Z</time></trkpt><trkpt lat="45.0943277" lon="1.3585302"><ele>326.85714285714283</ele><time>2026-04-02T09:45:29.969Z</time></trkpt><trkpt lat="45.0943939" lon="1.3585554"><ele>326.7142857142857</ele><time>2026-04-02T09:45:30.97Z</time></trkpt><trkpt lat="45.0944587" lon="1.3585784"><ele>326.57142857142856</ele><time>2026-04-02T09:45:31.969Z</time></trkpt><trkpt lat="45.0945209" lon="1.3586014"><ele>326.42857142857144</ele><time>2026-04-02T09:45:32.97Z</time></trkpt><trkpt lat="45.0945802" lon="1.3586316"><ele>326.2857142857143</ele><time>2026-04-02T09:45:33.97Z</time></trkpt><trkpt lat="45.0946445" lon="1.358663"><ele>326.14285714285717</ele><time>2026-04-02T09:45:34.969Z</time></trkpt><trkpt lat="45.0947084" lon="1.3586805"><ele>326.0</ele><time>2026-04-02T09:45:35.97Z</time></trkpt><trkpt lat="45.094821" lon="1.3586305"><ele>326.0</ele><time>2026-04-02T09:45:37.969Z</time></trkpt><trkpt lat="45.0948872" lon="1.358442"><ele>326.0</ele><time>2026-04-02T09:45:39.97Z</time></trkpt><trkpt lat="45.0949388" lon="1.3583296"><ele>326.0</ele><time>2026-04-02T09:45:40.97Z</time></trkpt><trkpt lat="45.0950009" lon="1.3582063"><ele>326.0</ele><time>2026-04-02T09:45:41.97Z</time></trkpt><trkpt lat="45.0950683" lon="1.3580764"><ele>325.75</ele><time>2026-04-02T09:45:42.969Z</time></trkpt><trkpt lat="45.0951434" lon="1.3579426"><ele>325.5</ele><time>2026-04-02T09:45:43.969Z</time></trkpt><trkpt lat="45.0952235" lon="1.3578027"><ele>325.25</ele><time>2026-04-02T09:45:44.968Z</time></trkpt><trkpt lat="45.0953118" lon="1.3576647"><ele>325.0</ele><time>2026-04-02T09:45:45.969Z</time></trkpt><trkpt lat="45.0954037" lon="1.357536"><ele>325.0</ele><time>2026-04-02T09:45:46.969Z</time></trkpt><trkpt lat="45.095499" lon="1.3574167"><ele>325.0</ele><time>2026-04-02T09:45:47.969Z</time></trkpt><trkpt lat="45.0955924" lon="1.357301"><ele>325.0</ele><time>2026-04-02T09:45:48.968Z</time></trkpt><trkpt lat="45.0956842" lon="1.3571829"><ele>325.0</ele><time>2026-04-02T09:45:49.97Z</time></trkpt><trkpt lat="45.09578" lon="1.3570777"><ele>324.5</ele><time>2026-04-02T09:45:50.969Z</time></trkpt><trkpt lat="45.0958863" lon="1.3569865"><ele>324.0</ele><time>2026-04-02T09:45:51.969Z</time></trkpt><trkpt lat="45.095996" lon="1.3569077"><ele>323.5</ele><time>2026-04-02T09:45:52.969Z</time></trkpt><trkpt lat="45.096104" lon="1.3568229"><ele>323.0</ele><time>2026-04-02T09:45:53.97Z</time></trkpt><trkpt lat="45.096202" lon="1.3567227"><ele>323.0</ele><time>2026-04-02T09:45:54.969Z</time></trkpt><trkpt lat="45.0962876" lon="1.3566013"><ele>323.0</ele><time>2026-04-02T09:45:55.969Z</time></trkpt><trkpt lat="45.0963589" lon="1.3564772"><ele>323.0</ele><time>2026-04-02T09:45:56.969Z</time></trkpt><trkpt lat="45.0964169" lon="1.3563803"><ele>323.0</ele><time>2026-04-02T09:45:57.969Z</time></trkpt><trkpt lat="45.0964652" lon="1.3563094"><ele>323.0</ele><time>2026-04-02T09:45:58.968Z</time></trkpt><trkpt lat="45.0965737" lon="1.3562059"><ele>320.79999999999995</ele><time>2026-04-02T09:46:00.97Z</time></trkpt><trkpt lat="45.0966531" lon="1.3561813"><ele>318.59999999999997</ele><time>2026-04-02T09:46:01.97Z</time></trkpt><trkpt lat="45.0967496" lon="1.3561654"><ele>316.4</ele><time>2026-04-02T09:46:02.97Z</time></trkpt><trkpt lat="45.0968534" lon="1.3561521"><ele>314.2</ele><time>2026-04-02T09:46:03.969Z</time></trkpt><trkpt lat="45.096964" lon="1.3561332"><ele>312.0</ele><time>2026-04-02T09:46:04.97Z</time></trkpt><trkpt lat="45.0970822" lon="1.3561025"><ele>312.0</ele><time>2026-04-02T09:46:05.97Z</time></trkpt><trkpt lat="45.0971907" lon="1.3560534"><ele>312.0</ele><time>2026-04-02T09:46:06.97Z</time></trkpt><trkpt lat="45.0972944" lon="1.3559829"><ele>312.0</ele><time>2026-04-02T09:46:07.97Z</time></trkpt><trkpt lat="45.0973849" lon="1.3558756"><ele>312.0</ele><time>2026-04-02T09:46:08.97Z</time></trkpt><trkpt lat="45.097454" lon="1.3557365"><ele>312.25</ele><time>2026-04-02T09:46:09.969Z</time></trkpt><trkpt lat="45.0974963" lon="1.3555692"><ele>312.5</ele><time>2026-04-02T09:46:10.97Z</time></trkpt><trkpt lat="45.097513" lon="1.3553828"><ele>312.75</ele><time>2026-04-02T09:46:11.969Z</time></trkpt><trkpt lat="45.0975004" lon="1.3551869"><ele>313.0</ele><time>2026-04-02T09:46:12.969Z</time></trkpt><trkpt lat="45.0974624" lon="1.3549826"><ele>312.0</ele><time>2026-04-02T09:46:13.97Z</time></trkpt><trkpt lat="45.0973934" lon="1.3547801"><ele>311.0</ele><time>2026-04-02T09:46:14.969Z</time></trkpt><trkpt lat="45.0972956" lon="1.3545993"><ele>310.0</ele><time>2026-04-02T09:46:15.969Z</time></trkpt><trkpt lat="45.0971709" lon="1.3544488"><ele>310.0</ele><time>2026-04-02T09:46:16.969Z</time></trkpt><trkpt lat="45.097033" lon="1.3543291"><ele>310.0</ele><time>2026-04-02T09:46:17.969Z</time></trkpt><trkpt lat="45.0968987" lon="1.3542192"><ele>310.0</ele><time>2026-04-02T09:46:18.969Z</time></trkpt><trkpt lat="45.0967775" lon="1.3540919"><ele>310.0</ele><time>2026-04-02T09:46:19.969Z</time></trkpt><trkpt lat="45.0966736" lon="1.3539395"><ele>310.0</ele><time>2026-04-02T09:46:20.968Z</time></trkpt><trkpt lat="45.0965904" lon="1.3537565"><ele>310.0</ele><time>2026-04-02T09:46:21.968Z</time></trkpt><trkpt lat="45.0965378" lon="1.3535457"><ele>307.3333333333333</ele><time>2026-04-02T09:46:22.969Z</time></trkpt><trkpt lat="45.0965161" lon="1.3533133"><ele>304.6666666666667</ele><time>2026-04-02T09:46:23.969Z</time></trkpt><trkpt lat="45.0965306" lon="1.3530675"><ele>302.0</ele><time>2026-04-02T09:46:24.97Z</time></trkpt><trkpt lat="45.0965658" lon="1.3528182"><ele>306.0</ele><time>2026-04-02T09:46:25.97Z</time></trkpt><trkpt lat="45.0966175" lon="1.3525868"><ele>310.0</ele><time>2026-04-02T09:46:26.97Z</time></trkpt><trkpt lat="45.0966761" lon="1.3523692"><ele>314.0</ele><time>2026-04-02T09:46:27.97Z</time></trkpt><trkpt lat="45.0967382" lon="1.3521621"><ele>314.0</ele><time>2026-04-02T09:46:28.97Z</time></trkpt><trkpt lat="45.0968002" lon="1.3519556"><ele>314.0</ele><time>2026-04-02T09:46:29.97Z</time></trkpt><trkpt lat="45.0968618" lon="1.3517391"><ele>314.0</ele><time>2026-04-02T09:46:30.97Z</time></trkpt><trkpt lat="45.0969256" lon="1.3515242"><ele>313.6666666666667</ele><time>2026-04-02T09:46:31.969Z</time></trkpt><trkpt lat="45.0969893" lon="1.3513104"><ele>313.3333333333333</ele><time>2026-04-02T09:46:32.97Z</time></trkpt><trkpt lat="45.0970541" lon="1.3510944"><ele>313.0</ele><time>2026-04-02T09:46:33.969Z</time></trkpt><trkpt lat="45.0971179" lon="1.3508742"><ele>313.0</ele><time>2026-04-02T09:46:34.969Z</time></trkpt><trkpt lat="45.0971818" lon="1.3506552"><ele>313.0</ele><time>2026-04-02T09:46:35.97Z</time></trkpt><trkpt lat="45.0972471" lon="1.3504362"><ele>313.0</ele><time>2026-04-02T09:46:36.968Z</time></trkpt><trkpt lat="45.0973106" lon="1.3502162"><ele>313.0</ele><time>2026-04-02T09:46:37.969Z</time></trkpt><trkpt lat="45.0973582" lon="1.3499833"><ele>313.0</ele><time>2026-04-02T09:46:38.969Z</time></trkpt><trkpt lat="45.0973867" lon="1.3497377"><ele>313.0</ele><time>2026-04-02T09:46:39.968Z</time></trkpt><trkpt lat="45.0973963" lon="1.3494851"><ele>313.0</ele><time>2026-04-02T09:46:40.969Z</time></trkpt><trkpt lat="45.0973951" lon="1.3492366"><ele>313.0</ele><time>2026-04-02T09:46:41.969Z</time></trkpt><trkpt lat="45.0973918" lon="1.3489904"><ele>313.0</ele><time>2026-04-02T09:46:42.969Z</time></trkpt><trkpt lat="45.0973883" lon="1.3487457"><ele>315.66666666666663</ele><time>2026-04-02T09:46:43.97Z</time></trkpt><trkpt lat="45.0973875" lon="1.348499"><ele>318.3333333333333</ele><time>2026-04-02T09:46:44.969Z</time></trkpt><trkpt lat="45.0973876" lon="1.3482605"><ele>321.0</ele><time>2026-04-02T09:46:45.97Z</time></trkpt><trkpt lat="45.0973888" lon="1.3480199"><ele>323.0</ele><time>2026-04-02T09:46:46.969Z</time></trkpt><trkpt lat="45.0973873" lon="1.347787"><ele>325.0</ele><time>2026-04-02T09:46:47.969Z</time></trkpt><trkpt lat="45.0973827" lon="1.3475516"><ele>327.0</ele><time>2026-04-02T09:46:48.969Z</time></trkpt><trkpt lat="45.0973702" lon="1.3473105"><ele>327.0</ele><time>2026-04-02T09:46:49.969Z</time></trkpt><trkpt lat="45.0973492" lon="1.3470696"><ele>327.0</ele><time>2026-04-02T09:46:50.97Z</time></trkpt><trkpt lat="45.0973149" lon="1.3468238"><ele>327.0</ele><time>2026-04-02T09:46:51.969Z</time></trkpt><trkpt lat="45.0972709" lon="1.346574"><ele>326.0</ele><time>2026-04-02T09:46:52.97Z</time></trkpt><trkpt lat="45.0972202" lon="1.3463293"><ele>325.0</ele><time>2026-04-02T09:46:53.97Z</time></trkpt><trkpt lat="45.0971713" lon="1.3460829"><ele>324.0</ele><time>2026-04-02T09:46:54.97Z</time></trkpt><trkpt lat="45.0971191" lon="1.3458341"><ele>324.0</ele><time>2026-04-02T09:46:55.97Z</time></trkpt><trkpt lat="45.0970593" lon="1.3455881"><ele>324.0</ele><time>2026-04-02T09:46:56.97Z</time></trkpt><trkpt lat="45.0969905" lon="1.3453485"><ele>324.0</ele><time>2026-04-02T09:46:57.969Z</time></trkpt><trkpt lat="45.0969101" lon="1.3451169"><ele>322.6666666666667</ele><time>2026-04-02T09:46:58.971Z</time></trkpt><trkpt lat="45.0968207" lon="1.3448959"><ele>321.33333333333337</ele><time>2026-04-02T09:46:59.97Z</time></trkpt><trkpt lat="45.0967266" lon="1.3446823"><ele>320.0</ele><time>2026-04-02T09:47:00.97Z</time></trkpt><trkpt lat="45.0966342" lon="1.3444744"><ele>319.6666666666667</ele><time>2026-04-02T09:47:01.97Z</time></trkpt><trkpt lat="45.0965453" lon="1.3442664"><ele>319.3333333333333</ele><time>2026-04-02T09:47:02.97Z</time></trkpt><trkpt lat="45.0964593" lon="1.3440546"><ele>319.0</ele><time>2026-04-02T09:47:03.971Z</time></trkpt><trkpt lat="45.0963815" lon="1.3438383"><ele>318.3333333333333</ele><time>2026-04-02T09:47:04.971Z</time></trkpt><trkpt lat="45.0963189" lon="1.3436149"><ele>317.6666666666667</ele><time>2026-04-02T09:47:05.97Z</time></trkpt><trkpt lat="45.0962782" lon="1.3433836"><ele>317.0</ele><time>2026-04-02T09:47:06.971Z</time></trkpt><trkpt lat="45.0962654" lon="1.3431424"><ele>316.33333333333337</ele><time>2026-04-02T09:47:07.97Z</time></trkpt><trkpt lat="45.09628" lon="1.3428998"><ele>315.6666666666667</ele><time>2026-04-02T09:47:08.97Z</time></trkpt><trkpt lat="45.0963129" lon="1.3426586"><ele>315.0</ele><time>2026-04-02T09:47:09.97Z</time></trkpt><trkpt lat="45.0963602" lon="1.3424216"><ele>313.3333333333333</ele><time>2026-04-02T09:47:10.971Z</time></trkpt><trkpt lat="45.0964204" lon="1.3421945"><ele>311.66666666666663</ele><time>2026-04-02T09:47:11.97Z</time></trkpt><trkpt lat="45.0964843" lon="1.3419767"><ele>310.0</ele><time>2026-04-02T09:47:12.97Z</time></trkpt><trkpt lat="45.0965417" lon="1.3417675"><ele>310.3333333333333</ele><time>2026-04-02T09:47:13.969Z</time></trkpt><trkpt lat="45.0965874" lon="1.3415562"><ele>310.6666666666667</ele><time>2026-04-02T09:47:14.97Z</time></trkpt><trkpt lat="45.0966225" lon="1.3413327"><ele>311.0</ele><time>2026-04-02T09:47:15.97Z</time></trkpt><trkpt lat="45.0966451" lon="1.3410992"><ele>311.0</ele><time>2026-04-02T09:47:16.97Z</time></trkpt><trkpt lat="45.0966636" lon="1.3408616"><ele>311.0</ele><time>2026-04-02T09:47:17.971Z</time></trkpt><trkpt lat="45.0966813" lon="1.3406262"><ele>311.0</ele><time>2026-04-02T09:47:18.97Z</time></trkpt><trkpt lat="45.0967007" lon="1.340387"><ele>310.33333333333337</ele><time>2026-04-02T09:47:19.97Z</time></trkpt><trkpt lat="45.0967166" lon="1.3401519"><ele>309.6666666666667</ele><time>2026-04-02T09:47:20.971Z</time></trkpt><trkpt lat="45.0967296" lon="1.3399121"><ele>309.0</ele><time>2026-04-02T09:47:21.97Z</time></trkpt><trkpt lat="45.0967254" lon="1.3396721"><ele>309.0</ele><time>2026-04-02T09:47:22.97Z</time></trkpt><trkpt lat="45.0967007" lon="1.3394363"><ele>309.0</ele><time>2026-04-02T09:47:23.97Z</time></trkpt><trkpt lat="45.0966531" lon="1.3392029"><ele>309.0</ele><time>2026-04-02T09:47:24.971Z</time></trkpt><trkpt lat="45.0965808" lon="1.3389775"><ele>308.0</ele><time>2026-04-02T09:47:25.97Z</time></trkpt><trkpt lat="45.0964893" lon="1.3387709"><ele>307.0</ele><time>2026-04-02T09:47:26.971Z</time></trkpt><trkpt lat="45.0963781" lon="1.3385867"><ele>306.0</ele><time>2026-04-02T09:47:27.971Z</time></trkpt><trkpt lat="45.096247" lon="1.338428"><ele>306.0</ele><time>2026-04-02T09:47:28.971Z</time></trkpt><trkpt lat="45.0961005" lon="1.33829"><ele>306.0</ele><time>2026-04-02T09:47:29.97Z</time></trkpt><trkpt lat="45.095953" lon="1.3381591"><ele>306.0</ele><time>2026-04-02T09:47:30.97Z</time></trkpt><trkpt lat="45.0958057" lon="1.3380318"><ele>304.0</ele><time>2026-04-02T09:47:31.97Z</time></trkpt><trkpt lat="45.0956579" lon="1.3379073"><ele>302.0</ele><time>2026-04-02T09:47:32.97Z</time></trkpt><trkpt lat="45.0955076" lon="1.3377898"><ele>300.0</ele><time>2026-04-02T09:47:33.97Z</time></trkpt><trkpt lat="45.0953537" lon="1.3376868"><ele>300.0</ele><time>2026-04-02T09:47:34.971Z</time></trkpt><trkpt lat="45.0951914" lon="1.337608"><ele>300.0</ele><time>2026-04-02T09:47:35.971Z</time></trkpt><trkpt lat="45.0950253" lon="1.3375498"><ele>300.0</ele><time>2026-04-02T09:47:36.97Z</time></trkpt><trkpt lat="45.0948662" lon="1.3375003"><ele>299.0</ele><time>2026-04-02T09:47:37.97Z</time></trkpt><trkpt lat="45.0947174" lon="1.3374418"><ele>298.0</ele><time>2026-04-02T09:47:38.971Z</time></trkpt><trkpt lat="45.0945866" lon="1.3373612"><ele>297.0</ele><time>2026-04-02T09:47:39.97Z</time></trkpt><trkpt lat="45.0944784" lon="1.3372403"><ele>296.0</ele><time>2026-04-02T09:47:40.97Z</time></trkpt><trkpt lat="45.0944028" lon="1.3370851"><ele>296.0</ele><time>2026-04-02T09:47:41.97Z</time></trkpt><trkpt lat="45.0943624" lon="1.3369067"><ele>296.0</ele><time>2026-04-02T09:47:42.97Z</time></trkpt><trkpt lat="45.0943607" lon="1.3366964"><ele>296.0</ele><time>2026-04-02T09:47:43.971Z</time></trkpt><trkpt lat="45.0943787" lon="1.3364682"><ele>296.0</ele><time>2026-04-02T09:47:44.97Z</time></trkpt><trkpt lat="45.0944024" lon="1.3362214"><ele>296.0</ele><time>2026-04-02T09:47:45.971Z</time></trkpt><trkpt lat="45.0944292" lon="1.3359741"><ele>296.0</ele><time>2026-04-02T09:47:46.971Z</time></trkpt><trkpt lat="45.0944555" lon="1.3357353"><ele>296.0</ele><time>2026-04-02T09:47:47.969Z</time></trkpt><trkpt lat="45.0944821" lon="1.3355067"><ele>294.0</ele><time>2026-04-02T09:47:48.971Z</time></trkpt><trkpt lat="45.0945078" lon="1.3352867"><ele>292.0</ele><time>2026-04-02T09:47:49.97Z</time></trkpt><trkpt lat="45.0945392" lon="1.3350721"><ele>290.0</ele><time>2026-04-02T09:47:50.971Z</time></trkpt><trkpt lat="45.0945869" lon="1.3348565"><ele>285.0</ele><time>2026-04-02T09:47:51.969Z</time></trkpt><trkpt lat="45.0946544" lon="1.3346448"><ele>280.0</ele><time>2026-04-02T09:47:52.97Z</time></trkpt><trkpt lat="45.0947497" lon="1.3344439"><ele>275.0</ele><time>2026-04-02T09:47:53.97Z</time></trkpt><trkpt lat="45.0948673" lon="1.3342573"><ele>276.6666666666667</ele><time>2026-04-02T09:47:54.971Z</time></trkpt><trkpt lat="45.0949973" lon="1.3340882"><ele>278.3333333333333</ele><time>2026-04-02T09:47:55.971Z</time></trkpt><trkpt lat="45.0951264" lon="1.3339295"><ele>280.0</ele><time>2026-04-02T09:47:56.97Z</time></trkpt><trkpt lat="45.0952473" lon="1.3337663"><ele>274.66666666666663</ele><time>2026-04-02T09:47:57.971Z</time></trkpt><trkpt lat="45.0953525" lon="1.3335885"><ele>269.3333333333333</ele><time>2026-04-02T09:47:58.97Z</time></trkpt><trkpt lat="45.0954419" lon="1.3333938"><ele>264.0</ele><time>2026-04-02T09:47:59.97Z</time></trkpt><trkpt lat="45.0955236" lon="1.3331756"><ele>261.0</ele><time>2026-04-02T09:48:00.97Z</time></trkpt><trkpt lat="45.0955959" lon="1.3329519"><ele>258.0</ele><time>2026-04-02T09:48:01.97Z</time></trkpt><trkpt lat="45.0956661" lon="1.3327264"><ele>255.0</ele><time>2026-04-02T09:48:02.97Z</time></trkpt><trkpt lat="45.0957366" lon="1.3324986"><ele>259.6666666666667</ele><time>2026-04-02T09:48:03.97Z</time></trkpt><trkpt lat="45.0958045" lon="1.3322718"><ele>264.33333333333337</ele><time>2026-04-02T09:48:04.971Z</time></trkpt><trkpt lat="45.0958741" lon="1.3320439"><ele>269.0</ele><time>2026-04-02T09:48:05.969Z</time></trkpt><trkpt lat="45.0959408" lon="1.3318122"><ele>269.0</ele><time>2026-04-02T09:48:06.97Z</time></trkpt><trkpt lat="45.0960098" lon="1.3315779"><ele>269.0</ele><time>2026-04-02T09:48:07.97Z</time></trkpt><trkpt lat="45.0960752" lon="1.3313499"><ele>269.0</ele><time>2026-04-02T09:48:08.97Z</time></trkpt><trkpt lat="45.0961395" lon="1.3311308"><ele>268.33333333333337</ele><time>2026-04-02T09:48:09.971Z</time></trkpt><trkpt lat="45.096202" lon="1.3309191"><ele>267.6666666666667</ele><time>2026-04-02T09:48:10.971Z</time></trkpt><trkpt lat="45.0962568" lon="1.3307181"><ele>267.0</ele><time>2026-04-02T09:48:11.971Z</time></trkpt><trkpt lat="45.096319" lon="1.3305184"><ele>266.3333333333333</ele><time>2026-04-02T09:48:12.97Z</time></trkpt><trkpt lat="45.0963837" lon="1.3303111"><ele>265.66666666666663</ele><time>2026-04-02T09:48:13.971Z</time></trkpt><trkpt lat="45.0964491" lon="1.3301067"><ele>265.0</ele><time>2026-04-02T09:48:14.971Z</time></trkpt><trkpt lat="45.0965129" lon="1.3299056"><ele>264.66666666666663</ele><time>2026-04-02T09:48:15.971Z</time></trkpt><trkpt lat="45.0965794" lon="1.3296937"><ele>264.3333333333333</ele><time>2026-04-02T09:48:16.97Z</time></trkpt><trkpt lat="45.0966522" lon="1.3294751"><ele>264.0</ele><time>2026-04-02T09:48:17.971Z</time></trkpt><trkpt lat="45.0967248" lon="1.3292641"><ele>267.0</ele><time>2026-04-02T09:48:18.971Z</time></trkpt><trkpt lat="45.0967994" lon="1.3290567"><ele>270.0</ele><time>2026-04-02T09:48:19.971Z</time></trkpt><trkpt lat="45.0968774" lon="1.3288527"><ele>273.0</ele><time>2026-04-02T09:48:20.971Z</time></trkpt><trkpt lat="45.0969617" lon="1.3286575"><ele>273.0</ele><time>2026-04-02T09:48:21.97Z</time></trkpt><trkpt lat="45.0970537" lon="1.3284598"><ele>273.0</ele><time>2026-04-02T09:48:22.97Z</time></trkpt><trkpt lat="45.0971422" lon="1.3282701"><ele>273.0</ele><time>2026-04-02T09:48:23.97Z</time></trkpt><trkpt lat="45.0972246" lon="1.3280721"><ele>274.0</ele><time>2026-04-02T09:48:24.969Z</time></trkpt><trkpt lat="45.0972963" lon="1.3278675"><ele>275.0</ele><time>2026-04-02T09:48:25.971Z</time></trkpt><trkpt lat="45.0973589" lon="1.3276534"><ele>276.0</ele><time>2026-04-02T09:48:26.969Z</time></trkpt><trkpt lat="45.0974126" lon="1.3274291"><ele>274.3333333333333</ele><time>2026-04-02T09:48:27.971Z</time></trkpt><trkpt lat="45.097459" lon="1.3271962"><ele>272.66666666666663</ele><time>2026-04-02T09:48:28.971Z</time></trkpt><trkpt lat="45.0975035" lon="1.326954"><ele>271.0</ele><time>2026-04-02T09:48:29.97Z</time></trkpt><trkpt lat="45.0975531" lon="1.3267104"><ele>271.0</ele><time>2026-04-02T09:48:30.971Z</time></trkpt><trkpt lat="45.0976022" lon="1.32647"><ele>271.0</ele><time>2026-04-02T09:48:31.97Z</time></trkpt><trkpt lat="45.097656" lon="1.3262298"><ele>271.0</ele><time>2026-04-02T09:48:32.971Z</time></trkpt><trkpt lat="45.0977249" lon="1.3260007"><ele>272.0</ele><time>2026-04-02T09:48:33.97Z</time></trkpt><trkpt lat="45.0978152" lon="1.3257897"><ele>273.0</ele><time>2026-04-02T09:48:34.97Z</time></trkpt><trkpt lat="45.0979277" lon="1.3256017"><ele>274.0</ele><time>2026-04-02T09:48:35.97Z</time></trkpt><trkpt lat="45.0980598" lon="1.3254325"><ele>274.3333333333333</ele><time>2026-04-02T09:48:36.971Z</time></trkpt><trkpt lat="45.0982006" lon="1.325286"><ele>274.6666666666667</ele><time>2026-04-02T09:48:37.971Z</time></trkpt><trkpt lat="45.0983437" lon="1.3251575"><ele>275.0</ele><time>2026-04-02T09:48:38.97Z</time></trkpt><trkpt lat="45.09848" lon="1.3250373"><ele>273.33333333333337</ele><time>2026-04-02T09:48:39.97Z</time></trkpt><trkpt lat="45.0986096" lon="1.3249245"><ele>271.6666666666667</ele><time>2026-04-02T09:48:40.97Z</time></trkpt><trkpt lat="45.0987407" lon="1.3248064"><ele>270.0</ele><time>2026-04-02T09:48:41.97Z</time></trkpt><trkpt lat="45.0988778" lon="1.3246807"><ele>270.0</ele><time>2026-04-02T09:48:42.97Z</time></trkpt><trkpt lat="45.0990174" lon="1.3245521"><ele>270.0</ele><time>2026-04-02T09:48:43.971Z</time></trkpt><trkpt lat="45.0991617" lon="1.3244203"><ele>270.0</ele><time>2026-04-02T09:48:44.971Z</time></trkpt><trkpt lat="45.0993092" lon="1.3242859"><ele>269.3333333333333</ele><time>2026-04-02T09:48:45.969Z</time></trkpt><trkpt lat="45.0994586" lon="1.3241462"><ele>268.66666666666663</ele><time>2026-04-02T09:48:46.97Z</time></trkpt><trkpt lat="45.099606" lon="1.3240082"><ele>268.0</ele><time>2026-04-02T09:48:47.971Z</time></trkpt><trkpt lat="45.0997452" lon="1.3238818"><ele>268.66666666666663</ele><time>2026-04-02T09:48:48.971Z</time></trkpt><trkpt lat="45.0998794" lon="1.3237637"><ele>269.3333333333333</ele><time>2026-04-02T09:48:49.97Z</time></trkpt><trkpt lat="45.1000159" lon="1.3236311"><ele>270.0</ele><time>2026-04-02T09:48:50.971Z</time></trkpt><trkpt lat="45.1001441" lon="1.3234834"><ele>270.0</ele><time>2026-04-02T09:48:51.97Z</time></trkpt><trkpt lat="45.1002603" lon="1.3233096"><ele>270.0</ele><time>2026-04-02T09:48:52.97Z</time></trkpt><trkpt lat="45.1003597" lon="1.3231082"><ele>270.0</ele><time>2026-04-02T09:48:53.971Z</time></trkpt><trkpt lat="45.1004435" lon="1.3228839"><ele>271.3333333333333</ele><time>2026-04-02T09:48:54.97Z</time></trkpt><trkpt lat="45.1005158" lon="1.3226584"><ele>272.66666666666663</ele><time>2026-04-02T09:48:55.97Z</time></trkpt><trkpt lat="45.1005785" lon="1.3224477"><ele>274.0</ele><time>2026-04-02T09:48:56.97Z</time></trkpt><trkpt lat="45.100643" lon="1.3222484"><ele>276.0</ele><time>2026-04-02T09:48:57.971Z</time></trkpt><trkpt lat="45.1007221" lon="1.3220513"><ele>278.0</ele><time>2026-04-02T09:48:58.971Z</time></trkpt><trkpt lat="45.1008102" lon="1.3218525"><ele>280.0</ele><time>2026-04-02T09:48:59.97Z</time></trkpt><trkpt lat="45.1009095" lon="1.3216562"><ele>280.0</ele><time>2026-04-02T09:49:00.97Z</time></trkpt><trkpt lat="45.1010176" lon="1.3214618"><ele>280.0</ele><time>2026-04-02T09:49:01.969Z</time></trkpt><trkpt lat="45.1011355" lon="1.3212811"><ele>280.0</ele><time>2026-04-02T09:49:02.97Z</time></trkpt><trkpt lat="45.1012647" lon="1.3211228"><ele>280.3333333333333</ele><time>2026-04-02T09:49:03.97Z</time></trkpt><trkpt lat="45.1014111" lon="1.3209985"><ele>280.6666666666667</ele><time>2026-04-02T09:49:04.971Z</time></trkpt><trkpt lat="45.1015813" lon="1.3209157"><ele>281.0</ele><time>2026-04-02T09:49:05.971Z</time></trkpt><trkpt lat="45.1017614" lon="1.3208501"><ele>279.6666666666667</ele><time>2026-04-02T09:49:06.97Z</time></trkpt><trkpt lat="45.1019295" lon="1.3207957"><ele>278.3333333333333</ele><time>2026-04-02T09:49:07.97Z</time></trkpt><trkpt lat="45.1020786" lon="1.3207342"><ele>277.0</ele><time>2026-04-02T09:49:08.971Z</time></trkpt><trkpt lat="45.102223" lon="1.3206509"><ele>277.0</ele><time>2026-04-02T09:49:09.97Z</time></trkpt><trkpt lat="45.1023645" lon="1.3205435"><ele>277.0</ele><time>2026-04-02T09:49:10.969Z</time></trkpt><trkpt lat="45.1025056" lon="1.3204139"><ele>277.0</ele><time>2026-04-02T09:49:11.97Z</time></trkpt><trkpt lat="45.1026444" lon="1.320262"><ele>277.0</ele><time>2026-04-02T09:49:12.971Z</time></trkpt><trkpt lat="45.1027834" lon="1.3201014"><ele>277.0</ele><time>2026-04-02T09:49:13.97Z</time></trkpt><trkpt lat="45.1029252" lon="1.3199364"><ele>277.0</ele><time>2026-04-02T09:49:14.971Z</time></trkpt><trkpt lat="45.1030636" lon="1.3197787"><ele>277.0</ele><time>2026-04-02T09:49:15.97Z</time></trkpt><trkpt lat="45.1031947" lon="1.3196406"><ele>277.0</ele><time>2026-04-02T09:49:16.97Z</time></trkpt><trkpt lat="45.1033353" lon="1.3195107"><ele>277.0</ele><time>2026-04-02T09:49:17.97Z</time></trkpt><trkpt lat="45.1034876" lon="1.3193927"><ele>277.0</ele><time>2026-04-02T09:49:18.969Z</time></trkpt><trkpt lat="45.1036509" lon="1.319286"><ele>277.0</ele><time>2026-04-02T09:49:19.971Z</time></trkpt><trkpt lat="45.103821" lon="1.3191891"><ele>277.0</ele><time>2026-04-02T09:49:20.97Z</time></trkpt><trkpt lat="45.1039961" lon="1.3191033"><ele>279.0</ele><time>2026-04-02T09:49:21.971Z</time></trkpt><trkpt lat="45.1041665" lon="1.3190379"><ele>281.0</ele><time>2026-04-02T09:49:22.971Z</time></trkpt><trkpt lat="45.1043333" lon="1.3189908"><ele>283.0</ele><time>2026-04-02T09:49:23.971Z</time></trkpt><trkpt lat="45.1045056" lon="1.3189382"><ele>281.3333333333333</ele><time>2026-04-02T09:49:24.971Z</time></trkpt><trkpt lat="45.1046795" lon="1.3188721"><ele>279.6666666666667</ele><time>2026-04-02T09:49:25.971Z</time></trkpt><trkpt lat="45.1048532" lon="1.3187866"><ele>278.0</ele><time>2026-04-02T09:49:26.971Z</time></trkpt><trkpt lat="45.1050234" lon="1.3186801"><ele>278.0</ele><time>2026-04-02T09:49:27.97Z</time></trkpt><trkpt lat="45.1051804" lon="1.3185624"><ele>278.0</ele><time>2026-04-02T09:49:28.97Z</time></trkpt><trkpt lat="45.1053233" lon="1.3184439"><ele>278.0</ele><time>2026-04-02T09:49:29.971Z</time></trkpt><trkpt lat="45.1054495" lon="1.3183323"><ele>278.0</ele><time>2026-04-02T09:49:30.969Z</time></trkpt><trkpt lat="45.1055772" lon="1.3182205"><ele>278.0</ele><time>2026-04-02T09:49:31.97Z</time></trkpt><trkpt lat="45.1056973" lon="1.3181116"><ele>278.0</ele><time>2026-04-02T09:49:32.97Z</time></trkpt><trkpt lat="45.1058169" lon="1.3179969"><ele>278.0</ele><time>2026-04-02T09:49:33.971Z</time></trkpt><trkpt lat="45.1059325" lon="1.3178887"><ele>277.25</ele><time>2026-04-02T09:49:34.971Z</time></trkpt><trkpt lat="45.1060416" lon="1.3177811"><ele>276.5</ele><time>2026-04-02T09:49:35.971Z</time></trkpt><trkpt lat="45.106138" lon="1.3176852"><ele>275.75</ele><time>2026-04-02T09:49:36.971Z</time></trkpt><trkpt lat="45.1062375" lon="1.3176043"><ele>275.0</ele><time>2026-04-02T09:49:37.969Z</time></trkpt><trkpt lat="45.1063408" lon="1.3175629"><ele>275.0</ele><time>2026-04-02T09:49:38.971Z</time></trkpt><trkpt lat="45.1064444" lon="1.3175276"><ele>275.0</ele><time>2026-04-02T09:49:39.971Z</time></trkpt><trkpt lat="45.1065531" lon="1.3174499"><ele>275.0</ele><time>2026-04-02T09:49:40.971Z</time></trkpt><trkpt lat="45.1066655" lon="1.3173552"><ele>275.0</ele><time>2026-04-02T09:49:41.969Z</time></trkpt><trkpt lat="45.1067786" lon="1.3172512"><ele>274.33333333333337</ele><time>2026-04-02T09:49:42.969Z</time></trkpt><trkpt lat="45.106896" lon="1.3171429"><ele>273.6666666666667</ele><time>2026-04-02T09:49:43.97Z</time></trkpt><trkpt lat="45.107026" lon="1.3170276"><ele>273.0</ele><time>2026-04-02T09:49:44.969Z</time></trkpt><trkpt lat="45.1071617" lon="1.3169148"><ele>273.0</ele><time>2026-04-02T09:49:45.97Z</time></trkpt><trkpt lat="45.1073071" lon="1.3168001"><ele>273.0</ele><time>2026-04-02T09:49:46.969Z</time></trkpt><trkpt lat="45.1074582" lon="1.3166811"><ele>273.0</ele><time>2026-04-02T09:49:47.97Z</time></trkpt><trkpt lat="45.1076158" lon="1.3165694"><ele>272.3333333333333</ele><time>2026-04-02T09:49:48.971Z</time></trkpt><trkpt lat="45.1077741" lon="1.3164667"><ele>271.66666666666663</ele><time>2026-04-02T09:49:49.971Z</time></trkpt><trkpt lat="45.1079109" lon="1.3163522"><ele>271.0</ele><time>2026-04-02T09:49:50.969Z</time></trkpt><trkpt lat="45.1080514" lon="1.316226"><ele>271.0</ele><time>2026-04-02T09:49:51.97Z</time></trkpt><trkpt lat="45.1082053" lon="1.3160964"><ele>271.0</ele><time>2026-04-02T09:49:52.969Z</time></trkpt><trkpt lat="45.108348" lon="1.3159621"><ele>271.0</ele><time>2026-04-02T09:49:53.97Z</time></trkpt><trkpt lat="45.1084941" lon="1.3158362"><ele>270.0</ele><time>2026-04-02T09:49:54.971Z</time></trkpt><trkpt lat="45.1086504" lon="1.3157009"><ele>269.0</ele><time>2026-04-02T09:49:55.97Z</time></trkpt><trkpt lat="45.1087861" lon="1.3155843"><ele>268.0</ele><time>2026-04-02T09:49:56.969Z</time></trkpt><trkpt lat="45.1089124" lon="1.315464"><ele>268.0</ele><time>2026-04-02T09:49:57.971Z</time></trkpt><trkpt lat="45.109025" lon="1.3153421"><ele>268.0</ele><time>2026-04-02T09:49:58.971Z</time></trkpt><trkpt lat="45.109131" lon="1.3152159"><ele>268.0</ele><time>2026-04-02T09:49:59.97Z</time></trkpt><trkpt lat="45.1092271" lon="1.3150881"><ele>268.0</ele><time>2026-04-02T09:50:00.969Z</time></trkpt><trkpt lat="45.1093163" lon="1.3149773"><ele>269.8</ele><time>2026-04-02T09:50:01.97Z</time></trkpt><trkpt lat="45.10938" lon="1.3148767"><ele>271.6</ele><time>2026-04-02T09:50:02.97Z</time></trkpt><trkpt lat="45.1094305" lon="1.3147467"><ele>273.4</ele><time>2026-04-02T09:50:03.97Z</time></trkpt><trkpt lat="45.1094838" lon="1.3146123"><ele>275.2</ele><time>2026-04-02T09:50:04.971Z</time></trkpt><trkpt lat="45.1095422" lon="1.3144889"><ele>277.0</ele><time>2026-04-02T09:50:05.97Z</time></trkpt><trkpt lat="45.1096033" lon="1.3143775"><ele>277.0</ele><time>2026-04-02T09:50:06.971Z</time></trkpt><trkpt lat="45.1096637" lon="1.3142826"><ele>277.0</ele><time>2026-04-02T09:50:07.969Z</time></trkpt><trkpt lat="45.1097124" lon="1.3142108"><ele>277.0</ele><time>2026-04-02T09:50:08.97Z</time></trkpt><trkpt lat="45.1097995" lon="1.3141816"><ele>277.0</ele><time>2026-04-02T09:50:10.971Z</time></trkpt><trkpt lat="45.1099021" lon="1.3141997"><ele>277.0</ele><time>2026-04-02T09:50:12.971Z</time></trkpt><trkpt lat="45.109967" lon="1.314074"><ele>278.8</ele><time>2026-04-02T09:50:14.971Z</time></trkpt><trkpt lat="45.1099914" lon="1.3139795"><ele>280.6</ele><time>2026-04-02T09:50:15.97Z</time></trkpt><trkpt lat="45.1100166" lon="1.31386"><ele>282.40000000000003</ele><time>2026-04-02T09:50:16.971Z</time></trkpt><trkpt lat="45.1100486" lon="1.3137295"><ele>284.2</ele><time>2026-04-02T09:50:17.97Z</time></trkpt><trkpt lat="45.1100861" lon="1.3135921"><ele>286.0</ele><time>2026-04-02T09:50:18.97Z</time></trkpt><trkpt lat="45.1101286" lon="1.3134498"><ele>286.40000000000003</ele><time>2026-04-02T09:50:19.971Z</time></trkpt><trkpt lat="45.1101715" lon="1.3133161"><ele>286.8</ele><time>2026-04-02T09:50:20.97Z</time></trkpt><trkpt lat="45.1102146" lon="1.3131853"><ele>287.20000000000005</ele><time>2026-04-02T09:50:21.97Z</time></trkpt><trkpt lat="45.1102655" lon="1.3130502"><ele>287.6</ele><time>2026-04-02T09:50:22.97Z</time></trkpt><trkpt lat="45.1103204" lon="1.3129134"><ele>288.0</ele><time>2026-04-02T09:50:23.971Z</time></trkpt><trkpt lat="45.1103867" lon="1.3127776"><ele>288.0</ele><time>2026-04-02T09:50:24.971Z</time></trkpt><trkpt lat="45.1104582" lon="1.3126503"><ele>288.0</ele><time>2026-04-02T09:50:25.97Z</time></trkpt><trkpt lat="45.1105334" lon="1.3125305"><ele>288.0</ele><time>2026-04-02T09:50:26.97Z</time></trkpt><trkpt lat="45.1106009" lon="1.3124055"><ele>288.0</ele><time>2026-04-02T09:50:27.969Z</time></trkpt><trkpt lat="45.110652" lon="1.3122609"><ele>287.25</ele><time>2026-04-02T09:50:28.97Z</time></trkpt><trkpt lat="45.1106887" lon="1.3121049"><ele>286.5</ele><time>2026-04-02T09:50:29.969Z</time></trkpt><trkpt lat="45.1107213" lon="1.3119449"><ele>285.75</ele><time>2026-04-02T09:50:30.97Z</time></trkpt><trkpt lat="45.1107692" lon="1.3117754"><ele>285.0</ele><time>2026-04-02T09:50:31.971Z</time></trkpt><trkpt lat="45.1108258" lon="1.3116204"><ele>287.25</ele><time>2026-04-02T09:50:32.971Z</time></trkpt><trkpt lat="45.1108892" lon="1.3114721"><ele>289.5</ele><time>2026-04-02T09:50:33.97Z</time></trkpt><trkpt lat="45.1109529" lon="1.3113293"><ele>291.75</ele><time>2026-04-02T09:50:34.97Z</time></trkpt><trkpt lat="45.1110127" lon="1.3111925"><ele>294.0</ele><time>2026-04-02T09:50:35.97Z</time></trkpt><trkpt lat="45.1110634" lon="1.3110476"><ele>294.4</ele><time>2026-04-02T09:50:36.969Z</time></trkpt><trkpt lat="45.1111025" lon="1.3108972"><ele>294.79999999999995</ele><time>2026-04-02T09:50:37.971Z</time></trkpt><trkpt lat="45.1111289" lon="1.3107401"><ele>295.20000000000005</ele><time>2026-04-02T09:50:38.971Z</time></trkpt><trkpt lat="45.1111491" lon="1.310583"><ele>295.6</ele><time>2026-04-02T09:50:39.97Z</time></trkpt><trkpt lat="45.1111792" lon="1.3104359"><ele>296.0</ele><time>2026-04-02T09:50:40.97Z</time></trkpt><trkpt lat="45.1112289" lon="1.3103097"><ele>294.6</ele><time>2026-04-02T09:50:41.971Z</time></trkpt><trkpt lat="45.1113003" lon="1.310214"><ele>293.20000000000005</ele><time>2026-04-02T09:50:42.97Z</time></trkpt><trkpt lat="45.1113801" lon="1.31014"><ele>291.79999999999995</ele><time>2026-04-02T09:50:43.971Z</time></trkpt><trkpt lat="45.1114626" lon="1.3100854"><ele>290.4</ele><time>2026-04-02T09:50:44.97Z</time></trkpt><trkpt lat="45.1115532" lon="1.310051"><ele>289.0</ele><time>2026-04-02T09:50:45.971Z</time></trkpt><trkpt lat="45.1116534" lon="1.3100231"><ele>287.8</ele><time>2026-04-02T09:50:46.97Z</time></trkpt><trkpt lat="45.1117588" lon="1.3100101"><ele>286.59999999999997</ele><time>2026-04-02T09:50:47.97Z</time></trkpt><trkpt lat="45.1118714" lon="1.3100088"><ele>285.4</ele><time>2026-04-02T09:50:48.971Z</time></trkpt><trkpt lat="45.111984" lon="1.3100153"><ele>284.2</ele><time>2026-04-02T09:50:49.97Z</time></trkpt><trkpt lat="45.1120993" lon="1.310019"><ele>283.0</ele><time>2026-04-02T09:50:50.97Z</time></trkpt><trkpt lat="45.1122165" lon="1.3100164"><ele>283.0</ele><time>2026-04-02T09:50:51.97Z</time></trkpt><trkpt lat="45.1123387" lon="1.3100215"><ele>283.0</ele><time>2026-04-02T09:50:52.97Z</time></trkpt><trkpt lat="45.112464" lon="1.3100364"><ele>283.0</ele><time>2026-04-02T09:50:53.97Z</time></trkpt><trkpt lat="45.1125939" lon="1.3100465"><ele>283.0</ele><time>2026-04-02T09:50:54.971Z</time></trkpt><trkpt lat="45.112725" lon="1.3100477"><ele>279.0</ele><time>2026-04-02T09:50:55.97Z</time></trkpt><trkpt lat="45.1128559" lon="1.3100442"><ele>275.0</ele><time>2026-04-02T09:50:56.97Z</time></trkpt><trkpt lat="45.1129875" lon="1.3100344"><ele>271.0</ele><time>2026-04-02T09:50:57.971Z</time></trkpt><trkpt lat="45.1131191" lon="1.3100203"><ele>267.0</ele><time>2026-04-02T09:50:58.97Z</time></trkpt><trkpt lat="45.1132534" lon="1.3100048"><ele>262.75</ele><time>2026-04-02T09:50:59.971Z</time></trkpt><trkpt lat="45.1133885" lon="1.3099894"><ele>258.5</ele><time>2026-04-02T09:51:00.971Z</time></trkpt><trkpt lat="45.1135229" lon="1.3099797"><ele>254.25</ele><time>2026-04-02T09:51:01.969Z</time></trkpt><trkpt lat="45.1136553" lon="1.3099713"><ele>250.0</ele><time>2026-04-02T09:51:02.97Z</time></trkpt><trkpt lat="45.11378" lon="1.309964"><ele>250.0</ele><time>2026-04-02T09:51:03.97Z</time></trkpt><trkpt lat="45.1138991" lon="1.3099602"><ele>250.0</ele><time>2026-04-02T09:51:04.97Z</time></trkpt><trkpt lat="45.1140162" lon="1.309952"><ele>250.0</ele><time>2026-04-02T09:51:05.969Z</time></trkpt><trkpt lat="45.114142" lon="1.3099356"><ele>250.0</ele><time>2026-04-02T09:51:06.971Z</time></trkpt><trkpt lat="45.1142794" lon="1.3099132"><ele>248.5</ele><time>2026-04-02T09:51:07.97Z</time></trkpt><trkpt lat="45.1144271" lon="1.3098847"><ele>247.0</ele><time>2026-04-02T09:51:08.97Z</time></trkpt><trkpt lat="45.1145717" lon="1.3098514"><ele>245.5</ele><time>2026-04-02T09:51:09.971Z</time></trkpt><trkpt lat="45.1147077" lon="1.3098176"><ele>244.0</ele><time>2026-04-02T09:51:10.97Z</time></trkpt><trkpt lat="45.1148367" lon="1.3097872"><ele>243.0</ele><time>2026-04-02T09:51:11.97Z</time></trkpt><trkpt lat="45.1149599" lon="1.3097578"><ele>242.0</ele><time>2026-04-02T09:51:12.971Z</time></trkpt><trkpt lat="45.1150838" lon="1.3097293"><ele>241.0</ele><time>2026-04-02T09:51:13.97Z</time></trkpt><trkpt lat="45.1152063" lon="1.3097009"><ele>240.0</ele><time>2026-04-02T09:51:14.969Z</time></trkpt><trkpt lat="45.1153304" lon="1.3096707"><ele>240.0</ele><time>2026-04-02T09:51:15.971Z</time></trkpt><trkpt lat="45.1154565" lon="1.3096376"><ele>240.0</ele><time>2026-04-02T09:51:16.971Z</time></trkpt><trkpt lat="45.1155823" lon="1.3096013"><ele>240.0</ele><time>2026-04-02T09:51:17.97Z</time></trkpt><trkpt lat="45.1157088" lon="1.3095597"><ele>240.0</ele><time>2026-04-02T09:51:18.971Z</time></trkpt><trkpt lat="45.1158348" lon="1.30952"><ele>238.5</ele><time>2026-04-02T09:51:19.97Z</time></trkpt><trkpt lat="45.1159607" lon="1.3094746"><ele>237.0</ele><time>2026-04-02T09:51:20.97Z</time></trkpt><trkpt lat="45.1160878" lon="1.3094183"><ele>235.5</ele><time>2026-04-02T09:51:21.97Z</time></trkpt><trkpt lat="45.1162129" lon="1.3093562"><ele>234.0</ele><time>2026-04-02T09:51:22.97Z</time></trkpt><trkpt lat="45.1163327" lon="1.3092967"><ele>234.0</ele><time>2026-04-02T09:51:23.971Z</time></trkpt><trkpt lat="45.1164332" lon="1.3092426"><ele>234.0</ele><time>2026-04-02T09:51:24.971Z</time></trkpt><trkpt lat="45.1165077" lon="1.3091809"><ele>234.0</ele><time>2026-04-02T09:51:25.972Z</time></trkpt><trkpt lat="45.1165548" lon="1.3091007"><ele>234.0</ele><time>2026-04-02T09:51:26.972Z</time></trkpt><trkpt lat="45.1165654" lon="1.3089998"><ele>234.0</ele><time>2026-04-02T09:51:27.972Z</time></trkpt><trkpt lat="45.1165472" lon="1.308875"><ele>234.0</ele><time>2026-04-02T09:51:28.971Z</time></trkpt><trkpt lat="45.116509" lon="1.308726"><ele>232.5</ele><time>2026-04-02T09:51:29.972Z</time></trkpt><trkpt lat="45.1164707" lon="1.3085637"><ele>231.0</ele><time>2026-04-02T09:51:30.971Z</time></trkpt><trkpt lat="45.1164384" lon="1.3084101"><ele>229.5</ele><time>2026-04-02T09:51:31.972Z</time></trkpt><trkpt lat="45.1164043" lon="1.3082577"><ele>228.0</ele><time>2026-04-02T09:51:32.971Z</time></trkpt><trkpt lat="45.1163724" lon="1.3081103"><ele>227.4</ele><time>2026-04-02T09:51:33.971Z</time></trkpt><trkpt lat="45.1163426" lon="1.3079712"><ele>226.8</ele><time>2026-04-02T09:51:34.972Z</time></trkpt><trkpt lat="45.1163196" lon="1.3078576"><ele>226.2</ele><time>2026-04-02T09:51:35.971Z</time></trkpt><trkpt lat="45.1163376" lon="1.3076951"><ele>225.6</ele><time>2026-04-02T09:51:37.971Z</time></trkpt><trkpt lat="45.1163962" lon="1.3076292"><ele>225.0</ele><time>2026-04-02T09:51:38.971Z</time></trkpt><trkpt lat="45.1164801" lon="1.307561"><ele>223.75</ele><time>2026-04-02T09:51:39.972Z</time></trkpt><trkpt lat="45.1165737" lon="1.3074858"><ele>222.5</ele><time>2026-04-02T09:51:40.972Z</time></trkpt><trkpt lat="45.116674" lon="1.3073881"><ele>221.25</ele><time>2026-04-02T09:51:41.972Z</time></trkpt><trkpt lat="45.1167913" lon="1.3072759"><ele>220.0</ele><time>2026-04-02T09:51:42.971Z</time></trkpt><trkpt lat="45.1169172" lon="1.3071579"><ele>218.0</ele><time>2026-04-02T09:51:43.971Z</time></trkpt><trkpt lat="45.1170556" lon="1.3070319"><ele>216.0</ele><time>2026-04-02T09:51:44.971Z</time></trkpt><trkpt lat="45.1171873" lon="1.3069188"><ele>214.0</ele><time>2026-04-02T09:51:45.972Z</time></trkpt><trkpt lat="45.1173188" lon="1.3068123"><ele>213.0</ele><time>2026-04-02T09:51:46.971Z</time></trkpt><trkpt lat="45.1174545" lon="1.30671"><ele>212.0</ele><time>2026-04-02T09:51:47.971Z</time></trkpt><trkpt lat="45.1176025" lon="1.3065974"><ele>211.0</ele><time>2026-04-02T09:51:48.972Z</time></trkpt><trkpt lat="45.1177481" lon="1.3064784"><ele>209.0</ele><time>2026-04-02T09:51:49.971Z</time></trkpt><trkpt lat="45.1178895" lon="1.3063365"><ele>207.0</ele><time>2026-04-02T09:51:50.972Z</time></trkpt><trkpt lat="45.1180168" lon="1.3061651"><ele>205.0</ele><time>2026-04-02T09:51:51.971Z</time></trkpt><trkpt lat="45.1181231" lon="1.3059738"><ele>205.0</ele><time>2026-04-02T09:51:52.971Z</time></trkpt><trkpt lat="45.1182136" lon="1.3057795"><ele>205.0</ele><time>2026-04-02T09:51:53.971Z</time></trkpt><trkpt lat="45.1183055" lon="1.3055985"><ele>205.0</ele><time>2026-04-02T09:51:54.972Z</time></trkpt><trkpt lat="45.1184105" lon="1.3054477"><ele>203.33333333333331</ele><time>2026-04-02T09:51:55.972Z</time></trkpt><trkpt lat="45.1185311" lon="1.3053268"><ele>201.66666666666669</ele><time>2026-04-02T09:51:56.972Z</time></trkpt><trkpt lat="45.1186761" lon="1.3052274"><ele>200.0</ele><time>2026-04-02T09:51:57.971Z</time></trkpt><trkpt lat="45.1188383" lon="1.3051455"><ele>200.0</ele><time>2026-04-02T09:51:58.97Z</time></trkpt><trkpt lat="45.1190114" lon="1.3050657"><ele>200.0</ele><time>2026-04-02T09:51:59.971Z</time></trkpt><trkpt lat="45.1191809" lon="1.3049863"><ele>200.0</ele><time>2026-04-02T09:52:00.971Z</time></trkpt><trkpt lat="45.1193438" lon="1.3049076"><ele>199.66666666666669</ele><time>2026-04-02T09:52:01.97Z</time></trkpt><trkpt lat="45.1194979" lon="1.3048254"><ele>199.33333333333331</ele><time>2026-04-02T09:52:02.971Z</time></trkpt><trkpt lat="45.1196444" lon="1.3047416"><ele>199.0</ele><time>2026-04-02T09:52:03.972Z</time></trkpt><trkpt lat="45.1197866" lon="1.3046578"><ele>197.33333333333331</ele><time>2026-04-02T09:52:04.97Z</time></trkpt><trkpt lat="45.1199313" lon="1.3045796"><ele>195.66666666666669</ele><time>2026-04-02T09:52:05.971Z</time></trkpt><trkpt lat="45.1200822" lon="1.3045144"><ele>194.0</ele><time>2026-04-02T09:52:06.971Z</time></trkpt><trkpt lat="45.1202394" lon="1.3044821"><ele>194.0</ele><time>2026-04-02T09:52:07.972Z</time></trkpt><trkpt lat="45.1204007" lon="1.3044943"><ele>194.0</ele><time>2026-04-02T09:52:08.972Z</time></trkpt><trkpt lat="45.1205621" lon="1.3045415"><ele>194.0</ele><time>2026-04-02T09:52:09.971Z</time></trkpt><trkpt lat="45.1207231" lon="1.3046137"><ele>194.0</ele><time>2026-04-02T09:52:10.971Z</time></trkpt><trkpt lat="45.120877" lon="1.3047079"><ele>194.0</ele><time>2026-04-02T09:52:11.971Z</time></trkpt><trkpt lat="45.1210193" lon="1.3048133"><ele>194.0</ele><time>2026-04-02T09:52:12.972Z</time></trkpt><trkpt lat="45.1211608" lon="1.3049164"><ele>194.0</ele><time>2026-04-02T09:52:13.97Z</time></trkpt><trkpt lat="45.1213035" lon="1.3050183"><ele>194.0</ele><time>2026-04-02T09:52:14.972Z</time></trkpt><trkpt lat="45.1214416" lon="1.3051257"><ele>194.0</ele><time>2026-04-02T09:52:15.971Z</time></trkpt><trkpt lat="45.1215774" lon="1.3052331"><ele>191.5</ele><time>2026-04-02T09:52:16.971Z</time></trkpt><trkpt lat="45.1217077" lon="1.3053372"><ele>189.0</ele><time>2026-04-02T09:52:17.972Z</time></trkpt><trkpt lat="45.1218366" lon="1.3054352"><ele>186.5</ele><time>2026-04-02T09:52:18.972Z</time></trkpt><trkpt lat="45.1219349" lon="1.3055097"><ele>184.0</ele><time>2026-04-02T09:52:19.971Z</time></trkpt><trkpt lat="45.1220155" lon="1.3055628"><ele>184.0</ele><time>2026-04-02T09:52:20.971Z</time></trkpt><trkpt lat="45.1220854" lon="1.3055898"><ele>184.0</ele><time>2026-04-02T09:52:21.972Z</time></trkpt><trkpt lat="45.1221578" lon="1.3055669"><ele>184.0</ele><time>2026-04-02T09:52:23.971Z</time></trkpt><trkpt lat="45.1221639" lon="1.3054321"><ele>184.0</ele><time>2026-04-02T09:52:25.972Z</time></trkpt><trkpt lat="45.1221445" lon="1.3053076"><ele>184.0</ele><time>2026-04-02T09:52:26.972Z</time></trkpt><trkpt lat="45.1221284" lon="1.3051637"><ele>184.0</ele><time>2026-04-02T09:52:27.971Z</time></trkpt><trkpt lat="45.1221177" lon="1.3050073"><ele>184.0</ele><time>2026-04-02T09:52:28.971Z</time></trkpt><trkpt lat="45.1221078" lon="1.3048462"><ele>184.0</ele><time>2026-04-02T09:52:29.972Z</time></trkpt><trkpt lat="45.1220988" lon="1.3046992"><ele>184.0</ele><time>2026-04-02T09:52:30.972Z</time></trkpt><trkpt lat="45.1220848" lon="1.3045692"><ele>184.0</ele><time>2026-04-02T09:52:31.972Z</time></trkpt><trkpt lat="45.1220561" lon="1.3044585"><ele>184.0</ele><time>2026-04-02T09:52:32.971Z</time></trkpt><trkpt lat="45.1220023" lon="1.3043493"><ele>184.39999999999998</ele><time>2026-04-02T09:52:33.971Z</time></trkpt><trkpt lat="45.1219351" lon="1.3042488"><ele>184.8</ele><time>2026-04-02T09:52:34.97Z</time></trkpt><trkpt lat="45.1218637" lon="1.3041624"><ele>185.2</ele><time>2026-04-02T09:52:35.971Z</time></trkpt><trkpt lat="45.1218068" lon="1.3040922"><ele>185.60000000000002</ele><time>2026-04-02T09:52:36.971Z</time></trkpt><trkpt lat="45.1217694" lon="1.3039588"><ele>186.0</ele><time>2026-04-02T09:52:38.972Z</time></trkpt><trkpt lat="45.1218096" lon="1.3038108"><ele>188.4</ele><time>2026-04-02T09:52:40.972Z</time></trkpt><trkpt lat="45.121838" lon="1.3036613"><ele>190.8</ele><time>2026-04-02T09:52:42.972Z</time></trkpt><trkpt lat="45.1217455" lon="1.3035402"><ele>193.20000000000002</ele><time>2026-04-02T09:52:44.971Z</time></trkpt><trkpt lat="45.1216856" lon="1.3034819"><ele>195.60000000000002</ele><time>2026-04-02T09:52:45.971Z</time></trkpt><trkpt lat="45.1216301" lon="1.3034167"><ele>198.0</ele><time>2026-04-02T09:52:46.97Z</time></trkpt><trkpt lat="45.1215768" lon="1.3033221"><ele>198.4</ele><time>2026-04-02T09:52:47.971Z</time></trkpt><trkpt lat="45.1215256" lon="1.3032189"><ele>198.8</ele><time>2026-04-02T09:52:48.972Z</time></trkpt><trkpt lat="45.1214773" lon="1.3030958"><ele>199.2</ele><time>2026-04-02T09:52:49.971Z</time></trkpt><trkpt lat="45.1214318" lon="1.3029661"><ele>199.6</ele><time>2026-04-02T09:52:50.971Z</time></trkpt><trkpt lat="45.1213915" lon="1.3028405"><ele>200.0</ele><time>2026-04-02T09:52:51.97Z</time></trkpt><trkpt lat="45.1213569" lon="1.3027308"><ele>202.00000000000003</ele><time>2026-04-02T09:52:52.972Z</time></trkpt><trkpt lat="45.1213398" lon="1.3026438"><ele>204.0</ele><time>2026-04-02T09:52:53.971Z</time></trkpt><trkpt lat="45.1213677" lon="1.3024754"><ele>206.0</ele><time>2026-04-02T09:52:55.972Z</time></trkpt><trkpt lat="45.1213903" lon="1.3023908"><ele>208.0</ele><time>2026-04-02T09:52:56.971Z</time></trkpt><trkpt lat="45.1214152" lon="1.3023052"><ele>210.0</ele><time>2026-04-02T09:52:57.972Z</time></trkpt><trkpt lat="45.1214359" lon="1.3022193"><ele>212.00000000000003</ele><time>2026-04-02T09:52:58.971Z</time></trkpt><trkpt lat="45.1214447" lon="1.3021267"><ele>214.0</ele><time>2026-04-02T09:52:59.972Z</time></trkpt><trkpt lat="45.1214429" lon="1.3020206"><ele>214.66666666666666</ele><time>2026-04-02T09:53:00.972Z</time></trkpt><trkpt lat="45.1214244" lon="1.3019335"><ele>215.33333333333331</ele><time>2026-04-02T09:53:01.972Z</time></trkpt><trkpt lat="45.1213888" lon="1.3018571"><ele>216.0</ele><time>2026-04-02T09:53:02.972Z</time></trkpt><trkpt lat="45.121335" lon="1.3017772"><ele>216.66666666666669</ele><time>2026-04-02T09:53:03.972Z</time></trkpt><trkpt lat="45.1212793" lon="1.3016793"><ele>217.33333333333334</ele><time>2026-04-02T09:53:04.972Z</time></trkpt><trkpt lat="45.1212421" lon="1.301558"><ele>218.0</ele><time>2026-04-02T09:53:05.97Z</time></trkpt><trkpt lat="45.1212246" lon="1.3014292"><ele>217.0</ele><time>2026-04-02T09:53:06.97Z</time></trkpt><trkpt lat="45.1212138" lon="1.3012952"><ele>216.0</ele><time>2026-04-02T09:53:07.971Z</time></trkpt><trkpt lat="45.1211927" lon="1.3011691"><ele>215.0</ele><time>2026-04-02T09:53:08.972Z</time></trkpt><trkpt lat="45.1211569" lon="1.3010411"><ele>214.0</ele><time>2026-04-02T09:53:09.972Z</time></trkpt><trkpt lat="45.1211101" lon="1.300918"><ele>213.0</ele><time>2026-04-02T09:53:10.971Z</time></trkpt><trkpt lat="45.1210574" lon="1.3008006"><ele>213.0</ele><time>2026-04-02T09:53:11.971Z</time></trkpt><trkpt lat="45.121004" lon="1.3006846"><ele>213.0</ele><time>2026-04-02T09:53:12.972Z</time></trkpt><trkpt lat="45.120944" lon="1.3005736"><ele>213.0</ele><time>2026-04-02T09:53:13.972Z</time></trkpt><trkpt lat="45.1208687" lon="1.3004687"><ele>213.0</ele><time>2026-04-02T09:53:14.971Z</time></trkpt><trkpt lat="45.1207853" lon="1.3003704"><ele>213.0</ele><time>2026-04-02T09:53:15.971Z</time></trkpt><trkpt lat="45.1207017" lon="1.3002748"><ele>210.4</ele><time>2026-04-02T09:53:16.971Z</time></trkpt><trkpt lat="45.1206232" lon="1.3001718"><ele>207.8</ele><time>2026-04-02T09:53:17.971Z</time></trkpt><trkpt lat="45.1205539" lon="1.3000548"><ele>205.2</ele><time>2026-04-02T09:53:18.971Z</time></trkpt><trkpt lat="45.1204936" lon="1.2999288"><ele>202.6</ele><time>2026-04-02T09:53:19.971Z</time></trkpt><trkpt lat="45.1204285" lon="1.299809"><ele>200.0</ele><time>2026-04-02T09:53:20.971Z</time></trkpt><trkpt lat="45.1203521" lon="1.2997009"><ele>199.4</ele><time>2026-04-02T09:53:21.971Z</time></trkpt><trkpt lat="45.1202727" lon="1.2995912"><ele>198.8</ele><time>2026-04-02T09:53:22.972Z</time></trkpt><trkpt lat="45.1201904" lon="1.2994964"><ele>198.2</ele><time>2026-04-02T09:53:23.971Z</time></trkpt><trkpt lat="45.1201071" lon="1.2994147"><ele>197.6</ele><time>2026-04-02T09:53:24.97Z</time></trkpt><trkpt lat="45.1200359" lon="1.2993235"><ele>197.0</ele><time>2026-04-02T09:53:25.97Z</time></trkpt><trkpt lat="45.1199771" lon="1.2992296"><ele>197.00000000000003</ele><time>2026-04-02T09:53:26.972Z</time></trkpt><trkpt lat="45.1199075" lon="1.2991429"><ele>197.0</ele><time>2026-04-02T09:53:27.972Z</time></trkpt><trkpt lat="45.1198371" lon="1.2990688"><ele>197.0</ele><time>2026-04-02T09:53:28.972Z</time></trkpt><trkpt lat="45.1197683" lon="1.2989988"><ele>197.0</ele><time>2026-04-02T09:53:29.97Z</time></trkpt><trkpt lat="45.1196924" lon="1.2989436"><ele>197.00000000000003</ele><time>2026-04-02T09:53:30.971Z</time></trkpt><trkpt lat="45.1196044" lon="1.2989115"><ele>197.0</ele><time>2026-04-02T09:53:31.971Z</time></trkpt><trkpt lat="45.1195163" lon="1.2989048"><ele>199.0</ele><time>2026-04-02T09:53:32.971Z</time></trkpt><trkpt lat="45.1194204" lon="1.298917"><ele>201.0</ele><time>2026-04-02T09:53:33.972Z</time></trkpt><trkpt lat="45.1193189" lon="1.2989248"><ele>203.0</ele><time>2026-04-02T09:53:34.972Z</time></trkpt><trkpt lat="45.1192262" lon="1.2989213"><ele>205.0</ele><time>2026-04-02T09:53:35.971Z</time></trkpt><trkpt lat="45.1191335" lon="1.2989102"><ele>207.0</ele><time>2026-04-02T09:53:36.97Z</time></trkpt><trkpt lat="45.1190507" lon="1.2988792"><ele>208.83333333333334</ele><time>2026-04-02T09:53:37.971Z</time></trkpt><trkpt lat="45.1189651" lon="1.2988329"><ele>210.66666666666669</ele><time>2026-04-02T09:53:38.972Z</time></trkpt><trkpt lat="45.1188859" lon="1.2987836"><ele>212.5</ele><time>2026-04-02T09:53:39.972Z</time></trkpt><trkpt lat="45.1188161" lon="1.2987341"><ele>214.33333333333334</ele><time>2026-04-02T09:53:40.971Z</time></trkpt><trkpt lat="45.1187496" lon="1.2986753"><ele>216.16666666666669</ele><time>2026-04-02T09:53:41.971Z</time></trkpt><trkpt lat="45.1186804" lon="1.2986242"><ele>218.0</ele><time>2026-04-02T09:53:42.971Z</time></trkpt><trkpt lat="45.1186231" lon="1.2985845"><ele>218.00000000000003</ele><time>2026-04-02T09:53:43.971Z</time></trkpt><trkpt lat="45.1185457" lon="1.2985129"><ele>218.0</ele><time>2026-04-02T09:53:45.971Z</time></trkpt><trkpt lat="45.1185141" lon="1.2984176"><ele>218.0</ele><time>2026-04-02T09:53:47.971Z</time></trkpt><trkpt lat="45.1184928" lon="1.2982929"><ele>218.0</ele><time>2026-04-02T09:53:49.971Z</time></trkpt><trkpt lat="45.1185185" lon="1.2981733"><ele>218.00000000000003</ele><time>2026-04-02T09:53:51.972Z</time></trkpt><trkpt lat="45.1185578" lon="1.2980771"><ele>218.0</ele><time>2026-04-02T09:53:53.97Z</time></trkpt><trkpt lat="45.1185987" lon="1.2979872"><ele>218.0</ele><time>2026-04-02T09:53:55.971Z</time></trkpt><trkpt lat="45.1186435" lon="1.2979142"><ele>218.0</ele><time>2026-04-02T09:53:57.972Z</time></trkpt><trkpt lat="45.1186911" lon="1.2978308"><ele>218.0</ele><time>2026-04-02T09:53:59.971Z</time></trkpt><trkpt lat="45.1187422" lon="1.2977572"><ele>218.0</ele><time>2026-04-02T09:54:01.971Z</time></trkpt><trkpt lat="45.1187722" lon="1.2976701"><ele>218.0</ele><time>2026-04-02T09:54:03.971Z</time></trkpt><trkpt lat="45.1187369" lon="1.2975657"><ele>218.0</ele><time>2026-04-02T09:54:06.972Z</time></trkpt><trkpt lat="45.118774" lon="1.2976659"><ele>218.0</ele><time>2026-04-02T09:55:24.971Z</time></trkpt><trkpt lat="45.1187636" lon="1.2977561"><ele>218.0</ele><time>2026-04-02T09:55:26.972Z</time></trkpt><trkpt lat="45.1186865" lon="1.2978005"><ele>218.0</ele><time>2026-04-02T09:55:29.972Z</time></trkpt></trkseg></trk></gpx>